<?xml version="1.0" encoding="UTF-8" standalone="no" ?>
<gpx xmlns="http://www.topografix.com/GPX/1/1" xmlns:xsi="http://www.w3.org/2001/XMLSchema-instance" xsi:schemaLocation="http://www.topografix.com/GPX/1/1 http://www.topografix.com/GPX/1/1/gpx.xsd" version="1.1" creator="VisuGPX - https://www.visugpx.com">
  <metadata>
    <name>St Jean aux Amognes </name>
    <desc><![CDATA[de l'eau dans les champs et les bois mais très agréable ]]></desc>
  </metadata>
  <trk>
    <name><![CDATA[St Jean aux Amognes _1]]></name>
    <trkseg>
      <trkpt lat="47.01526" lon="3.33458">
        <ele>246.47955322266</ele>
        <time>2016-03-02T12:47:08.000Z</time>
      </trkpt>
      <trkpt lat="47.01521" lon="3.33453">
        <ele>246.45794677734</ele>
        <time>2016-03-02T12:47:15.000Z</time>
      </trkpt>
      <trkpt lat="47.01519" lon="3.33453">
        <ele>246.43388366699</ele>
        <time>2016-03-02T12:47:17.000Z</time>
      </trkpt>
      <trkpt lat="47.01515" lon="3.33453">
        <ele>246.40270996094</ele>
        <time>2016-03-02T12:47:19.000Z</time>
      </trkpt>
      <trkpt lat="47.0151" lon="3.33455">
        <ele>246.36083984375</ele>
        <time>2016-03-02T12:47:20.000Z</time>
      </trkpt>
      <trkpt lat="47.01505" lon="3.33457">
        <ele>246.28262329102</ele>
        <time>2016-03-02T12:47:20.000Z</time>
      </trkpt>
      <trkpt lat="47.01502" lon="3.33457">
        <ele>246.20230102539</ele>
        <time>2016-03-02T12:47:21.000Z</time>
      </trkpt>
      <trkpt lat="47.015" lon="3.33458">
        <ele>246.12605285645</ele>
        <time>2016-03-02T12:47:21.000Z</time>
      </trkpt>
      <trkpt lat="47.015" lon="3.33459">
        <ele>246.05874633789</ele>
        <time>2016-03-02T12:47:22.000Z</time>
      </trkpt>
      <trkpt lat="47.01497" lon="3.33461">
        <ele>245.99116516113</ele>
        <time>2016-03-02T12:47:22.000Z</time>
      </trkpt>
      <trkpt lat="47.01493" lon="3.33463">
        <ele>245.90939331055</ele>
        <time>2016-03-02T12:47:22.000Z</time>
      </trkpt>
      <trkpt lat="47.0149" lon="3.33464">
        <ele>245.81103515625</ele>
        <time>2016-03-02T12:47:24.000Z</time>
      </trkpt>
      <trkpt lat="47.01488" lon="3.33464">
        <ele>245.69921875</ele>
        <time>2016-03-02T12:47:24.000Z</time>
      </trkpt>
      <trkpt lat="47.01487" lon="3.33466">
        <ele>245.57421875</ele>
        <time>2016-03-02T12:47:24.000Z</time>
      </trkpt>
      <trkpt lat="47.01484" lon="3.33467">
        <ele>245.44921875</ele>
        <time>2016-03-02T12:47:25.000Z</time>
      </trkpt>
      <trkpt lat="47.01481" lon="3.33469">
        <ele>245.33203125</ele>
        <time>2016-03-02T12:47:25.000Z</time>
      </trkpt>
      <trkpt lat="47.01479" lon="3.3347">
        <ele>245.2265625</ele>
        <time>2016-03-02T12:47:26.000Z</time>
      </trkpt>
      <trkpt lat="47.01478" lon="3.33472">
        <ele>245.12890625</ele>
        <time>2016-03-02T12:47:26.000Z</time>
      </trkpt>
      <trkpt lat="47.01477" lon="3.33474">
        <ele>245.03515625</ele>
        <time>2016-03-02T12:47:26.000Z</time>
      </trkpt>
      <trkpt lat="47.01474" lon="3.33479">
        <ele>244.94140625</ele>
        <time>2016-03-02T12:47:26.000Z</time>
      </trkpt>
      <trkpt lat="47.01473" lon="3.33481">
        <ele>244.86328125</ele>
        <time>2016-03-02T12:47:28.000Z</time>
      </trkpt>
      <trkpt lat="47.0147" lon="3.33484">
        <ele>244.76953125</ele>
        <time>2016-03-02T12:47:43.000Z</time>
      </trkpt>
      <trkpt lat="47.01468" lon="3.33486">
        <ele>244.671875</ele>
        <time>2016-03-02T12:47:52.000Z</time>
      </trkpt>
      <trkpt lat="47.01466" lon="3.33486">
        <ele>244.57421875</ele>
        <time>2016-03-02T12:47:52.000Z</time>
      </trkpt>
      <trkpt lat="47.01464" lon="3.33489">
        <ele>244.48046875</ele>
        <time>2016-03-02T12:47:56.000Z</time>
      </trkpt>
      <trkpt lat="47.01462" lon="3.3349">
        <ele>244.37109375</ele>
        <time>2016-03-02T12:47:56.000Z</time>
      </trkpt>
      <trkpt lat="47.0146" lon="3.33491">
        <ele>244.2734375</ele>
        <time>2016-03-02T12:47:56.000Z</time>
      </trkpt>
      <trkpt lat="47.01456" lon="3.33493">
        <ele>244.16015625</ele>
        <time>2016-03-02T12:47:56.000Z</time>
      </trkpt>
      <trkpt lat="47.01453" lon="3.33495">
        <ele>244.02734375</ele>
        <time>2016-03-02T12:48:01.000Z</time>
      </trkpt>
      <trkpt lat="47.01448" lon="3.33496">
        <ele>243.875</ele>
        <time>2016-03-02T12:48:02.000Z</time>
      </trkpt>
      <trkpt lat="47.01443" lon="3.33498">
        <ele>243.703125</ele>
        <time>2016-03-02T12:48:03.000Z</time>
      </trkpt>
      <trkpt lat="47.0144" lon="3.33498">
        <ele>243.51171875</ele>
        <time>2016-03-02T12:48:08.000Z</time>
      </trkpt>
      <trkpt lat="47.01437" lon="3.33498">
        <ele>243.328125</ele>
        <time>2016-03-02T12:48:08.000Z</time>
      </trkpt>
      <trkpt lat="47.01434" lon="3.33499">
        <ele>243.1484375</ele>
        <time>2016-03-02T12:48:09.000Z</time>
      </trkpt>
      <trkpt lat="47.01432" lon="3.33499">
        <ele>242.98828125</ele>
        <time>2016-03-02T12:48:10.000Z</time>
      </trkpt>
      <trkpt lat="47.01429" lon="3.33499">
        <ele>242.84765625</ele>
        <time>2016-03-02T12:48:10.000Z</time>
      </trkpt>
      <trkpt lat="47.01425" lon="3.33499">
        <ele>242.70703125</ele>
        <time>2016-03-02T12:48:11.000Z</time>
      </trkpt>
      <trkpt lat="47.01422" lon="3.33499">
        <ele>242.5625</ele>
        <time>2016-03-02T12:48:13.000Z</time>
      </trkpt>
      <trkpt lat="47.01418" lon="3.33499">
        <ele>242.4140625</ele>
        <time>2016-03-02T12:48:16.000Z</time>
      </trkpt>
      <trkpt lat="47.01415" lon="3.33499">
        <ele>242.27241516113</ele>
        <time>2016-03-02T12:48:18.000Z</time>
      </trkpt>
      <trkpt lat="47.01411" lon="3.33499">
        <ele>242.16572570801</ele>
        <time>2016-03-02T12:48:21.000Z</time>
      </trkpt>
      <trkpt lat="47.01408" lon="3.335">
        <ele>242.10708618164</ele>
        <time>2016-03-02T12:48:24.000Z</time>
      </trkpt>
      <trkpt lat="47.01405" lon="3.33501">
        <ele>242.08267211914</ele>
        <time>2016-03-02T12:48:26.000Z</time>
      </trkpt>
      <trkpt lat="47.01401" lon="3.33502">
        <ele>242.10598754883</ele>
        <time>2016-03-02T12:48:29.000Z</time>
      </trkpt>
      <trkpt lat="47.01397" lon="3.33503">
        <ele>242.15005493164</ele>
        <time>2016-03-02T12:48:31.000Z</time>
      </trkpt>
      <trkpt lat="47.01395" lon="3.33504">
        <ele>242.19223022461</ele>
        <time>2016-03-02T12:48:33.000Z</time>
      </trkpt>
      <trkpt lat="47.01391" lon="3.33505">
        <ele>242.23342895508</ele>
        <time>2016-03-02T12:48:36.000Z</time>
      </trkpt>
      <trkpt lat="47.01389" lon="3.33506">
        <ele>242.27238464355</ele>
        <time>2016-03-02T12:48:38.000Z</time>
      </trkpt>
      <trkpt lat="47.01387" lon="3.33507">
        <ele>242.30236816406</ele>
        <time>2016-03-02T12:48:40.000Z</time>
      </trkpt>
      <trkpt lat="47.01382" lon="3.33509">
        <ele>242.33142089844</ele>
        <time>2016-03-02T12:48:43.000Z</time>
      </trkpt>
      <trkpt lat="47.01379" lon="3.33509">
        <ele>242.36018371582</ele>
        <time>2016-03-02T12:48:46.000Z</time>
      </trkpt>
      <trkpt lat="47.01375" lon="3.33511">
        <ele>242.38436889648</ele>
        <time>2016-03-02T12:48:49.000Z</time>
      </trkpt>
      <trkpt lat="47.01371" lon="3.33512">
        <ele>242.40951538086</ele>
        <time>2016-03-02T12:48:52.000Z</time>
      </trkpt>
      <trkpt lat="47.01367" lon="3.33512">
        <ele>242.43473815918</ele>
        <time>2016-03-02T12:48:55.000Z</time>
      </trkpt>
      <trkpt lat="47.01363" lon="3.33513">
        <ele>242.45748901367</ele>
        <time>2016-03-02T12:48:58.000Z</time>
      </trkpt>
      <trkpt lat="47.01361" lon="3.33513">
        <ele>242.4759979248</ele>
        <time>2016-03-02T12:49:00.000Z</time>
      </trkpt>
      <trkpt lat="47.01359" lon="3.33513">
        <ele>242.49417114258</ele>
        <time>2016-03-02T12:49:02.000Z</time>
      </trkpt>
      <trkpt lat="47.01355" lon="3.33513">
        <ele>242.51098632812</ele>
        <time>2016-03-02T12:49:05.000Z</time>
      </trkpt>
      <trkpt lat="47.01353" lon="3.33515">
        <ele>242.52355957031</ele>
        <time>2016-03-02T12:49:07.000Z</time>
      </trkpt>
      <trkpt lat="47.01349" lon="3.33516">
        <ele>242.53213500977</ele>
        <time>2016-03-02T12:49:10.000Z</time>
      </trkpt>
      <trkpt lat="47.01345" lon="3.33517">
        <ele>242.53659057617</ele>
        <time>2016-03-02T12:49:13.000Z</time>
      </trkpt>
      <trkpt lat="47.01342" lon="3.33519">
        <ele>242.53312683105</ele>
        <time>2016-03-02T12:49:16.000Z</time>
      </trkpt>
      <trkpt lat="47.01339" lon="3.3352">
        <ele>242.52221679688</ele>
        <time>2016-03-02T12:49:19.000Z</time>
      </trkpt>
      <trkpt lat="47.01337" lon="3.3352">
        <ele>242.51513671875</ele>
        <time>2016-03-02T12:49:21.000Z</time>
      </trkpt>
      <trkpt lat="47.01335" lon="3.3352">
        <ele>242.50869750977</ele>
        <time>2016-03-02T12:49:24.000Z</time>
      </trkpt>
      <trkpt lat="47.01333" lon="3.3352">
        <ele>242.51388549805</ele>
        <time>2016-03-02T12:49:25.000Z</time>
      </trkpt>
      <trkpt lat="47.0133" lon="3.33519">
        <ele>242.57510375977</ele>
        <time>2016-03-02T12:49:28.000Z</time>
      </trkpt>
      <trkpt lat="47.01328" lon="3.33518">
        <ele>242.67318725586</ele>
        <time>2016-03-02T12:49:30.000Z</time>
      </trkpt>
      <trkpt lat="47.01325" lon="3.33518">
        <ele>242.80366516113</ele>
        <time>2016-03-02T12:49:32.000Z</time>
      </trkpt>
      <trkpt lat="47.01323" lon="3.33519">
        <ele>242.97116088867</ele>
        <time>2016-03-02T12:49:34.000Z</time>
      </trkpt>
      <trkpt lat="47.0132" lon="3.3352">
        <ele>243.15731811523</ele>
        <time>2016-03-02T12:49:37.000Z</time>
      </trkpt>
      <trkpt lat="47.01318" lon="3.33521">
        <ele>243.33125305176</ele>
        <time>2016-03-02T12:49:40.000Z</time>
      </trkpt>
      <trkpt lat="47.01314" lon="3.33521">
        <ele>243.52751159668</ele>
        <time>2016-03-02T12:49:43.000Z</time>
      </trkpt>
      <trkpt lat="47.01312" lon="3.33521">
        <ele>243.71664428711</ele>
        <time>2016-03-02T12:49:46.000Z</time>
      </trkpt>
      <trkpt lat="47.01311" lon="3.33522">
        <ele>243.88070678711</ele>
        <time>2016-03-02T12:49:48.000Z</time>
      </trkpt>
      <trkpt lat="47.01308" lon="3.33525">
        <ele>244.04878234863</ele>
        <time>2016-03-02T12:49:51.000Z</time>
      </trkpt>
      <trkpt lat="47.01305" lon="3.33527">
        <ele>244.21415710449</ele>
        <time>2016-03-02T12:49:53.000Z</time>
      </trkpt>
      <trkpt lat="47.01301" lon="3.33529">
        <ele>244.37744140625</ele>
        <time>2016-03-02T12:49:56.000Z</time>
      </trkpt>
      <trkpt lat="47.01298" lon="3.33529">
        <ele>244.55471801758</ele>
        <time>2016-03-02T12:49:58.000Z</time>
      </trkpt>
      <trkpt lat="47.01297" lon="3.33529">
        <ele>244.73779296875</ele>
        <time>2016-03-02T12:50:00.000Z</time>
      </trkpt>
      <trkpt lat="47.01294" lon="3.33529">
        <ele>244.927734375</ele>
        <time>2016-03-02T12:50:03.000Z</time>
      </trkpt>
      <trkpt lat="47.01292" lon="3.33529">
        <ele>245.11006164551</ele>
        <time>2016-03-02T12:50:05.000Z</time>
      </trkpt>
      <trkpt lat="47.01289" lon="3.33531">
        <ele>245.27795410156</ele>
        <time>2016-03-02T12:50:08.000Z</time>
      </trkpt>
      <trkpt lat="47.01288" lon="3.33531">
        <ele>245.42607116699</ele>
        <time>2016-03-02T12:50:10.000Z</time>
      </trkpt>
      <trkpt lat="47.01287" lon="3.33531">
        <ele>245.57450866699</ele>
        <time>2016-03-02T12:50:12.000Z</time>
      </trkpt>
      <trkpt lat="47.01285" lon="3.33531">
        <ele>245.70983886719</ele>
        <time>2016-03-02T12:50:15.000Z</time>
      </trkpt>
      <trkpt lat="47.01283" lon="3.3353">
        <ele>245.84916687012</ele>
        <time>2016-03-02T12:50:18.000Z</time>
      </trkpt>
      <trkpt lat="47.01281" lon="3.33531">
        <ele>245.98527526855</ele>
        <time>2016-03-02T12:50:21.000Z</time>
      </trkpt>
      <trkpt lat="47.01279" lon="3.33531">
        <ele>246.12850952148</ele>
        <time>2016-03-02T12:50:23.000Z</time>
      </trkpt>
      <trkpt lat="47.01277" lon="3.33531">
        <ele>246.27102661133</ele>
        <time>2016-03-02T12:50:26.000Z</time>
      </trkpt>
      <trkpt lat="47.01276" lon="3.33531">
        <ele>246.41491699219</ele>
        <time>2016-03-02T12:50:28.000Z</time>
      </trkpt>
      <trkpt lat="47.01274" lon="3.33531">
        <ele>246.55757141113</ele>
        <time>2016-03-02T12:50:31.000Z</time>
      </trkpt>
      <trkpt lat="47.01271" lon="3.33531">
        <ele>246.69497680664</ele>
        <time>2016-03-02T12:50:34.000Z</time>
      </trkpt>
      <trkpt lat="47.0127" lon="3.33531">
        <ele>246.8257598877</ele>
        <time>2016-03-02T12:50:37.000Z</time>
      </trkpt>
      <trkpt lat="47.01268" lon="3.33532">
        <ele>246.97177124023</ele>
        <time>2016-03-02T12:50:40.000Z</time>
      </trkpt>
      <trkpt lat="47.01263" lon="3.33533">
        <ele>247.15132141113</ele>
        <time>2016-03-02T12:50:43.000Z</time>
      </trkpt>
      <trkpt lat="47.0126" lon="3.33533">
        <ele>247.34504699707</ele>
        <time>2016-03-02T12:50:46.000Z</time>
      </trkpt>
      <trkpt lat="47.01259" lon="3.33533">
        <ele>247.53266906738</ele>
        <time>2016-03-02T12:50:48.000Z</time>
      </trkpt>
      <trkpt lat="47.01256" lon="3.33533">
        <ele>247.73945617676</ele>
        <time>2016-03-02T12:50:50.000Z</time>
      </trkpt>
      <trkpt lat="47.01254" lon="3.33534">
        <ele>247.9418182373</ele>
        <time>2016-03-02T12:50:52.000Z</time>
      </trkpt>
      <trkpt lat="47.01252" lon="3.33535">
        <ele>248.11965942383</ele>
        <time>2016-03-02T12:50:54.000Z</time>
      </trkpt>
      <trkpt lat="47.01249" lon="3.33535">
        <ele>248.28923034668</ele>
        <time>2016-03-02T12:50:57.000Z</time>
      </trkpt>
      <trkpt lat="47.01246" lon="3.33535">
        <ele>248.45442199707</ele>
        <time>2016-03-02T12:51:00.000Z</time>
      </trkpt>
      <trkpt lat="47.01244" lon="3.33536">
        <ele>248.5941619873</ele>
        <time>2016-03-02T12:51:04.000Z</time>
      </trkpt>
      <trkpt lat="47.01242" lon="3.33537">
        <ele>248.71835327148</ele>
        <time>2016-03-02T12:51:05.000Z</time>
      </trkpt>
      <trkpt lat="47.01239" lon="3.33539">
        <ele>248.82341003418</ele>
        <time>2016-03-02T12:51:08.000Z</time>
      </trkpt>
      <trkpt lat="47.01237" lon="3.33541">
        <ele>248.90995788574</ele>
        <time>2016-03-02T12:51:11.000Z</time>
      </trkpt>
      <trkpt lat="47.01233" lon="3.33543">
        <ele>249.00346374512</ele>
        <time>2016-03-02T12:51:14.000Z</time>
      </trkpt>
      <trkpt lat="47.01229" lon="3.33544">
        <ele>249.09976196289</ele>
        <time>2016-03-02T12:51:17.000Z</time>
      </trkpt>
      <trkpt lat="47.01228" lon="3.33544">
        <ele>249.19540405273</ele>
        <time>2016-03-02T12:51:19.000Z</time>
      </trkpt>
      <trkpt lat="47.01226" lon="3.33544">
        <ele>249.29130554199</ele>
        <time>2016-03-02T12:51:21.000Z</time>
      </trkpt>
      <trkpt lat="47.01223" lon="3.33545">
        <ele>249.38700866699</ele>
        <time>2016-03-02T12:51:23.000Z</time>
      </trkpt>
      <trkpt lat="47.0122" lon="3.33546">
        <ele>249.48449707031</ele>
        <time>2016-03-02T12:51:26.000Z</time>
      </trkpt>
      <trkpt lat="47.01218" lon="3.33546">
        <ele>249.580078125</ele>
        <time>2016-03-02T12:51:28.000Z</time>
      </trkpt>
      <trkpt lat="47.01215" lon="3.33546">
        <ele>249.68286132812</ele>
        <time>2016-03-02T12:51:31.000Z</time>
      </trkpt>
      <trkpt lat="47.01212" lon="3.33546">
        <ele>249.7961730957</ele>
        <time>2016-03-02T12:51:34.000Z</time>
      </trkpt>
      <trkpt lat="47.0121" lon="3.33547">
        <ele>249.90180969238</ele>
        <time>2016-03-02T12:51:36.000Z</time>
      </trkpt>
      <trkpt lat="47.01207" lon="3.33549">
        <ele>249.99584960938</ele>
        <time>2016-03-02T12:51:39.000Z</time>
      </trkpt>
      <trkpt lat="47.01205" lon="3.3355">
        <ele>250.08474731445</ele>
        <time>2016-03-02T12:51:41.000Z</time>
      </trkpt>
      <trkpt lat="47.01202" lon="3.33551">
        <ele>250.1780090332</ele>
        <time>2016-03-02T12:51:44.000Z</time>
      </trkpt>
      <trkpt lat="47.01199" lon="3.33551">
        <ele>250.25942993164</ele>
        <time>2016-03-02T12:51:46.000Z</time>
      </trkpt>
      <trkpt lat="47.01196" lon="3.33551">
        <ele>250.35946655273</ele>
        <time>2016-03-02T12:51:48.000Z</time>
      </trkpt>
      <trkpt lat="47.01192" lon="3.33551">
        <ele>250.47250366211</ele>
        <time>2016-03-02T12:51:51.000Z</time>
      </trkpt>
      <trkpt lat="47.01189" lon="3.33551">
        <ele>250.59761047363</ele>
        <time>2016-03-02T12:51:53.000Z</time>
      </trkpt>
      <trkpt lat="47.01188" lon="3.3355">
        <ele>250.71353149414</ele>
        <time>2016-03-02T12:51:55.000Z</time>
      </trkpt>
      <trkpt lat="47.01186" lon="3.3355">
        <ele>250.82861328125</ele>
        <time>2016-03-02T12:51:58.000Z</time>
      </trkpt>
      <trkpt lat="47.01184" lon="3.3355">
        <ele>250.93428039551</ele>
        <time>2016-03-02T12:52:01.000Z</time>
      </trkpt>
      <trkpt lat="47.01182" lon="3.33549">
        <ele>251.02445983887</ele>
        <time>2016-03-02T12:52:03.000Z</time>
      </trkpt>
      <trkpt lat="47.0118" lon="3.33548">
        <ele>251.10800170898</ele>
        <time>2016-03-02T12:52:05.000Z</time>
      </trkpt>
      <trkpt lat="47.01177" lon="3.33548">
        <ele>251.20523071289</ele>
        <time>2016-03-02T12:52:08.000Z</time>
      </trkpt>
      <trkpt lat="47.01174" lon="3.33548">
        <ele>251.31130981445</ele>
        <time>2016-03-02T12:52:11.000Z</time>
      </trkpt>
      <trkpt lat="47.0117" lon="3.33547">
        <ele>251.43534851074</ele>
        <time>2016-03-02T12:52:14.000Z</time>
      </trkpt>
      <trkpt lat="47.01168" lon="3.33546">
        <ele>251.56875610352</ele>
        <time>2016-03-02T12:52:16.000Z</time>
      </trkpt>
      <trkpt lat="47.01164" lon="3.33545">
        <ele>251.69589233398</ele>
        <time>2016-03-02T12:52:19.000Z</time>
      </trkpt>
      <trkpt lat="47.0116" lon="3.33543">
        <ele>251.80114746094</ele>
        <time>2016-03-02T12:52:22.000Z</time>
      </trkpt>
      <trkpt lat="47.01158" lon="3.33542">
        <ele>251.88989257812</ele>
        <time>2016-03-02T12:52:24.000Z</time>
      </trkpt>
      <trkpt lat="47.01155" lon="3.3354">
        <ele>251.95373535156</ele>
        <time>2016-03-02T12:52:27.000Z</time>
      </trkpt>
      <trkpt lat="47.01152" lon="3.33539">
        <ele>251.99868774414</ele>
        <time>2016-03-02T12:52:30.000Z</time>
      </trkpt>
      <trkpt lat="47.0115" lon="3.33538">
        <ele>252.03817749023</ele>
        <time>2016-03-02T12:52:33.000Z</time>
      </trkpt>
      <trkpt lat="47.01149" lon="3.33537">
        <ele>252.07475280762</ele>
        <time>2016-03-02T12:52:35.000Z</time>
      </trkpt>
      <trkpt lat="47.01146" lon="3.33536">
        <ele>252.11367797852</ele>
        <time>2016-03-02T12:52:38.000Z</time>
      </trkpt>
      <trkpt lat="47.01143" lon="3.33534">
        <ele>252.15072631836</ele>
        <time>2016-03-02T12:52:41.000Z</time>
      </trkpt>
      <trkpt lat="47.01142" lon="3.33533">
        <ele>252.18862915039</ele>
        <time>2016-03-02T12:52:43.000Z</time>
      </trkpt>
      <trkpt lat="47.0114" lon="3.33531">
        <ele>252.23037719727</ele>
        <time>2016-03-02T12:52:45.000Z</time>
      </trkpt>
      <trkpt lat="47.01138" lon="3.3353">
        <ele>252.27749633789</ele>
        <time>2016-03-02T12:52:48.000Z</time>
      </trkpt>
      <trkpt lat="47.01136" lon="3.33529">
        <ele>252.32138061523</ele>
        <time>2016-03-02T12:52:51.000Z</time>
      </trkpt>
      <trkpt lat="47.01132" lon="3.33529">
        <ele>252.36108398438</ele>
        <time>2016-03-02T12:52:54.000Z</time>
      </trkpt>
      <trkpt lat="47.0113" lon="3.33528">
        <ele>252.40046691895</ele>
        <time>2016-03-02T12:52:56.000Z</time>
      </trkpt>
      <trkpt lat="47.01126" lon="3.33528">
        <ele>252.43319702148</ele>
        <time>2016-03-02T12:52:59.000Z</time>
      </trkpt>
      <trkpt lat="47.01123" lon="3.33528">
        <ele>252.45907592773</ele>
        <time>2016-03-02T12:53:02.000Z</time>
      </trkpt>
      <trkpt lat="47.0112" lon="3.33528">
        <ele>252.48320007324</ele>
        <time>2016-03-02T12:53:05.000Z</time>
      </trkpt>
      <trkpt lat="47.01117" lon="3.33528">
        <ele>252.50247192383</ele>
        <time>2016-03-02T12:53:08.000Z</time>
      </trkpt>
      <trkpt lat="47.01111" lon="3.33528">
        <ele>252.51628112793</ele>
        <time>2016-03-02T12:53:11.000Z</time>
      </trkpt>
      <trkpt lat="47.01108" lon="3.33527">
        <ele>252.54208374023</ele>
        <time>2016-03-02T12:53:14.000Z</time>
      </trkpt>
      <trkpt lat="47.01105" lon="3.33526">
        <ele>252.57235717773</ele>
        <time>2016-03-02T12:53:16.000Z</time>
      </trkpt>
      <trkpt lat="47.01101" lon="3.33525">
        <ele>252.60884094238</ele>
        <time>2016-03-02T12:53:19.000Z</time>
      </trkpt>
      <trkpt lat="47.01097" lon="3.33525">
        <ele>252.65202331543</ele>
        <time>2016-03-02T12:53:22.000Z</time>
      </trkpt>
      <trkpt lat="47.01095" lon="3.33525">
        <ele>252.69367980957</ele>
        <time>2016-03-02T12:53:25.000Z</time>
      </trkpt>
      <trkpt lat="47.01091" lon="3.33526">
        <ele>252.71635437012</ele>
        <time>2016-03-02T12:53:28.000Z</time>
      </trkpt>
      <trkpt lat="47.01088" lon="3.33528">
        <ele>252.71206665039</ele>
        <time>2016-03-02T12:53:31.000Z</time>
      </trkpt>
      <trkpt lat="47.01086" lon="3.33529">
        <ele>252.69473266602</ele>
        <time>2016-03-02T12:53:33.000Z</time>
      </trkpt>
      <trkpt lat="47.01083" lon="3.3353">
        <ele>252.65609741211</ele>
        <time>2016-03-02T12:53:36.000Z</time>
      </trkpt>
      <trkpt lat="47.01079" lon="3.33532">
        <ele>252.65669250488</ele>
        <time>2016-03-02T12:53:39.000Z</time>
      </trkpt>
      <trkpt lat="47.01076" lon="3.33531">
        <ele>252.6962890625</ele>
        <time>2016-03-02T12:53:42.000Z</time>
      </trkpt>
      <trkpt lat="47.01073" lon="3.33532">
        <ele>252.78817749023</ele>
        <time>2016-03-02T12:53:45.000Z</time>
      </trkpt>
      <trkpt lat="47.01072" lon="3.33532">
        <ele>252.89433288574</ele>
        <time>2016-03-02T12:53:47.000Z</time>
      </trkpt>
      <trkpt lat="47.01068" lon="3.33535">
        <ele>253.01736450195</ele>
        <time>2016-03-02T12:53:50.000Z</time>
      </trkpt>
      <trkpt lat="47.01065" lon="3.33535">
        <ele>253.13447570801</ele>
        <time>2016-03-02T12:53:53.000Z</time>
      </trkpt>
      <trkpt lat="47.01063" lon="3.33535">
        <ele>253.24491882324</ele>
        <time>2016-03-02T12:53:55.000Z</time>
      </trkpt>
      <trkpt lat="47.0106" lon="3.33533">
        <ele>253.3812713623</ele>
        <time>2016-03-02T12:53:58.000Z</time>
      </trkpt>
      <trkpt lat="47.01057" lon="3.33532">
        <ele>253.54370117188</ele>
        <time>2016-03-02T12:54:01.000Z</time>
      </trkpt>
      <trkpt lat="47.01056" lon="3.33533">
        <ele>253.71562194824</ele>
        <time>2016-03-02T12:54:03.000Z</time>
      </trkpt>
      <trkpt lat="47.01054" lon="3.33534">
        <ele>253.87036132812</ele>
        <time>2016-03-02T12:54:06.000Z</time>
      </trkpt>
      <trkpt lat="47.01051" lon="3.33534">
        <ele>254.01997375488</ele>
        <time>2016-03-02T12:54:09.000Z</time>
      </trkpt>
      <trkpt lat="47.01048" lon="3.33534">
        <ele>254.1435546875</ele>
        <time>2016-03-02T12:54:12.000Z</time>
      </trkpt>
      <trkpt lat="47.01045" lon="3.33536">
        <ele>254.24502563477</ele>
        <time>2016-03-02T12:54:15.000Z</time>
      </trkpt>
      <trkpt lat="47.01041" lon="3.3354">
        <ele>254.32255554199</ele>
        <time>2016-03-02T12:54:18.000Z</time>
      </trkpt>
      <trkpt lat="47.0104" lon="3.33543">
        <ele>254.35073852539</ele>
        <time>2016-03-02T12:54:21.000Z</time>
      </trkpt>
      <trkpt lat="47.01037" lon="3.33547">
        <ele>254.33361816406</ele>
        <time>2016-03-02T12:54:24.000Z</time>
      </trkpt>
      <trkpt lat="47.01035" lon="3.33549">
        <ele>254.27702331543</ele>
        <time>2016-03-02T12:54:26.000Z</time>
      </trkpt>
      <trkpt lat="47.01032" lon="3.33552">
        <ele>254.19119262695</ele>
        <time>2016-03-02T12:54:29.000Z</time>
      </trkpt>
      <trkpt lat="47.0103" lon="3.33553">
        <ele>254.11921691895</ele>
        <time>2016-03-02T12:54:30.000Z</time>
      </trkpt>
      <trkpt lat="47.01028" lon="3.33555">
        <ele>254.07958984375</ele>
        <time>2016-03-02T12:54:32.000Z</time>
      </trkpt>
      <trkpt lat="47.01023" lon="3.33555">
        <ele>254.09609985352</ele>
        <time>2016-03-02T12:54:35.000Z</time>
      </trkpt>
      <trkpt lat="47.01021" lon="3.33555">
        <ele>254.1442565918</ele>
        <time>2016-03-02T12:54:37.000Z</time>
      </trkpt>
      <trkpt lat="47.01018" lon="3.33557">
        <ele>254.20951843262</ele>
        <time>2016-03-02T12:54:40.000Z</time>
      </trkpt>
      <trkpt lat="47.01016" lon="3.33558">
        <ele>254.2643737793</ele>
        <time>2016-03-02T12:54:42.000Z</time>
      </trkpt>
      <trkpt lat="47.01013" lon="3.3356">
        <ele>254.32939147949</ele>
        <time>2016-03-02T12:54:45.000Z</time>
      </trkpt>
      <trkpt lat="47.01011" lon="3.33562">
        <ele>254.3493347168</ele>
        <time>2016-03-02T12:54:47.000Z</time>
      </trkpt>
      <trkpt lat="47.01009" lon="3.33563">
        <ele>254.33720397949</ele>
        <time>2016-03-02T12:54:50.000Z</time>
      </trkpt>
      <trkpt lat="47.01008" lon="3.33565">
        <ele>254.30265808105</ele>
        <time>2016-03-02T12:54:53.000Z</time>
      </trkpt>
      <trkpt lat="47.01007" lon="3.33566">
        <ele>254.27030944824</ele>
        <time>2016-03-02T12:54:56.000Z</time>
      </trkpt>
      <trkpt lat="47.01004" lon="3.33567">
        <ele>254.23100280762</ele>
        <time>2016-03-02T12:54:59.000Z</time>
      </trkpt>
      <trkpt lat="47.01" lon="3.3357">
        <ele>254.19445800781</ele>
        <time>2016-03-02T12:55:02.000Z</time>
      </trkpt>
      <trkpt lat="47.00997" lon="3.33573">
        <ele>254.14765930176</ele>
        <time>2016-03-02T12:55:04.000Z</time>
      </trkpt>
      <trkpt lat="47.00994" lon="3.33575">
        <ele>254.12557983398</ele>
        <time>2016-03-02T12:55:07.000Z</time>
      </trkpt>
      <trkpt lat="47.00992" lon="3.33577">
        <ele>254.10009765625</ele>
        <time>2016-03-02T12:55:10.000Z</time>
      </trkpt>
      <trkpt lat="47.0099" lon="3.33578">
        <ele>254.08039855957</ele>
        <time>2016-03-02T12:55:12.000Z</time>
      </trkpt>
      <trkpt lat="47.00987" lon="3.33579">
        <ele>254.08544921875</ele>
        <time>2016-03-02T12:55:14.000Z</time>
      </trkpt>
      <trkpt lat="47.00983" lon="3.33582">
        <ele>254.11074829102</ele>
        <time>2016-03-02T12:55:17.000Z</time>
      </trkpt>
      <trkpt lat="47.00979" lon="3.33584">
        <ele>254.14077758789</ele>
        <time>2016-03-02T12:55:20.000Z</time>
      </trkpt>
      <trkpt lat="47.00976" lon="3.33587">
        <ele>254.19328308105</ele>
        <time>2016-03-02T12:55:22.000Z</time>
      </trkpt>
      <trkpt lat="47.00973" lon="3.33589">
        <ele>254.244140625</ele>
        <time>2016-03-02T12:55:25.000Z</time>
      </trkpt>
      <trkpt lat="47.00971" lon="3.33591">
        <ele>254.2857208252</ele>
        <time>2016-03-02T12:55:27.000Z</time>
      </trkpt>
      <trkpt lat="47.0097" lon="3.33592">
        <ele>254.32308959961</ele>
        <time>2016-03-02T12:55:29.000Z</time>
      </trkpt>
      <trkpt lat="47.00969" lon="3.33594">
        <ele>254.34426879883</ele>
        <time>2016-03-02T12:55:32.000Z</time>
      </trkpt>
      <trkpt lat="47.00967" lon="3.33595">
        <ele>254.357421875</ele>
        <time>2016-03-02T12:55:34.000Z</time>
      </trkpt>
      <trkpt lat="47.00964" lon="3.33595">
        <ele>254.40217590332</ele>
        <time>2016-03-02T12:55:37.000Z</time>
      </trkpt>
      <trkpt lat="47.00962" lon="3.33596">
        <ele>254.45336914062</ele>
        <time>2016-03-02T12:55:39.000Z</time>
      </trkpt>
      <trkpt lat="47.0096" lon="3.33597">
        <ele>254.51184082031</ele>
        <time>2016-03-02T12:55:41.000Z</time>
      </trkpt>
      <trkpt lat="47.00956" lon="3.33598">
        <ele>254.60737609863</ele>
        <time>2016-03-02T12:55:44.000Z</time>
      </trkpt>
      <trkpt lat="47.00954" lon="3.33599">
        <ele>254.71113586426</ele>
        <time>2016-03-02T12:55:47.000Z</time>
      </trkpt>
      <trkpt lat="47.00952" lon="3.33598">
        <ele>254.80215454102</ele>
        <time>2016-03-02T12:55:49.000Z</time>
      </trkpt>
      <trkpt lat="47.0095" lon="3.33598">
        <ele>254.90502929688</ele>
        <time>2016-03-02T12:55:51.000Z</time>
      </trkpt>
      <trkpt lat="47.00947" lon="3.33598">
        <ele>255.03649902344</ele>
        <time>2016-03-02T12:55:54.000Z</time>
      </trkpt>
      <trkpt lat="47.00945" lon="3.33598">
        <ele>255.15849304199</ele>
        <time>2016-03-02T12:55:56.000Z</time>
      </trkpt>
      <trkpt lat="47.00943" lon="3.33598">
        <ele>255.2837677002</ele>
        <time>2016-03-02T12:55:58.000Z</time>
      </trkpt>
      <trkpt lat="47.00938" lon="3.33599">
        <ele>255.42436218262</ele>
        <time>2016-03-02T12:56:01.000Z</time>
      </trkpt>
      <trkpt lat="47.00937" lon="3.33598">
        <ele>255.56327819824</ele>
        <time>2016-03-02T12:56:03.000Z</time>
      </trkpt>
      <trkpt lat="47.00934" lon="3.33599">
        <ele>255.68347167969</ele>
        <time>2016-03-02T12:56:05.000Z</time>
      </trkpt>
      <trkpt lat="47.00932" lon="3.336">
        <ele>255.79902648926</ele>
        <time>2016-03-02T12:56:08.000Z</time>
      </trkpt>
      <trkpt lat="47.00928" lon="3.336">
        <ele>255.93472290039</ele>
        <time>2016-03-02T12:56:11.000Z</time>
      </trkpt>
      <trkpt lat="47.00927" lon="3.33598">
        <ele>256.07382202148</ele>
        <time>2016-03-02T12:56:14.000Z</time>
      </trkpt>
      <trkpt lat="47.00924" lon="3.33597">
        <ele>256.23864746094</ele>
        <time>2016-03-02T12:56:17.000Z</time>
      </trkpt>
      <trkpt lat="47.0092" lon="3.33595">
        <ele>256.44464111328</ele>
        <time>2016-03-02T12:56:20.000Z</time>
      </trkpt>
      <trkpt lat="47.00918" lon="3.33595">
        <ele>256.6633605957</ele>
        <time>2016-03-02T12:56:22.000Z</time>
      </trkpt>
      <trkpt lat="47.00915" lon="3.33594">
        <ele>256.87399291992</ele>
        <time>2016-03-02T12:56:25.000Z</time>
      </trkpt>
      <trkpt lat="47.00913" lon="3.33592">
        <ele>257.06295776367</ele>
        <time>2016-03-02T12:56:28.000Z</time>
      </trkpt>
      <trkpt lat="47.0091" lon="3.33592">
        <ele>257.21340942383</ele>
        <time>2016-03-02T12:56:31.000Z</time>
      </trkpt>
      <trkpt lat="47.00907" lon="3.33589">
        <ele>257.35079956055</ele>
        <time>2016-03-02T12:56:34.000Z</time>
      </trkpt>
      <trkpt lat="47.00904" lon="3.33587">
        <ele>257.48150634766</ele>
        <time>2016-03-02T12:56:36.000Z</time>
      </trkpt>
      <trkpt lat="47.00903" lon="3.33585">
        <ele>257.61041259766</ele>
        <time>2016-03-02T12:56:38.000Z</time>
      </trkpt>
      <trkpt lat="47.00901" lon="3.33584">
        <ele>257.72943115234</ele>
        <time>2016-03-02T12:56:40.000Z</time>
      </trkpt>
      <trkpt lat="47.00898" lon="3.33583">
        <ele>257.84918212891</ele>
        <time>2016-03-02T12:56:43.000Z</time>
      </trkpt>
      <trkpt lat="47.00895" lon="3.33581">
        <ele>257.953125</ele>
        <time>2016-03-02T12:56:46.000Z</time>
      </trkpt>
      <trkpt lat="47.00891" lon="3.33579">
        <ele>258.0537109375</ele>
        <time>2016-03-02T12:56:49.000Z</time>
      </trkpt>
      <trkpt lat="47.00888" lon="3.3358">
        <ele>258.12307739258</ele>
        <time>2016-03-02T12:56:51.000Z</time>
      </trkpt>
      <trkpt lat="47.00886" lon="3.33579">
        <ele>258.18560791016</ele>
        <time>2016-03-02T12:56:54.000Z</time>
      </trkpt>
      <trkpt lat="47.00883" lon="3.33578">
        <ele>258.2529296875</ele>
        <time>2016-03-02T12:56:57.000Z</time>
      </trkpt>
      <trkpt lat="47.00882" lon="3.33578">
        <ele>258.28598022461</ele>
        <time>2016-03-02T12:56:59.000Z</time>
      </trkpt>
      <trkpt lat="47.00879" lon="3.33577">
        <ele>258.3134765625</ele>
        <time>2016-03-02T12:57:02.000Z</time>
      </trkpt>
      <trkpt lat="47.00875" lon="3.33576">
        <ele>258.35494995117</ele>
        <time>2016-03-02T12:57:05.000Z</time>
      </trkpt>
      <trkpt lat="47.00873" lon="3.33575">
        <ele>258.40313720703</ele>
        <time>2016-03-02T12:57:07.000Z</time>
      </trkpt>
      <trkpt lat="47.0087" lon="3.33573">
        <ele>258.45635986328</ele>
        <time>2016-03-02T12:57:09.000Z</time>
      </trkpt>
      <trkpt lat="47.00867" lon="3.33571">
        <ele>258.53326416016</ele>
        <time>2016-03-02T12:57:12.000Z</time>
      </trkpt>
      <trkpt lat="47.00865" lon="3.33568">
        <ele>258.63006591797</ele>
        <time>2016-03-02T12:57:15.000Z</time>
      </trkpt>
      <trkpt lat="47.00861" lon="3.33565">
        <ele>258.74084472656</ele>
        <time>2016-03-02T12:57:18.000Z</time>
      </trkpt>
      <trkpt lat="47.00858" lon="3.33566">
        <ele>258.83502197266</ele>
        <time>2016-03-02T12:57:20.000Z</time>
      </trkpt>
      <trkpt lat="47.00855" lon="3.33565">
        <ele>258.9091796875</ele>
        <time>2016-03-02T12:57:22.000Z</time>
      </trkpt>
      <trkpt lat="47.00851" lon="3.33565">
        <ele>258.96292114258</ele>
        <time>2016-03-02T12:57:25.000Z</time>
      </trkpt>
      <trkpt lat="47.00849" lon="3.33563">
        <ele>259.00250244141</ele>
        <time>2016-03-02T12:57:28.000Z</time>
      </trkpt>
      <trkpt lat="47.00846" lon="3.33563">
        <ele>259.01702880859</ele>
        <time>2016-03-02T12:57:30.000Z</time>
      </trkpt>
      <trkpt lat="47.00843" lon="3.33562">
        <ele>259.03491210938</ele>
        <time>2016-03-02T12:57:33.000Z</time>
      </trkpt>
      <trkpt lat="47.00842" lon="3.33561">
        <ele>259.06048583984</ele>
        <time>2016-03-02T12:57:35.000Z</time>
      </trkpt>
      <trkpt lat="47.00838" lon="3.33559">
        <ele>259.1106262207</ele>
        <time>2016-03-02T12:57:38.000Z</time>
      </trkpt>
      <trkpt lat="47.00837" lon="3.33557">
        <ele>259.15643310547</ele>
        <time>2016-03-02T12:57:40.000Z</time>
      </trkpt>
      <trkpt lat="47.00834" lon="3.33555">
        <ele>259.21221923828</ele>
        <time>2016-03-02T12:57:42.000Z</time>
      </trkpt>
      <trkpt lat="47.00832" lon="3.33554">
        <ele>259.2799987793</ele>
        <time>2016-03-02T12:57:45.000Z</time>
      </trkpt>
      <trkpt lat="47.00829" lon="3.33551">
        <ele>259.35116577148</ele>
        <time>2016-03-02T12:57:48.000Z</time>
      </trkpt>
      <trkpt lat="47.00828" lon="3.33549">
        <ele>259.41641235352</ele>
        <time>2016-03-02T12:57:51.000Z</time>
      </trkpt>
      <trkpt lat="47.00827" lon="3.33549">
        <ele>259.45941162109</ele>
        <time>2016-03-02T12:57:54.000Z</time>
      </trkpt>
      <trkpt lat="47.00826" lon="3.33548">
        <ele>259.49502563477</ele>
        <time>2016-03-02T12:57:56.000Z</time>
      </trkpt>
      <trkpt lat="47.00825" lon="3.33548">
        <ele>259.52203369141</ele>
        <time>2016-03-02T12:57:59.000Z</time>
      </trkpt>
      <trkpt lat="47.00824" lon="3.33547">
        <ele>259.53921508789</ele>
        <time>2016-03-02T12:58:05.000Z</time>
      </trkpt>
      <trkpt lat="47.00822" lon="3.33544">
        <ele>259.55841064453</ele>
        <time>2016-03-02T12:58:07.000Z</time>
      </trkpt>
      <trkpt lat="47.0082" lon="3.33542">
        <ele>259.58453369141</ele>
        <time>2016-03-02T12:58:10.000Z</time>
      </trkpt>
      <trkpt lat="47.00817" lon="3.3354">
        <ele>259.61254882812</ele>
        <time>2016-03-02T12:58:13.000Z</time>
      </trkpt>
      <trkpt lat="47.00816" lon="3.3354">
        <ele>259.63677978516</ele>
        <time>2016-03-02T12:58:16.000Z</time>
      </trkpt>
      <trkpt lat="47.00815" lon="3.33538">
        <ele>259.66253662109</ele>
        <time>2016-03-02T12:58:19.000Z</time>
      </trkpt>
      <trkpt lat="47.00814" lon="3.33537">
        <ele>259.67715454102</ele>
        <time>2016-03-02T12:58:21.000Z</time>
      </trkpt>
      <trkpt lat="47.00814" lon="3.33537">
        <ele>259.68707275391</ele>
        <time>2016-03-02T12:58:25.000Z</time>
      </trkpt>
      <trkpt lat="47.00813" lon="3.33538">
        <ele>259.68130493164</ele>
        <time>2016-03-02T12:58:38.000Z</time>
      </trkpt>
      <trkpt lat="47.00812" lon="3.33537">
        <ele>259.67584228516</ele>
        <time>2016-03-02T12:58:40.000Z</time>
      </trkpt>
      <trkpt lat="47.0081" lon="3.33535">
        <ele>259.66961669922</ele>
        <time>2016-03-02T12:58:43.000Z</time>
      </trkpt>
      <trkpt lat="47.00807" lon="3.33533">
        <ele>259.66000366211</ele>
        <time>2016-03-02T12:58:46.000Z</time>
      </trkpt>
      <trkpt lat="47.00806" lon="3.33532">
        <ele>259.65225219727</ele>
        <time>2016-03-02T12:59:00.000Z</time>
      </trkpt>
      <trkpt lat="47.00804" lon="3.33529">
        <ele>259.65902709961</ele>
        <time>2016-03-02T12:59:03.000Z</time>
      </trkpt>
      <trkpt lat="47.00802" lon="3.33527">
        <ele>259.67211914062</ele>
        <time>2016-03-02T12:59:06.000Z</time>
      </trkpt>
      <trkpt lat="47.008" lon="3.33526">
        <ele>259.67587280273</ele>
        <time>2016-03-02T12:59:08.000Z</time>
      </trkpt>
      <trkpt lat="47.00799" lon="3.33525">
        <ele>259.66806030273</ele>
        <time>2016-03-02T12:59:10.000Z</time>
      </trkpt>
      <trkpt lat="47.00797" lon="3.33524">
        <ele>259.65582275391</ele>
        <time>2016-03-02T12:59:13.000Z</time>
      </trkpt>
      <trkpt lat="47.00794" lon="3.33522">
        <ele>259.63232421875</ele>
        <time>2016-03-02T12:59:16.000Z</time>
      </trkpt>
      <trkpt lat="47.00792" lon="3.3352">
        <ele>259.60284423828</ele>
        <time>2016-03-02T12:59:19.000Z</time>
      </trkpt>
      <trkpt lat="47.00791" lon="3.33518">
        <ele>259.57482910156</ele>
        <time>2016-03-02T12:59:21.000Z</time>
      </trkpt>
      <trkpt lat="47.00789" lon="3.33516">
        <ele>259.55340576172</ele>
        <time>2016-03-02T12:59:23.000Z</time>
      </trkpt>
      <trkpt lat="47.00786" lon="3.33514">
        <ele>259.52157592773</ele>
        <time>2016-03-02T12:59:26.000Z</time>
      </trkpt>
      <trkpt lat="47.00784" lon="3.33513">
        <ele>259.48916625977</ele>
        <time>2016-03-02T12:59:28.000Z</time>
      </trkpt>
      <trkpt lat="47.00783" lon="3.33511">
        <ele>259.45175170898</ele>
        <time>2016-03-02T12:59:31.000Z</time>
      </trkpt>
      <trkpt lat="47.00781" lon="3.3351">
        <ele>259.40875244141</ele>
        <time>2016-03-02T12:59:33.000Z</time>
      </trkpt>
      <trkpt lat="47.00779" lon="3.33508">
        <ele>259.35488891602</ele>
        <time>2016-03-02T12:59:36.000Z</time>
      </trkpt>
      <trkpt lat="47.00777" lon="3.33506">
        <ele>259.30926513672</ele>
        <time>2016-03-02T12:59:38.000Z</time>
      </trkpt>
      <trkpt lat="47.00774" lon="3.33503">
        <ele>259.25112915039</ele>
        <time>2016-03-02T12:59:41.000Z</time>
      </trkpt>
      <trkpt lat="47.00772" lon="3.33502">
        <ele>259.18759155273</ele>
        <time>2016-03-02T12:59:44.000Z</time>
      </trkpt>
      <trkpt lat="47.00769" lon="3.33499">
        <ele>259.10760498047</ele>
        <time>2016-03-02T12:59:47.000Z</time>
      </trkpt>
      <trkpt lat="47.00767" lon="3.33498">
        <ele>259.00436401367</ele>
        <time>2016-03-02T12:59:50.000Z</time>
      </trkpt>
      <trkpt lat="47.00765" lon="3.33497">
        <ele>258.892578125</ele>
        <time>2016-03-02T12:59:53.000Z</time>
      </trkpt>
      <trkpt lat="47.00763" lon="3.33497">
        <ele>258.779296875</ele>
        <time>2016-03-02T12:59:56.000Z</time>
      </trkpt>
      <trkpt lat="47.00761" lon="3.33498">
        <ele>258.66516113281</ele>
        <time>2016-03-02T12:59:58.000Z</time>
      </trkpt>
      <trkpt lat="47.0076" lon="3.33498">
        <ele>258.568359375</ele>
        <time>2016-03-02T13:00:00.000Z</time>
      </trkpt>
      <trkpt lat="47.00757" lon="3.335">
        <ele>258.48876953125</ele>
        <time>2016-03-02T13:00:03.000Z</time>
      </trkpt>
      <trkpt lat="47.00756" lon="3.335">
        <ele>258.41235351562</ele>
        <time>2016-03-02T13:00:05.000Z</time>
      </trkpt>
      <trkpt lat="47.00755" lon="3.33501">
        <ele>258.34588623047</ele>
        <time>2016-03-02T13:00:08.000Z</time>
      </trkpt>
      <trkpt lat="47.00754" lon="3.33502">
        <ele>258.28393554688</ele>
        <time>2016-03-02T13:00:12.000Z</time>
      </trkpt>
      <trkpt lat="47.00753" lon="3.33503">
        <ele>258.22274780273</ele>
        <time>2016-03-02T13:00:14.000Z</time>
      </trkpt>
      <trkpt lat="47.00751" lon="3.33502">
        <ele>258.16152954102</ele>
        <time>2016-03-02T13:00:17.000Z</time>
      </trkpt>
      <trkpt lat="47.0075" lon="3.33501">
        <ele>258.10186767578</ele>
        <time>2016-03-02T13:00:19.000Z</time>
      </trkpt>
      <trkpt lat="47.00748" lon="3.33498">
        <ele>258.02581787109</ele>
        <time>2016-03-02T13:00:22.000Z</time>
      </trkpt>
      <trkpt lat="47.00747" lon="3.33496">
        <ele>257.94000244141</ele>
        <time>2016-03-02T13:00:24.000Z</time>
      </trkpt>
      <trkpt lat="47.00745" lon="3.33495">
        <ele>257.83786010742</ele>
        <time>2016-03-02T13:00:26.000Z</time>
      </trkpt>
      <trkpt lat="47.00743" lon="3.33494">
        <ele>257.72357177734</ele>
        <time>2016-03-02T13:00:29.000Z</time>
      </trkpt>
      <trkpt lat="47.00742" lon="3.33493">
        <ele>257.60339355469</ele>
        <time>2016-03-02T13:00:31.000Z</time>
      </trkpt>
      <trkpt lat="47.00742" lon="3.33491">
        <ele>257.49670410156</ele>
        <time>2016-03-02T13:00:35.000Z</time>
      </trkpt>
      <trkpt lat="47.00741" lon="3.33489">
        <ele>257.39501953125</ele>
        <time>2016-03-02T13:00:37.000Z</time>
      </trkpt>
      <trkpt lat="47.0074" lon="3.33485">
        <ele>257.275390625</ele>
        <time>2016-03-02T13:00:40.000Z</time>
      </trkpt>
      <trkpt lat="47.00738" lon="3.33481">
        <ele>257.14868164062</ele>
        <time>2016-03-02T13:00:43.000Z</time>
      </trkpt>
      <trkpt lat="47.00738" lon="3.33477">
        <ele>257.01635742188</ele>
        <time>2016-03-02T13:00:46.000Z</time>
      </trkpt>
      <trkpt lat="47.00738" lon="3.33474">
        <ele>256.88647460938</ele>
        <time>2016-03-02T13:00:48.000Z</time>
      </trkpt>
      <trkpt lat="47.00739" lon="3.33473">
        <ele>256.77661132812</ele>
        <time>2016-03-02T13:01:00.000Z</time>
      </trkpt>
      <trkpt lat="47.0074" lon="3.33471">
        <ele>256.72241210938</ele>
        <time>2016-03-02T13:01:03.000Z</time>
      </trkpt>
      <trkpt lat="47.00739" lon="3.33469">
        <ele>256.6806640625</ele>
        <time>2016-03-02T13:01:15.000Z</time>
      </trkpt>
      <trkpt lat="47.00739" lon="3.33467">
        <ele>256.64282226562</ele>
        <time>2016-03-02T13:01:17.000Z</time>
      </trkpt>
      <trkpt lat="47.00737" lon="3.33463">
        <ele>256.58581542969</ele>
        <time>2016-03-02T13:01:20.000Z</time>
      </trkpt>
      <trkpt lat="47.00737" lon="3.33461">
        <ele>256.50134277344</ele>
        <time>2016-03-02T13:01:22.000Z</time>
      </trkpt>
      <trkpt lat="47.00735" lon="3.33458">
        <ele>256.37451171875</ele>
        <time>2016-03-02T13:01:25.000Z</time>
      </trkpt>
      <trkpt lat="47.00734" lon="3.33455">
        <ele>256.24182128906</ele>
        <time>2016-03-02T13:01:28.000Z</time>
      </trkpt>
      <trkpt lat="47.00732" lon="3.33453">
        <ele>256.09838867188</ele>
        <time>2016-03-02T13:01:31.000Z</time>
      </trkpt>
      <trkpt lat="47.0073" lon="3.33453">
        <ele>255.95874023438</ele>
        <time>2016-03-02T13:01:33.000Z</time>
      </trkpt>
      <trkpt lat="47.00728" lon="3.3345">
        <ele>255.80444335938</ele>
        <time>2016-03-02T13:01:36.000Z</time>
      </trkpt>
      <trkpt lat="47.00725" lon="3.33448">
        <ele>255.63464355469</ele>
        <time>2016-03-02T13:01:39.000Z</time>
      </trkpt>
      <trkpt lat="47.00724" lon="3.33447">
        <ele>255.48181152344</ele>
        <time>2016-03-02T13:01:41.000Z</time>
      </trkpt>
      <trkpt lat="47.00722" lon="3.33446">
        <ele>255.32775878906</ele>
        <time>2016-03-02T13:01:43.000Z</time>
      </trkpt>
      <trkpt lat="47.00721" lon="3.33444">
        <ele>255.17309570312</ele>
        <time>2016-03-02T13:01:45.000Z</time>
      </trkpt>
      <trkpt lat="47.00719" lon="3.33442">
        <ele>255.02258300781</ele>
        <time>2016-03-02T13:01:47.000Z</time>
      </trkpt>
      <trkpt lat="47.00716" lon="3.33442">
        <ele>254.88989257812</ele>
        <time>2016-03-02T13:01:50.000Z</time>
      </trkpt>
      <trkpt lat="47.00714" lon="3.3344">
        <ele>254.73950195312</ele>
        <time>2016-03-02T13:01:52.000Z</time>
      </trkpt>
      <trkpt lat="47.00712" lon="3.33439">
        <ele>254.58337402344</ele>
        <time>2016-03-02T13:01:55.000Z</time>
      </trkpt>
      <trkpt lat="47.0071" lon="3.33436">
        <ele>254.41394042969</ele>
        <time>2016-03-02T13:01:58.000Z</time>
      </trkpt>
      <trkpt lat="47.00707" lon="3.33433">
        <ele>254.22595214844</ele>
        <time>2016-03-02T13:02:01.000Z</time>
      </trkpt>
      <trkpt lat="47.00704" lon="3.33429">
        <ele>254.01330566406</ele>
        <time>2016-03-02T13:02:04.000Z</time>
      </trkpt>
      <trkpt lat="47.00702" lon="3.33428">
        <ele>253.79516601562</ele>
        <time>2016-03-02T13:02:06.000Z</time>
      </trkpt>
      <trkpt lat="47.00699" lon="3.33424">
        <ele>253.5703125</ele>
        <time>2016-03-02T13:02:09.000Z</time>
      </trkpt>
      <trkpt lat="47.00697" lon="3.33421">
        <ele>253.35290527344</ele>
        <time>2016-03-02T13:02:12.000Z</time>
      </trkpt>
      <trkpt lat="47.00696" lon="3.3342">
        <ele>253.15771484375</ele>
        <time>2016-03-02T13:02:14.000Z</time>
      </trkpt>
      <trkpt lat="47.00694" lon="3.33418">
        <ele>252.98156738281</ele>
        <time>2016-03-02T13:02:16.000Z</time>
      </trkpt>
      <trkpt lat="47.00691" lon="3.33416">
        <ele>252.79663085938</ele>
        <time>2016-03-02T13:02:19.000Z</time>
      </trkpt>
      <trkpt lat="47.00689" lon="3.33414">
        <ele>252.62812805176</ele>
        <time>2016-03-02T13:02:21.000Z</time>
      </trkpt>
      <trkpt lat="47.00687" lon="3.33412">
        <ele>252.45193481445</ele>
        <time>2016-03-02T13:02:24.000Z</time>
      </trkpt>
      <trkpt lat="47.00684" lon="3.33409">
        <ele>252.25398254395</ele>
        <time>2016-03-02T13:02:27.000Z</time>
      </trkpt>
      <trkpt lat="47.00682" lon="3.33407">
        <ele>252.05326843262</ele>
        <time>2016-03-02T13:02:29.000Z</time>
      </trkpt>
      <trkpt lat="47.0068" lon="3.33405">
        <ele>251.8723449707</ele>
        <time>2016-03-02T13:02:31.000Z</time>
      </trkpt>
      <trkpt lat="47.00678" lon="3.33403">
        <ele>251.68688964844</ele>
        <time>2016-03-02T13:02:33.000Z</time>
      </trkpt>
      <trkpt lat="47.00677" lon="3.33402">
        <ele>251.52250671387</ele>
        <time>2016-03-02T13:02:35.000Z</time>
      </trkpt>
      <trkpt lat="47.00675" lon="3.33401">
        <ele>251.3717956543</ele>
        <time>2016-03-02T13:02:37.000Z</time>
      </trkpt>
      <trkpt lat="47.00672" lon="3.33398">
        <ele>251.21118164062</ele>
        <time>2016-03-02T13:02:40.000Z</time>
      </trkpt>
      <trkpt lat="47.00671" lon="3.33397">
        <ele>251.05522155762</ele>
        <time>2016-03-02T13:02:42.000Z</time>
      </trkpt>
      <trkpt lat="47.00668" lon="3.33394">
        <ele>250.89175415039</ele>
        <time>2016-03-02T13:02:45.000Z</time>
      </trkpt>
      <trkpt lat="47.00666" lon="3.33393">
        <ele>250.72087097168</ele>
        <time>2016-03-02T13:02:48.000Z</time>
      </trkpt>
      <trkpt lat="47.00664" lon="3.33391">
        <ele>250.55184936523</ele>
        <time>2016-03-02T13:02:50.000Z</time>
      </trkpt>
      <trkpt lat="47.0066" lon="3.33387">
        <ele>250.38137817383</ele>
        <time>2016-03-02T13:02:53.000Z</time>
      </trkpt>
      <trkpt lat="47.00657" lon="3.33386">
        <ele>250.19250488281</ele>
        <time>2016-03-02T13:02:56.000Z</time>
      </trkpt>
      <trkpt lat="47.00654" lon="3.33384">
        <ele>250.00659179688</ele>
        <time>2016-03-02T13:02:59.000Z</time>
      </trkpt>
      <trkpt lat="47.00651" lon="3.33383">
        <ele>249.81555175781</ele>
        <time>2016-03-02T13:03:02.000Z</time>
      </trkpt>
      <trkpt lat="47.00649" lon="3.33381">
        <ele>249.63427734375</ele>
        <time>2016-03-02T13:03:04.000Z</time>
      </trkpt>
      <trkpt lat="47.00648" lon="3.33381">
        <ele>249.48071289062</ele>
        <time>2016-03-02T13:03:07.000Z</time>
      </trkpt>
      <trkpt lat="47.00646" lon="3.33381">
        <ele>249.35266113281</ele>
        <time>2016-03-02T13:03:10.000Z</time>
      </trkpt>
      <trkpt lat="47.00645" lon="3.33381">
        <ele>249.25390625</ele>
        <time>2016-03-02T13:03:24.000Z</time>
      </trkpt>
      <trkpt lat="47.00643" lon="3.33379">
        <ele>249.15563964844</ele>
        <time>2016-03-02T13:03:26.000Z</time>
      </trkpt>
      <trkpt lat="47.0064" lon="3.33377">
        <ele>249.04602050781</ele>
        <time>2016-03-02T13:03:30.000Z</time>
      </trkpt>
      <trkpt lat="47.00638" lon="3.33376">
        <ele>248.92834472656</ele>
        <time>2016-03-02T13:03:32.000Z</time>
      </trkpt>
      <trkpt lat="47.00632" lon="3.33373">
        <ele>248.75537109375</ele>
        <time>2016-03-02T13:03:35.000Z</time>
      </trkpt>
      <trkpt lat="47.00629" lon="3.33371">
        <ele>248.55395507812</ele>
        <time>2016-03-02T13:03:37.000Z</time>
      </trkpt>
      <trkpt lat="47.00627" lon="3.33369">
        <ele>248.35180664062</ele>
        <time>2016-03-02T13:03:40.000Z</time>
      </trkpt>
      <trkpt lat="47.00624" lon="3.33368">
        <ele>248.15747070312</ele>
        <time>2016-03-02T13:03:43.000Z</time>
      </trkpt>
      <trkpt lat="47.00622" lon="3.33366">
        <ele>247.96057128906</ele>
        <time>2016-03-02T13:03:45.000Z</time>
      </trkpt>
      <trkpt lat="47.0062" lon="3.33365">
        <ele>247.8037109375</ele>
        <time>2016-03-02T13:03:47.000Z</time>
      </trkpt>
      <trkpt lat="47.00618" lon="3.33364">
        <ele>247.66809082031</ele>
        <time>2016-03-02T13:03:49.000Z</time>
      </trkpt>
      <trkpt lat="47.00615" lon="3.33363">
        <ele>247.5302734375</ele>
        <time>2016-03-02T13:03:52.000Z</time>
      </trkpt>
      <trkpt lat="47.00614" lon="3.33363">
        <ele>247.40539550781</ele>
        <time>2016-03-02T13:03:54.000Z</time>
      </trkpt>
      <trkpt lat="47.00611" lon="3.33361">
        <ele>247.27978515625</ele>
        <time>2016-03-02T13:03:57.000Z</time>
      </trkpt>
      <trkpt lat="47.0061" lon="3.33361">
        <ele>247.16125488281</ele>
        <time>2016-03-02T13:04:00.000Z</time>
      </trkpt>
      <trkpt lat="47.00607" lon="3.3336">
        <ele>247.02990722656</ele>
        <time>2016-03-02T13:04:03.000Z</time>
      </trkpt>
      <trkpt lat="47.00606" lon="3.33359">
        <ele>246.92260742188</ele>
        <time>2016-03-02T13:04:05.000Z</time>
      </trkpt>
      <trkpt lat="47.00605" lon="3.33358">
        <ele>246.81677246094</ele>
        <time>2016-03-02T13:04:09.000Z</time>
      </trkpt>
      <trkpt lat="47.00603" lon="3.33356">
        <ele>246.70910644531</ele>
        <time>2016-03-02T13:04:12.000Z</time>
      </trkpt>
      <trkpt lat="47.00601" lon="3.33355">
        <ele>246.60205078125</ele>
        <time>2016-03-02T13:04:15.000Z</time>
      </trkpt>
      <trkpt lat="47.00599" lon="3.33353">
        <ele>246.49291992188</ele>
        <time>2016-03-02T13:04:17.000Z</time>
      </trkpt>
      <trkpt lat="47.00597" lon="3.33352">
        <ele>246.36511230469</ele>
        <time>2016-03-02T13:04:19.000Z</time>
      </trkpt>
      <trkpt lat="47.00595" lon="3.33351">
        <ele>246.22924804688</ele>
        <time>2016-03-02T13:04:21.000Z</time>
      </trkpt>
      <trkpt lat="47.00593" lon="3.33349">
        <ele>246.09790039062</ele>
        <time>2016-03-02T13:04:24.000Z</time>
      </trkpt>
      <trkpt lat="47.00589" lon="3.33347">
        <ele>245.94543457031</ele>
        <time>2016-03-02T13:04:27.000Z</time>
      </trkpt>
      <trkpt lat="47.00587" lon="3.33347">
        <ele>245.79663085938</ele>
        <time>2016-03-02T13:04:30.000Z</time>
      </trkpt>
      <trkpt lat="47.00583" lon="3.33345">
        <ele>245.62344360352</ele>
        <time>2016-03-02T13:04:33.000Z</time>
      </trkpt>
      <trkpt lat="47.0058" lon="3.33343">
        <ele>245.39907836914</ele>
        <time>2016-03-02T13:04:36.000Z</time>
      </trkpt>
      <trkpt lat="47.00577" lon="3.33342">
        <ele>245.13290405273</ele>
        <time>2016-03-02T13:04:38.000Z</time>
      </trkpt>
      <trkpt lat="47.00573" lon="3.3334">
        <ele>244.81257629395</ele>
        <time>2016-03-02T13:04:41.000Z</time>
      </trkpt>
      <trkpt lat="47.00571" lon="3.33338">
        <ele>244.4674987793</ele>
        <time>2016-03-02T13:04:43.000Z</time>
      </trkpt>
      <trkpt lat="47.0057" lon="3.33336">
        <ele>244.14321899414</ele>
        <time>2016-03-02T13:04:45.000Z</time>
      </trkpt>
      <trkpt lat="47.00567" lon="3.33334">
        <ele>243.81831359863</ele>
        <time>2016-03-02T13:04:48.000Z</time>
      </trkpt>
      <trkpt lat="47.00565" lon="3.33332">
        <ele>243.50332641602</ele>
        <time>2016-03-02T13:04:50.000Z</time>
      </trkpt>
      <trkpt lat="47.00563" lon="3.33329">
        <ele>243.21354675293</ele>
        <time>2016-03-02T13:04:53.000Z</time>
      </trkpt>
      <trkpt lat="47.0056" lon="3.33326">
        <ele>242.88150024414</ele>
        <time>2016-03-02T13:04:56.000Z</time>
      </trkpt>
      <trkpt lat="47.00557" lon="3.33325">
        <ele>242.51278686523</ele>
        <time>2016-03-02T13:04:58.000Z</time>
      </trkpt>
      <trkpt lat="47.00554" lon="3.33324">
        <ele>242.15414428711</ele>
        <time>2016-03-02T13:05:00.000Z</time>
      </trkpt>
      <trkpt lat="47.00551" lon="3.33322">
        <ele>241.77355957031</ele>
        <time>2016-03-02T13:05:03.000Z</time>
      </trkpt>
      <trkpt lat="47.00547" lon="3.3332">
        <ele>241.36833190918</ele>
        <time>2016-03-02T13:05:06.000Z</time>
      </trkpt>
      <trkpt lat="47.00544" lon="3.33316">
        <ele>240.97773742676</ele>
        <time>2016-03-02T13:05:09.000Z</time>
      </trkpt>
      <trkpt lat="47.00543" lon="3.33314">
        <ele>240.62182617188</ele>
        <time>2016-03-02T13:05:11.000Z</time>
      </trkpt>
      <trkpt lat="47.00542" lon="3.33312">
        <ele>240.28034973145</ele>
        <time>2016-03-02T13:05:13.000Z</time>
      </trkpt>
      <trkpt lat="47.0054" lon="3.33311">
        <ele>239.98490905762</ele>
        <time>2016-03-02T13:05:15.000Z</time>
      </trkpt>
      <trkpt lat="47.00537" lon="3.33308">
        <ele>239.71977233887</ele>
        <time>2016-03-02T13:05:18.000Z</time>
      </trkpt>
      <trkpt lat="47.00536" lon="3.33307">
        <ele>239.48904418945</ele>
        <time>2016-03-02T13:05:20.000Z</time>
      </trkpt>
      <trkpt lat="47.00534" lon="3.33306">
        <ele>239.25727844238</ele>
        <time>2016-03-02T13:05:22.000Z</time>
      </trkpt>
      <trkpt lat="47.00532" lon="3.33304">
        <ele>239.02746582031</ele>
        <time>2016-03-02T13:05:25.000Z</time>
      </trkpt>
      <trkpt lat="47.00531" lon="3.33302">
        <ele>238.80947875977</ele>
        <time>2016-03-02T13:05:27.000Z</time>
      </trkpt>
      <trkpt lat="47.00529" lon="3.33299">
        <ele>238.58967590332</ele>
        <time>2016-03-02T13:05:30.000Z</time>
      </trkpt>
      <trkpt lat="47.00528" lon="3.33297">
        <ele>238.38967895508</ele>
        <time>2016-03-02T13:05:32.000Z</time>
      </trkpt>
      <trkpt lat="47.00526" lon="3.33294">
        <ele>238.18960571289</ele>
        <time>2016-03-02T13:05:35.000Z</time>
      </trkpt>
      <trkpt lat="47.00524" lon="3.33291">
        <ele>237.97445678711</ele>
        <time>2016-03-02T13:05:37.000Z</time>
      </trkpt>
      <trkpt lat="47.00522" lon="3.33287">
        <ele>237.724609375</ele>
        <time>2016-03-02T13:05:40.000Z</time>
      </trkpt>
      <trkpt lat="47.00521" lon="3.33286">
        <ele>237.53190612793</ele>
        <time>2016-03-02T13:05:42.000Z</time>
      </trkpt>
      <trkpt lat="47.0052" lon="3.33283">
        <ele>237.3310546875</ele>
        <time>2016-03-02T13:05:51.000Z</time>
      </trkpt>
      <trkpt lat="47.00518" lon="3.3328">
        <ele>237.11465454102</ele>
        <time>2016-03-02T13:05:54.000Z</time>
      </trkpt>
      <trkpt lat="47.00514" lon="3.33275">
        <ele>236.8879699707</ele>
        <time>2016-03-02T13:05:57.000Z</time>
      </trkpt>
      <trkpt lat="47.00513" lon="3.33273">
        <ele>236.69111633301</ele>
        <time>2016-03-02T13:05:59.000Z</time>
      </trkpt>
      <trkpt lat="47.00512" lon="3.3327">
        <ele>236.47192382812</ele>
        <time>2016-03-02T13:06:01.000Z</time>
      </trkpt>
      <trkpt lat="47.0051" lon="3.33266">
        <ele>236.24865722656</ele>
        <time>2016-03-02T13:06:04.000Z</time>
      </trkpt>
      <trkpt lat="47.00509" lon="3.33263">
        <ele>236.05790710449</ele>
        <time>2016-03-02T13:06:06.000Z</time>
      </trkpt>
      <trkpt lat="47.00507" lon="3.33258">
        <ele>235.90112304688</ele>
        <time>2016-03-02T13:06:09.000Z</time>
      </trkpt>
      <trkpt lat="47.00508" lon="3.33256">
        <ele>235.76904296875</ele>
        <time>2016-03-02T13:06:11.000Z</time>
      </trkpt>
      <trkpt lat="47.00507" lon="3.33252">
        <ele>235.64765930176</ele>
        <time>2016-03-02T13:06:14.000Z</time>
      </trkpt>
      <trkpt lat="47.00506" lon="3.33249">
        <ele>235.54513549805</ele>
        <time>2016-03-02T13:06:16.000Z</time>
      </trkpt>
      <trkpt lat="47.00504" lon="3.33244">
        <ele>235.44836425781</ele>
        <time>2016-03-02T13:06:19.000Z</time>
      </trkpt>
      <trkpt lat="47.00503" lon="3.33241">
        <ele>235.39181518555</ele>
        <time>2016-03-02T13:06:21.000Z</time>
      </trkpt>
      <trkpt lat="47.00502" lon="3.33237">
        <ele>235.33378601074</ele>
        <time>2016-03-02T13:06:23.000Z</time>
      </trkpt>
      <trkpt lat="47.005" lon="3.33234">
        <ele>235.28784179688</ele>
        <time>2016-03-02T13:06:26.000Z</time>
      </trkpt>
      <trkpt lat="47.00499" lon="3.33231">
        <ele>235.26419067383</ele>
        <time>2016-03-02T13:06:28.000Z</time>
      </trkpt>
      <trkpt lat="47.00498" lon="3.33226">
        <ele>235.27139282227</ele>
        <time>2016-03-02T13:06:31.000Z</time>
      </trkpt>
      <trkpt lat="47.00496" lon="3.33223">
        <ele>235.28854370117</ele>
        <time>2016-03-02T13:06:33.000Z</time>
      </trkpt>
      <trkpt lat="47.00493" lon="3.33219">
        <ele>235.33354187012</ele>
        <time>2016-03-02T13:06:36.000Z</time>
      </trkpt>
      <trkpt lat="47.00491" lon="3.33215">
        <ele>235.41146850586</ele>
        <time>2016-03-02T13:06:39.000Z</time>
      </trkpt>
      <trkpt lat="47.00489" lon="3.33213">
        <ele>235.49938964844</ele>
        <time>2016-03-02T13:06:41.000Z</time>
      </trkpt>
      <trkpt lat="47.00487" lon="3.3321">
        <ele>235.59321594238</ele>
        <time>2016-03-02T13:06:44.000Z</time>
      </trkpt>
      <trkpt lat="47.00487" lon="3.33208">
        <ele>235.67993164062</ele>
        <time>2016-03-02T13:06:47.000Z</time>
      </trkpt>
      <trkpt lat="47.00486" lon="3.33206">
        <ele>235.75756835938</ele>
        <time>2016-03-02T13:06:50.000Z</time>
      </trkpt>
      <trkpt lat="47.00485" lon="3.33205">
        <ele>235.8215637207</ele>
        <time>2016-03-02T13:07:00.000Z</time>
      </trkpt>
      <trkpt lat="47.00483" lon="3.33204">
        <ele>235.88302612305</ele>
        <time>2016-03-02T13:07:02.000Z</time>
      </trkpt>
      <trkpt lat="47.0048" lon="3.33202">
        <ele>235.9533996582</ele>
        <time>2016-03-02T13:07:05.000Z</time>
      </trkpt>
      <trkpt lat="47.00476" lon="3.33198">
        <ele>236.06010437012</ele>
        <time>2016-03-02T13:07:08.000Z</time>
      </trkpt>
      <trkpt lat="47.00474" lon="3.33195">
        <ele>236.18183898926</ele>
        <time>2016-03-02T13:07:11.000Z</time>
      </trkpt>
      <trkpt lat="47.00471" lon="3.33192">
        <ele>236.3226776123</ele>
        <time>2016-03-02T13:07:14.000Z</time>
      </trkpt>
      <trkpt lat="47.00469" lon="3.3319">
        <ele>236.48434448242</ele>
        <time>2016-03-02T13:07:16.000Z</time>
      </trkpt>
      <trkpt lat="47.00466" lon="3.33188">
        <ele>236.64680480957</ele>
        <time>2016-03-02T13:07:18.000Z</time>
      </trkpt>
      <trkpt lat="47.00463" lon="3.33186">
        <ele>236.80541992188</ele>
        <time>2016-03-02T13:07:21.000Z</time>
      </trkpt>
      <trkpt lat="47.00459" lon="3.33184">
        <ele>236.97842407227</ele>
        <time>2016-03-02T13:07:24.000Z</time>
      </trkpt>
      <trkpt lat="47.00456" lon="3.33182">
        <ele>237.16137695312</ele>
        <time>2016-03-02T13:07:27.000Z</time>
      </trkpt>
      <trkpt lat="47.00453" lon="3.33181">
        <ele>237.33706665039</ele>
        <time>2016-03-02T13:07:29.000Z</time>
      </trkpt>
      <trkpt lat="47.0045" lon="3.3318">
        <ele>237.52404785156</ele>
        <time>2016-03-02T13:07:32.000Z</time>
      </trkpt>
      <trkpt lat="47.00447" lon="3.33179">
        <ele>237.69706726074</ele>
        <time>2016-03-02T13:07:34.000Z</time>
      </trkpt>
      <trkpt lat="47.00446" lon="3.33177">
        <ele>237.85444641113</ele>
        <time>2016-03-02T13:07:36.000Z</time>
      </trkpt>
      <trkpt lat="47.00443" lon="3.33175">
        <ele>238.01718139648</ele>
        <time>2016-03-02T13:07:39.000Z</time>
      </trkpt>
      <trkpt lat="47.0044" lon="3.33172">
        <ele>238.20820617676</ele>
        <time>2016-03-02T13:07:42.000Z</time>
      </trkpt>
      <trkpt lat="47.00436" lon="3.33171">
        <ele>238.4047088623</ele>
        <time>2016-03-02T13:07:45.000Z</time>
      </trkpt>
      <trkpt lat="47.00432" lon="3.33169">
        <ele>238.63134765625</ele>
        <time>2016-03-02T13:07:48.000Z</time>
      </trkpt>
      <trkpt lat="47.0043" lon="3.33168">
        <ele>238.86282348633</ele>
        <time>2016-03-02T13:07:51.000Z</time>
      </trkpt>
      <trkpt lat="47.00426" lon="3.33166">
        <ele>239.09939575195</ele>
        <time>2016-03-02T13:07:54.000Z</time>
      </trkpt>
      <trkpt lat="47.00425" lon="3.33165">
        <ele>239.30239868164</ele>
        <time>2016-03-02T13:07:56.000Z</time>
      </trkpt>
      <trkpt lat="47.00422" lon="3.33162">
        <ele>239.49873352051</ele>
        <time>2016-03-02T13:07:59.000Z</time>
      </trkpt>
      <trkpt lat="47.00419" lon="3.33159">
        <ele>239.68183898926</ele>
        <time>2016-03-02T13:08:02.000Z</time>
      </trkpt>
      <trkpt lat="47.00418" lon="3.33157">
        <ele>239.85383605957</ele>
        <time>2016-03-02T13:08:04.000Z</time>
      </trkpt>
      <trkpt lat="47.00414" lon="3.33155">
        <ele>240.01943969727</ele>
        <time>2016-03-02T13:08:07.000Z</time>
      </trkpt>
      <trkpt lat="47.00412" lon="3.33152">
        <ele>240.19595336914</ele>
        <time>2016-03-02T13:08:10.000Z</time>
      </trkpt>
      <trkpt lat="47.0041" lon="3.33148">
        <ele>240.3666229248</ele>
        <time>2016-03-02T13:08:13.000Z</time>
      </trkpt>
      <trkpt lat="47.00409" lon="3.33145">
        <ele>240.52062988281</ele>
        <time>2016-03-02T13:08:16.000Z</time>
      </trkpt>
      <trkpt lat="47.00408" lon="3.33142">
        <ele>240.6745300293</ele>
        <time>2016-03-02T13:08:18.000Z</time>
      </trkpt>
      <trkpt lat="47.00406" lon="3.33139">
        <ele>240.81660461426</ele>
        <time>2016-03-02T13:08:21.000Z</time>
      </trkpt>
      <trkpt lat="47.00405" lon="3.33138">
        <ele>240.94555664062</ele>
        <time>2016-03-02T13:08:23.000Z</time>
      </trkpt>
      <trkpt lat="47.00403" lon="3.33134">
        <ele>241.06864929199</ele>
        <time>2016-03-02T13:08:26.000Z</time>
      </trkpt>
      <trkpt lat="47.00401" lon="3.33131">
        <ele>241.20109558105</ele>
        <time>2016-03-02T13:08:29.000Z</time>
      </trkpt>
      <trkpt lat="47.004" lon="3.33128">
        <ele>241.34426879883</ele>
        <time>2016-03-02T13:08:32.000Z</time>
      </trkpt>
      <trkpt lat="47.00398" lon="3.33124">
        <ele>241.48637390137</ele>
        <time>2016-03-02T13:08:35.000Z</time>
      </trkpt>
      <trkpt lat="47.00397" lon="3.33121">
        <ele>241.63436889648</ele>
        <time>2016-03-02T13:08:37.000Z</time>
      </trkpt>
      <trkpt lat="47.00396" lon="3.33119">
        <ele>241.77336120605</ele>
        <time>2016-03-02T13:08:39.000Z</time>
      </trkpt>
      <trkpt lat="47.00394" lon="3.33116">
        <ele>241.9123840332</ele>
        <time>2016-03-02T13:08:42.000Z</time>
      </trkpt>
      <trkpt lat="47.00393" lon="3.33114">
        <ele>242.04666137695</ele>
        <time>2016-03-02T13:08:45.000Z</time>
      </trkpt>
      <trkpt lat="47.00391" lon="3.33112">
        <ele>242.16989135742</ele>
        <time>2016-03-02T13:08:47.000Z</time>
      </trkpt>
      <trkpt lat="47.00391" lon="3.3311">
        <ele>242.28764343262</ele>
        <time>2016-03-02T13:08:49.000Z</time>
      </trkpt>
      <trkpt lat="47.00389" lon="3.33108">
        <ele>242.40747070312</ele>
        <time>2016-03-02T13:08:52.000Z</time>
      </trkpt>
      <trkpt lat="47.00389" lon="3.33106">
        <ele>242.51272583008</ele>
        <time>2016-03-02T13:08:55.000Z</time>
      </trkpt>
      <trkpt lat="47.00389" lon="3.33105">
        <ele>242.5884552002</ele>
        <time>2016-03-02T13:09:12.000Z</time>
      </trkpt>
      <trkpt lat="47.00389" lon="3.33105">
        <ele>242.5884552002</ele>
        <time>2016-03-02T13:09:32.000Z</time>
      </trkpt>
      <trkpt lat="47.00388" lon="3.33109">
        <ele>242.64436340332</ele>
        <time>2016-03-02T13:10:51.000Z</time>
      </trkpt>
      <trkpt lat="47.00388" lon="3.33109">
        <ele>242.64436340332</ele>
        <time>2016-03-02T13:11:11.000Z</time>
      </trkpt>
      <trkpt lat="47.00386" lon="3.33107">
        <ele>242.69624328613</ele>
        <time>2016-03-02T13:11:12.000Z</time>
      </trkpt>
      <trkpt lat="47.00385" lon="3.33105">
        <ele>242.7477722168</ele>
        <time>2016-03-02T13:11:15.000Z</time>
      </trkpt>
      <trkpt lat="47.00384" lon="3.33102">
        <ele>242.80839538574</ele>
        <time>2016-03-02T13:11:18.000Z</time>
      </trkpt>
      <trkpt lat="47.00383" lon="3.33101">
        <ele>242.89208984375</ele>
        <time>2016-03-02T13:11:20.000Z</time>
      </trkpt>
      <trkpt lat="47.00382" lon="3.33099">
        <ele>243.00198364258</ele>
        <time>2016-03-02T13:11:23.000Z</time>
      </trkpt>
      <trkpt lat="47.0038" lon="3.33096">
        <ele>243.12887573242</ele>
        <time>2016-03-02T13:11:25.000Z</time>
      </trkpt>
      <trkpt lat="47.00378" lon="3.33092">
        <ele>243.27095031738</ele>
        <time>2016-03-02T13:11:28.000Z</time>
      </trkpt>
      <trkpt lat="47.00377" lon="3.33091">
        <ele>243.40274047852</ele>
        <time>2016-03-02T13:11:30.000Z</time>
      </trkpt>
      <trkpt lat="47.00375" lon="3.33087">
        <ele>243.5578918457</ele>
        <time>2016-03-02T13:11:32.000Z</time>
      </trkpt>
      <trkpt lat="47.00373" lon="3.33083">
        <ele>243.72412109375</ele>
        <time>2016-03-02T13:11:35.000Z</time>
      </trkpt>
      <trkpt lat="47.00373" lon="3.33081">
        <ele>243.86698913574</ele>
        <time>2016-03-02T13:11:37.000Z</time>
      </trkpt>
      <trkpt lat="47.00372" lon="3.33079">
        <ele>243.98368835449</ele>
        <time>2016-03-02T13:11:39.000Z</time>
      </trkpt>
      <trkpt lat="47.0037" lon="3.33074">
        <ele>244.09390258789</ele>
        <time>2016-03-02T13:11:42.000Z</time>
      </trkpt>
      <trkpt lat="47.00369" lon="3.33071">
        <ele>244.16796875</ele>
        <time>2016-03-02T13:11:45.000Z</time>
      </trkpt>
      <trkpt lat="47.00368" lon="3.33067">
        <ele>244.22265625</ele>
        <time>2016-03-02T13:11:47.000Z</time>
      </trkpt>
      <trkpt lat="47.00365" lon="3.33063">
        <ele>244.29296875</ele>
        <time>2016-03-02T13:11:50.000Z</time>
      </trkpt>
      <trkpt lat="47.00363" lon="3.33061">
        <ele>244.375</ele>
        <time>2016-03-02T13:11:52.000Z</time>
      </trkpt>
      <trkpt lat="47.00361" lon="3.33058">
        <ele>244.4609375</ele>
        <time>2016-03-02T13:11:54.000Z</time>
      </trkpt>
      <trkpt lat="47.00359" lon="3.33054">
        <ele>244.5625</ele>
        <time>2016-03-02T13:11:57.000Z</time>
      </trkpt>
      <trkpt lat="47.00357" lon="3.33052">
        <ele>244.6640625</ele>
        <time>2016-03-02T13:12:00.000Z</time>
      </trkpt>
      <trkpt lat="47.00356" lon="3.33049">
        <ele>244.7578125</ele>
        <time>2016-03-02T13:12:02.000Z</time>
      </trkpt>
      <trkpt lat="47.00354" lon="3.33046">
        <ele>244.84375</ele>
        <time>2016-03-02T13:12:04.000Z</time>
      </trkpt>
      <trkpt lat="47.00352" lon="3.33041">
        <ele>244.9296875</ele>
        <time>2016-03-02T13:12:07.000Z</time>
      </trkpt>
      <trkpt lat="47.00351" lon="3.33038">
        <ele>245.00390625</ele>
        <time>2016-03-02T13:12:09.000Z</time>
      </trkpt>
      <trkpt lat="47.0035" lon="3.33034">
        <ele>245.0703125</ele>
        <time>2016-03-02T13:12:11.000Z</time>
      </trkpt>
      <trkpt lat="47.00349" lon="3.33029">
        <ele>245.13671875</ele>
        <time>2016-03-02T13:12:14.000Z</time>
      </trkpt>
      <trkpt lat="47.00346" lon="3.33025">
        <ele>245.2109375</ele>
        <time>2016-03-02T13:12:17.000Z</time>
      </trkpt>
      <trkpt lat="47.00345" lon="3.33022">
        <ele>245.28125</ele>
        <time>2016-03-02T13:12:20.000Z</time>
      </trkpt>
      <trkpt lat="47.00343" lon="3.33018">
        <ele>245.359375</ele>
        <time>2016-03-02T13:12:23.000Z</time>
      </trkpt>
      <trkpt lat="47.00341" lon="3.33016">
        <ele>245.4453125</ele>
        <time>2016-03-02T13:12:25.000Z</time>
      </trkpt>
      <trkpt lat="47.00339" lon="3.33013">
        <ele>245.5390625</ele>
        <time>2016-03-02T13:12:28.000Z</time>
      </trkpt>
      <trkpt lat="47.00337" lon="3.33008">
        <ele>245.625</ele>
        <time>2016-03-02T13:12:31.000Z</time>
      </trkpt>
      <trkpt lat="47.00336" lon="3.33006">
        <ele>245.71484375</ele>
        <time>2016-03-02T13:12:33.000Z</time>
      </trkpt>
      <trkpt lat="47.00334" lon="3.33004">
        <ele>245.80078125</ele>
        <time>2016-03-02T13:12:35.000Z</time>
      </trkpt>
      <trkpt lat="47.00332" lon="3.33">
        <ele>245.88342285156</ele>
        <time>2016-03-02T13:12:38.000Z</time>
      </trkpt>
      <trkpt lat="47.00332" lon="3.32998">
        <ele>245.94116210938</ele>
        <time>2016-03-02T13:12:40.000Z</time>
      </trkpt>
      <trkpt lat="47.0033" lon="3.32994">
        <ele>245.98962402344</ele>
        <time>2016-03-02T13:12:43.000Z</time>
      </trkpt>
      <trkpt lat="47.00326" lon="3.3299">
        <ele>246.03852844238</ele>
        <time>2016-03-02T13:12:46.000Z</time>
      </trkpt>
      <trkpt lat="47.00325" lon="3.32988">
        <ele>246.07824707031</ele>
        <time>2016-03-02T13:12:48.000Z</time>
      </trkpt>
      <trkpt lat="47.00322" lon="3.32985">
        <ele>246.119140625</ele>
        <time>2016-03-02T13:12:51.000Z</time>
      </trkpt>
      <trkpt lat="47.00321" lon="3.32983">
        <ele>246.16694641113</ele>
        <time>2016-03-02T13:12:53.000Z</time>
      </trkpt>
      <trkpt lat="47.00319" lon="3.32981">
        <ele>246.21691894531</ele>
        <time>2016-03-02T13:12:55.000Z</time>
      </trkpt>
      <trkpt lat="47.00316" lon="3.32977">
        <ele>246.26020812988</ele>
        <time>2016-03-02T13:12:58.000Z</time>
      </trkpt>
      <trkpt lat="47.00314" lon="3.32976">
        <ele>246.3076171875</ele>
        <time>2016-03-02T13:13:00.000Z</time>
      </trkpt>
      <trkpt lat="47.00313" lon="3.32973">
        <ele>246.34028625488</ele>
        <time>2016-03-02T13:13:02.000Z</time>
      </trkpt>
      <trkpt lat="47.00312" lon="3.32969">
        <ele>246.36486816406</ele>
        <time>2016-03-02T13:13:04.000Z</time>
      </trkpt>
      <trkpt lat="47.0031" lon="3.32967">
        <ele>246.39428710938</ele>
        <time>2016-03-02T13:13:06.000Z</time>
      </trkpt>
      <trkpt lat="47.00306" lon="3.32966">
        <ele>246.43933105469</ele>
        <time>2016-03-02T13:13:09.000Z</time>
      </trkpt>
      <trkpt lat="47.00303" lon="3.32963">
        <ele>246.48779296875</ele>
        <time>2016-03-02T13:13:12.000Z</time>
      </trkpt>
      <trkpt lat="47.00299" lon="3.32962">
        <ele>246.56660461426</ele>
        <time>2016-03-02T13:13:15.000Z</time>
      </trkpt>
      <trkpt lat="47.00296" lon="3.32959">
        <ele>246.66313171387</ele>
        <time>2016-03-02T13:13:18.000Z</time>
      </trkpt>
      <trkpt lat="47.00293" lon="3.32958">
        <ele>246.76086425781</ele>
        <time>2016-03-02T13:13:20.000Z</time>
      </trkpt>
      <trkpt lat="47.00291" lon="3.32956">
        <ele>246.84867858887</ele>
        <time>2016-03-02T13:13:23.000Z</time>
      </trkpt>
      <trkpt lat="47.00288" lon="3.32956">
        <ele>246.93965148926</ele>
        <time>2016-03-02T13:13:26.000Z</time>
      </trkpt>
      <trkpt lat="47.00286" lon="3.32954">
        <ele>247.01391601562</ele>
        <time>2016-03-02T13:13:29.000Z</time>
      </trkpt>
      <trkpt lat="47.00282" lon="3.32949">
        <ele>247.08564758301</ele>
        <time>2016-03-02T13:13:32.000Z</time>
      </trkpt>
      <trkpt lat="47.00281" lon="3.32947">
        <ele>247.14855957031</ele>
        <time>2016-03-02T13:13:35.000Z</time>
      </trkpt>
      <trkpt lat="47.00278" lon="3.32944">
        <ele>247.20825195312</ele>
        <time>2016-03-02T13:13:38.000Z</time>
      </trkpt>
      <trkpt lat="47.00277" lon="3.32943">
        <ele>247.25996398926</ele>
        <time>2016-03-02T13:13:40.000Z</time>
      </trkpt>
      <trkpt lat="47.00274" lon="3.32942">
        <ele>247.31494140625</ele>
        <time>2016-03-02T13:13:42.000Z</time>
      </trkpt>
      <trkpt lat="47.00272" lon="3.32941">
        <ele>247.37072753906</ele>
        <time>2016-03-02T13:13:45.000Z</time>
      </trkpt>
      <trkpt lat="47.00269" lon="3.32939">
        <ele>247.43428039551</ele>
        <time>2016-03-02T13:13:47.000Z</time>
      </trkpt>
      <trkpt lat="47.00267" lon="3.32936">
        <ele>247.50068664551</ele>
        <time>2016-03-02T13:13:50.000Z</time>
      </trkpt>
      <trkpt lat="47.00264" lon="3.32934">
        <ele>247.57255554199</ele>
        <time>2016-03-02T13:13:53.000Z</time>
      </trkpt>
      <trkpt lat="47.00261" lon="3.32931">
        <ele>247.63984680176</ele>
        <time>2016-03-02T13:13:56.000Z</time>
      </trkpt>
      <trkpt lat="47.00259" lon="3.32929">
        <ele>247.70690917969</ele>
        <time>2016-03-02T13:13:59.000Z</time>
      </trkpt>
      <trkpt lat="47.00257" lon="3.32927">
        <ele>247.767578125</ele>
        <time>2016-03-02T13:14:01.000Z</time>
      </trkpt>
      <trkpt lat="47.00253" lon="3.32925">
        <ele>247.83703613281</ele>
        <time>2016-03-02T13:14:04.000Z</time>
      </trkpt>
      <trkpt lat="47.00252" lon="3.32924">
        <ele>247.89741516113</ele>
        <time>2016-03-02T13:14:06.000Z</time>
      </trkpt>
      <trkpt lat="47.00251" lon="3.32922">
        <ele>247.95234680176</ele>
        <time>2016-03-02T13:14:08.000Z</time>
      </trkpt>
      <trkpt lat="47.00249" lon="3.32921">
        <ele>248.00009155273</ele>
        <time>2016-03-02T13:14:10.000Z</time>
      </trkpt>
      <trkpt lat="47.00248" lon="3.3292">
        <ele>248.04609680176</ele>
        <time>2016-03-02T13:14:13.000Z</time>
      </trkpt>
      <trkpt lat="47.00248" lon="3.3292">
        <ele>248.04609680176</ele>
        <time>2016-03-02T13:14:33.000Z</time>
      </trkpt>
      <trkpt lat="47.00246" lon="3.32921">
        <ele>248.08218383789</ele>
        <time>2016-03-02T13:14:55.000Z</time>
      </trkpt>
      <trkpt lat="47.00243" lon="3.32918">
        <ele>248.13626098633</ele>
        <time>2016-03-02T13:14:58.000Z</time>
      </trkpt>
      <trkpt lat="47.00239" lon="3.32917">
        <ele>248.20869445801</ele>
        <time>2016-03-02T13:15:01.000Z</time>
      </trkpt>
      <trkpt lat="47.00235" lon="3.32916">
        <ele>248.29399108887</ele>
        <time>2016-03-02T13:15:04.000Z</time>
      </trkpt>
      <trkpt lat="47.00231" lon="3.32914">
        <ele>248.38972473145</ele>
        <time>2016-03-02T13:15:07.000Z</time>
      </trkpt>
      <trkpt lat="47.00229" lon="3.32912">
        <ele>248.47940063477</ele>
        <time>2016-03-02T13:15:10.000Z</time>
      </trkpt>
      <trkpt lat="47.00227" lon="3.32911">
        <ele>248.54830932617</ele>
        <time>2016-03-02T13:15:12.000Z</time>
      </trkpt>
      <trkpt lat="47.00225" lon="3.32909">
        <ele>248.59468078613</ele>
        <time>2016-03-02T13:15:14.000Z</time>
      </trkpt>
      <trkpt lat="47.00222" lon="3.32906">
        <ele>248.62194824219</ele>
        <time>2016-03-02T13:15:17.000Z</time>
      </trkpt>
      <trkpt lat="47.0022" lon="3.32904">
        <ele>248.64199829102</ele>
        <time>2016-03-02T13:15:20.000Z</time>
      </trkpt>
      <trkpt lat="47.00217" lon="3.32902">
        <ele>248.65994262695</ele>
        <time>2016-03-02T13:15:23.000Z</time>
      </trkpt>
      <trkpt lat="47.00216" lon="3.32901">
        <ele>248.67561340332</ele>
        <time>2016-03-02T13:15:25.000Z</time>
      </trkpt>
      <trkpt lat="47.00213" lon="3.32899">
        <ele>248.70417785645</ele>
        <time>2016-03-02T13:15:28.000Z</time>
      </trkpt>
      <trkpt lat="47.00211" lon="3.32897">
        <ele>248.7405090332</ele>
        <time>2016-03-02T13:15:30.000Z</time>
      </trkpt>
      <trkpt lat="47.00209" lon="3.32895">
        <ele>248.76989746094</ele>
        <time>2016-03-02T13:15:33.000Z</time>
      </trkpt>
      <trkpt lat="47.00207" lon="3.32893">
        <ele>248.7985534668</ele>
        <time>2016-03-02T13:15:35.000Z</time>
      </trkpt>
      <trkpt lat="47.00204" lon="3.3289">
        <ele>248.83349609375</ele>
        <time>2016-03-02T13:15:38.000Z</time>
      </trkpt>
      <trkpt lat="47.00202" lon="3.32887">
        <ele>248.85151672363</ele>
        <time>2016-03-02T13:15:41.000Z</time>
      </trkpt>
      <trkpt lat="47.00199" lon="3.32885">
        <ele>248.87214660645</ele>
        <time>2016-03-02T13:15:44.000Z</time>
      </trkpt>
      <trkpt lat="47.00195" lon="3.32882">
        <ele>248.90446472168</ele>
        <time>2016-03-02T13:15:47.000Z</time>
      </trkpt>
      <trkpt lat="47.00192" lon="3.3288">
        <ele>248.9496307373</ele>
        <time>2016-03-02T13:15:50.000Z</time>
      </trkpt>
      <trkpt lat="47.0019" lon="3.32879">
        <ele>248.99853515625</ele>
        <time>2016-03-02T13:15:52.000Z</time>
      </trkpt>
      <trkpt lat="47.00188" lon="3.32878">
        <ele>249.05839538574</ele>
        <time>2016-03-02T13:15:54.000Z</time>
      </trkpt>
      <trkpt lat="47.00186" lon="3.32876">
        <ele>249.11860656738</ele>
        <time>2016-03-02T13:15:57.000Z</time>
      </trkpt>
      <trkpt lat="47.00183" lon="3.32875">
        <ele>249.17868041992</ele>
        <time>2016-03-02T13:16:00.000Z</time>
      </trkpt>
      <trkpt lat="47.00181" lon="3.32873">
        <ele>249.23258972168</ele>
        <time>2016-03-02T13:16:01.000Z</time>
      </trkpt>
      <trkpt lat="47.00179" lon="3.32871">
        <ele>249.28335571289</ele>
        <time>2016-03-02T13:16:03.000Z</time>
      </trkpt>
      <trkpt lat="47.00177" lon="3.3287">
        <ele>249.33871459961</ele>
        <time>2016-03-02T13:16:05.000Z</time>
      </trkpt>
      <trkpt lat="47.00174" lon="3.32867">
        <ele>249.39277648926</ele>
        <time>2016-03-02T13:16:08.000Z</time>
      </trkpt>
      <trkpt lat="47.00172" lon="3.32865">
        <ele>249.43441772461</ele>
        <time>2016-03-02T13:16:11.000Z</time>
      </trkpt>
      <trkpt lat="47.0017" lon="3.32863">
        <ele>249.47583007812</ele>
        <time>2016-03-02T13:16:13.000Z</time>
      </trkpt>
      <trkpt lat="47.00168" lon="3.3286">
        <ele>249.5149230957</ele>
        <time>2016-03-02T13:16:15.000Z</time>
      </trkpt>
      <trkpt lat="47.00166" lon="3.32857">
        <ele>249.54316711426</ele>
        <time>2016-03-02T13:16:17.000Z</time>
      </trkpt>
      <trkpt lat="47.00163" lon="3.32855">
        <ele>249.60635375977</ele>
        <time>2016-03-02T13:16:20.000Z</time>
      </trkpt>
      <trkpt lat="47.00159" lon="3.32851">
        <ele>249.72305297852</ele>
        <time>2016-03-02T13:16:23.000Z</time>
      </trkpt>
      <trkpt lat="47.00158" lon="3.3285">
        <ele>249.85136413574</ele>
        <time>2016-03-02T13:16:25.000Z</time>
      </trkpt>
      <trkpt lat="47.00154" lon="3.32847">
        <ele>250.01350402832</ele>
        <time>2016-03-02T13:16:28.000Z</time>
      </trkpt>
      <trkpt lat="47.00151" lon="3.32844">
        <ele>250.22966003418</ele>
        <time>2016-03-02T13:16:31.000Z</time>
      </trkpt>
      <trkpt lat="47.0015" lon="3.32843">
        <ele>250.42094421387</ele>
        <time>2016-03-02T13:16:33.000Z</time>
      </trkpt>
      <trkpt lat="47.00147" lon="3.32841">
        <ele>250.60478210449</ele>
        <time>2016-03-02T13:16:35.000Z</time>
      </trkpt>
      <trkpt lat="47.00144" lon="3.32839">
        <ele>250.81149291992</ele>
        <time>2016-03-02T13:16:38.000Z</time>
      </trkpt>
      <trkpt lat="47.00142" lon="3.32836">
        <ele>251.01953125</ele>
        <time>2016-03-02T13:16:41.000Z</time>
      </trkpt>
      <trkpt lat="47.0014" lon="3.32834">
        <ele>251.19137573242</ele>
        <time>2016-03-02T13:16:43.000Z</time>
      </trkpt>
      <trkpt lat="47.00139" lon="3.32832">
        <ele>251.36120605469</ele>
        <time>2016-03-02T13:16:45.000Z</time>
      </trkpt>
      <trkpt lat="47.00137" lon="3.32829">
        <ele>251.51379394531</ele>
        <time>2016-03-02T13:16:47.000Z</time>
      </trkpt>
      <trkpt lat="47.00135" lon="3.32826">
        <ele>251.64958190918</ele>
        <time>2016-03-02T13:16:50.000Z</time>
      </trkpt>
      <trkpt lat="47.00133" lon="3.32824">
        <ele>251.78422546387</ele>
        <time>2016-03-02T13:16:52.000Z</time>
      </trkpt>
      <trkpt lat="47.00131" lon="3.32822">
        <ele>251.92398071289</ele>
        <time>2016-03-02T13:16:54.000Z</time>
      </trkpt>
      <trkpt lat="47.0013" lon="3.3282">
        <ele>252.06257629395</ele>
        <time>2016-03-02T13:16:56.000Z</time>
      </trkpt>
      <trkpt lat="47.00127" lon="3.32817">
        <ele>252.21377563477</ele>
        <time>2016-03-02T13:16:59.000Z</time>
      </trkpt>
      <trkpt lat="47.00125" lon="3.32814">
        <ele>252.36437988281</ele>
        <time>2016-03-02T13:17:02.000Z</time>
      </trkpt>
      <trkpt lat="47.00122" lon="3.32811">
        <ele>252.51083374023</ele>
        <time>2016-03-02T13:17:04.000Z</time>
      </trkpt>
      <trkpt lat="47.00121" lon="3.3281">
        <ele>252.66423034668</ele>
        <time>2016-03-02T13:17:06.000Z</time>
      </trkpt>
      <trkpt lat="47.00117" lon="3.32808">
        <ele>252.84846496582</ele>
        <time>2016-03-02T13:17:09.000Z</time>
      </trkpt>
      <trkpt lat="47.00114" lon="3.32805">
        <ele>253.03813171387</ele>
        <time>2016-03-02T13:17:12.000Z</time>
      </trkpt>
      <trkpt lat="47.00111" lon="3.32802">
        <ele>253.25704956055</ele>
        <time>2016-03-02T13:17:15.000Z</time>
      </trkpt>
      <trkpt lat="47.00108" lon="3.32799">
        <ele>253.48733520508</ele>
        <time>2016-03-02T13:17:18.000Z</time>
      </trkpt>
      <trkpt lat="47.00105" lon="3.32796">
        <ele>253.71830749512</ele>
        <time>2016-03-02T13:17:21.000Z</time>
      </trkpt>
      <trkpt lat="47.00103" lon="3.32794">
        <ele>253.9273223877</ele>
        <time>2016-03-02T13:17:23.000Z</time>
      </trkpt>
      <trkpt lat="47.001" lon="3.32791">
        <ele>254.12239074707</ele>
        <time>2016-03-02T13:17:26.000Z</time>
      </trkpt>
      <trkpt lat="47.00097" lon="3.32788">
        <ele>254.31726074219</ele>
        <time>2016-03-02T13:17:29.000Z</time>
      </trkpt>
      <trkpt lat="47.00095" lon="3.32786">
        <ele>254.49426269531</ele>
        <time>2016-03-02T13:17:31.000Z</time>
      </trkpt>
      <trkpt lat="47.00091" lon="3.32783">
        <ele>254.68469238281</ele>
        <time>2016-03-02T13:17:34.000Z</time>
      </trkpt>
      <trkpt lat="47.00089" lon="3.32782">
        <ele>254.87910461426</ele>
        <time>2016-03-02T13:17:36.000Z</time>
      </trkpt>
      <trkpt lat="47.00086" lon="3.32779">
        <ele>255.08602905273</ele>
        <time>2016-03-02T13:17:39.000Z</time>
      </trkpt>
      <trkpt lat="47.00084" lon="3.32778">
        <ele>255.26496887207</ele>
        <time>2016-03-02T13:17:41.000Z</time>
      </trkpt>
      <trkpt lat="47.00082" lon="3.32776">
        <ele>255.43598937988</ele>
        <time>2016-03-02T13:17:43.000Z</time>
      </trkpt>
      <trkpt lat="47.0008" lon="3.32774">
        <ele>255.58659362793</ele>
        <time>2016-03-02T13:17:45.000Z</time>
      </trkpt>
      <trkpt lat="47.00076" lon="3.3277">
        <ele>255.75570678711</ele>
        <time>2016-03-02T13:17:48.000Z</time>
      </trkpt>
      <trkpt lat="47.00073" lon="3.32767">
        <ele>255.9342956543</ele>
        <time>2016-03-02T13:17:51.000Z</time>
      </trkpt>
      <trkpt lat="47.00071" lon="3.32766">
        <ele>256.1067199707</ele>
        <time>2016-03-02T13:17:53.000Z</time>
      </trkpt>
      <trkpt lat="47.00068" lon="3.32762">
        <ele>256.29769897461</ele>
        <time>2016-03-02T13:17:56.000Z</time>
      </trkpt>
      <trkpt lat="47.00065" lon="3.3276">
        <ele>256.52072143555</ele>
        <time>2016-03-02T13:17:59.000Z</time>
      </trkpt>
      <trkpt lat="47.00062" lon="3.32758">
        <ele>256.74185180664</ele>
        <time>2016-03-02T13:18:02.000Z</time>
      </trkpt>
      <trkpt lat="47.0006" lon="3.32756">
        <ele>256.93246459961</ele>
        <time>2016-03-02T13:18:05.000Z</time>
      </trkpt>
      <trkpt lat="47.00056" lon="3.32752">
        <ele>257.16400146484</ele>
        <time>2016-03-02T13:18:08.000Z</time>
      </trkpt>
      <trkpt lat="47.00054" lon="3.3275">
        <ele>257.396484375</ele>
        <time>2016-03-02T13:18:10.000Z</time>
      </trkpt>
      <trkpt lat="47.00051" lon="3.32748">
        <ele>257.61358642578</ele>
        <time>2016-03-02T13:18:13.000Z</time>
      </trkpt>
      <trkpt lat="47.00049" lon="3.32748">
        <ele>257.81439208984</ele>
        <time>2016-03-02T13:18:15.000Z</time>
      </trkpt>
      <trkpt lat="47.00042" lon="3.32745">
        <ele>258.11254882812</ele>
        <time>2016-03-02T13:18:18.000Z</time>
      </trkpt>
      <trkpt lat="47.0004" lon="3.32743">
        <ele>258.37292480469</ele>
        <time>2016-03-02T13:18:20.000Z</time>
      </trkpt>
      <trkpt lat="47.00036" lon="3.3274">
        <ele>258.6471862793</ele>
        <time>2016-03-02T13:18:23.000Z</time>
      </trkpt>
      <trkpt lat="47.00034" lon="3.32739">
        <ele>258.90829467773</ele>
        <time>2016-03-02T13:18:25.000Z</time>
      </trkpt>
      <trkpt lat="47.00031" lon="3.32736">
        <ele>259.19549560547</ele>
        <time>2016-03-02T13:18:28.000Z</time>
      </trkpt>
      <trkpt lat="47.00027" lon="3.32735">
        <ele>259.41278076172</ele>
        <time>2016-03-02T13:18:31.000Z</time>
      </trkpt>
      <trkpt lat="47.00024" lon="3.32733">
        <ele>259.65133666992</ele>
        <time>2016-03-02T13:18:34.000Z</time>
      </trkpt>
      <trkpt lat="47.00021" lon="3.32731">
        <ele>259.87521362305</ele>
        <time>2016-03-02T13:18:37.000Z</time>
      </trkpt>
      <trkpt lat="47.00019" lon="3.32729">
        <ele>260.09930419922</ele>
        <time>2016-03-02T13:18:39.000Z</time>
      </trkpt>
      <trkpt lat="47.00016" lon="3.32725">
        <ele>260.29400634766</ele>
        <time>2016-03-02T13:18:42.000Z</time>
      </trkpt>
      <trkpt lat="47.00013" lon="3.32724">
        <ele>260.48648071289</ele>
        <time>2016-03-02T13:18:45.000Z</time>
      </trkpt>
      <trkpt lat="47.00011" lon="3.32723">
        <ele>260.66595458984</ele>
        <time>2016-03-02T13:18:48.000Z</time>
      </trkpt>
      <trkpt lat="47.00008" lon="3.32721">
        <ele>260.85052490234</ele>
        <time>2016-03-02T13:18:51.000Z</time>
      </trkpt>
      <trkpt lat="47.00004" lon="3.3272">
        <ele>261.06842041016</ele>
        <time>2016-03-02T13:18:54.000Z</time>
      </trkpt>
      <trkpt lat="47" lon="3.32716">
        <ele>261.29681396484</ele>
        <time>2016-03-02T13:18:57.000Z</time>
      </trkpt>
      <trkpt lat="46.99998" lon="3.32715">
        <ele>261.46829223633</ele>
        <time>2016-03-02T13:19:00.000Z</time>
      </trkpt>
      <trkpt lat="46.99994" lon="3.32713">
        <ele>261.59442138672</ele>
        <time>2016-03-02T13:19:03.000Z</time>
      </trkpt>
      <trkpt lat="46.9999" lon="3.32711">
        <ele>261.66006469727</ele>
        <time>2016-03-02T13:19:06.000Z</time>
      </trkpt>
      <trkpt lat="46.99988" lon="3.32711">
        <ele>261.65994262695</ele>
        <time>2016-03-02T13:19:08.000Z</time>
      </trkpt>
      <trkpt lat="46.99984" lon="3.3271">
        <ele>261.61672973633</ele>
        <time>2016-03-02T13:19:10.000Z</time>
      </trkpt>
      <trkpt lat="46.99979" lon="3.32708">
        <ele>261.57025146484</ele>
        <time>2016-03-02T13:19:13.000Z</time>
      </trkpt>
      <trkpt lat="46.99976" lon="3.32704">
        <ele>261.51892089844</ele>
        <time>2016-03-02T13:19:16.000Z</time>
      </trkpt>
      <trkpt lat="46.99974" lon="3.32699">
        <ele>261.46417236328</ele>
        <time>2016-03-02T13:19:19.000Z</time>
      </trkpt>
      <trkpt lat="46.99973" lon="3.32698">
        <ele>261.40591430664</ele>
        <time>2016-03-02T13:19:21.000Z</time>
      </trkpt>
      <trkpt lat="46.9997" lon="3.32691">
        <ele>261.33343505859</ele>
        <time>2016-03-02T13:19:24.000Z</time>
      </trkpt>
      <trkpt lat="46.99968" lon="3.32689">
        <ele>261.26617431641</ele>
        <time>2016-03-02T13:19:26.000Z</time>
      </trkpt>
      <trkpt lat="46.99966" lon="3.32686">
        <ele>261.20867919922</ele>
        <time>2016-03-02T13:19:29.000Z</time>
      </trkpt>
      <trkpt lat="46.99964" lon="3.32681">
        <ele>261.16253662109</ele>
        <time>2016-03-02T13:19:32.000Z</time>
      </trkpt>
      <trkpt lat="46.99963" lon="3.32677">
        <ele>261.11477661133</ele>
        <time>2016-03-02T13:19:35.000Z</time>
      </trkpt>
      <trkpt lat="46.99961" lon="3.32673">
        <ele>261.08197021484</ele>
        <time>2016-03-02T13:19:37.000Z</time>
      </trkpt>
      <trkpt lat="46.9996" lon="3.32669">
        <ele>261.0481262207</ele>
        <time>2016-03-02T13:19:39.000Z</time>
      </trkpt>
      <trkpt lat="46.99959" lon="3.32664">
        <ele>261.01373291016</ele>
        <time>2016-03-02T13:19:42.000Z</time>
      </trkpt>
      <trkpt lat="46.99958" lon="3.3266">
        <ele>260.98150634766</ele>
        <time>2016-03-02T13:19:44.000Z</time>
      </trkpt>
      <trkpt lat="46.99957" lon="3.32655">
        <ele>260.9514465332</ele>
        <time>2016-03-02T13:19:47.000Z</time>
      </trkpt>
      <trkpt lat="46.99957" lon="3.32652">
        <ele>260.92156982422</ele>
        <time>2016-03-02T13:19:49.000Z</time>
      </trkpt>
      <trkpt lat="46.99955" lon="3.32648">
        <ele>260.8981628418</ele>
        <time>2016-03-02T13:19:51.000Z</time>
      </trkpt>
      <trkpt lat="46.99955" lon="3.32644">
        <ele>260.87435913086</ele>
        <time>2016-03-02T13:19:54.000Z</time>
      </trkpt>
      <trkpt lat="46.99954" lon="3.3264">
        <ele>260.85165405273</ele>
        <time>2016-03-02T13:19:56.000Z</time>
      </trkpt>
      <trkpt lat="46.99954" lon="3.32637">
        <ele>260.82928466797</ele>
        <time>2016-03-02T13:19:58.000Z</time>
      </trkpt>
      <trkpt lat="46.99953" lon="3.32633">
        <ele>260.81362915039</ele>
        <time>2016-03-02T13:20:00.000Z</time>
      </trkpt>
      <trkpt lat="46.9995" lon="3.32627">
        <ele>260.80233764648</ele>
        <time>2016-03-02T13:20:03.000Z</time>
      </trkpt>
      <trkpt lat="46.9995" lon="3.32626">
        <ele>260.79730224609</ele>
        <time>2016-03-02T13:20:05.000Z</time>
      </trkpt>
      <trkpt lat="46.99947" lon="3.3262">
        <ele>260.80755615234</ele>
        <time>2016-03-02T13:20:08.000Z</time>
      </trkpt>
      <trkpt lat="46.99945" lon="3.32614">
        <ele>260.83197021484</ele>
        <time>2016-03-02T13:20:11.000Z</time>
      </trkpt>
      <trkpt lat="46.99944" lon="3.32611">
        <ele>260.86077880859</ele>
        <time>2016-03-02T13:20:13.000Z</time>
      </trkpt>
      <trkpt lat="46.99942" lon="3.32608">
        <ele>260.88983154297</ele>
        <time>2016-03-02T13:20:15.000Z</time>
      </trkpt>
      <trkpt lat="46.9994" lon="3.32605">
        <ele>260.92858886719</ele>
        <time>2016-03-02T13:20:17.000Z</time>
      </trkpt>
      <trkpt lat="46.9994" lon="3.326">
        <ele>260.95794677734</ele>
        <time>2016-03-02T13:20:20.000Z</time>
      </trkpt>
      <trkpt lat="46.99939" lon="3.32598">
        <ele>260.98571777344</ele>
        <time>2016-03-02T13:20:22.000Z</time>
      </trkpt>
      <trkpt lat="46.99937" lon="3.32592">
        <ele>261.01904296875</ele>
        <time>2016-03-02T13:20:25.000Z</time>
      </trkpt>
      <trkpt lat="46.99935" lon="3.32587">
        <ele>261.05667114258</ele>
        <time>2016-03-02T13:20:28.000Z</time>
      </trkpt>
      <trkpt lat="46.99934" lon="3.32584">
        <ele>261.09384155273</ele>
        <time>2016-03-02T13:20:30.000Z</time>
      </trkpt>
      <trkpt lat="46.99932" lon="3.3258">
        <ele>261.12469482422</ele>
        <time>2016-03-02T13:20:33.000Z</time>
      </trkpt>
      <trkpt lat="46.9993" lon="3.32575">
        <ele>261.12881469727</ele>
        <time>2016-03-02T13:20:36.000Z</time>
      </trkpt>
      <trkpt lat="46.99928" lon="3.3257">
        <ele>261.11614990234</ele>
        <time>2016-03-02T13:20:39.000Z</time>
      </trkpt>
      <trkpt lat="46.99925" lon="3.32567">
        <ele>261.09594726562</ele>
        <time>2016-03-02T13:20:43.000Z</time>
      </trkpt>
      <trkpt lat="46.99923" lon="3.32564">
        <ele>261.06585693359</ele>
        <time>2016-03-02T13:20:44.000Z</time>
      </trkpt>
      <trkpt lat="46.9992" lon="3.32562">
        <ele>261.04663085938</ele>
        <time>2016-03-02T13:20:46.000Z</time>
      </trkpt>
      <trkpt lat="46.99918" lon="3.32558">
        <ele>261.04043579102</ele>
        <time>2016-03-02T13:20:49.000Z</time>
      </trkpt>
      <trkpt lat="46.99915" lon="3.32554">
        <ele>261.00839233398</ele>
        <time>2016-03-02T13:20:52.000Z</time>
      </trkpt>
      <trkpt lat="46.99912" lon="3.3255">
        <ele>260.93341064453</ele>
        <time>2016-03-02T13:20:55.000Z</time>
      </trkpt>
      <trkpt lat="46.99909" lon="3.32547">
        <ele>260.82217407227</ele>
        <time>2016-03-02T13:20:58.000Z</time>
      </trkpt>
      <trkpt lat="46.99906" lon="3.32543">
        <ele>260.66513061523</ele>
        <time>2016-03-02T13:21:01.000Z</time>
      </trkpt>
      <trkpt lat="46.99903" lon="3.32541">
        <ele>260.48828125</ele>
        <time>2016-03-02T13:21:03.000Z</time>
      </trkpt>
      <trkpt lat="46.999" lon="3.32538">
        <ele>260.31500244141</ele>
        <time>2016-03-02T13:21:06.000Z</time>
      </trkpt>
      <trkpt lat="46.99898" lon="3.32536">
        <ele>260.16058349609</ele>
        <time>2016-03-02T13:21:09.000Z</time>
      </trkpt>
      <trkpt lat="46.99895" lon="3.32534">
        <ele>260.02536010742</ele>
        <time>2016-03-02T13:21:11.000Z</time>
      </trkpt>
      <trkpt lat="46.99892" lon="3.32533">
        <ele>259.91223144531</ele>
        <time>2016-03-02T13:21:14.000Z</time>
      </trkpt>
      <trkpt lat="46.9989" lon="3.32531">
        <ele>259.81121826172</ele>
        <time>2016-03-02T13:21:16.000Z</time>
      </trkpt>
      <trkpt lat="46.99887" lon="3.32531">
        <ele>259.72637939453</ele>
        <time>2016-03-02T13:21:18.000Z</time>
      </trkpt>
      <trkpt lat="46.99884" lon="3.3253">
        <ele>259.64855957031</ele>
        <time>2016-03-02T13:21:21.000Z</time>
      </trkpt>
      <trkpt lat="46.9988" lon="3.32529">
        <ele>259.57342529297</ele>
        <time>2016-03-02T13:21:23.000Z</time>
      </trkpt>
      <trkpt lat="46.99875" lon="3.32529">
        <ele>259.49975585938</ele>
        <time>2016-03-02T13:21:26.000Z</time>
      </trkpt>
      <trkpt lat="46.99873" lon="3.32527">
        <ele>259.43124389648</ele>
        <time>2016-03-02T13:21:28.000Z</time>
      </trkpt>
      <trkpt lat="46.99869" lon="3.32526">
        <ele>259.35906982422</ele>
        <time>2016-03-02T13:21:31.000Z</time>
      </trkpt>
      <trkpt lat="46.99867" lon="3.32524">
        <ele>259.29376220703</ele>
        <time>2016-03-02T13:21:33.000Z</time>
      </trkpt>
      <trkpt lat="46.99865" lon="3.32523">
        <ele>259.23593139648</ele>
        <time>2016-03-02T13:21:35.000Z</time>
      </trkpt>
      <trkpt lat="46.99861" lon="3.32522">
        <ele>259.18493652344</ele>
        <time>2016-03-02T13:21:38.000Z</time>
      </trkpt>
      <trkpt lat="46.99858" lon="3.32521">
        <ele>259.13534545898</ele>
        <time>2016-03-02T13:21:41.000Z</time>
      </trkpt>
      <trkpt lat="46.99855" lon="3.32519">
        <ele>259.09356689453</ele>
        <time>2016-03-02T13:21:44.000Z</time>
      </trkpt>
      <trkpt lat="46.99851" lon="3.32516">
        <ele>259.05108642578</ele>
        <time>2016-03-02T13:21:47.000Z</time>
      </trkpt>
      <trkpt lat="46.99848" lon="3.32515">
        <ele>259.01211547852</ele>
        <time>2016-03-02T13:21:49.000Z</time>
      </trkpt>
      <trkpt lat="46.99845" lon="3.32514">
        <ele>258.97964477539</ele>
        <time>2016-03-02T13:21:51.000Z</time>
      </trkpt>
      <trkpt lat="46.99841" lon="3.32512">
        <ele>258.95233154297</ele>
        <time>2016-03-02T13:21:54.000Z</time>
      </trkpt>
      <trkpt lat="46.9984" lon="3.32511">
        <ele>258.93231201172</ele>
        <time>2016-03-02T13:21:56.000Z</time>
      </trkpt>
      <trkpt lat="46.99837" lon="3.3251">
        <ele>258.9196472168</ele>
        <time>2016-03-02T13:21:58.000Z</time>
      </trkpt>
      <trkpt lat="46.99834" lon="3.32509">
        <ele>258.90924072266</ele>
        <time>2016-03-02T13:22:00.000Z</time>
      </trkpt>
      <trkpt lat="46.99831" lon="3.32508">
        <ele>258.90277099609</ele>
        <time>2016-03-02T13:22:03.000Z</time>
      </trkpt>
      <trkpt lat="46.99829" lon="3.32508">
        <ele>258.89855957031</ele>
        <time>2016-03-02T13:22:05.000Z</time>
      </trkpt>
      <trkpt lat="46.99826" lon="3.32508">
        <ele>258.89434814453</ele>
        <time>2016-03-02T13:22:07.000Z</time>
      </trkpt>
      <trkpt lat="46.99823" lon="3.32506">
        <ele>258.89477539062</ele>
        <time>2016-03-02T13:22:10.000Z</time>
      </trkpt>
      <trkpt lat="46.99818" lon="3.32502">
        <ele>258.90887451172</ele>
        <time>2016-03-02T13:22:13.000Z</time>
      </trkpt>
      <trkpt lat="46.99816" lon="3.325">
        <ele>258.93017578125</ele>
        <time>2016-03-02T13:22:15.000Z</time>
      </trkpt>
      <trkpt lat="46.99813" lon="3.32497">
        <ele>258.95318603516</ele>
        <time>2016-03-02T13:22:18.000Z</time>
      </trkpt>
      <trkpt lat="46.99811" lon="3.32496">
        <ele>258.97775268555</ele>
        <time>2016-03-02T13:22:20.000Z</time>
      </trkpt>
      <trkpt lat="46.99809" lon="3.32495">
        <ele>259.00015258789</ele>
        <time>2016-03-02T13:22:22.000Z</time>
      </trkpt>
      <trkpt lat="46.99806" lon="3.32492">
        <ele>259.01348876953</ele>
        <time>2016-03-02T13:22:25.000Z</time>
      </trkpt>
      <trkpt lat="46.99803" lon="3.32491">
        <ele>259.02124023438</ele>
        <time>2016-03-02T13:22:28.000Z</time>
      </trkpt>
      <trkpt lat="46.998" lon="3.32491">
        <ele>259.02844238281</ele>
        <time>2016-03-02T13:22:31.000Z</time>
      </trkpt>
      <trkpt lat="46.99798" lon="3.3249">
        <ele>259.03579711914</ele>
        <time>2016-03-02T13:22:33.000Z</time>
      </trkpt>
      <trkpt lat="46.99796" lon="3.3249">
        <ele>259.04342651367</ele>
        <time>2016-03-02T13:22:35.000Z</time>
      </trkpt>
      <trkpt lat="46.99793" lon="3.3249">
        <ele>259.04907226562</ele>
        <time>2016-03-02T13:22:38.000Z</time>
      </trkpt>
      <trkpt lat="46.99791" lon="3.3249">
        <ele>259.05325317383</ele>
        <time>2016-03-02T13:22:41.000Z</time>
      </trkpt>
      <trkpt lat="46.9979" lon="3.32489">
        <ele>259.05810546875</ele>
        <time>2016-03-02T13:22:57.000Z</time>
      </trkpt>
      <trkpt lat="46.99788" lon="3.32487">
        <ele>259.06509399414</ele>
        <time>2016-03-02T13:23:00.000Z</time>
      </trkpt>
      <trkpt lat="46.99784" lon="3.32485">
        <ele>259.07440185547</ele>
        <time>2016-03-02T13:23:03.000Z</time>
      </trkpt>
      <trkpt lat="46.99783" lon="3.32484">
        <ele>259.08541870117</ele>
        <time>2016-03-02T13:23:05.000Z</time>
      </trkpt>
      <trkpt lat="46.99781" lon="3.32484">
        <ele>259.09747314453</ele>
        <time>2016-03-02T13:23:07.000Z</time>
      </trkpt>
      <trkpt lat="46.99777" lon="3.32483">
        <ele>259.11099243164</ele>
        <time>2016-03-02T13:23:10.000Z</time>
      </trkpt>
      <trkpt lat="46.99775" lon="3.32483">
        <ele>259.12313842773</ele>
        <time>2016-03-02T13:23:12.000Z</time>
      </trkpt>
      <trkpt lat="46.99772" lon="3.32482">
        <ele>259.13397216797</ele>
        <time>2016-03-02T13:23:15.000Z</time>
      </trkpt>
      <trkpt lat="46.99768" lon="3.32481">
        <ele>259.14694213867</ele>
        <time>2016-03-02T13:23:18.000Z</time>
      </trkpt>
      <trkpt lat="46.99765" lon="3.32481">
        <ele>259.16058349609</ele>
        <time>2016-03-02T13:23:21.000Z</time>
      </trkpt>
      <trkpt lat="46.99763" lon="3.32481">
        <ele>259.17291259766</ele>
        <time>2016-03-02T13:23:23.000Z</time>
      </trkpt>
      <trkpt lat="46.9976" lon="3.3248">
        <ele>259.18682861328</ele>
        <time>2016-03-02T13:23:26.000Z</time>
      </trkpt>
      <trkpt lat="46.99757" lon="3.3248">
        <ele>259.19970703125</ele>
        <time>2016-03-02T13:23:29.000Z</time>
      </trkpt>
      <trkpt lat="46.99753" lon="3.32478">
        <ele>259.21493530273</ele>
        <time>2016-03-02T13:23:32.000Z</time>
      </trkpt>
      <trkpt lat="46.99751" lon="3.32477">
        <ele>259.23150634766</ele>
        <time>2016-03-02T13:23:34.000Z</time>
      </trkpt>
      <trkpt lat="46.99747" lon="3.32476">
        <ele>259.27337646484</ele>
        <time>2016-03-02T13:23:37.000Z</time>
      </trkpt>
      <trkpt lat="46.99744" lon="3.32475">
        <ele>259.33737182617</ele>
        <time>2016-03-02T13:23:39.000Z</time>
      </trkpt>
      <trkpt lat="46.9974" lon="3.32473">
        <ele>259.4365234375</ele>
        <time>2016-03-02T13:23:42.000Z</time>
      </trkpt>
      <trkpt lat="46.99737" lon="3.32471">
        <ele>259.55725097656</ele>
        <time>2016-03-02T13:23:44.000Z</time>
      </trkpt>
      <trkpt lat="46.99734" lon="3.32469">
        <ele>259.7033996582</ele>
        <time>2016-03-02T13:23:47.000Z</time>
      </trkpt>
      <trkpt lat="46.99731" lon="3.32468">
        <ele>259.85278320312</ele>
        <time>2016-03-02T13:23:50.000Z</time>
      </trkpt>
      <trkpt lat="46.99728" lon="3.32468">
        <ele>260.00357055664</ele>
        <time>2016-03-02T13:23:53.000Z</time>
      </trkpt>
      <trkpt lat="46.99725" lon="3.32467">
        <ele>260.14630126953</ele>
        <time>2016-03-02T13:23:56.000Z</time>
      </trkpt>
      <trkpt lat="46.99722" lon="3.32467">
        <ele>260.27886962891</ele>
        <time>2016-03-02T13:23:58.000Z</time>
      </trkpt>
      <trkpt lat="46.9972" lon="3.32466">
        <ele>260.40954589844</ele>
        <time>2016-03-02T13:24:01.000Z</time>
      </trkpt>
      <trkpt lat="46.99718" lon="3.32465">
        <ele>260.52978515625</ele>
        <time>2016-03-02T13:24:03.000Z</time>
      </trkpt>
      <trkpt lat="46.99712" lon="3.32463">
        <ele>260.67678833008</ele>
        <time>2016-03-02T13:24:06.000Z</time>
      </trkpt>
      <trkpt lat="46.9971" lon="3.32462">
        <ele>260.81427001953</ele>
        <time>2016-03-02T13:24:08.000Z</time>
      </trkpt>
      <trkpt lat="46.99707" lon="3.32461">
        <ele>260.96575927734</ele>
        <time>2016-03-02T13:24:11.000Z</time>
      </trkpt>
      <trkpt lat="46.99704" lon="3.3246">
        <ele>261.11660766602</ele>
        <time>2016-03-02T13:24:14.000Z</time>
      </trkpt>
      <trkpt lat="46.99701" lon="3.3246">
        <ele>261.26968383789</ele>
        <time>2016-03-02T13:24:16.000Z</time>
      </trkpt>
      <trkpt lat="46.99699" lon="3.32459">
        <ele>261.39498901367</ele>
        <time>2016-03-02T13:24:18.000Z</time>
      </trkpt>
      <trkpt lat="46.99697" lon="3.32459">
        <ele>261.51300048828</ele>
        <time>2016-03-02T13:24:20.000Z</time>
      </trkpt>
      <trkpt lat="46.99694" lon="3.32458">
        <ele>261.62744140625</ele>
        <time>2016-03-02T13:24:23.000Z</time>
      </trkpt>
      <trkpt lat="46.99691" lon="3.32456">
        <ele>261.74838256836</ele>
        <time>2016-03-02T13:24:26.000Z</time>
      </trkpt>
      <trkpt lat="46.99689" lon="3.32456">
        <ele>261.87063598633</ele>
        <time>2016-03-02T13:24:28.000Z</time>
      </trkpt>
      <trkpt lat="46.99686" lon="3.32455">
        <ele>261.99252319336</ele>
        <time>2016-03-02T13:24:31.000Z</time>
      </trkpt>
      <trkpt lat="46.99684" lon="3.32455">
        <ele>262.12185668945</ele>
        <time>2016-03-02T13:24:33.000Z</time>
      </trkpt>
      <trkpt lat="46.9968" lon="3.32454">
        <ele>262.26171875</ele>
        <time>2016-03-02T13:24:36.000Z</time>
      </trkpt>
      <trkpt lat="46.99677" lon="3.32453">
        <ele>262.39135742188</ele>
        <time>2016-03-02T13:24:39.000Z</time>
      </trkpt>
      <trkpt lat="46.99674" lon="3.32452">
        <ele>262.53317260742</ele>
        <time>2016-03-02T13:24:42.000Z</time>
      </trkpt>
      <trkpt lat="46.9967" lon="3.3245">
        <ele>262.69097900391</ele>
        <time>2016-03-02T13:24:45.000Z</time>
      </trkpt>
      <trkpt lat="46.99667" lon="3.32449">
        <ele>262.85922241211</ele>
        <time>2016-03-02T13:24:48.000Z</time>
      </trkpt>
      <trkpt lat="46.99664" lon="3.3245">
        <ele>263.03909301758</ele>
        <time>2016-03-02T13:24:51.000Z</time>
      </trkpt>
      <trkpt lat="46.99662" lon="3.3245">
        <ele>263.24114990234</ele>
        <time>2016-03-02T13:24:53.000Z</time>
      </trkpt>
      <trkpt lat="46.99661" lon="3.32451">
        <ele>263.42977905273</ele>
        <time>2016-03-02T13:24:56.000Z</time>
      </trkpt>
      <trkpt lat="46.99659" lon="3.32454">
        <ele>263.59902954102</ele>
        <time>2016-03-02T13:24:59.000Z</time>
      </trkpt>
      <trkpt lat="46.99657" lon="3.32454">
        <ele>263.78265380859</ele>
        <time>2016-03-02T13:25:01.000Z</time>
      </trkpt>
      <trkpt lat="46.99653" lon="3.32453">
        <ele>264.01095581055</ele>
        <time>2016-03-02T13:25:04.000Z</time>
      </trkpt>
      <trkpt lat="46.99649" lon="3.32451">
        <ele>264.28518676758</ele>
        <time>2016-03-02T13:25:07.000Z</time>
      </trkpt>
      <trkpt lat="46.99648" lon="3.3245">
        <ele>264.57730102539</ele>
        <time>2016-03-02T13:25:09.000Z</time>
      </trkpt>
      <trkpt lat="46.99644" lon="3.32449">
        <ele>264.92443847656</ele>
        <time>2016-03-02T13:25:12.000Z</time>
      </trkpt>
      <trkpt lat="46.9964" lon="3.32448">
        <ele>265.33676147461</ele>
        <time>2016-03-02T13:25:15.000Z</time>
      </trkpt>
      <trkpt lat="46.99638" lon="3.32447">
        <ele>265.71649169922</ele>
        <time>2016-03-02T13:25:17.000Z</time>
      </trkpt>
      <trkpt lat="46.99634" lon="3.32445">
        <ele>266.1018371582</ele>
        <time>2016-03-02T13:25:20.000Z</time>
      </trkpt>
      <trkpt lat="46.99632" lon="3.32445">
        <ele>266.48376464844</ele>
        <time>2016-03-02T13:25:22.000Z</time>
      </trkpt>
      <trkpt lat="46.99628" lon="3.32445">
        <ele>266.87075805664</ele>
        <time>2016-03-02T13:25:25.000Z</time>
      </trkpt>
      <trkpt lat="46.99625" lon="3.32445">
        <ele>267.22988891602</ele>
        <time>2016-03-02T13:25:28.000Z</time>
      </trkpt>
      <trkpt lat="46.99622" lon="3.32445">
        <ele>267.5856628418</ele>
        <time>2016-03-02T13:25:30.000Z</time>
      </trkpt>
      <trkpt lat="46.99619" lon="3.32445">
        <ele>267.93078613281</ele>
        <time>2016-03-02T13:25:33.000Z</time>
      </trkpt>
      <trkpt lat="46.99617" lon="3.32445">
        <ele>268.28155517578</ele>
        <time>2016-03-02T13:25:35.000Z</time>
      </trkpt>
      <trkpt lat="46.99614" lon="3.32443">
        <ele>268.6360168457</ele>
        <time>2016-03-02T13:25:37.000Z</time>
      </trkpt>
      <trkpt lat="46.99612" lon="3.32442">
        <ele>268.95043945312</ele>
        <time>2016-03-02T13:25:39.000Z</time>
      </trkpt>
      <trkpt lat="46.99609" lon="3.32441">
        <ele>269.28579711914</ele>
        <time>2016-03-02T13:25:42.000Z</time>
      </trkpt>
      <trkpt lat="46.99607" lon="3.3244">
        <ele>269.6139831543</ele>
        <time>2016-03-02T13:25:44.000Z</time>
      </trkpt>
      <trkpt lat="46.99604" lon="3.3244">
        <ele>269.95114135742</ele>
        <time>2016-03-02T13:25:46.000Z</time>
      </trkpt>
      <trkpt lat="46.99603" lon="3.3244">
        <ele>270.255859375</ele>
        <time>2016-03-02T13:25:49.000Z</time>
      </trkpt>
      <trkpt lat="46.99601" lon="3.32439">
        <ele>270.57818603516</ele>
        <time>2016-03-02T13:25:52.000Z</time>
      </trkpt>
      <trkpt lat="46.996" lon="3.32438">
        <ele>270.84088134766</ele>
        <time>2016-03-02T13:25:54.000Z</time>
      </trkpt>
      <trkpt lat="46.99599" lon="3.32437">
        <ele>271.07000732422</ele>
        <time>2016-03-02T13:25:57.000Z</time>
      </trkpt>
      <trkpt lat="46.99598" lon="3.32437">
        <ele>271.27914428711</ele>
        <time>2016-03-02T13:26:01.000Z</time>
      </trkpt>
      <trkpt lat="46.99597" lon="3.32437">
        <ele>271.45379638672</ele>
        <time>2016-03-02T13:26:04.000Z</time>
      </trkpt>
      <trkpt lat="46.99595" lon="3.32437">
        <ele>271.60345458984</ele>
        <time>2016-03-02T13:26:08.000Z</time>
      </trkpt>
      <trkpt lat="46.99593" lon="3.3244">
        <ele>271.74987792969</ele>
        <time>2016-03-02T13:26:10.000Z</time>
      </trkpt>
      <trkpt lat="46.99591" lon="3.3244">
        <ele>271.88690185547</ele>
        <time>2016-03-02T13:26:13.000Z</time>
      </trkpt>
      <trkpt lat="46.99589" lon="3.32441">
        <ele>272.0231628418</ele>
        <time>2016-03-02T13:26:15.000Z</time>
      </trkpt>
      <trkpt lat="46.99587" lon="3.3244">
        <ele>272.19647216797</ele>
        <time>2016-03-02T13:26:18.000Z</time>
      </trkpt>
      <trkpt lat="46.99586" lon="3.32439">
        <ele>272.37606811523</ele>
        <time>2016-03-02T13:26:21.000Z</time>
      </trkpt>
      <trkpt lat="46.99587" lon="3.32437">
        <ele>272.54525756836</ele>
        <time>2016-03-02T13:26:23.000Z</time>
      </trkpt>
      <trkpt lat="46.9959" lon="3.32435">
        <ele>272.65191650391</ele>
        <time>2016-03-02T13:26:26.000Z</time>
      </trkpt>
      <trkpt lat="46.99591" lon="3.32433">
        <ele>272.71713256836</ele>
        <time>2016-03-02T13:26:29.000Z</time>
      </trkpt>
      <trkpt lat="46.99591" lon="3.3243">
        <ele>272.77471923828</ele>
        <time>2016-03-02T13:26:31.000Z</time>
      </trkpt>
      <trkpt lat="46.99591" lon="3.32425">
        <ele>272.88833618164</ele>
        <time>2016-03-02T13:26:34.000Z</time>
      </trkpt>
      <trkpt lat="46.99591" lon="3.32421">
        <ele>273.05563354492</ele>
        <time>2016-03-02T13:26:37.000Z</time>
      </trkpt>
      <trkpt lat="46.99592" lon="3.32418">
        <ele>273.25872802734</ele>
        <time>2016-03-02T13:26:40.000Z</time>
      </trkpt>
      <trkpt lat="46.99593" lon="3.32413">
        <ele>273.49884033203</ele>
        <time>2016-03-02T13:26:42.000Z</time>
      </trkpt>
      <trkpt lat="46.99594" lon="3.32409">
        <ele>273.69674682617</ele>
        <time>2016-03-02T13:26:45.000Z</time>
      </trkpt>
      <trkpt lat="46.99595" lon="3.32406">
        <ele>273.79595947266</ele>
        <time>2016-03-02T13:26:47.000Z</time>
      </trkpt>
      <trkpt lat="46.99596" lon="3.32404">
        <ele>273.81875610352</ele>
        <time>2016-03-02T13:26:50.000Z</time>
      </trkpt>
      <trkpt lat="46.99596" lon="3.32399">
        <ele>273.87454223633</ele>
        <time>2016-03-02T13:26:52.000Z</time>
      </trkpt>
      <trkpt lat="46.99598" lon="3.32394">
        <ele>273.91302490234</ele>
        <time>2016-03-02T13:26:55.000Z</time>
      </trkpt>
      <trkpt lat="46.99598" lon="3.32387">
        <ele>273.98202514648</ele>
        <time>2016-03-02T13:26:58.000Z</time>
      </trkpt>
      <trkpt lat="46.99599" lon="3.32383">
        <ele>274.06021118164</ele>
        <time>2016-03-02T13:27:01.000Z</time>
      </trkpt>
      <trkpt lat="46.99599" lon="3.32379">
        <ele>274.1875</ele>
        <time>2016-03-02T13:27:04.000Z</time>
      </trkpt>
      <trkpt lat="46.99599" lon="3.32376">
        <ele>274.27310180664</ele>
        <time>2016-03-02T13:27:07.000Z</time>
      </trkpt>
      <trkpt lat="46.996" lon="3.32372">
        <ele>274.35626220703</ele>
        <time>2016-03-02T13:27:10.000Z</time>
      </trkpt>
      <trkpt lat="46.996" lon="3.32368">
        <ele>274.44549560547</ele>
        <time>2016-03-02T13:27:12.000Z</time>
      </trkpt>
      <trkpt lat="46.99601" lon="3.32365">
        <ele>274.53741455078</ele>
        <time>2016-03-02T13:27:14.000Z</time>
      </trkpt>
      <trkpt lat="46.99601" lon="3.32361">
        <ele>274.62692260742</ele>
        <time>2016-03-02T13:27:17.000Z</time>
      </trkpt>
      <trkpt lat="46.99601" lon="3.32356">
        <ele>274.7392578125</ele>
        <time>2016-03-02T13:27:20.000Z</time>
      </trkpt>
      <trkpt lat="46.99602" lon="3.32352">
        <ele>274.84912109375</ele>
        <time>2016-03-02T13:27:22.000Z</time>
      </trkpt>
      <trkpt lat="46.99602" lon="3.32346">
        <ele>274.94659423828</ele>
        <time>2016-03-02T13:27:25.000Z</time>
      </trkpt>
      <trkpt lat="46.99603" lon="3.32343">
        <ele>275.04351806641</ele>
        <time>2016-03-02T13:27:28.000Z</time>
      </trkpt>
      <trkpt lat="46.99603" lon="3.32337">
        <ele>275.13827514648</ele>
        <time>2016-03-02T13:27:31.000Z</time>
      </trkpt>
      <trkpt lat="46.99602" lon="3.32333">
        <ele>275.26824951172</ele>
        <time>2016-03-02T13:27:34.000Z</time>
      </trkpt>
      <trkpt lat="46.99602" lon="3.32329">
        <ele>275.40701293945</ele>
        <time>2016-03-02T13:27:36.000Z</time>
      </trkpt>
      <trkpt lat="46.99603" lon="3.32323">
        <ele>275.50512695312</ele>
        <time>2016-03-02T13:27:39.000Z</time>
      </trkpt>
      <trkpt lat="46.99603" lon="3.32319">
        <ele>275.60522460938</ele>
        <time>2016-03-02T13:27:41.000Z</time>
      </trkpt>
      <trkpt lat="46.99602" lon="3.32315">
        <ele>275.72125244141</ele>
        <time>2016-03-02T13:27:43.000Z</time>
      </trkpt>
      <trkpt lat="46.99603" lon="3.32311">
        <ele>275.74517822266</ele>
        <time>2016-03-02T13:27:46.000Z</time>
      </trkpt>
      <trkpt lat="46.99603" lon="3.32307">
        <ele>275.76956176758</ele>
        <time>2016-03-02T13:27:48.000Z</time>
      </trkpt>
      <trkpt lat="46.99603" lon="3.32302">
        <ele>275.81988525391</ele>
        <time>2016-03-02T13:27:51.000Z</time>
      </trkpt>
      <trkpt lat="46.99603" lon="3.323">
        <ele>275.86553955078</ele>
        <time>2016-03-02T13:27:53.000Z</time>
      </trkpt>
      <trkpt lat="46.99602" lon="3.32295">
        <ele>275.92999267578</ele>
        <time>2016-03-02T13:27:55.000Z</time>
      </trkpt>
      <trkpt lat="46.99601" lon="3.32291">
        <ele>276.10296630859</ele>
        <time>2016-03-02T13:27:58.000Z</time>
      </trkpt>
      <trkpt lat="46.99597" lon="3.32287">
        <ele>276.42462158203</ele>
        <time>2016-03-02T13:28:01.000Z</time>
      </trkpt>
      <trkpt lat="46.99595" lon="3.32281">
        <ele>276.83612060547</ele>
        <time>2016-03-02T13:28:04.000Z</time>
      </trkpt>
      <trkpt lat="46.99593" lon="3.32278">
        <ele>277.33337402344</ele>
        <time>2016-03-02T13:28:07.000Z</time>
      </trkpt>
      <trkpt lat="46.99591" lon="3.32275">
        <ele>277.86489868164</ele>
        <time>2016-03-02T13:28:10.000Z</time>
      </trkpt>
      <trkpt lat="46.99589" lon="3.3227">
        <ele>278.40872192383</ele>
        <time>2016-03-02T13:28:13.000Z</time>
      </trkpt>
      <trkpt lat="46.99587" lon="3.32266">
        <ele>278.87481689453</ele>
        <time>2016-03-02T13:28:16.000Z</time>
      </trkpt>
      <trkpt lat="46.99585" lon="3.32265">
        <ele>279.32699584961</ele>
        <time>2016-03-02T13:28:18.000Z</time>
      </trkpt>
      <trkpt lat="46.99582" lon="3.32261">
        <ele>279.86172485352</ele>
        <time>2016-03-02T13:28:21.000Z</time>
      </trkpt>
      <trkpt lat="46.9958" lon="3.32258">
        <ele>280.36508178711</ele>
        <time>2016-03-02T13:28:24.000Z</time>
      </trkpt>
      <trkpt lat="46.99578" lon="3.32254">
        <ele>280.90991210938</ele>
        <time>2016-03-02T13:28:27.000Z</time>
      </trkpt>
      <trkpt lat="46.99578" lon="3.32249">
        <ele>281.36877441406</ele>
        <time>2016-03-02T13:28:30.000Z</time>
      </trkpt>
      <trkpt lat="46.99579" lon="3.32245">
        <ele>281.69995117188</ele>
        <time>2016-03-02T13:28:32.000Z</time>
      </trkpt>
      <trkpt lat="46.99581" lon="3.3224">
        <ele>281.78628540039</ele>
        <time>2016-03-02T13:28:35.000Z</time>
      </trkpt>
      <trkpt lat="46.99581" lon="3.32237">
        <ele>281.80548095703</ele>
        <time>2016-03-02T13:28:38.000Z</time>
      </trkpt>
      <trkpt lat="46.9958" lon="3.3223">
        <ele>281.72994995117</ele>
        <time>2016-03-02T13:28:45.000Z</time>
      </trkpt>
      <trkpt lat="46.99579" lon="3.32224">
        <ele>281.68902587891</ele>
        <time>2016-03-02T13:28:53.000Z</time>
      </trkpt>
      <trkpt lat="46.99582" lon="3.32218">
        <ele>281.58163452148</ele>
        <time>2016-03-02T13:28:56.000Z</time>
      </trkpt>
      <trkpt lat="46.99583" lon="3.32214">
        <ele>281.49432373047</ele>
        <time>2016-03-02T13:28:59.000Z</time>
      </trkpt>
      <trkpt lat="46.99582" lon="3.32214">
        <ele>281.44085693359</ele>
        <time>2016-03-02T13:29:02.000Z</time>
      </trkpt>
      <trkpt lat="46.99581" lon="3.32211">
        <ele>281.40386962891</ele>
        <time>2016-03-02T13:29:14.000Z</time>
      </trkpt>
      <trkpt lat="46.9958" lon="3.32207">
        <ele>281.35021972656</ele>
        <time>2016-03-02T13:29:18.000Z</time>
      </trkpt>
      <trkpt lat="46.99579" lon="3.32204">
        <ele>281.44799804688</ele>
        <time>2016-03-02T13:29:20.000Z</time>
      </trkpt>
      <trkpt lat="46.99579" lon="3.32201">
        <ele>281.59564208984</ele>
        <time>2016-03-02T13:29:23.000Z</time>
      </trkpt>
      <trkpt lat="46.99579" lon="3.32199">
        <ele>281.72564697266</ele>
        <time>2016-03-02T13:29:26.000Z</time>
      </trkpt>
      <trkpt lat="46.99578" lon="3.32192">
        <ele>281.85272216797</ele>
        <time>2016-03-02T13:29:33.000Z</time>
      </trkpt>
      <trkpt lat="46.99576" lon="3.32187">
        <ele>282.02673339844</ele>
        <time>2016-03-02T13:29:36.000Z</time>
      </trkpt>
      <trkpt lat="46.99574" lon="3.32184">
        <ele>282.2141418457</ele>
        <time>2016-03-02T13:29:40.000Z</time>
      </trkpt>
      <trkpt lat="46.9957" lon="3.32178">
        <ele>282.55853271484</ele>
        <time>2016-03-02T13:29:46.000Z</time>
      </trkpt>
      <trkpt lat="46.99567" lon="3.32174">
        <ele>283.02569580078</ele>
        <time>2016-03-02T13:29:52.000Z</time>
      </trkpt>
      <trkpt lat="46.99566" lon="3.32171">
        <ele>283.49060058594</ele>
        <time>2016-03-02T13:29:55.000Z</time>
      </trkpt>
      <trkpt lat="46.99566" lon="3.3217">
        <ele>283.89102172852</ele>
        <time>2016-03-02T13:29:58.000Z</time>
      </trkpt>
      <trkpt lat="46.99562" lon="3.32165">
        <ele>284.32815551758</ele>
        <time>2016-03-02T13:30:04.000Z</time>
      </trkpt>
      <trkpt lat="46.99559" lon="3.32161">
        <ele>284.75210571289</ele>
        <time>2016-03-02T13:30:08.000Z</time>
      </trkpt>
      <trkpt lat="46.99557" lon="3.3216">
        <ele>285.09536743164</ele>
        <time>2016-03-02T13:30:12.000Z</time>
      </trkpt>
      <trkpt lat="46.99555" lon="3.32159">
        <ele>285.45199584961</ele>
        <time>2016-03-02T13:30:15.000Z</time>
      </trkpt>
      <trkpt lat="46.99553" lon="3.32158">
        <ele>285.88284301758</ele>
        <time>2016-03-02T13:30:17.000Z</time>
      </trkpt>
      <trkpt lat="46.99551" lon="3.32156">
        <ele>286.26602172852</ele>
        <time>2016-03-02T13:30:20.000Z</time>
      </trkpt>
      <trkpt lat="46.99551" lon="3.32155">
        <ele>286.53192138672</ele>
        <time>2016-03-02T13:30:22.000Z</time>
      </trkpt>
      <trkpt lat="46.99546" lon="3.32152">
        <ele>286.91381835938</ele>
        <time>2016-03-02T13:30:25.000Z</time>
      </trkpt>
      <trkpt lat="46.99543" lon="3.32151">
        <ele>287.32281494141</ele>
        <time>2016-03-02T13:30:28.000Z</time>
      </trkpt>
      <trkpt lat="46.99541" lon="3.32151">
        <ele>287.74908447266</ele>
        <time>2016-03-02T13:30:31.000Z</time>
      </trkpt>
      <trkpt lat="46.99536" lon="3.32147">
        <ele>288.28839111328</ele>
        <time>2016-03-02T13:30:35.000Z</time>
      </trkpt>
      <trkpt lat="46.99535" lon="3.32145">
        <ele>288.85095214844</ele>
        <time>2016-03-02T13:30:37.000Z</time>
      </trkpt>
      <trkpt lat="46.99532" lon="3.32143">
        <ele>289.30633544922</ele>
        <time>2016-03-02T13:30:40.000Z</time>
      </trkpt>
      <trkpt lat="46.9953" lon="3.32139">
        <ele>289.72946166992</ele>
        <time>2016-03-02T13:30:43.000Z</time>
      </trkpt>
      <trkpt lat="46.99529" lon="3.32138">
        <ele>290.11761474609</ele>
        <time>2016-03-02T13:30:46.000Z</time>
      </trkpt>
      <trkpt lat="46.99529" lon="3.32136">
        <ele>290.32876586914</ele>
        <time>2016-03-02T13:30:48.000Z</time>
      </trkpt>
      <trkpt lat="46.99528" lon="3.32134">
        <ele>290.52642822266</ele>
        <time>2016-03-02T13:30:51.000Z</time>
      </trkpt>
      <trkpt lat="46.99526" lon="3.32132">
        <ele>290.70248413086</ele>
        <time>2016-03-02T13:30:54.000Z</time>
      </trkpt>
      <trkpt lat="46.99524" lon="3.32129">
        <ele>290.90118408203</ele>
        <time>2016-03-02T13:30:57.000Z</time>
      </trkpt>
      <trkpt lat="46.99522" lon="3.32128">
        <ele>291.10961914062</ele>
        <time>2016-03-02T13:30:59.000Z</time>
      </trkpt>
      <trkpt lat="46.99519" lon="3.32125">
        <ele>291.38607788086</ele>
        <time>2016-03-02T13:31:02.000Z</time>
      </trkpt>
      <trkpt lat="46.99519" lon="3.32122">
        <ele>291.63864135742</ele>
        <time>2016-03-02T13:31:05.000Z</time>
      </trkpt>
      <trkpt lat="46.99516" lon="3.3212">
        <ele>291.94735717773</ele>
        <time>2016-03-02T13:31:08.000Z</time>
      </trkpt>
      <trkpt lat="46.99512" lon="3.32117">
        <ele>292.27612304688</ele>
        <time>2016-03-02T13:31:11.000Z</time>
      </trkpt>
      <trkpt lat="46.99511" lon="3.32113">
        <ele>292.56118774414</ele>
        <time>2016-03-02T13:31:13.000Z</time>
      </trkpt>
      <trkpt lat="46.9951" lon="3.32111">
        <ele>292.8073425293</ele>
        <time>2016-03-02T13:31:16.000Z</time>
      </trkpt>
      <trkpt lat="46.99508" lon="3.32109">
        <ele>293.11010742188</ele>
        <time>2016-03-02T13:31:19.000Z</time>
      </trkpt>
      <trkpt lat="46.99507" lon="3.32106">
        <ele>293.31939697266</ele>
        <time>2016-03-02T13:31:22.000Z</time>
      </trkpt>
      <trkpt lat="46.99506" lon="3.32104">
        <ele>293.43881225586</ele>
        <time>2016-03-02T13:31:24.000Z</time>
      </trkpt>
      <trkpt lat="46.99504" lon="3.321">
        <ele>293.58843994141</ele>
        <time>2016-03-02T13:31:27.000Z</time>
      </trkpt>
      <trkpt lat="46.99503" lon="3.32094">
        <ele>293.71258544922</ele>
        <time>2016-03-02T13:31:30.000Z</time>
      </trkpt>
      <trkpt lat="46.99503" lon="3.32091">
        <ele>293.74853515625</ele>
        <time>2016-03-02T13:31:32.000Z</time>
      </trkpt>
      <trkpt lat="46.99504" lon="3.32085">
        <ele>293.70092773438</ele>
        <time>2016-03-02T13:31:34.000Z</time>
      </trkpt>
      <trkpt lat="46.99504" lon="3.32082">
        <ele>293.66015625</ele>
        <time>2016-03-02T13:31:37.000Z</time>
      </trkpt>
      <trkpt lat="46.99503" lon="3.32079">
        <ele>293.61187744141</ele>
        <time>2016-03-02T13:31:39.000Z</time>
      </trkpt>
      <trkpt lat="46.99503" lon="3.32076">
        <ele>293.58865356445</ele>
        <time>2016-03-02T13:31:41.000Z</time>
      </trkpt>
      <trkpt lat="46.99503" lon="3.32071">
        <ele>293.59310913086</ele>
        <time>2016-03-02T13:31:43.000Z</time>
      </trkpt>
      <trkpt lat="46.99504" lon="3.32067">
        <ele>293.65814208984</ele>
        <time>2016-03-02T13:31:46.000Z</time>
      </trkpt>
      <trkpt lat="46.99504" lon="3.32064">
        <ele>293.72808837891</ele>
        <time>2016-03-02T13:31:49.000Z</time>
      </trkpt>
      <trkpt lat="46.99504" lon="3.32058">
        <ele>293.81036376953</ele>
        <time>2016-03-02T13:31:52.000Z</time>
      </trkpt>
      <trkpt lat="46.99504" lon="3.32056">
        <ele>293.87426757812</ele>
        <time>2016-03-02T13:31:54.000Z</time>
      </trkpt>
      <trkpt lat="46.99504" lon="3.32053">
        <ele>293.94635009766</ele>
        <time>2016-03-02T13:31:57.000Z</time>
      </trkpt>
      <trkpt lat="46.99504" lon="3.32047">
        <ele>294.07754516602</ele>
        <time>2016-03-02T13:32:05.000Z</time>
      </trkpt>
      <trkpt lat="46.99504" lon="3.32044">
        <ele>294.19180297852</ele>
        <time>2016-03-02T13:32:08.000Z</time>
      </trkpt>
      <trkpt lat="46.99504" lon="3.3204">
        <ele>294.28707885742</ele>
        <time>2016-03-02T13:32:10.000Z</time>
      </trkpt>
      <trkpt lat="46.99504" lon="3.32038">
        <ele>294.39468383789</ele>
        <time>2016-03-02T13:32:13.000Z</time>
      </trkpt>
      <trkpt lat="46.99504" lon="3.32032">
        <ele>294.49118041992</ele>
        <time>2016-03-02T13:32:18.000Z</time>
      </trkpt>
      <trkpt lat="46.99506" lon="3.32024">
        <ele>294.55413818359</ele>
        <time>2016-03-02T13:32:21.000Z</time>
      </trkpt>
      <trkpt lat="46.99505" lon="3.3202">
        <ele>294.65194702148</ele>
        <time>2016-03-02T13:32:24.000Z</time>
      </trkpt>
      <trkpt lat="46.99505" lon="3.32009">
        <ele>294.77221679688</ele>
        <time>2016-03-02T13:32:27.000Z</time>
      </trkpt>
      <trkpt lat="46.99505" lon="3.32003">
        <ele>294.91424560547</ele>
        <time>2016-03-02T13:32:30.000Z</time>
      </trkpt>
      <trkpt lat="46.99505" lon="3.31996">
        <ele>295.08029174805</ele>
        <time>2016-03-02T13:32:33.000Z</time>
      </trkpt>
      <trkpt lat="46.99505" lon="3.3199">
        <ele>295.26580810547</ele>
        <time>2016-03-02T13:32:36.000Z</time>
      </trkpt>
      <trkpt lat="46.99506" lon="3.31986">
        <ele>295.41195678711</ele>
        <time>2016-03-02T13:32:38.000Z</time>
      </trkpt>
      <trkpt lat="46.99506" lon="3.31982">
        <ele>295.51358032227</ele>
        <time>2016-03-02T13:32:41.000Z</time>
      </trkpt>
      <trkpt lat="46.99506" lon="3.3198">
        <ele>295.58944702148</ele>
        <time>2016-03-02T13:32:43.000Z</time>
      </trkpt>
      <trkpt lat="46.99505" lon="3.31978">
        <ele>295.66024780273</ele>
        <time>2016-03-02T13:32:45.000Z</time>
      </trkpt>
      <trkpt lat="46.99504" lon="3.31974">
        <ele>295.73590087891</ele>
        <time>2016-03-02T13:32:47.000Z</time>
      </trkpt>
      <trkpt lat="46.99503" lon="3.3197">
        <ele>295.84378051758</ele>
        <time>2016-03-02T13:32:50.000Z</time>
      </trkpt>
      <trkpt lat="46.99503" lon="3.31968">
        <ele>295.94180297852</ele>
        <time>2016-03-02T13:32:52.000Z</time>
      </trkpt>
      <trkpt lat="46.99503" lon="3.31961">
        <ele>296.05584716797</ele>
        <time>2016-03-02T13:32:55.000Z</time>
      </trkpt>
      <trkpt lat="46.99503" lon="3.31956">
        <ele>296.16049194336</ele>
        <time>2016-03-02T13:32:58.000Z</time>
      </trkpt>
      <trkpt lat="46.99503" lon="3.31953">
        <ele>296.23791503906</ele>
        <time>2016-03-02T13:33:00.000Z</time>
      </trkpt>
      <trkpt lat="46.99503" lon="3.31949">
        <ele>296.30062866211</ele>
        <time>2016-03-02T13:33:03.000Z</time>
      </trkpt>
      <trkpt lat="46.99502" lon="3.31945">
        <ele>296.37887573242</ele>
        <time>2016-03-02T13:33:07.000Z</time>
      </trkpt>
      <trkpt lat="46.99503" lon="3.31941">
        <ele>296.43545532227</ele>
        <time>2016-03-02T13:33:15.000Z</time>
      </trkpt>
      <trkpt lat="46.99505" lon="3.31937">
        <ele>296.46844482422</ele>
        <time>2016-03-02T13:33:19.000Z</time>
      </trkpt>
      <trkpt lat="46.99504" lon="3.31933">
        <ele>296.51095581055</ele>
        <time>2016-03-02T13:33:21.000Z</time>
      </trkpt>
      <trkpt lat="46.99504" lon="3.3193">
        <ele>296.55279541016</ele>
        <time>2016-03-02T13:33:23.000Z</time>
      </trkpt>
      <trkpt lat="46.99504" lon="3.31929">
        <ele>296.57867431641</ele>
        <time>2016-03-02T13:33:25.000Z</time>
      </trkpt>
      <trkpt lat="46.99503" lon="3.31922">
        <ele>296.63613891602</ele>
        <time>2016-03-02T13:33:31.000Z</time>
      </trkpt>
      <trkpt lat="46.99503" lon="3.31914">
        <ele>296.72149658203</ele>
        <time>2016-03-02T13:33:36.000Z</time>
      </trkpt>
      <trkpt lat="46.99506" lon="3.31911">
        <ele>296.78057861328</ele>
        <time>2016-03-02T13:33:38.000Z</time>
      </trkpt>
      <trkpt lat="46.99508" lon="3.3191">
        <ele>296.81253051758</ele>
        <time>2016-03-02T13:33:41.000Z</time>
      </trkpt>
      <trkpt lat="46.99509" lon="3.31909">
        <ele>296.84002685547</ele>
        <time>2016-03-02T13:33:46.000Z</time>
      </trkpt>
      <trkpt lat="46.99511" lon="3.31908">
        <ele>296.82537841797</ele>
        <time>2016-03-02T13:33:49.000Z</time>
      </trkpt>
      <trkpt lat="46.99511" lon="3.31907">
        <ele>296.79428100586</ele>
        <time>2016-03-02T13:34:03.000Z</time>
      </trkpt>
      <trkpt lat="46.99514" lon="3.31907">
        <ele>296.75332641602</ele>
        <time>2016-03-02T13:34:08.000Z</time>
      </trkpt>
      <trkpt lat="46.99517" lon="3.31906">
        <ele>296.7109375</ele>
        <time>2016-03-02T13:34:11.000Z</time>
      </trkpt>
      <trkpt lat="46.99519" lon="3.31906">
        <ele>296.6501159668</ele>
        <time>2016-03-02T13:34:14.000Z</time>
      </trkpt>
      <trkpt lat="46.99522" lon="3.31906">
        <ele>296.58612060547</ele>
        <time>2016-03-02T13:34:17.000Z</time>
      </trkpt>
      <trkpt lat="46.99525" lon="3.31905">
        <ele>296.49667358398</ele>
        <time>2016-03-02T13:34:23.000Z</time>
      </trkpt>
      <trkpt lat="46.99528" lon="3.31905">
        <ele>296.41146850586</ele>
        <time>2016-03-02T13:34:26.000Z</time>
      </trkpt>
      <trkpt lat="46.99529" lon="3.31903">
        <ele>296.34326171875</ele>
        <time>2016-03-02T13:34:34.000Z</time>
      </trkpt>
      <trkpt lat="46.99532" lon="3.31898">
        <ele>296.29190063477</ele>
        <time>2016-03-02T13:34:37.000Z</time>
      </trkpt>
      <trkpt lat="46.99535" lon="3.31895">
        <ele>296.25387573242</ele>
        <time>2016-03-02T13:34:40.000Z</time>
      </trkpt>
      <trkpt lat="46.99535" lon="3.31894">
        <ele>296.23895263672</ele>
        <time>2016-03-02T13:34:42.000Z</time>
      </trkpt>
      <trkpt lat="46.99537" lon="3.31891">
        <ele>296.24237060547</ele>
        <time>2016-03-02T13:34:46.000Z</time>
      </trkpt>
      <trkpt lat="46.99539" lon="3.31888">
        <ele>296.24560546875</ele>
        <time>2016-03-02T13:34:49.000Z</time>
      </trkpt>
      <trkpt lat="46.99541" lon="3.31886">
        <ele>296.25042724609</ele>
        <time>2016-03-02T13:34:52.000Z</time>
      </trkpt>
      <trkpt lat="46.99542" lon="3.31884">
        <ele>296.25415039062</ele>
        <time>2016-03-02T13:34:55.000Z</time>
      </trkpt>
      <trkpt lat="46.99546" lon="3.31877">
        <ele>296.27474975586</ele>
        <time>2016-03-02T13:34:58.000Z</time>
      </trkpt>
      <trkpt lat="46.99549" lon="3.31875">
        <ele>296.28594970703</ele>
        <time>2016-03-02T13:35:01.000Z</time>
      </trkpt>
      <trkpt lat="46.99551" lon="3.31873">
        <ele>296.29891967773</ele>
        <time>2016-03-02T13:35:06.000Z</time>
      </trkpt>
      <trkpt lat="46.99552" lon="3.31872">
        <ele>296.31527709961</ele>
        <time>2016-03-02T13:35:08.000Z</time>
      </trkpt>
      <trkpt lat="46.99553" lon="3.3187">
        <ele>296.33563232422</ele>
        <time>2016-03-02T13:35:10.000Z</time>
      </trkpt>
      <trkpt lat="46.99554" lon="3.31867">
        <ele>296.3503112793</ele>
        <time>2016-03-02T13:35:12.000Z</time>
      </trkpt>
      <trkpt lat="46.99556" lon="3.31863">
        <ele>296.3840637207</ele>
        <time>2016-03-02T13:35:15.000Z</time>
      </trkpt>
      <trkpt lat="46.99555" lon="3.31859">
        <ele>296.44207763672</ele>
        <time>2016-03-02T13:35:24.000Z</time>
      </trkpt>
      <trkpt lat="46.99555" lon="3.31856">
        <ele>296.51681518555</ele>
        <time>2016-03-02T13:35:30.000Z</time>
      </trkpt>
      <trkpt lat="46.99556" lon="3.31847">
        <ele>296.63681030273</ele>
        <time>2016-03-02T13:35:35.000Z</time>
      </trkpt>
      <trkpt lat="46.99558" lon="3.31842">
        <ele>296.76461791992</ele>
        <time>2016-03-02T13:35:38.000Z</time>
      </trkpt>
      <trkpt lat="46.9956" lon="3.3184">
        <ele>296.88803100586</ele>
        <time>2016-03-02T13:35:41.000Z</time>
      </trkpt>
      <trkpt lat="46.99561" lon="3.31838">
        <ele>296.99035644531</ele>
        <time>2016-03-02T13:35:44.000Z</time>
      </trkpt>
      <trkpt lat="46.99564" lon="3.31835">
        <ele>297.0813293457</ele>
        <time>2016-03-02T13:35:47.000Z</time>
      </trkpt>
      <trkpt lat="46.99567" lon="3.31836">
        <ele>297.11538696289</ele>
        <time>2016-03-02T13:35:49.000Z</time>
      </trkpt>
      <trkpt lat="46.9957" lon="3.31832">
        <ele>297.12692260742</ele>
        <time>2016-03-02T13:35:52.000Z</time>
      </trkpt>
      <trkpt lat="46.99572" lon="3.31832">
        <ele>297.11669921875</ele>
        <time>2016-03-02T13:35:54.000Z</time>
      </trkpt>
      <trkpt lat="46.99574" lon="3.3183">
        <ele>297.08624267578</ele>
        <time>2016-03-02T13:35:56.000Z</time>
      </trkpt>
      <trkpt lat="46.99578" lon="3.31829">
        <ele>297.01943969727</ele>
        <time>2016-03-02T13:35:59.000Z</time>
      </trkpt>
      <trkpt lat="46.99581" lon="3.31828">
        <ele>296.94369506836</ele>
        <time>2016-03-02T13:36:02.000Z</time>
      </trkpt>
      <trkpt lat="46.99583" lon="3.31827">
        <ele>296.86578369141</ele>
        <time>2016-03-02T13:36:04.000Z</time>
      </trkpt>
      <trkpt lat="46.99585" lon="3.31827">
        <ele>296.78201293945</ele>
        <time>2016-03-02T13:36:07.000Z</time>
      </trkpt>
      <trkpt lat="46.99587" lon="3.31825">
        <ele>296.67755126953</ele>
        <time>2016-03-02T13:36:09.000Z</time>
      </trkpt>
      <trkpt lat="46.9959" lon="3.31823">
        <ele>296.56024169922</ele>
        <time>2016-03-02T13:36:12.000Z</time>
      </trkpt>
      <trkpt lat="46.99592" lon="3.31821">
        <ele>296.42596435547</ele>
        <time>2016-03-02T13:36:15.000Z</time>
      </trkpt>
      <trkpt lat="46.99594" lon="3.31819">
        <ele>296.26986694336</ele>
        <time>2016-03-02T13:36:17.000Z</time>
      </trkpt>
      <trkpt lat="46.99595" lon="3.31817">
        <ele>296.10757446289</ele>
        <time>2016-03-02T13:36:19.000Z</time>
      </trkpt>
      <trkpt lat="46.99598" lon="3.31814">
        <ele>295.94500732422</ele>
        <time>2016-03-02T13:36:23.000Z</time>
      </trkpt>
      <trkpt lat="46.996" lon="3.31813">
        <ele>295.79992675781</ele>
        <time>2016-03-02T13:36:26.000Z</time>
      </trkpt>
      <trkpt lat="46.99602" lon="3.3181">
        <ele>295.65390014648</ele>
        <time>2016-03-02T13:36:28.000Z</time>
      </trkpt>
      <trkpt lat="46.99604" lon="3.31805">
        <ele>295.49392700195</ele>
        <time>2016-03-02T13:36:31.000Z</time>
      </trkpt>
      <trkpt lat="46.99606" lon="3.31801">
        <ele>295.33261108398</ele>
        <time>2016-03-02T13:36:33.000Z</time>
      </trkpt>
      <trkpt lat="46.99607" lon="3.31798">
        <ele>295.18640136719</ele>
        <time>2016-03-02T13:36:35.000Z</time>
      </trkpt>
      <trkpt lat="46.99607" lon="3.31797">
        <ele>295.05401611328</ele>
        <time>2016-03-02T13:36:37.000Z</time>
      </trkpt>
      <trkpt lat="46.99609" lon="3.31796">
        <ele>294.94619750977</ele>
        <time>2016-03-02T13:36:39.000Z</time>
      </trkpt>
      <trkpt lat="46.99612" lon="3.31795">
        <ele>294.86575317383</ele>
        <time>2016-03-02T13:36:41.000Z</time>
      </trkpt>
      <trkpt lat="46.99612" lon="3.31794">
        <ele>294.80551147461</ele>
        <time>2016-03-02T13:36:44.000Z</time>
      </trkpt>
      <trkpt lat="46.99614" lon="3.31794">
        <ele>294.75912475586</ele>
        <time>2016-03-02T13:36:46.000Z</time>
      </trkpt>
      <trkpt lat="46.99615" lon="3.31793">
        <ele>294.7155456543</ele>
        <time>2016-03-02T13:36:48.000Z</time>
      </trkpt>
      <trkpt lat="46.99618" lon="3.31792">
        <ele>294.67211914062</ele>
        <time>2016-03-02T13:36:51.000Z</time>
      </trkpt>
      <trkpt lat="46.99619" lon="3.31791">
        <ele>294.63638305664</ele>
        <time>2016-03-02T13:36:53.000Z</time>
      </trkpt>
      <trkpt lat="46.99622" lon="3.31789">
        <ele>294.59396362305</ele>
        <time>2016-03-02T13:36:56.000Z</time>
      </trkpt>
      <trkpt lat="46.99624" lon="3.31787">
        <ele>294.54803466797</ele>
        <time>2016-03-02T13:36:58.000Z</time>
      </trkpt>
      <trkpt lat="46.99628" lon="3.31784">
        <ele>294.49835205078</ele>
        <time>2016-03-02T13:37:01.000Z</time>
      </trkpt>
      <trkpt lat="46.99629" lon="3.31784">
        <ele>294.45767211914</ele>
        <time>2016-03-02T13:37:03.000Z</time>
      </trkpt>
      <trkpt lat="46.99631" lon="3.31781">
        <ele>294.41741943359</ele>
        <time>2016-03-02T13:37:05.000Z</time>
      </trkpt>
      <trkpt lat="46.99632" lon="3.31779">
        <ele>294.38595581055</ele>
        <time>2016-03-02T13:37:08.000Z</time>
      </trkpt>
      <trkpt lat="46.99634" lon="3.31777">
        <ele>294.36236572266</ele>
        <time>2016-03-02T13:37:11.000Z</time>
      </trkpt>
      <trkpt lat="46.99637" lon="3.31772">
        <ele>294.3479309082</ele>
        <time>2016-03-02T13:37:14.000Z</time>
      </trkpt>
      <trkpt lat="46.99639" lon="3.31769">
        <ele>294.33639526367</ele>
        <time>2016-03-02T13:37:16.000Z</time>
      </trkpt>
      <trkpt lat="46.9964" lon="3.31766">
        <ele>294.33407592773</ele>
        <time>2016-03-02T13:37:18.000Z</time>
      </trkpt>
      <trkpt lat="46.99642" lon="3.31761">
        <ele>294.34317016602</ele>
        <time>2016-03-02T13:37:21.000Z</time>
      </trkpt>
      <trkpt lat="46.99643" lon="3.31755">
        <ele>294.35906982422</ele>
        <time>2016-03-02T13:37:24.000Z</time>
      </trkpt>
      <trkpt lat="46.99643" lon="3.31751">
        <ele>294.38064575195</ele>
        <time>2016-03-02T13:37:27.000Z</time>
      </trkpt>
      <trkpt lat="46.99644" lon="3.31748">
        <ele>294.38241577148</ele>
        <time>2016-03-02T13:37:30.000Z</time>
      </trkpt>
      <trkpt lat="46.99645" lon="3.31747">
        <ele>294.37451171875</ele>
        <time>2016-03-02T13:37:32.000Z</time>
      </trkpt>
      <trkpt lat="46.99647" lon="3.31744">
        <ele>294.34048461914</ele>
        <time>2016-03-02T13:37:35.000Z</time>
      </trkpt>
      <trkpt lat="46.9965" lon="3.31741">
        <ele>294.28378295898</ele>
        <time>2016-03-02T13:37:38.000Z</time>
      </trkpt>
      <trkpt lat="46.99652" lon="3.31739">
        <ele>294.21640014648</ele>
        <time>2016-03-02T13:37:41.000Z</time>
      </trkpt>
      <trkpt lat="46.99656" lon="3.31736">
        <ele>294.15396118164</ele>
        <time>2016-03-02T13:37:45.000Z</time>
      </trkpt>
      <trkpt lat="46.99657" lon="3.31736">
        <ele>294.10949707031</ele>
        <time>2016-03-02T13:37:47.000Z</time>
      </trkpt>
      <trkpt lat="46.99659" lon="3.31734">
        <ele>294.07113647461</ele>
        <time>2016-03-02T13:37:50.000Z</time>
      </trkpt>
      <trkpt lat="46.99662" lon="3.31733">
        <ele>294.0549621582</ele>
        <time>2016-03-02T13:37:53.000Z</time>
      </trkpt>
      <trkpt lat="46.99664" lon="3.31732">
        <ele>294.05206298828</ele>
        <time>2016-03-02T13:37:55.000Z</time>
      </trkpt>
      <trkpt lat="46.99665" lon="3.31731">
        <ele>294.05502319336</ele>
        <time>2016-03-02T13:37:57.000Z</time>
      </trkpt>
      <trkpt lat="46.99667" lon="3.31729">
        <ele>294.03466796875</ele>
        <time>2016-03-02T13:38:00.000Z</time>
      </trkpt>
      <trkpt lat="46.99669" lon="3.31726">
        <ele>294.01104736328</ele>
        <time>2016-03-02T13:38:03.000Z</time>
      </trkpt>
      <trkpt lat="46.99672" lon="3.31724">
        <ele>293.97564697266</ele>
        <time>2016-03-02T13:38:06.000Z</time>
      </trkpt>
      <trkpt lat="46.99673" lon="3.31723">
        <ele>293.93634033203</ele>
        <time>2016-03-02T13:38:08.000Z</time>
      </trkpt>
      <trkpt lat="46.99677" lon="3.31719">
        <ele>293.88778686523</ele>
        <time>2016-03-02T13:38:11.000Z</time>
      </trkpt>
      <trkpt lat="46.99678" lon="3.31717">
        <ele>293.84027099609</ele>
        <time>2016-03-02T13:38:13.000Z</time>
      </trkpt>
      <trkpt lat="46.99679" lon="3.31715">
        <ele>293.79672241211</ele>
        <time>2016-03-02T13:38:15.000Z</time>
      </trkpt>
      <trkpt lat="46.99681" lon="3.31714">
        <ele>293.75561523438</ele>
        <time>2016-03-02T13:38:18.000Z</time>
      </trkpt>
      <trkpt lat="46.99682" lon="3.31712">
        <ele>293.69924926758</ele>
        <time>2016-03-02T13:38:21.000Z</time>
      </trkpt>
      <trkpt lat="46.99683" lon="3.31709">
        <ele>293.64053344727</ele>
        <time>2016-03-02T13:38:23.000Z</time>
      </trkpt>
      <trkpt lat="46.99685" lon="3.31705">
        <ele>293.57342529297</ele>
        <time>2016-03-02T13:38:26.000Z</time>
      </trkpt>
      <trkpt lat="46.99686" lon="3.31702">
        <ele>293.50244140625</ele>
        <time>2016-03-02T13:38:30.000Z</time>
      </trkpt>
      <trkpt lat="46.99689" lon="3.31699">
        <ele>293.43432617188</ele>
        <time>2016-03-02T13:38:34.000Z</time>
      </trkpt>
      <trkpt lat="46.99691" lon="3.31697">
        <ele>293.37756347656</ele>
        <time>2016-03-02T13:38:37.000Z</time>
      </trkpt>
      <trkpt lat="46.99696" lon="3.31693">
        <ele>293.34677124023</ele>
        <time>2016-03-02T13:38:40.000Z</time>
      </trkpt>
      <trkpt lat="46.99699" lon="3.31693">
        <ele>293.35040283203</ele>
        <time>2016-03-02T13:38:43.000Z</time>
      </trkpt>
      <trkpt lat="46.99701" lon="3.31693">
        <ele>293.39282226562</ele>
        <time>2016-03-02T13:38:46.000Z</time>
      </trkpt>
      <trkpt lat="46.99704" lon="3.31692">
        <ele>293.44598388672</ele>
        <time>2016-03-02T13:38:49.000Z</time>
      </trkpt>
      <trkpt lat="46.99705" lon="3.31692">
        <ele>293.50796508789</ele>
        <time>2016-03-02T13:38:51.000Z</time>
      </trkpt>
      <trkpt lat="46.99706" lon="3.31691">
        <ele>293.56909179688</ele>
        <time>2016-03-02T13:38:53.000Z</time>
      </trkpt>
      <trkpt lat="46.99707" lon="3.31689">
        <ele>293.61087036133</ele>
        <time>2016-03-02T13:38:56.000Z</time>
      </trkpt>
      <trkpt lat="46.99711" lon="3.31688">
        <ele>293.65447998047</ele>
        <time>2016-03-02T13:38:59.000Z</time>
      </trkpt>
      <trkpt lat="46.99712" lon="3.31688">
        <ele>293.69390869141</ele>
        <time>2016-03-02T13:39:02.000Z</time>
      </trkpt>
      <trkpt lat="46.99716" lon="3.31685">
        <ele>293.73779296875</ele>
        <time>2016-03-02T13:39:05.000Z</time>
      </trkpt>
      <trkpt lat="46.99718" lon="3.3168">
        <ele>293.77270507812</ele>
        <time>2016-03-02T13:39:08.000Z</time>
      </trkpt>
      <trkpt lat="46.9972" lon="3.31678">
        <ele>293.81274414062</ele>
        <time>2016-03-02T13:39:10.000Z</time>
      </trkpt>
      <trkpt lat="46.9972" lon="3.31676">
        <ele>293.81802368164</ele>
        <time>2016-03-02T13:39:12.000Z</time>
      </trkpt>
      <trkpt lat="46.99721" lon="3.31673">
        <ele>293.81329345703</ele>
        <time>2016-03-02T13:39:15.000Z</time>
      </trkpt>
      <trkpt lat="46.99723" lon="3.31671">
        <ele>293.8073425293</ele>
        <time>2016-03-02T13:39:17.000Z</time>
      </trkpt>
      <trkpt lat="46.99727" lon="3.31668">
        <ele>293.83123779297</ele>
        <time>2016-03-02T13:39:20.000Z</time>
      </trkpt>
      <trkpt lat="46.9973" lon="3.31665">
        <ele>293.85305786133</ele>
        <time>2016-03-02T13:39:23.000Z</time>
      </trkpt>
      <trkpt lat="46.99731" lon="3.31663">
        <ele>293.86605834961</ele>
        <time>2016-03-02T13:39:26.000Z</time>
      </trkpt>
      <trkpt lat="46.99732" lon="3.31662">
        <ele>293.88467407227</ele>
        <time>2016-03-02T13:39:28.000Z</time>
      </trkpt>
      <trkpt lat="46.99734" lon="3.3166">
        <ele>293.87811279297</ele>
        <time>2016-03-02T13:39:30.000Z</time>
      </trkpt>
      <trkpt lat="46.99735" lon="3.31657">
        <ele>293.80575561523</ele>
        <time>2016-03-02T13:39:32.000Z</time>
      </trkpt>
      <trkpt lat="46.99736" lon="3.31655">
        <ele>293.72024536133</ele>
        <time>2016-03-02T13:39:35.000Z</time>
      </trkpt>
      <trkpt lat="46.99738" lon="3.31653">
        <ele>293.64010620117</ele>
        <time>2016-03-02T13:39:38.000Z</time>
      </trkpt>
      <trkpt lat="46.99741" lon="3.31648">
        <ele>293.51727294922</ele>
        <time>2016-03-02T13:39:41.000Z</time>
      </trkpt>
      <trkpt lat="46.99742" lon="3.31647">
        <ele>293.40295410156</ele>
        <time>2016-03-02T13:39:43.000Z</time>
      </trkpt>
      <trkpt lat="46.99743" lon="3.31645">
        <ele>293.31280517578</ele>
        <time>2016-03-02T13:39:46.000Z</time>
      </trkpt>
      <trkpt lat="46.99745" lon="3.31639">
        <ele>293.16394042969</ele>
        <time>2016-03-02T13:39:50.000Z</time>
      </trkpt>
      <trkpt lat="46.99746" lon="3.31631">
        <ele>292.93276977539</ele>
        <time>2016-03-02T13:39:58.000Z</time>
      </trkpt>
      <trkpt lat="46.99747" lon="3.31628">
        <ele>292.69763183594</ele>
        <time>2016-03-02T13:40:01.000Z</time>
      </trkpt>
      <trkpt lat="46.99749" lon="3.31625">
        <ele>292.44107055664</ele>
        <time>2016-03-02T13:40:04.000Z</time>
      </trkpt>
      <trkpt lat="46.99752" lon="3.31622">
        <ele>292.14993286133</ele>
        <time>2016-03-02T13:40:07.000Z</time>
      </trkpt>
      <trkpt lat="46.99753" lon="3.31619">
        <ele>291.87008666992</ele>
        <time>2016-03-02T13:40:09.000Z</time>
      </trkpt>
      <trkpt lat="46.99754" lon="3.31616">
        <ele>291.62924194336</ele>
        <time>2016-03-02T13:40:11.000Z</time>
      </trkpt>
      <trkpt lat="46.99755" lon="3.31612">
        <ele>291.36395263672</ele>
        <time>2016-03-02T13:40:14.000Z</time>
      </trkpt>
      <trkpt lat="46.99758" lon="3.31606">
        <ele>291.02221679688</ele>
        <time>2016-03-02T13:40:17.000Z</time>
      </trkpt>
      <trkpt lat="46.99762" lon="3.31603">
        <ele>290.6471862793</ele>
        <time>2016-03-02T13:40:20.000Z</time>
      </trkpt>
      <trkpt lat="46.99762" lon="3.31601">
        <ele>290.31042480469</ele>
        <time>2016-03-02T13:40:22.000Z</time>
      </trkpt>
      <trkpt lat="46.99764" lon="3.31599">
        <ele>289.97583007812</ele>
        <time>2016-03-02T13:40:24.000Z</time>
      </trkpt>
      <trkpt lat="46.99767" lon="3.31596">
        <ele>289.65655517578</ele>
        <time>2016-03-02T13:40:27.000Z</time>
      </trkpt>
      <trkpt lat="46.99768" lon="3.31595">
        <ele>289.41226196289</ele>
        <time>2016-03-02T13:40:30.000Z</time>
      </trkpt>
      <trkpt lat="46.99771" lon="3.31594">
        <ele>289.21231079102</ele>
        <time>2016-03-02T13:40:33.000Z</time>
      </trkpt>
      <trkpt lat="46.99775" lon="3.31593">
        <ele>289.00543212891</ele>
        <time>2016-03-02T13:40:36.000Z</time>
      </trkpt>
      <trkpt lat="46.99778" lon="3.31592">
        <ele>288.81195068359</ele>
        <time>2016-03-02T13:40:39.000Z</time>
      </trkpt>
      <trkpt lat="46.99779" lon="3.3159">
        <ele>288.64263916016</ele>
        <time>2016-03-02T13:40:41.000Z</time>
      </trkpt>
      <trkpt lat="46.99781" lon="3.31586">
        <ele>288.44995117188</ele>
        <time>2016-03-02T13:40:45.000Z</time>
      </trkpt>
      <trkpt lat="46.99782" lon="3.31586">
        <ele>288.28094482422</ele>
        <time>2016-03-02T13:40:49.000Z</time>
      </trkpt>
      <trkpt lat="46.9978" lon="3.31582">
        <ele>288.12683105469</ele>
        <time>2016-03-02T13:41:05.000Z</time>
      </trkpt>
      <trkpt lat="46.99779" lon="3.31582">
        <ele>288.01629638672</ele>
        <time>2016-03-02T13:41:10.000Z</time>
      </trkpt>
      <trkpt lat="46.99779" lon="3.3158">
        <ele>287.92825317383</ele>
        <time>2016-03-02T13:41:13.000Z</time>
      </trkpt>
      <trkpt lat="46.99781" lon="3.31576">
        <ele>287.84783935547</ele>
        <time>2016-03-02T13:41:16.000Z</time>
      </trkpt>
      <trkpt lat="46.99784" lon="3.31573">
        <ele>287.75543212891</ele>
        <time>2016-03-02T13:41:18.000Z</time>
      </trkpt>
      <trkpt lat="46.99786" lon="3.31568">
        <ele>287.63723754883</ele>
        <time>2016-03-02T13:41:21.000Z</time>
      </trkpt>
      <trkpt lat="46.99788" lon="3.31565">
        <ele>287.48818969727</ele>
        <time>2016-03-02T13:41:23.000Z</time>
      </trkpt>
      <trkpt lat="46.99789" lon="3.31563">
        <ele>287.33413696289</ele>
        <time>2016-03-02T13:41:25.000Z</time>
      </trkpt>
      <trkpt lat="46.99792" lon="3.31562">
        <ele>287.20574951172</ele>
        <time>2016-03-02T13:41:28.000Z</time>
      </trkpt>
      <trkpt lat="46.99795" lon="3.31561">
        <ele>287.08456420898</ele>
        <time>2016-03-02T13:41:31.000Z</time>
      </trkpt>
      <trkpt lat="46.99797" lon="3.31561">
        <ele>286.99090576172</ele>
        <time>2016-03-02T13:41:33.000Z</time>
      </trkpt>
      <trkpt lat="46.998" lon="3.31561">
        <ele>286.91213989258</ele>
        <time>2016-03-02T13:41:35.000Z</time>
      </trkpt>
      <trkpt lat="46.99805" lon="3.31559">
        <ele>286.82144165039</ele>
        <time>2016-03-02T13:41:38.000Z</time>
      </trkpt>
      <trkpt lat="46.99809" lon="3.31558">
        <ele>286.72665405273</ele>
        <time>2016-03-02T13:41:41.000Z</time>
      </trkpt>
      <trkpt lat="46.9981" lon="3.31557">
        <ele>286.64428710938</ele>
        <time>2016-03-02T13:41:43.000Z</time>
      </trkpt>
      <trkpt lat="46.99812" lon="3.31556">
        <ele>286.56457519531</ele>
        <time>2016-03-02T13:41:45.000Z</time>
      </trkpt>
      <trkpt lat="46.99814" lon="3.31554">
        <ele>286.48883056641</ele>
        <time>2016-03-02T13:41:48.000Z</time>
      </trkpt>
      <trkpt lat="46.99815" lon="3.31554">
        <ele>286.43218994141</ele>
        <time>2016-03-02T13:41:50.000Z</time>
      </trkpt>
      <trkpt lat="46.99819" lon="3.31554">
        <ele>286.38354492188</ele>
        <time>2016-03-02T13:41:53.000Z</time>
      </trkpt>
      <trkpt lat="46.99821" lon="3.31553">
        <ele>286.33383178711</ele>
        <time>2016-03-02T13:41:56.000Z</time>
      </trkpt>
      <trkpt lat="46.99822" lon="3.31551">
        <ele>286.28717041016</ele>
        <time>2016-03-02T13:41:58.000Z</time>
      </trkpt>
      <trkpt lat="46.99824" lon="3.3155">
        <ele>286.24285888672</ele>
        <time>2016-03-02T13:42:00.000Z</time>
      </trkpt>
      <trkpt lat="46.99826" lon="3.31547">
        <ele>286.19564819336</ele>
        <time>2016-03-02T13:42:03.000Z</time>
      </trkpt>
      <trkpt lat="46.99829" lon="3.31544">
        <ele>286.15057373047</ele>
        <time>2016-03-02T13:42:06.000Z</time>
      </trkpt>
      <trkpt lat="46.99833" lon="3.31541">
        <ele>286.10375976562</ele>
        <time>2016-03-02T13:42:09.000Z</time>
      </trkpt>
      <trkpt lat="46.99836" lon="3.31539">
        <ele>286.07577514648</ele>
        <time>2016-03-02T13:42:12.000Z</time>
      </trkpt>
      <trkpt lat="46.99838" lon="3.31537">
        <ele>286.06790161133</ele>
        <time>2016-03-02T13:42:14.000Z</time>
      </trkpt>
      <trkpt lat="46.99839" lon="3.31536">
        <ele>286.07202148438</ele>
        <time>2016-03-02T13:42:16.000Z</time>
      </trkpt>
      <trkpt lat="46.99842" lon="3.31534">
        <ele>286.10577392578</ele>
        <time>2016-03-02T13:42:19.000Z</time>
      </trkpt>
      <trkpt lat="46.99845" lon="3.31534">
        <ele>286.16644287109</ele>
        <time>2016-03-02T13:42:22.000Z</time>
      </trkpt>
      <trkpt lat="46.99847" lon="3.31534">
        <ele>286.22491455078</ele>
        <time>2016-03-02T13:42:24.000Z</time>
      </trkpt>
      <trkpt lat="46.9985" lon="3.31534">
        <ele>286.28994750977</ele>
        <time>2016-03-02T13:42:27.000Z</time>
      </trkpt>
      <trkpt lat="46.99854" lon="3.31534">
        <ele>286.36993408203</ele>
        <time>2016-03-02T13:42:30.000Z</time>
      </trkpt>
      <trkpt lat="46.99855" lon="3.31533">
        <ele>286.44400024414</ele>
        <time>2016-03-02T13:42:32.000Z</time>
      </trkpt>
      <trkpt lat="46.99858" lon="3.31531">
        <ele>286.51403808594</ele>
        <time>2016-03-02T13:42:34.000Z</time>
      </trkpt>
      <trkpt lat="46.99862" lon="3.31529">
        <ele>286.60235595703</ele>
        <time>2016-03-02T13:42:37.000Z</time>
      </trkpt>
      <trkpt lat="46.99865" lon="3.31528">
        <ele>286.69198608398</ele>
        <time>2016-03-02T13:42:40.000Z</time>
      </trkpt>
      <trkpt lat="46.99868" lon="3.31526">
        <ele>286.78262329102</ele>
        <time>2016-03-02T13:42:43.000Z</time>
      </trkpt>
      <trkpt lat="46.99871" lon="3.31522">
        <ele>286.884765625</ele>
        <time>2016-03-02T13:42:46.000Z</time>
      </trkpt>
      <trkpt lat="46.99873" lon="3.3152">
        <ele>286.99478149414</ele>
        <time>2016-03-02T13:42:48.000Z</time>
      </trkpt>
      <trkpt lat="46.99875" lon="3.31517">
        <ele>287.09359741211</ele>
        <time>2016-03-02T13:42:50.000Z</time>
      </trkpt>
      <trkpt lat="46.99878" lon="3.31514">
        <ele>287.20092773438</ele>
        <time>2016-03-02T13:42:53.000Z</time>
      </trkpt>
      <trkpt lat="46.99882" lon="3.3151">
        <ele>287.32608032227</ele>
        <time>2016-03-02T13:42:56.000Z</time>
      </trkpt>
      <trkpt lat="46.99886" lon="3.31508">
        <ele>287.46215820312</ele>
        <time>2016-03-02T13:42:59.000Z</time>
      </trkpt>
      <trkpt lat="46.99887" lon="3.31507">
        <ele>287.58892822266</ele>
        <time>2016-03-02T13:43:03.000Z</time>
      </trkpt>
      <trkpt lat="46.99891" lon="3.31503">
        <ele>287.73522949219</ele>
        <time>2016-03-02T13:43:05.000Z</time>
      </trkpt>
      <trkpt lat="46.99892" lon="3.31501">
        <ele>287.87124633789</ele>
        <time>2016-03-02T13:43:06.000Z</time>
      </trkpt>
      <trkpt lat="46.99895" lon="3.31499">
        <ele>287.99468994141</ele>
        <time>2016-03-02T13:43:09.000Z</time>
      </trkpt>
      <trkpt lat="46.99898" lon="3.31498">
        <ele>288.09912109375</ele>
        <time>2016-03-02T13:43:11.000Z</time>
      </trkpt>
      <trkpt lat="46.99899" lon="3.31497">
        <ele>288.19717407227</ele>
        <time>2016-03-02T13:43:13.000Z</time>
      </trkpt>
      <trkpt lat="46.99901" lon="3.31496">
        <ele>288.26849365234</ele>
        <time>2016-03-02T13:43:15.000Z</time>
      </trkpt>
      <trkpt lat="46.99904" lon="3.31493">
        <ele>288.34161376953</ele>
        <time>2016-03-02T13:43:18.000Z</time>
      </trkpt>
      <trkpt lat="46.99908" lon="3.31491">
        <ele>288.40933227539</ele>
        <time>2016-03-02T13:43:21.000Z</time>
      </trkpt>
      <trkpt lat="46.99912" lon="3.31489">
        <ele>288.49005126953</ele>
        <time>2016-03-02T13:43:24.000Z</time>
      </trkpt>
      <trkpt lat="46.99916" lon="3.31488">
        <ele>288.58776855469</ele>
        <time>2016-03-02T13:43:27.000Z</time>
      </trkpt>
      <trkpt lat="46.99918" lon="3.31487">
        <ele>288.68762207031</ele>
        <time>2016-03-02T13:43:29.000Z</time>
      </trkpt>
      <trkpt lat="46.99921" lon="3.31487">
        <ele>288.77569580078</ele>
        <time>2016-03-02T13:43:32.000Z</time>
      </trkpt>
      <trkpt lat="46.99924" lon="3.31484">
        <ele>288.84848022461</ele>
        <time>2016-03-02T13:43:34.000Z</time>
      </trkpt>
      <trkpt lat="46.99927" lon="3.31482">
        <ele>288.90032958984</ele>
        <time>2016-03-02T13:43:37.000Z</time>
      </trkpt>
      <trkpt lat="46.99931" lon="3.3148">
        <ele>288.93832397461</ele>
        <time>2016-03-02T13:43:40.000Z</time>
      </trkpt>
      <trkpt lat="46.99934" lon="3.31477">
        <ele>288.97561645508</ele>
        <time>2016-03-02T13:43:43.000Z</time>
      </trkpt>
      <trkpt lat="46.99936" lon="3.31476">
        <ele>289.00640869141</ele>
        <time>2016-03-02T13:43:45.000Z</time>
      </trkpt>
      <trkpt lat="46.99938" lon="3.31472">
        <ele>289.03970336914</ele>
        <time>2016-03-02T13:43:47.000Z</time>
      </trkpt>
      <trkpt lat="46.99941" lon="3.31471">
        <ele>289.07736206055</ele>
        <time>2016-03-02T13:43:50.000Z</time>
      </trkpt>
      <trkpt lat="46.99945" lon="3.31469">
        <ele>289.11822509766</ele>
        <time>2016-03-02T13:43:53.000Z</time>
      </trkpt>
      <trkpt lat="46.99947" lon="3.31468">
        <ele>289.16079711914</ele>
        <time>2016-03-02T13:43:55.000Z</time>
      </trkpt>
      <trkpt lat="46.9995" lon="3.31467">
        <ele>289.20913696289</ele>
        <time>2016-03-02T13:43:58.000Z</time>
      </trkpt>
      <trkpt lat="46.99952" lon="3.31466">
        <ele>289.2619934082</ele>
        <time>2016-03-02T13:44:00.000Z</time>
      </trkpt>
      <trkpt lat="46.99954" lon="3.31465">
        <ele>289.31390380859</ele>
        <time>2016-03-02T13:44:02.000Z</time>
      </trkpt>
      <trkpt lat="46.99957" lon="3.31463">
        <ele>289.36474609375</ele>
        <time>2016-03-02T13:44:05.000Z</time>
      </trkpt>
      <trkpt lat="46.99959" lon="3.31461">
        <ele>289.41510009766</ele>
        <time>2016-03-02T13:44:07.000Z</time>
      </trkpt>
      <trkpt lat="46.99961" lon="3.31459">
        <ele>289.46722412109</ele>
        <time>2016-03-02T13:44:09.000Z</time>
      </trkpt>
      <trkpt lat="46.99965" lon="3.31457">
        <ele>289.5256652832</ele>
        <time>2016-03-02T13:44:12.000Z</time>
      </trkpt>
      <trkpt lat="46.99967" lon="3.31455">
        <ele>289.58416748047</ele>
        <time>2016-03-02T13:44:14.000Z</time>
      </trkpt>
      <trkpt lat="46.9997" lon="3.31453">
        <ele>289.65191650391</ele>
        <time>2016-03-02T13:44:17.000Z</time>
      </trkpt>
      <trkpt lat="46.99973" lon="3.3145">
        <ele>289.72320556641</ele>
        <time>2016-03-02T13:44:20.000Z</time>
      </trkpt>
      <trkpt lat="46.99975" lon="3.31448">
        <ele>289.79968261719</ele>
        <time>2016-03-02T13:44:22.000Z</time>
      </trkpt>
      <trkpt lat="46.99978" lon="3.31445">
        <ele>289.87811279297</ele>
        <time>2016-03-02T13:44:25.000Z</time>
      </trkpt>
      <trkpt lat="46.99981" lon="3.31443">
        <ele>289.96478271484</ele>
        <time>2016-03-02T13:44:28.000Z</time>
      </trkpt>
      <trkpt lat="46.99985" lon="3.3144">
        <ele>290.05651855469</ele>
        <time>2016-03-02T13:44:31.000Z</time>
      </trkpt>
      <trkpt lat="46.99988" lon="3.31439">
        <ele>290.15469360352</ele>
        <time>2016-03-02T13:44:33.000Z</time>
      </trkpt>
      <trkpt lat="46.9999" lon="3.31438">
        <ele>290.25173950195</ele>
        <time>2016-03-02T13:44:35.000Z</time>
      </trkpt>
      <trkpt lat="46.99993" lon="3.31438">
        <ele>290.34774780273</ele>
        <time>2016-03-02T13:44:38.000Z</time>
      </trkpt>
      <trkpt lat="46.99996" lon="3.31436">
        <ele>290.45196533203</ele>
        <time>2016-03-02T13:44:41.000Z</time>
      </trkpt>
      <trkpt lat="46.99998" lon="3.31434">
        <ele>290.54559326172</ele>
        <time>2016-03-02T13:44:43.000Z</time>
      </trkpt>
      <trkpt lat="47.00001" lon="3.31433">
        <ele>290.63671875</ele>
        <time>2016-03-02T13:44:45.000Z</time>
      </trkpt>
      <trkpt lat="47.00003" lon="3.3143">
        <ele>290.73309326172</ele>
        <time>2016-03-02T13:44:48.000Z</time>
      </trkpt>
      <trkpt lat="47.00006" lon="3.31427">
        <ele>290.83444213867</ele>
        <time>2016-03-02T13:44:51.000Z</time>
      </trkpt>
      <trkpt lat="47.00006" lon="3.31426">
        <ele>290.91375732422</ele>
        <time>2016-03-02T13:44:59.000Z</time>
      </trkpt>
      <trkpt lat="47.00006" lon="3.31424">
        <ele>290.98239135742</ele>
        <time>2016-03-02T13:45:03.000Z</time>
      </trkpt>
      <trkpt lat="47.00008" lon="3.31423">
        <ele>291.04534912109</ele>
        <time>2016-03-02T13:45:05.000Z</time>
      </trkpt>
      <trkpt lat="47.00011" lon="3.31421">
        <ele>291.10372924805</ele>
        <time>2016-03-02T13:45:07.000Z</time>
      </trkpt>
      <trkpt lat="47.00014" lon="3.3142">
        <ele>291.15667724609</ele>
        <time>2016-03-02T13:45:09.000Z</time>
      </trkpt>
      <trkpt lat="47.00017" lon="3.31418">
        <ele>291.22467041016</ele>
        <time>2016-03-02T13:45:12.000Z</time>
      </trkpt>
      <trkpt lat="47.00021" lon="3.31417">
        <ele>291.31030273438</ele>
        <time>2016-03-02T13:45:15.000Z</time>
      </trkpt>
      <trkpt lat="47.00024" lon="3.31415">
        <ele>291.39520263672</ele>
        <time>2016-03-02T13:45:17.000Z</time>
      </trkpt>
      <trkpt lat="47.00026" lon="3.31413">
        <ele>291.47317504883</ele>
        <time>2016-03-02T13:45:19.000Z</time>
      </trkpt>
      <trkpt lat="47.00029" lon="3.31411">
        <ele>291.54400634766</ele>
        <time>2016-03-02T13:45:22.000Z</time>
      </trkpt>
      <trkpt lat="47.00031" lon="3.3141">
        <ele>291.60433959961</ele>
        <time>2016-03-02T13:45:24.000Z</time>
      </trkpt>
      <trkpt lat="47.00035" lon="3.31407">
        <ele>291.65667724609</ele>
        <time>2016-03-02T13:45:27.000Z</time>
      </trkpt>
      <trkpt lat="47.00037" lon="3.31406">
        <ele>291.70581054688</ele>
        <time>2016-03-02T13:45:29.000Z</time>
      </trkpt>
      <trkpt lat="47.0004" lon="3.31404">
        <ele>291.76028442383</ele>
        <time>2016-03-02T13:45:32.000Z</time>
      </trkpt>
      <trkpt lat="47.00043" lon="3.31401">
        <ele>291.82089233398</ele>
        <time>2016-03-02T13:45:35.000Z</time>
      </trkpt>
      <trkpt lat="47.00045" lon="3.31399">
        <ele>291.88082885742</ele>
        <time>2016-03-02T13:45:37.000Z</time>
      </trkpt>
      <trkpt lat="47.00047" lon="3.31399">
        <ele>291.93377685547</ele>
        <time>2016-03-02T13:45:39.000Z</time>
      </trkpt>
      <trkpt lat="47.00051" lon="3.31397">
        <ele>291.99768066406</ele>
        <time>2016-03-02T13:45:42.000Z</time>
      </trkpt>
      <trkpt lat="47.00055" lon="3.31395">
        <ele>292.06817626953</ele>
        <time>2016-03-02T13:45:45.000Z</time>
      </trkpt>
      <trkpt lat="47.00058" lon="3.3139">
        <ele>292.13751220703</ele>
        <time>2016-03-02T13:45:48.000Z</time>
      </trkpt>
      <trkpt lat="47.00061" lon="3.31389">
        <ele>292.21282958984</ele>
        <time>2016-03-02T13:45:50.000Z</time>
      </trkpt>
      <trkpt lat="47.00063" lon="3.31387">
        <ele>292.29022216797</ele>
        <time>2016-03-02T13:45:52.000Z</time>
      </trkpt>
      <trkpt lat="47.00065" lon="3.31384">
        <ele>292.357421875</ele>
        <time>2016-03-02T13:45:55.000Z</time>
      </trkpt>
      <trkpt lat="47.00066" lon="3.31383">
        <ele>292.41348266602</ele>
        <time>2016-03-02T13:45:57.000Z</time>
      </trkpt>
      <trkpt lat="47.00069" lon="3.3138">
        <ele>292.46807861328</ele>
        <time>2016-03-02T13:46:01.000Z</time>
      </trkpt>
      <trkpt lat="47.0007" lon="3.31377">
        <ele>292.51382446289</ele>
        <time>2016-03-02T13:46:03.000Z</time>
      </trkpt>
      <trkpt lat="47.00071" lon="3.31376">
        <ele>292.5553894043</ele>
        <time>2016-03-02T13:46:05.000Z</time>
      </trkpt>
      <trkpt lat="47.00072" lon="3.31374">
        <ele>292.59405517578</ele>
        <time>2016-03-02T13:46:08.000Z</time>
      </trkpt>
      <trkpt lat="47.00072" lon="3.31371">
        <ele>292.62329101562</ele>
        <time>2016-03-02T13:46:11.000Z</time>
      </trkpt>
      <trkpt lat="47.00072" lon="3.31369">
        <ele>292.64135742188</ele>
        <time>2016-03-02T13:46:14.000Z</time>
      </trkpt>
      <trkpt lat="47.00072" lon="3.31366">
        <ele>292.64965820312</ele>
        <time>2016-03-02T13:46:17.000Z</time>
      </trkpt>
      <trkpt lat="47.00071" lon="3.31362">
        <ele>292.64715576172</ele>
        <time>2016-03-02T13:46:20.000Z</time>
      </trkpt>
      <trkpt lat="47.00071" lon="3.31358">
        <ele>292.63140869141</ele>
        <time>2016-03-02T13:46:24.000Z</time>
      </trkpt>
      <trkpt lat="47.00071" lon="3.31356">
        <ele>292.61825561523</ele>
        <time>2016-03-02T13:46:26.000Z</time>
      </trkpt>
      <trkpt lat="47.00069" lon="3.3135">
        <ele>292.59039306641</ele>
        <time>2016-03-02T13:46:29.000Z</time>
      </trkpt>
      <trkpt lat="47.00069" lon="3.31346">
        <ele>292.56185913086</ele>
        <time>2016-03-02T13:46:32.000Z</time>
      </trkpt>
      <trkpt lat="47.00069" lon="3.31341">
        <ele>292.54348754883</ele>
        <time>2016-03-02T13:46:35.000Z</time>
      </trkpt>
      <trkpt lat="47.00069" lon="3.31339">
        <ele>292.52789306641</ele>
        <time>2016-03-02T13:46:37.000Z</time>
      </trkpt>
      <trkpt lat="47.00068" lon="3.31337">
        <ele>292.50399780273</ele>
        <time>2016-03-02T13:46:40.000Z</time>
      </trkpt>
      <trkpt lat="47.00066" lon="3.31332">
        <ele>292.47821044922</ele>
        <time>2016-03-02T13:46:43.000Z</time>
      </trkpt>
      <trkpt lat="47.00066" lon="3.31331">
        <ele>292.45254516602</ele>
        <time>2016-03-02T13:46:46.000Z</time>
      </trkpt>
      <trkpt lat="47.00064" lon="3.31328">
        <ele>292.41827392578</ele>
        <time>2016-03-02T13:46:50.000Z</time>
      </trkpt>
      <trkpt lat="47.00064" lon="3.31326">
        <ele>292.390625</ele>
        <time>2016-03-02T13:46:52.000Z</time>
      </trkpt>
      <trkpt lat="47.00064" lon="3.31322">
        <ele>292.37438964844</ele>
        <time>2016-03-02T13:46:55.000Z</time>
      </trkpt>
      <trkpt lat="47.00062" lon="3.31318">
        <ele>292.3616027832</ele>
        <time>2016-03-02T13:46:58.000Z</time>
      </trkpt>
      <trkpt lat="47.00061" lon="3.31315">
        <ele>292.34692382812</ele>
        <time>2016-03-02T13:47:00.000Z</time>
      </trkpt>
      <trkpt lat="47.0006" lon="3.31312">
        <ele>292.33383178711</ele>
        <time>2016-03-02T13:47:03.000Z</time>
      </trkpt>
      <trkpt lat="47.00058" lon="3.31305">
        <ele>292.30676269531</ele>
        <time>2016-03-02T13:47:06.000Z</time>
      </trkpt>
      <trkpt lat="47.00056" lon="3.31301">
        <ele>292.26007080078</ele>
        <time>2016-03-02T13:47:11.000Z</time>
      </trkpt>
      <trkpt lat="47.00055" lon="3.31298">
        <ele>292.21633911133</ele>
        <time>2016-03-02T13:47:13.000Z</time>
      </trkpt>
      <trkpt lat="47.00055" lon="3.31296">
        <ele>292.1760559082</ele>
        <time>2016-03-02T13:47:15.000Z</time>
      </trkpt>
      <trkpt lat="47.00053" lon="3.31292">
        <ele>292.13055419922</ele>
        <time>2016-03-02T13:47:18.000Z</time>
      </trkpt>
      <trkpt lat="47.00052" lon="3.31285">
        <ele>292.08862304688</ele>
        <time>2016-03-02T13:47:21.000Z</time>
      </trkpt>
      <trkpt lat="47.00052" lon="3.31281">
        <ele>292.06393432617</ele>
        <time>2016-03-02T13:47:23.000Z</time>
      </trkpt>
      <trkpt lat="47.00051" lon="3.31278">
        <ele>292.04080200195</ele>
        <time>2016-03-02T13:47:25.000Z</time>
      </trkpt>
      <trkpt lat="47.0005" lon="3.31275">
        <ele>292.00936889648</ele>
        <time>2016-03-02T13:47:28.000Z</time>
      </trkpt>
      <trkpt lat="47.00049" lon="3.31272">
        <ele>291.97479248047</ele>
        <time>2016-03-02T13:47:31.000Z</time>
      </trkpt>
      <trkpt lat="47.00048" lon="3.31271">
        <ele>291.93936157227</ele>
        <time>2016-03-02T13:47:33.000Z</time>
      </trkpt>
      <trkpt lat="47.00047" lon="3.31268">
        <ele>291.8935546875</ele>
        <time>2016-03-02T13:47:37.000Z</time>
      </trkpt>
      <trkpt lat="47.00045" lon="3.31263">
        <ele>291.83795166016</ele>
        <time>2016-03-02T13:47:39.000Z</time>
      </trkpt>
      <trkpt lat="47.00043" lon="3.31259">
        <ele>291.77105712891</ele>
        <time>2016-03-02T13:47:42.000Z</time>
      </trkpt>
      <trkpt lat="47.00042" lon="3.31256">
        <ele>291.69241333008</ele>
        <time>2016-03-02T13:47:44.000Z</time>
      </trkpt>
      <trkpt lat="47.00039" lon="3.31251">
        <ele>291.59783935547</ele>
        <time>2016-03-02T13:47:47.000Z</time>
      </trkpt>
      <trkpt lat="47.00039" lon="3.31245">
        <ele>291.49502563477</ele>
        <time>2016-03-02T13:47:50.000Z</time>
      </trkpt>
      <trkpt lat="47.00037" lon="3.31238">
        <ele>291.38735961914</ele>
        <time>2016-03-02T13:47:53.000Z</time>
      </trkpt>
      <trkpt lat="47.00038" lon="3.31232">
        <ele>291.30023193359</ele>
        <time>2016-03-02T13:47:56.000Z</time>
      </trkpt>
      <trkpt lat="47.00037" lon="3.31229">
        <ele>291.22860717773</ele>
        <time>2016-03-02T13:47:58.000Z</time>
      </trkpt>
      <trkpt lat="47.00037" lon="3.31226">
        <ele>291.17352294922</ele>
        <time>2016-03-02T13:48:01.000Z</time>
      </trkpt>
      <trkpt lat="47.00035" lon="3.31219">
        <ele>291.10025024414</ele>
        <time>2016-03-02T13:48:04.000Z</time>
      </trkpt>
      <trkpt lat="47.00033" lon="3.31216">
        <ele>291.02697753906</ele>
        <time>2016-03-02T13:48:07.000Z</time>
      </trkpt>
      <trkpt lat="47.00032" lon="3.31214">
        <ele>290.94491577148</ele>
        <time>2016-03-02T13:48:10.000Z</time>
      </trkpt>
      <trkpt lat="47.00031" lon="3.31209">
        <ele>290.85272216797</ele>
        <time>2016-03-02T13:48:13.000Z</time>
      </trkpt>
      <trkpt lat="47.00031" lon="3.31205">
        <ele>290.76495361328</ele>
        <time>2016-03-02T13:48:15.000Z</time>
      </trkpt>
      <trkpt lat="47.00031" lon="3.31201">
        <ele>290.70358276367</ele>
        <time>2016-03-02T13:48:18.000Z</time>
      </trkpt>
      <trkpt lat="47.00029" lon="3.31196">
        <ele>290.64630126953</ele>
        <time>2016-03-02T13:48:22.000Z</time>
      </trkpt>
      <trkpt lat="47.00029" lon="3.31193">
        <ele>290.59707641602</ele>
        <time>2016-03-02T13:48:24.000Z</time>
      </trkpt>
      <trkpt lat="47.00029" lon="3.3119">
        <ele>290.55560302734</ele>
        <time>2016-03-02T13:48:26.000Z</time>
      </trkpt>
      <trkpt lat="47.00028" lon="3.31187">
        <ele>290.50653076172</ele>
        <time>2016-03-02T13:48:29.000Z</time>
      </trkpt>
      <trkpt lat="47.0003" lon="3.31185">
        <ele>290.48394775391</ele>
        <time>2016-03-02T13:48:32.000Z</time>
      </trkpt>
      <trkpt lat="47.00031" lon="3.31184">
        <ele>290.49459838867</ele>
        <time>2016-03-02T13:48:35.000Z</time>
      </trkpt>
      <trkpt lat="47.00033" lon="3.31182">
        <ele>290.52270507812</ele>
        <time>2016-03-02T13:48:38.000Z</time>
      </trkpt>
      <trkpt lat="47.00034" lon="3.31182">
        <ele>290.56893920898</ele>
        <time>2016-03-02T13:48:41.000Z</time>
      </trkpt>
      <trkpt lat="47.00035" lon="3.31181">
        <ele>290.63778686523</ele>
        <time>2016-03-02T13:48:44.000Z</time>
      </trkpt>
      <trkpt lat="47.00037" lon="3.31179">
        <ele>290.70648193359</ele>
        <time>2016-03-02T13:48:47.000Z</time>
      </trkpt>
      <trkpt lat="47.00039" lon="3.31178">
        <ele>290.77426147461</ele>
        <time>2016-03-02T13:48:54.000Z</time>
      </trkpt>
      <trkpt lat="47.0004" lon="3.31178">
        <ele>290.8388671875</ele>
        <time>2016-03-02T13:49:02.000Z</time>
      </trkpt>
      <trkpt lat="47.00044" lon="3.31176">
        <ele>290.93414306641</ele>
        <time>2016-03-02T13:49:04.000Z</time>
      </trkpt>
      <trkpt lat="47.00051" lon="3.31172">
        <ele>291.07977294922</ele>
        <time>2016-03-02T13:49:07.000Z</time>
      </trkpt>
      <trkpt lat="47.00055" lon="3.3117">
        <ele>291.24392700195</ele>
        <time>2016-03-02T13:49:10.000Z</time>
      </trkpt>
      <trkpt lat="47.00056" lon="3.31169">
        <ele>291.40704345703</ele>
        <time>2016-03-02T13:49:12.000Z</time>
      </trkpt>
      <trkpt lat="47.00059" lon="3.31168">
        <ele>291.58001708984</ele>
        <time>2016-03-02T13:49:15.000Z</time>
      </trkpt>
      <trkpt lat="47.00061" lon="3.31165">
        <ele>291.73727416992</ele>
        <time>2016-03-02T13:49:18.000Z</time>
      </trkpt>
      <trkpt lat="47.00063" lon="3.31163">
        <ele>291.85406494141</ele>
        <time>2016-03-02T13:49:20.000Z</time>
      </trkpt>
      <trkpt lat="47.00066" lon="3.3116">
        <ele>291.95663452148</ele>
        <time>2016-03-02T13:49:23.000Z</time>
      </trkpt>
      <trkpt lat="47.00068" lon="3.31158">
        <ele>292.06573486328</ele>
        <time>2016-03-02T13:49:26.000Z</time>
      </trkpt>
      <trkpt lat="47.00069" lon="3.31157">
        <ele>292.16513061523</ele>
        <time>2016-03-02T13:49:32.000Z</time>
      </trkpt>
      <trkpt lat="47.0007" lon="3.31156">
        <ele>292.25366210938</ele>
        <time>2016-03-02T13:49:35.000Z</time>
      </trkpt>
      <trkpt lat="47.00072" lon="3.31156">
        <ele>292.34274291992</ele>
        <time>2016-03-02T13:49:38.000Z</time>
      </trkpt>
      <trkpt lat="47.00074" lon="3.31155">
        <ele>292.42071533203</ele>
        <time>2016-03-02T13:49:40.000Z</time>
      </trkpt>
      <trkpt lat="47.00076" lon="3.31151">
        <ele>292.49771118164</ele>
        <time>2016-03-02T13:49:43.000Z</time>
      </trkpt>
      <trkpt lat="47.00077" lon="3.31149">
        <ele>292.57778930664</ele>
        <time>2016-03-02T13:49:46.000Z</time>
      </trkpt>
      <trkpt lat="47.0008" lon="3.31147">
        <ele>292.66729736328</ele>
        <time>2016-03-02T13:49:49.000Z</time>
      </trkpt>
      <trkpt lat="47.00084" lon="3.31146">
        <ele>292.76495361328</ele>
        <time>2016-03-02T13:49:52.000Z</time>
      </trkpt>
      <trkpt lat="47.00087" lon="3.31145">
        <ele>292.84637451172</ele>
        <time>2016-03-02T13:49:55.000Z</time>
      </trkpt>
      <trkpt lat="47.00091" lon="3.31144">
        <ele>292.90484619141</ele>
        <time>2016-03-02T13:49:58.000Z</time>
      </trkpt>
      <trkpt lat="47.00094" lon="3.31143">
        <ele>292.94522094727</ele>
        <time>2016-03-02T13:50:00.000Z</time>
      </trkpt>
      <trkpt lat="47.00098" lon="3.31143">
        <ele>292.96102905273</ele>
        <time>2016-03-02T13:50:03.000Z</time>
      </trkpt>
      <trkpt lat="47.00103" lon="3.31141">
        <ele>292.94342041016</ele>
        <time>2016-03-02T13:50:06.000Z</time>
      </trkpt>
      <trkpt lat="47.00106" lon="3.31139">
        <ele>292.9303894043</ele>
        <time>2016-03-02T13:50:08.000Z</time>
      </trkpt>
      <trkpt lat="47.00109" lon="3.31139">
        <ele>292.91781616211</ele>
        <time>2016-03-02T13:50:11.000Z</time>
      </trkpt>
      <trkpt lat="47.00113" lon="3.31139">
        <ele>292.90545654297</ele>
        <time>2016-03-02T13:50:14.000Z</time>
      </trkpt>
      <trkpt lat="47.00117" lon="3.31137">
        <ele>292.89630126953</ele>
        <time>2016-03-02T13:50:17.000Z</time>
      </trkpt>
      <trkpt lat="47.00122" lon="3.31132">
        <ele>292.89801025391</ele>
        <time>2016-03-02T13:50:20.000Z</time>
      </trkpt>
      <trkpt lat="47.00124" lon="3.3113">
        <ele>292.90396118164</ele>
        <time>2016-03-02T13:50:22.000Z</time>
      </trkpt>
      <trkpt lat="47.00125" lon="3.31129">
        <ele>292.91534423828</ele>
        <time>2016-03-02T13:50:24.000Z</time>
      </trkpt>
      <trkpt lat="47.00127" lon="3.31123">
        <ele>292.94290161133</ele>
        <time>2016-03-02T13:50:27.000Z</time>
      </trkpt>
      <trkpt lat="47.0013" lon="3.3112">
        <ele>292.98028564453</ele>
        <time>2016-03-02T13:50:30.000Z</time>
      </trkpt>
      <trkpt lat="47.00133" lon="3.31117">
        <ele>293.01861572266</ele>
        <time>2016-03-02T13:50:32.000Z</time>
      </trkpt>
      <trkpt lat="47.00137" lon="3.31112">
        <ele>293.07186889648</ele>
        <time>2016-03-02T13:50:35.000Z</time>
      </trkpt>
      <trkpt lat="47.0014" lon="3.3111">
        <ele>293.12979125977</ele>
        <time>2016-03-02T13:50:38.000Z</time>
      </trkpt>
      <trkpt lat="47.00145" lon="3.3111">
        <ele>293.18017578125</ele>
        <time>2016-03-02T13:50:41.000Z</time>
      </trkpt>
      <trkpt lat="47.00148" lon="3.31108">
        <ele>293.23178100586</ele>
        <time>2016-03-02T13:50:45.000Z</time>
      </trkpt>
      <trkpt lat="47.00151" lon="3.31106">
        <ele>293.28231811523</ele>
        <time>2016-03-02T13:50:47.000Z</time>
      </trkpt>
      <trkpt lat="47.00152" lon="3.31106">
        <ele>293.31539916992</ele>
        <time>2016-03-02T13:50:49.000Z</time>
      </trkpt>
      <trkpt lat="47.00154" lon="3.31106">
        <ele>293.34432983398</ele>
        <time>2016-03-02T13:50:51.000Z</time>
      </trkpt>
      <trkpt lat="47.00155" lon="3.31105">
        <ele>293.37197875977</ele>
        <time>2016-03-02T13:50:53.000Z</time>
      </trkpt>
      <trkpt lat="47.00158" lon="3.31103">
        <ele>293.39950561523</ele>
        <time>2016-03-02T13:50:56.000Z</time>
      </trkpt>
      <trkpt lat="47.00161" lon="3.31103">
        <ele>293.42449951172</ele>
        <time>2016-03-02T13:50:59.000Z</time>
      </trkpt>
      <trkpt lat="47.00164" lon="3.31103">
        <ele>293.45422363281</ele>
        <time>2016-03-02T13:51:01.000Z</time>
      </trkpt>
      <trkpt lat="47.00168" lon="3.311">
        <ele>293.49755859375</ele>
        <time>2016-03-02T13:51:04.000Z</time>
      </trkpt>
      <trkpt lat="47.0017" lon="3.31098">
        <ele>293.54724121094</ele>
        <time>2016-03-02T13:51:06.000Z</time>
      </trkpt>
      <trkpt lat="47.00174" lon="3.31097">
        <ele>293.5950012207</ele>
        <time>2016-03-02T13:51:09.000Z</time>
      </trkpt>
      <trkpt lat="47.00179" lon="3.31095">
        <ele>293.6506652832</ele>
        <time>2016-03-02T13:51:12.000Z</time>
      </trkpt>
      <trkpt lat="47.00181" lon="3.31092">
        <ele>293.71185302734</ele>
        <time>2016-03-02T13:51:14.000Z</time>
      </trkpt>
      <trkpt lat="47.00182" lon="3.31091">
        <ele>293.76055908203</ele>
        <time>2016-03-02T13:51:16.000Z</time>
      </trkpt>
      <trkpt lat="47.00184" lon="3.31089">
        <ele>293.80889892578</ele>
        <time>2016-03-02T13:51:19.000Z</time>
      </trkpt>
      <trkpt lat="47.00186" lon="3.31089">
        <ele>293.84881591797</ele>
        <time>2016-03-02T13:51:21.000Z</time>
      </trkpt>
      <trkpt lat="47.00188" lon="3.31088">
        <ele>293.87725830078</ele>
        <time>2016-03-02T13:51:24.000Z</time>
      </trkpt>
      <trkpt lat="47.00191" lon="3.31089">
        <ele>293.89389038086</ele>
        <time>2016-03-02T13:51:27.000Z</time>
      </trkpt>
      <trkpt lat="47.00194" lon="3.31087">
        <ele>293.91174316406</ele>
        <time>2016-03-02T13:51:29.000Z</time>
      </trkpt>
      <trkpt lat="47.00197" lon="3.31088">
        <ele>293.91851806641</ele>
        <time>2016-03-02T13:51:32.000Z</time>
      </trkpt>
      <trkpt lat="47.00198" lon="3.31087">
        <ele>293.92645263672</ele>
        <time>2016-03-02T13:51:34.000Z</time>
      </trkpt>
      <trkpt lat="47.00202" lon="3.31086">
        <ele>293.9365234375</ele>
        <time>2016-03-02T13:51:36.000Z</time>
      </trkpt>
      <trkpt lat="47.00205" lon="3.31086">
        <ele>293.94763183594</ele>
        <time>2016-03-02T13:51:38.000Z</time>
      </trkpt>
      <trkpt lat="47.00208" lon="3.31083">
        <ele>293.9599609375</ele>
        <time>2016-03-02T13:51:41.000Z</time>
      </trkpt>
      <trkpt lat="47.0021" lon="3.31082">
        <ele>293.97308349609</ele>
        <time>2016-03-02T13:51:43.000Z</time>
      </trkpt>
      <trkpt lat="47.00213" lon="3.31081">
        <ele>293.98397827148</ele>
        <time>2016-03-02T13:51:46.000Z</time>
      </trkpt>
      <trkpt lat="47.00216" lon="3.31081">
        <ele>293.99096679688</ele>
        <time>2016-03-02T13:51:48.000Z</time>
      </trkpt>
      <trkpt lat="47.00217" lon="3.3108">
        <ele>293.99584960938</ele>
        <time>2016-03-02T13:51:50.000Z</time>
      </trkpt>
      <trkpt lat="47.0022" lon="3.3108">
        <ele>293.99368286133</ele>
        <time>2016-03-02T13:51:53.000Z</time>
      </trkpt>
      <trkpt lat="47.00222" lon="3.31079">
        <ele>293.99047851562</ele>
        <time>2016-03-02T13:51:56.000Z</time>
      </trkpt>
      <trkpt lat="47.00227" lon="3.31077">
        <ele>293.98406982422</ele>
        <time>2016-03-02T13:51:59.000Z</time>
      </trkpt>
      <trkpt lat="47.00231" lon="3.31074">
        <ele>293.97277832031</ele>
        <time>2016-03-02T13:52:02.000Z</time>
      </trkpt>
      <trkpt lat="47.00236" lon="3.31072">
        <ele>293.95639038086</ele>
        <time>2016-03-02T13:52:05.000Z</time>
      </trkpt>
      <trkpt lat="47.00239" lon="3.31069">
        <ele>293.93389892578</ele>
        <time>2016-03-02T13:52:08.000Z</time>
      </trkpt>
      <trkpt lat="47.00242" lon="3.31066">
        <ele>293.90347290039</ele>
        <time>2016-03-02T13:52:11.000Z</time>
      </trkpt>
      <trkpt lat="47.00246" lon="3.31065">
        <ele>293.87078857422</ele>
        <time>2016-03-02T13:52:14.000Z</time>
      </trkpt>
      <trkpt lat="47.0025" lon="3.31064">
        <ele>293.83544921875</ele>
        <time>2016-03-02T13:52:17.000Z</time>
      </trkpt>
      <trkpt lat="47.00252" lon="3.31064">
        <ele>293.80291748047</ele>
        <time>2016-03-02T13:52:19.000Z</time>
      </trkpt>
      <trkpt lat="47.00255" lon="3.31062">
        <ele>293.76504516602</ele>
        <time>2016-03-02T13:52:22.000Z</time>
      </trkpt>
      <trkpt lat="47.00257" lon="3.31061">
        <ele>293.72866821289</ele>
        <time>2016-03-02T13:52:24.000Z</time>
      </trkpt>
      <trkpt lat="47.00259" lon="3.3106">
        <ele>293.69024658203</ele>
        <time>2016-03-02T13:52:27.000Z</time>
      </trkpt>
      <trkpt lat="47.00261" lon="3.3106">
        <ele>293.65612792969</ele>
        <time>2016-03-02T13:52:29.000Z</time>
      </trkpt>
      <trkpt lat="47.00262" lon="3.3106">
        <ele>293.62026977539</ele>
        <time>2016-03-02T13:52:31.000Z</time>
      </trkpt>
      <trkpt lat="47.00266" lon="3.31057">
        <ele>293.58026123047</ele>
        <time>2016-03-02T13:52:34.000Z</time>
      </trkpt>
      <trkpt lat="47.00269" lon="3.31055">
        <ele>293.53747558594</ele>
        <time>2016-03-02T13:52:36.000Z</time>
      </trkpt>
      <trkpt lat="47.00272" lon="3.31054">
        <ele>293.49282836914</ele>
        <time>2016-03-02T13:52:38.000Z</time>
      </trkpt>
      <trkpt lat="47.00275" lon="3.3105">
        <ele>293.43408203125</ele>
        <time>2016-03-02T13:52:41.000Z</time>
      </trkpt>
      <trkpt lat="47.00278" lon="3.31047">
        <ele>293.36590576172</ele>
        <time>2016-03-02T13:52:44.000Z</time>
      </trkpt>
      <trkpt lat="47.0028" lon="3.31046">
        <ele>293.30548095703</ele>
        <time>2016-03-02T13:52:47.000Z</time>
      </trkpt>
      <trkpt lat="47.00283" lon="3.31045">
        <ele>293.24603271484</ele>
        <time>2016-03-02T13:52:49.000Z</time>
      </trkpt>
      <trkpt lat="47.00286" lon="3.31044">
        <ele>293.18841552734</ele>
        <time>2016-03-02T13:52:52.000Z</time>
      </trkpt>
      <trkpt lat="47.00291" lon="3.31041">
        <ele>293.1298828125</ele>
        <time>2016-03-02T13:52:55.000Z</time>
      </trkpt>
      <trkpt lat="47.00293" lon="3.31041">
        <ele>293.07830810547</ele>
        <time>2016-03-02T13:52:57.000Z</time>
      </trkpt>
      <trkpt lat="47.00295" lon="3.31041">
        <ele>293.02996826172</ele>
        <time>2016-03-02T13:53:01.000Z</time>
      </trkpt>
      <trkpt lat="47.00297" lon="3.3104">
        <ele>292.98608398438</ele>
        <time>2016-03-02T13:53:02.000Z</time>
      </trkpt>
      <trkpt lat="47.003" lon="3.31038">
        <ele>292.93905639648</ele>
        <time>2016-03-02T13:53:06.000Z</time>
      </trkpt>
      <trkpt lat="47.00304" lon="3.31037">
        <ele>292.89935302734</ele>
        <time>2016-03-02T13:53:09.000Z</time>
      </trkpt>
      <trkpt lat="47.00308" lon="3.31037">
        <ele>292.85461425781</ele>
        <time>2016-03-02T13:53:12.000Z</time>
      </trkpt>
      <trkpt lat="47.00312" lon="3.31035">
        <ele>292.80322265625</ele>
        <time>2016-03-02T13:53:15.000Z</time>
      </trkpt>
      <trkpt lat="47.00316" lon="3.31032">
        <ele>292.73950195312</ele>
        <time>2016-03-02T13:53:18.000Z</time>
      </trkpt>
      <trkpt lat="47.00318" lon="3.31032">
        <ele>292.68041992188</ele>
        <time>2016-03-02T13:53:21.000Z</time>
      </trkpt>
      <trkpt lat="47.00323" lon="3.3103">
        <ele>292.61694335938</ele>
        <time>2016-03-02T13:53:24.000Z</time>
      </trkpt>
      <trkpt lat="47.00326" lon="3.31029">
        <ele>292.55346679688</ele>
        <time>2016-03-02T13:53:27.000Z</time>
      </trkpt>
      <trkpt lat="47.00328" lon="3.31027">
        <ele>292.49304199219</ele>
        <time>2016-03-02T13:53:30.000Z</time>
      </trkpt>
      <trkpt lat="47.0033" lon="3.31025">
        <ele>292.44271850586</ele>
        <time>2016-03-02T13:53:32.000Z</time>
      </trkpt>
      <trkpt lat="47.00333" lon="3.31024">
        <ele>292.38714599609</ele>
        <time>2016-03-02T13:53:35.000Z</time>
      </trkpt>
      <trkpt lat="47.00336" lon="3.31022">
        <ele>292.34140014648</ele>
        <time>2016-03-02T13:53:38.000Z</time>
      </trkpt>
      <trkpt lat="47.00337" lon="3.31022">
        <ele>292.30712890625</ele>
        <time>2016-03-02T13:53:40.000Z</time>
      </trkpt>
      <trkpt lat="47.00341" lon="3.3102">
        <ele>292.27508544922</ele>
        <time>2016-03-02T13:53:42.000Z</time>
      </trkpt>
      <trkpt lat="47.00345" lon="3.31019">
        <ele>292.244140625</ele>
        <time>2016-03-02T13:53:45.000Z</time>
      </trkpt>
      <trkpt lat="47.00349" lon="3.31017">
        <ele>292.22003173828</ele>
        <time>2016-03-02T13:53:48.000Z</time>
      </trkpt>
      <trkpt lat="47.00352" lon="3.31017">
        <ele>292.19976806641</ele>
        <time>2016-03-02T13:53:50.000Z</time>
      </trkpt>
      <trkpt lat="47.00355" lon="3.31015">
        <ele>292.17559814453</ele>
        <time>2016-03-02T13:53:52.000Z</time>
      </trkpt>
      <trkpt lat="47.00359" lon="3.31012">
        <ele>292.15158081055</ele>
        <time>2016-03-02T13:53:55.000Z</time>
      </trkpt>
      <trkpt lat="47.00361" lon="3.31011">
        <ele>292.13104248047</ele>
        <time>2016-03-02T13:53:57.000Z</time>
      </trkpt>
      <trkpt lat="47.00364" lon="3.31011">
        <ele>292.11373901367</ele>
        <time>2016-03-02T13:53:59.000Z</time>
      </trkpt>
      <trkpt lat="47.00365" lon="3.3101">
        <ele>292.09753417969</ele>
        <time>2016-03-02T13:54:01.000Z</time>
      </trkpt>
      <trkpt lat="47.00367" lon="3.31009">
        <ele>292.0837097168</ele>
        <time>2016-03-02T13:54:03.000Z</time>
      </trkpt>
      <trkpt lat="47.0037" lon="3.31006">
        <ele>292.07171630859</ele>
        <time>2016-03-02T13:54:06.000Z</time>
      </trkpt>
      <trkpt lat="47.00373" lon="3.31005">
        <ele>292.05963134766</ele>
        <time>2016-03-02T13:54:09.000Z</time>
      </trkpt>
      <trkpt lat="47.00375" lon="3.31005">
        <ele>292.04901123047</ele>
        <time>2016-03-02T13:54:12.000Z</time>
      </trkpt>
      <trkpt lat="47.00379" lon="3.31004">
        <ele>292.03735351562</ele>
        <time>2016-03-02T13:54:15.000Z</time>
      </trkpt>
      <trkpt lat="47.00381" lon="3.31004">
        <ele>292.02835083008</ele>
        <time>2016-03-02T13:54:17.000Z</time>
      </trkpt>
      <trkpt lat="47.00383" lon="3.31003">
        <ele>292.0231628418</ele>
        <time>2016-03-02T13:54:19.000Z</time>
      </trkpt>
      <trkpt lat="47.00386" lon="3.31002">
        <ele>292.01870727539</ele>
        <time>2016-03-02T13:54:22.000Z</time>
      </trkpt>
      <trkpt lat="47.00387" lon="3.31001">
        <ele>292.01409912109</ele>
        <time>2016-03-02T13:54:24.000Z</time>
      </trkpt>
      <trkpt lat="47.00393" lon="3.30999">
        <ele>292.01031494141</ele>
        <time>2016-03-02T13:54:27.000Z</time>
      </trkpt>
      <trkpt lat="47.00395" lon="3.30998">
        <ele>292.00622558594</ele>
        <time>2016-03-02T13:54:29.000Z</time>
      </trkpt>
      <trkpt lat="47.00397" lon="3.30997">
        <ele>292.00296020508</ele>
        <time>2016-03-02T13:54:31.000Z</time>
      </trkpt>
      <trkpt lat="47.00399" lon="3.30997">
        <ele>292.0012512207</ele>
        <time>2016-03-02T13:54:33.000Z</time>
      </trkpt>
      <trkpt lat="47.00404" lon="3.30995">
        <ele>292</ele>
        <time>2016-03-02T13:54:36.000Z</time>
      </trkpt>
      <trkpt lat="47.00406" lon="3.30993">
        <ele>292</ele>
        <time>2016-03-02T13:54:38.000Z</time>
      </trkpt>
      <trkpt lat="47.0041" lon="3.30991">
        <ele>292</ele>
        <time>2016-03-02T13:54:41.000Z</time>
      </trkpt>
      <trkpt lat="47.00413" lon="3.30989">
        <ele>292</ele>
        <time>2016-03-02T13:54:43.000Z</time>
      </trkpt>
      <trkpt lat="47.00415" lon="3.30989">
        <ele>292</ele>
        <time>2016-03-02T13:54:45.000Z</time>
      </trkpt>
      <trkpt lat="47.00417" lon="3.30989">
        <ele>291.9970703125</ele>
        <time>2016-03-02T13:54:47.000Z</time>
      </trkpt>
      <trkpt lat="47.00422" lon="3.30987">
        <ele>291.9619140625</ele>
        <time>2016-03-02T13:54:50.000Z</time>
      </trkpt>
      <trkpt lat="47.00425" lon="3.30983">
        <ele>291.90625</ele>
        <time>2016-03-02T13:54:53.000Z</time>
      </trkpt>
      <trkpt lat="47.00428" lon="3.30981">
        <ele>291.82421875</ele>
        <time>2016-03-02T13:54:56.000Z</time>
      </trkpt>
      <trkpt lat="47.00432" lon="3.30979">
        <ele>291.7158203125</ele>
        <time>2016-03-02T13:54:58.000Z</time>
      </trkpt>
      <trkpt lat="47.00434" lon="3.30979">
        <ele>291.5927734375</ele>
        <time>2016-03-02T13:55:01.000Z</time>
      </trkpt>
      <trkpt lat="47.00436" lon="3.30977">
        <ele>291.4873046875</ele>
        <time>2016-03-02T13:55:03.000Z</time>
      </trkpt>
      <trkpt lat="47.0044" lon="3.30976">
        <ele>291.3759765625</ele>
        <time>2016-03-02T13:55:06.000Z</time>
      </trkpt>
      <trkpt lat="47.00442" lon="3.30976">
        <ele>291.2763671875</ele>
        <time>2016-03-02T13:55:09.000Z</time>
      </trkpt>
      <trkpt lat="47.00444" lon="3.30974">
        <ele>291.1884765625</ele>
        <time>2016-03-02T13:55:11.000Z</time>
      </trkpt>
      <trkpt lat="47.00447" lon="3.30971">
        <ele>291.09765625</ele>
        <time>2016-03-02T13:55:13.000Z</time>
      </trkpt>
      <trkpt lat="47.0045" lon="3.30968">
        <ele>290.998046875</ele>
        <time>2016-03-02T13:55:16.000Z</time>
      </trkpt>
      <trkpt lat="47.00452" lon="3.30964">
        <ele>290.9072265625</ele>
        <time>2016-03-02T13:55:19.000Z</time>
      </trkpt>
      <trkpt lat="47.00454" lon="3.30963">
        <ele>290.822265625</ele>
        <time>2016-03-02T13:55:21.000Z</time>
      </trkpt>
      <trkpt lat="47.00456" lon="3.30962">
        <ele>290.7373046875</ele>
        <time>2016-03-02T13:55:23.000Z</time>
      </trkpt>
      <trkpt lat="47.00459" lon="3.30961">
        <ele>290.65234375</ele>
        <time>2016-03-02T13:55:26.000Z</time>
      </trkpt>
      <trkpt lat="47.00462" lon="3.30957">
        <ele>290.5673828125</ele>
        <time>2016-03-02T13:55:28.000Z</time>
      </trkpt>
      <trkpt lat="47.00465" lon="3.30956">
        <ele>290.4794921875</ele>
        <time>2016-03-02T13:55:31.000Z</time>
      </trkpt>
      <trkpt lat="47.00465" lon="3.30954">
        <ele>290.3974609375</ele>
        <time>2016-03-02T13:55:33.000Z</time>
      </trkpt>
      <trkpt lat="47.00468" lon="3.30953">
        <ele>290.306640625</ele>
        <time>2016-03-02T13:55:36.000Z</time>
      </trkpt>
      <trkpt lat="47.00471" lon="3.30952">
        <ele>290.2158203125</ele>
        <time>2016-03-02T13:55:39.000Z</time>
      </trkpt>
      <trkpt lat="47.00475" lon="3.30951">
        <ele>290.1220703125</ele>
        <time>2016-03-02T13:55:42.000Z</time>
      </trkpt>
      <trkpt lat="47.00477" lon="3.30949">
        <ele>290.03125</ele>
        <time>2016-03-02T13:55:44.000Z</time>
      </trkpt>
      <trkpt lat="47.0048" lon="3.30948">
        <ele>289.92578125</ele>
        <time>2016-03-02T13:55:46.000Z</time>
      </trkpt>
      <trkpt lat="47.00482" lon="3.30948">
        <ele>289.826171875</ele>
        <time>2016-03-02T13:55:49.000Z</time>
      </trkpt>
      <trkpt lat="47.00484" lon="3.30945">
        <ele>289.7294921875</ele>
        <time>2016-03-02T13:55:51.000Z</time>
      </trkpt>
      <trkpt lat="47.00487" lon="3.30944">
        <ele>289.64453125</ele>
        <time>2016-03-02T13:55:54.000Z</time>
      </trkpt>
      <trkpt lat="47.00491" lon="3.30943">
        <ele>289.5478515625</ele>
        <time>2016-03-02T13:55:57.000Z</time>
      </trkpt>
      <trkpt lat="47.00494" lon="3.30942">
        <ele>289.4482421875</ele>
        <time>2016-03-02T13:55:59.000Z</time>
      </trkpt>
      <trkpt lat="47.00496" lon="3.30942">
        <ele>289.345703125</ele>
        <time>2016-03-02T13:56:01.000Z</time>
      </trkpt>
      <trkpt lat="47.00499" lon="3.3094">
        <ele>289.240234375</ele>
        <time>2016-03-02T13:56:04.000Z</time>
      </trkpt>
      <trkpt lat="47.005" lon="3.30939">
        <ele>289.14562988281</ele>
        <time>2016-03-02T13:56:06.000Z</time>
      </trkpt>
      <trkpt lat="47.00507" lon="3.30936">
        <ele>289.10070800781</ele>
        <time>2016-03-02T13:56:10.000Z</time>
      </trkpt>
      <trkpt lat="47.0051" lon="3.30935">
        <ele>289.08209228516</ele>
        <time>2016-03-02T13:56:12.000Z</time>
      </trkpt>
      <trkpt lat="47.00515" lon="3.30932">
        <ele>289.10049438477</ele>
        <time>2016-03-02T13:56:15.000Z</time>
      </trkpt>
      <trkpt lat="47.0052" lon="3.30931">
        <ele>289.15051269531</ele>
        <time>2016-03-02T13:56:19.000Z</time>
      </trkpt>
      <trkpt lat="47.00521" lon="3.3093">
        <ele>289.20825195312</ele>
        <time>2016-03-02T13:56:20.000Z</time>
      </trkpt>
      <trkpt lat="47.00526" lon="3.30929">
        <ele>289.25729370117</ele>
        <time>2016-03-02T13:56:23.000Z</time>
      </trkpt>
      <trkpt lat="47.00526" lon="3.30929">
        <ele>289.30242919922</ele>
        <time>2016-03-02T13:56:25.000Z</time>
      </trkpt>
      <trkpt lat="47.00529" lon="3.30927">
        <ele>289.33618164062</ele>
        <time>2016-03-02T13:56:27.000Z</time>
      </trkpt>
      <trkpt lat="47.00533" lon="3.30926">
        <ele>289.37002563477</ele>
        <time>2016-03-02T13:56:30.000Z</time>
      </trkpt>
      <trkpt lat="47.00535" lon="3.30924">
        <ele>289.40179443359</ele>
        <time>2016-03-02T13:56:32.000Z</time>
      </trkpt>
      <trkpt lat="47.00538" lon="3.30923">
        <ele>289.42831420898</ele>
        <time>2016-03-02T13:56:35.000Z</time>
      </trkpt>
      <trkpt lat="47.00541" lon="3.30922">
        <ele>289.46099853516</ele>
        <time>2016-03-02T13:56:38.000Z</time>
      </trkpt>
      <trkpt lat="47.00544" lon="3.3092">
        <ele>289.49368286133</ele>
        <time>2016-03-02T13:56:40.000Z</time>
      </trkpt>
      <trkpt lat="47.00547" lon="3.30918">
        <ele>289.51983642578</ele>
        <time>2016-03-02T13:56:42.000Z</time>
      </trkpt>
      <trkpt lat="47.0055" lon="3.30917">
        <ele>289.55047607422</ele>
        <time>2016-03-02T13:56:44.000Z</time>
      </trkpt>
      <trkpt lat="47.00555" lon="3.30914">
        <ele>289.5791015625</ele>
        <time>2016-03-02T13:56:47.000Z</time>
      </trkpt>
      <trkpt lat="47.00557" lon="3.30913">
        <ele>289.60092163086</ele>
        <time>2016-03-02T13:56:49.000Z</time>
      </trkpt>
      <trkpt lat="47.00559" lon="3.30909">
        <ele>289.61492919922</ele>
        <time>2016-03-02T13:56:52.000Z</time>
      </trkpt>
      <trkpt lat="47.00562" lon="3.30909">
        <ele>289.63104248047</ele>
        <time>2016-03-02T13:56:55.000Z</time>
      </trkpt>
      <trkpt lat="47.00565" lon="3.30908">
        <ele>289.64471435547</ele>
        <time>2016-03-02T13:56:57.000Z</time>
      </trkpt>
      <trkpt lat="47.00569" lon="3.30907">
        <ele>289.66131591797</ele>
        <time>2016-03-02T13:57:00.000Z</time>
      </trkpt>
      <trkpt lat="47.00572" lon="3.30905">
        <ele>289.67895507812</ele>
        <time>2016-03-02T13:57:02.000Z</time>
      </trkpt>
      <trkpt lat="47.00573" lon="3.30905">
        <ele>289.70172119141</ele>
        <time>2016-03-02T13:57:04.000Z</time>
      </trkpt>
      <trkpt lat="47.00578" lon="3.30902">
        <ele>289.72283935547</ele>
        <time>2016-03-02T13:57:10.000Z</time>
      </trkpt>
      <trkpt lat="47.0058" lon="3.30901">
        <ele>289.74340820312</ele>
        <time>2016-03-02T13:57:13.000Z</time>
      </trkpt>
      <trkpt lat="47.00585" lon="3.30901">
        <ele>289.76684570312</ele>
        <time>2016-03-02T13:57:16.000Z</time>
      </trkpt>
      <trkpt lat="47.00589" lon="3.309">
        <ele>289.80102539062</ele>
        <time>2016-03-02T13:57:19.000Z</time>
      </trkpt>
      <trkpt lat="47.00592" lon="3.30898">
        <ele>289.83828735352</ele>
        <time>2016-03-02T13:57:22.000Z</time>
      </trkpt>
      <trkpt lat="47.00595" lon="3.30896">
        <ele>289.87689208984</ele>
        <time>2016-03-02T13:57:24.000Z</time>
      </trkpt>
      <trkpt lat="47.00598" lon="3.30894">
        <ele>289.91958618164</ele>
        <time>2016-03-02T13:57:26.000Z</time>
      </trkpt>
      <trkpt lat="47.00601" lon="3.30892">
        <ele>289.96331787109</ele>
        <time>2016-03-02T13:57:29.000Z</time>
      </trkpt>
      <trkpt lat="47.00605" lon="3.30891">
        <ele>290.00833129883</ele>
        <time>2016-03-02T13:57:32.000Z</time>
      </trkpt>
      <trkpt lat="47.00608" lon="3.3089">
        <ele>290.05505371094</ele>
        <time>2016-03-02T13:57:34.000Z</time>
      </trkpt>
      <trkpt lat="47.00611" lon="3.30889">
        <ele>290.10678100586</ele>
        <time>2016-03-02T13:57:36.000Z</time>
      </trkpt>
      <trkpt lat="47.00613" lon="3.30888">
        <ele>290.16201782227</ele>
        <time>2016-03-02T13:57:39.000Z</time>
      </trkpt>
      <trkpt lat="47.00615" lon="3.30887">
        <ele>290.21051025391</ele>
        <time>2016-03-02T13:57:42.000Z</time>
      </trkpt>
      <trkpt lat="47.00617" lon="3.30886">
        <ele>290.25262451172</ele>
        <time>2016-03-02T13:57:44.000Z</time>
      </trkpt>
      <trkpt lat="47.00621" lon="3.30883">
        <ele>290.30377197266</ele>
        <time>2016-03-02T13:57:47.000Z</time>
      </trkpt>
      <trkpt lat="47.00623" lon="3.30883">
        <ele>290.3537902832</ele>
        <time>2016-03-02T13:57:49.000Z</time>
      </trkpt>
      <trkpt lat="47.00624" lon="3.30884">
        <ele>290.39834594727</ele>
        <time>2016-03-02T13:57:51.000Z</time>
      </trkpt>
      <trkpt lat="47.00626" lon="3.30883">
        <ele>290.44522094727</ele>
        <time>2016-03-02T13:57:53.000Z</time>
      </trkpt>
      <trkpt lat="47.00629" lon="3.30881">
        <ele>290.49884033203</ele>
        <time>2016-03-02T13:57:56.000Z</time>
      </trkpt>
      <trkpt lat="47.00631" lon="3.30881">
        <ele>290.54373168945</ele>
        <time>2016-03-02T13:57:59.000Z</time>
      </trkpt>
      <trkpt lat="47.00633" lon="3.30879">
        <ele>290.58782958984</ele>
        <time>2016-03-02T13:58:01.000Z</time>
      </trkpt>
      <trkpt lat="47.00637" lon="3.30876">
        <ele>290.64556884766</ele>
        <time>2016-03-02T13:58:03.000Z</time>
      </trkpt>
      <trkpt lat="47.0064" lon="3.30874">
        <ele>290.71560668945</ele>
        <time>2016-03-02T13:58:06.000Z</time>
      </trkpt>
      <trkpt lat="47.00643" lon="3.30873">
        <ele>290.78558349609</ele>
        <time>2016-03-02T13:58:09.000Z</time>
      </trkpt>
      <trkpt lat="47.00645" lon="3.30872">
        <ele>290.85513305664</ele>
        <time>2016-03-02T13:58:11.000Z</time>
      </trkpt>
      <trkpt lat="47.00649" lon="3.30869">
        <ele>290.94424438477</ele>
        <time>2016-03-02T13:58:15.000Z</time>
      </trkpt>
      <trkpt lat="47.00651" lon="3.30868">
        <ele>291.02169799805</ele>
        <time>2016-03-02T13:58:18.000Z</time>
      </trkpt>
      <trkpt lat="47.00657" lon="3.30866">
        <ele>291.11785888672</ele>
        <time>2016-03-02T13:58:21.000Z</time>
      </trkpt>
      <trkpt lat="47.00658" lon="3.30865">
        <ele>291.20483398438</ele>
        <time>2016-03-02T13:58:23.000Z</time>
      </trkpt>
      <trkpt lat="47.00663" lon="3.30863">
        <ele>291.31454467773</ele>
        <time>2016-03-02T13:58:26.000Z</time>
      </trkpt>
      <trkpt lat="47.00664" lon="3.30861">
        <ele>291.40435791016</ele>
        <time>2016-03-02T13:58:28.000Z</time>
      </trkpt>
      <trkpt lat="47.00666" lon="3.30859">
        <ele>291.5029296875</ele>
        <time>2016-03-02T13:58:30.000Z</time>
      </trkpt>
      <trkpt lat="47.00669" lon="3.30855">
        <ele>291.58428955078</ele>
        <time>2016-03-02T13:58:34.000Z</time>
      </trkpt>
      <trkpt lat="47.00674" lon="3.30853">
        <ele>291.67370605469</ele>
        <time>2016-03-02T13:58:37.000Z</time>
      </trkpt>
      <trkpt lat="47.00676" lon="3.30852">
        <ele>291.73620605469</ele>
        <time>2016-03-02T13:58:40.000Z</time>
      </trkpt>
      <trkpt lat="47.00677" lon="3.30848">
        <ele>291.79791259766</ele>
        <time>2016-03-02T13:58:42.000Z</time>
      </trkpt>
      <trkpt lat="47.00682" lon="3.30846">
        <ele>291.85266113281</ele>
        <time>2016-03-02T13:58:48.000Z</time>
      </trkpt>
      <trkpt lat="47.00687" lon="3.30846">
        <ele>291.89166259766</ele>
        <time>2016-03-02T13:58:51.000Z</time>
      </trkpt>
      <trkpt lat="47.00692" lon="3.30846">
        <ele>291.92251586914</ele>
        <time>2016-03-02T13:58:54.000Z</time>
      </trkpt>
      <trkpt lat="47.00695" lon="3.30844">
        <ele>291.95355224609</ele>
        <time>2016-03-02T13:58:57.000Z</time>
      </trkpt>
      <trkpt lat="47.00701" lon="3.30841">
        <ele>291.97985839844</ele>
        <time>2016-03-02T13:59:00.000Z</time>
      </trkpt>
      <trkpt lat="47.00706" lon="3.30841">
        <ele>292.00039672852</ele>
        <time>2016-03-02T13:59:03.000Z</time>
      </trkpt>
      <trkpt lat="47.00708" lon="3.3084">
        <ele>292.01641845703</ele>
        <time>2016-03-02T13:59:06.000Z</time>
      </trkpt>
      <trkpt lat="47.00712" lon="3.3084">
        <ele>292.02865600586</ele>
        <time>2016-03-02T13:59:09.000Z</time>
      </trkpt>
      <trkpt lat="47.00716" lon="3.30838">
        <ele>292.03753662109</ele>
        <time>2016-03-02T13:59:12.000Z</time>
      </trkpt>
      <trkpt lat="47.00721" lon="3.30835">
        <ele>292.03790283203</ele>
        <time>2016-03-02T13:59:15.000Z</time>
      </trkpt>
      <trkpt lat="47.00724" lon="3.30833">
        <ele>292.03057861328</ele>
        <time>2016-03-02T13:59:18.000Z</time>
      </trkpt>
      <trkpt lat="47.00727" lon="3.30832">
        <ele>292.01770019531</ele>
        <time>2016-03-02T13:59:20.000Z</time>
      </trkpt>
      <trkpt lat="47.0073" lon="3.30831">
        <ele>291.99697875977</ele>
        <time>2016-03-02T13:59:23.000Z</time>
      </trkpt>
      <trkpt lat="47.00733" lon="3.30829">
        <ele>291.96694946289</ele>
        <time>2016-03-02T13:59:26.000Z</time>
      </trkpt>
      <trkpt lat="47.00735" lon="3.30826">
        <ele>291.92349243164</ele>
        <time>2016-03-02T13:59:29.000Z</time>
      </trkpt>
      <trkpt lat="47.00739" lon="3.30825">
        <ele>291.87356567383</ele>
        <time>2016-03-02T13:59:31.000Z</time>
      </trkpt>
      <trkpt lat="47.0074" lon="3.30825">
        <ele>291.82528686523</ele>
        <time>2016-03-02T13:59:33.000Z</time>
      </trkpt>
      <trkpt lat="47.00743" lon="3.30822">
        <ele>291.76553344727</ele>
        <time>2016-03-02T13:59:36.000Z</time>
      </trkpt>
      <trkpt lat="47.00745" lon="3.30822">
        <ele>291.71002197266</ele>
        <time>2016-03-02T13:59:38.000Z</time>
      </trkpt>
      <trkpt lat="47.00748" lon="3.3082">
        <ele>291.65814208984</ele>
        <time>2016-03-02T13:59:41.000Z</time>
      </trkpt>
      <trkpt lat="47.00751" lon="3.30821">
        <ele>291.61709594727</ele>
        <time>2016-03-02T13:59:44.000Z</time>
      </trkpt>
      <trkpt lat="47.00752" lon="3.30819">
        <ele>291.57092285156</ele>
        <time>2016-03-02T13:59:46.000Z</time>
      </trkpt>
      <trkpt lat="47.00753" lon="3.30817">
        <ele>291.53082275391</ele>
        <time>2016-03-02T13:59:48.000Z</time>
      </trkpt>
      <trkpt lat="47.00755" lon="3.30816">
        <ele>291.48922729492</ele>
        <time>2016-03-02T13:59:50.000Z</time>
      </trkpt>
      <trkpt lat="47.00757" lon="3.30815">
        <ele>291.45666503906</ele>
        <time>2016-03-02T13:59:53.000Z</time>
      </trkpt>
      <trkpt lat="47.0076" lon="3.30814">
        <ele>291.42181396484</ele>
        <time>2016-03-02T13:59:55.000Z</time>
      </trkpt>
      <trkpt lat="47.00764" lon="3.30813">
        <ele>291.390625</ele>
        <time>2016-03-02T13:59:58.000Z</time>
      </trkpt>
      <trkpt lat="47.00766" lon="3.30811">
        <ele>291.36376953125</ele>
        <time>2016-03-02T14:00:00.000Z</time>
      </trkpt>
      <trkpt lat="47.00768" lon="3.3081">
        <ele>291.34002685547</ele>
        <time>2016-03-02T14:00:02.000Z</time>
      </trkpt>
      <trkpt lat="47.0077" lon="3.30809">
        <ele>291.31533813477</ele>
        <time>2016-03-02T14:00:04.000Z</time>
      </trkpt>
      <trkpt lat="47.00774" lon="3.30807">
        <ele>291.28482055664</ele>
        <time>2016-03-02T14:00:07.000Z</time>
      </trkpt>
      <trkpt lat="47.00776" lon="3.30806">
        <ele>291.26043701172</ele>
        <time>2016-03-02T14:00:10.000Z</time>
      </trkpt>
      <trkpt lat="47.00777" lon="3.30807">
        <ele>291.25067138672</ele>
        <time>2016-03-02T14:00:16.000Z</time>
      </trkpt>
      <trkpt lat="47.00782" lon="3.30816">
        <ele>291.29742431641</ele>
        <time>2016-03-02T14:00:19.000Z</time>
      </trkpt>
      <trkpt lat="47.00782" lon="3.30822">
        <ele>291.38269042969</ele>
        <time>2016-03-02T14:00:22.000Z</time>
      </trkpt>
      <trkpt lat="47.00782" lon="3.30827">
        <ele>291.50775146484</ele>
        <time>2016-03-02T14:00:25.000Z</time>
      </trkpt>
      <trkpt lat="47.00782" lon="3.30831">
        <ele>291.65054321289</ele>
        <time>2016-03-02T14:00:27.000Z</time>
      </trkpt>
      <trkpt lat="47.00783" lon="3.30835">
        <ele>291.80206298828</ele>
        <time>2016-03-02T14:00:29.000Z</time>
      </trkpt>
      <trkpt lat="47.00785" lon="3.30841">
        <ele>291.91104125977</ele>
        <time>2016-03-02T14:00:32.000Z</time>
      </trkpt>
      <trkpt lat="47.00787" lon="3.30844">
        <ele>291.99212646484</ele>
        <time>2016-03-02T14:00:35.000Z</time>
      </trkpt>
      <trkpt lat="47.00788" lon="3.30847">
        <ele>292.04455566406</ele>
        <time>2016-03-02T14:00:38.000Z</time>
      </trkpt>
      <trkpt lat="47.0079" lon="3.30853">
        <ele>292.08255004883</ele>
        <time>2016-03-02T14:00:41.000Z</time>
      </trkpt>
      <trkpt lat="47.00793" lon="3.30857">
        <ele>292.10430908203</ele>
        <time>2016-03-02T14:00:44.000Z</time>
      </trkpt>
      <trkpt lat="47.00795" lon="3.30859">
        <ele>292.11489868164</ele>
        <time>2016-03-02T14:00:47.000Z</time>
      </trkpt>
      <trkpt lat="47.00797" lon="3.30863">
        <ele>292.11972045898</ele>
        <time>2016-03-02T14:00:50.000Z</time>
      </trkpt>
      <trkpt lat="47.00799" lon="3.30866">
        <ele>292.11764526367</ele>
        <time>2016-03-02T14:00:52.000Z</time>
      </trkpt>
      <trkpt lat="47.00801" lon="3.30869">
        <ele>292.10684204102</ele>
        <time>2016-03-02T14:00:57.000Z</time>
      </trkpt>
      <trkpt lat="47.00801" lon="3.30871">
        <ele>292.09552001953</ele>
        <time>2016-03-02T14:00:59.000Z</time>
      </trkpt>
      <trkpt lat="47.00801" lon="3.30874">
        <ele>292.08508300781</ele>
        <time>2016-03-02T14:01:01.000Z</time>
      </trkpt>
      <trkpt lat="47.00804" lon="3.30877">
        <ele>292.06939697266</ele>
        <time>2016-03-02T14:01:03.000Z</time>
      </trkpt>
      <trkpt lat="47.00805" lon="3.3088">
        <ele>292.05484008789</ele>
        <time>2016-03-02T14:01:06.000Z</time>
      </trkpt>
      <trkpt lat="47.00806" lon="3.30884">
        <ele>292.03768920898</ele>
        <time>2016-03-02T14:01:09.000Z</time>
      </trkpt>
      <trkpt lat="47.00808" lon="3.30888">
        <ele>292.0114440918</ele>
        <time>2016-03-02T14:01:12.000Z</time>
      </trkpt>
      <trkpt lat="47.00807" lon="3.30893">
        <ele>291.99063110352</ele>
        <time>2016-03-02T14:01:16.000Z</time>
      </trkpt>
      <trkpt lat="47.00806" lon="3.30896">
        <ele>291.98272705078</ele>
        <time>2016-03-02T14:01:18.000Z</time>
      </trkpt>
      <trkpt lat="47.00805" lon="3.30898">
        <ele>291.9821472168</ele>
        <time>2016-03-02T14:01:21.000Z</time>
      </trkpt>
      <trkpt lat="47.00804" lon="3.30903">
        <ele>291.99349975586</ele>
        <time>2016-03-02T14:01:24.000Z</time>
      </trkpt>
      <trkpt lat="47.00804" lon="3.30904">
        <ele>292.01489257812</ele>
        <time>2016-03-02T14:01:27.000Z</time>
      </trkpt>
      <trkpt lat="47.00804" lon="3.30904">
        <ele>292.01489257812</ele>
        <time>2016-03-02T14:01:47.000Z</time>
      </trkpt>
      <trkpt lat="47.00808" lon="3.309">
        <ele>292.00714111328</ele>
        <time>2016-03-02T14:02:04.000Z</time>
      </trkpt>
      <trkpt lat="47.00811" lon="3.309">
        <ele>291.97915649414</ele>
        <time>2016-03-02T14:02:11.000Z</time>
      </trkpt>
      <trkpt lat="47.00811" lon="3.30907">
        <ele>291.94097900391</ele>
        <time>2016-03-02T14:02:22.000Z</time>
      </trkpt>
      <trkpt lat="47.00813" lon="3.30906">
        <ele>291.88494873047</ele>
        <time>2016-03-02T14:02:25.000Z</time>
      </trkpt>
      <trkpt lat="47.00813" lon="3.30905">
        <ele>291.82708740234</ele>
        <time>2016-03-02T14:02:33.000Z</time>
      </trkpt>
      <trkpt lat="47.0081" lon="3.30901">
        <ele>291.81497192383</ele>
        <time>2016-03-02T14:02:38.000Z</time>
      </trkpt>
      <trkpt lat="47.00809" lon="3.30899">
        <ele>291.82461547852</ele>
        <time>2016-03-02T14:02:43.000Z</time>
      </trkpt>
      <trkpt lat="47.00809" lon="3.30894">
        <ele>291.84124755859</ele>
        <time>2016-03-02T14:02:55.000Z</time>
      </trkpt>
      <trkpt lat="47.00809" lon="3.30888">
        <ele>291.87020874023</ele>
        <time>2016-03-02T14:03:13.000Z</time>
      </trkpt>
      <trkpt lat="47.00813" lon="3.30894">
        <ele>291.87951660156</ele>
        <time>2016-03-02T14:03:16.000Z</time>
      </trkpt>
      <trkpt lat="47.00813" lon="3.30894">
        <ele>291.87951660156</ele>
        <time>2016-03-02T14:03:36.000Z</time>
      </trkpt>
      <trkpt lat="47.0081" lon="3.30893">
        <ele>291.88485717773</ele>
        <time>2016-03-02T14:03:38.000Z</time>
      </trkpt>
      <trkpt lat="47.00808" lon="3.30894">
        <ele>291.89263916016</ele>
        <time>2016-03-02T14:03:55.000Z</time>
      </trkpt>
      <trkpt lat="47.00809" lon="3.30893">
        <ele>291.89300537109</ele>
        <time>2016-03-02T14:04:12.000Z</time>
      </trkpt>
      <trkpt lat="47.00811" lon="3.30892">
        <ele>291.88140869141</ele>
        <time>2016-03-02T14:04:14.000Z</time>
      </trkpt>
      <trkpt lat="47.00814" lon="3.30891">
        <ele>291.87948608398</ele>
        <time>2016-03-02T14:04:19.000Z</time>
      </trkpt>
      <trkpt lat="47.00815" lon="3.3089">
        <ele>291.85443115234</ele>
        <time>2016-03-02T14:04:22.000Z</time>
      </trkpt>
      <trkpt lat="47.00816" lon="3.30889">
        <ele>291.81390380859</ele>
        <time>2016-03-02T14:04:27.000Z</time>
      </trkpt>
      <trkpt lat="47.00817" lon="3.3089">
        <ele>291.77276611328</ele>
        <time>2016-03-02T14:04:34.000Z</time>
      </trkpt>
      <trkpt lat="47.00819" lon="3.30892">
        <ele>291.73150634766</ele>
        <time>2016-03-02T14:04:38.000Z</time>
      </trkpt>
      <trkpt lat="47.00818" lon="3.30891">
        <ele>291.71157836914</ele>
        <time>2016-03-02T14:04:44.000Z</time>
      </trkpt>
      <trkpt lat="47.00817" lon="3.30891">
        <ele>291.70254516602</ele>
        <time>2016-03-02T14:04:47.000Z</time>
      </trkpt>
      <trkpt lat="47.00816" lon="3.30894">
        <ele>291.69863891602</ele>
        <time>2016-03-02T14:04:51.000Z</time>
      </trkpt>
      <trkpt lat="47.00815" lon="3.30895">
        <ele>291.70858764648</ele>
        <time>2016-03-02T14:04:53.000Z</time>
      </trkpt>
      <trkpt lat="47.00815" lon="3.30902">
        <ele>291.72351074219</ele>
        <time>2016-03-02T14:04:56.000Z</time>
      </trkpt>
      <trkpt lat="47.00816" lon="3.30905">
        <ele>291.72073364258</ele>
        <time>2016-03-02T14:04:58.000Z</time>
      </trkpt>
      <trkpt lat="47.00817" lon="3.30908">
        <ele>291.70190429688</ele>
        <time>2016-03-02T14:05:00.000Z</time>
      </trkpt>
      <trkpt lat="47.00818" lon="3.30912">
        <ele>291.67361450195</ele>
        <time>2016-03-02T14:05:03.000Z</time>
      </trkpt>
      <trkpt lat="47.00817" lon="3.30915">
        <ele>291.63821411133</ele>
        <time>2016-03-02T14:05:05.000Z</time>
      </trkpt>
      <trkpt lat="47.00817" lon="3.30918">
        <ele>291.6149597168</ele>
        <time>2016-03-02T14:05:08.000Z</time>
      </trkpt>
      <trkpt lat="47.00816" lon="3.3092">
        <ele>291.62088012695</ele>
        <time>2016-03-02T14:05:11.000Z</time>
      </trkpt>
      <trkpt lat="47.00816" lon="3.30923">
        <ele>291.64779663086</ele>
        <time>2016-03-02T14:05:13.000Z</time>
      </trkpt>
      <trkpt lat="47.00816" lon="3.30927">
        <ele>291.70678710938</ele>
        <time>2016-03-02T14:05:16.000Z</time>
      </trkpt>
      <trkpt lat="47.00816" lon="3.30929">
        <ele>291.77905273438</ele>
        <time>2016-03-02T14:05:18.000Z</time>
      </trkpt>
      <trkpt lat="47.00816" lon="3.30934">
        <ele>291.86791992188</ele>
        <time>2016-03-02T14:05:21.000Z</time>
      </trkpt>
      <trkpt lat="47.00816" lon="3.30938">
        <ele>291.95593261719</ele>
        <time>2016-03-02T14:05:24.000Z</time>
      </trkpt>
      <trkpt lat="47.00816" lon="3.30943">
        <ele>292.05444335938</ele>
        <time>2016-03-02T14:05:27.000Z</time>
      </trkpt>
      <trkpt lat="47.00816" lon="3.30948">
        <ele>292.1572265625</ele>
        <time>2016-03-02T14:05:30.000Z</time>
      </trkpt>
      <trkpt lat="47.00816" lon="3.30951">
        <ele>292.26110839844</ele>
        <time>2016-03-02T14:05:32.000Z</time>
      </trkpt>
      <trkpt lat="47.00818" lon="3.30956">
        <ele>292.35009765625</ele>
        <time>2016-03-02T14:05:35.000Z</time>
      </trkpt>
      <trkpt lat="47.0082" lon="3.30959">
        <ele>292.41613769531</ele>
        <time>2016-03-02T14:05:37.000Z</time>
      </trkpt>
      <trkpt lat="47.00821" lon="3.30962">
        <ele>292.46911621094</ele>
        <time>2016-03-02T14:05:40.000Z</time>
      </trkpt>
      <trkpt lat="47.00821" lon="3.30965">
        <ele>292.50988769531</ele>
        <time>2016-03-02T14:05:42.000Z</time>
      </trkpt>
      <trkpt lat="47.00821" lon="3.30969">
        <ele>292.55749511719</ele>
        <time>2016-03-02T14:05:45.000Z</time>
      </trkpt>
      <trkpt lat="47.0082" lon="3.30971">
        <ele>292.61535644531</ele>
        <time>2016-03-02T14:05:47.000Z</time>
      </trkpt>
      <trkpt lat="47.00819" lon="3.30977">
        <ele>292.70947265625</ele>
        <time>2016-03-02T14:05:50.000Z</time>
      </trkpt>
      <trkpt lat="47.0082" lon="3.30981">
        <ele>292.80944824219</ele>
        <time>2016-03-02T14:05:53.000Z</time>
      </trkpt>
      <trkpt lat="47.0082" lon="3.30984">
        <ele>292.90966796875</ele>
        <time>2016-03-02T14:05:56.000Z</time>
      </trkpt>
      <trkpt lat="47.00822" lon="3.3099">
        <ele>293.0009765625</ele>
        <time>2016-03-02T14:05:59.000Z</time>
      </trkpt>
      <trkpt lat="47.00826" lon="3.30994">
        <ele>293.06787109375</ele>
        <time>2016-03-02T14:06:01.000Z</time>
      </trkpt>
      <trkpt lat="47.00827" lon="3.30997">
        <ele>293.11169433594</ele>
        <time>2016-03-02T14:06:04.000Z</time>
      </trkpt>
      <trkpt lat="47.00829" lon="3.31002">
        <ele>293.1477355957</ele>
        <time>2016-03-02T14:06:06.000Z</time>
      </trkpt>
      <trkpt lat="47.00829" lon="3.31004">
        <ele>293.17025756836</ele>
        <time>2016-03-02T14:06:08.000Z</time>
      </trkpt>
      <trkpt lat="47.00831" lon="3.31011">
        <ele>293.18151855469</ele>
        <time>2016-03-02T14:06:11.000Z</time>
      </trkpt>
      <trkpt lat="47.00831" lon="3.31012">
        <ele>293.20172119141</ele>
        <time>2016-03-02T14:06:13.000Z</time>
      </trkpt>
      <trkpt lat="47.00832" lon="3.31016">
        <ele>293.21356201172</ele>
        <time>2016-03-02T14:06:15.000Z</time>
      </trkpt>
      <trkpt lat="47.00832" lon="3.31024">
        <ele>293.23974609375</ele>
        <time>2016-03-02T14:06:18.000Z</time>
      </trkpt>
      <trkpt lat="47.00832" lon="3.31029">
        <ele>293.27947998047</ele>
        <time>2016-03-02T14:06:21.000Z</time>
      </trkpt>
      <trkpt lat="47.00832" lon="3.31032">
        <ele>293.32498168945</ele>
        <time>2016-03-02T14:06:23.000Z</time>
      </trkpt>
      <trkpt lat="47.00833" lon="3.31035">
        <ele>293.36639404297</ele>
        <time>2016-03-02T14:06:26.000Z</time>
      </trkpt>
      <trkpt lat="47.00835" lon="3.3104">
        <ele>293.41546630859</ele>
        <time>2016-03-02T14:06:28.000Z</time>
      </trkpt>
      <trkpt lat="47.00837" lon="3.31044">
        <ele>293.45501708984</ele>
        <time>2016-03-02T14:06:31.000Z</time>
      </trkpt>
      <trkpt lat="47.00837" lon="3.31046">
        <ele>293.48480224609</ele>
        <time>2016-03-02T14:06:33.000Z</time>
      </trkpt>
      <trkpt lat="47.00836" lon="3.31048">
        <ele>293.51260375977</ele>
        <time>2016-03-02T14:06:35.000Z</time>
      </trkpt>
      <trkpt lat="47.00838" lon="3.31052">
        <ele>293.55316162109</ele>
        <time>2016-03-02T14:06:38.000Z</time>
      </trkpt>
      <trkpt lat="47.00838" lon="3.31055">
        <ele>293.58990478516</ele>
        <time>2016-03-02T14:06:40.000Z</time>
      </trkpt>
      <trkpt lat="47.0084" lon="3.31057">
        <ele>293.61987304688</ele>
        <time>2016-03-02T14:06:43.000Z</time>
      </trkpt>
      <trkpt lat="47.00841" lon="3.3106">
        <ele>293.65203857422</ele>
        <time>2016-03-02T14:06:45.000Z</time>
      </trkpt>
      <trkpt lat="47.00843" lon="3.31066">
        <ele>293.6953125</ele>
        <time>2016-03-02T14:06:48.000Z</time>
      </trkpt>
      <trkpt lat="47.00843" lon="3.31068">
        <ele>293.73260498047</ele>
        <time>2016-03-02T14:06:50.000Z</time>
      </trkpt>
      <trkpt lat="47.00844" lon="3.31072">
        <ele>293.77288818359</ele>
        <time>2016-03-02T14:06:52.000Z</time>
      </trkpt>
      <trkpt lat="47.00845" lon="3.31076">
        <ele>293.81988525391</ele>
        <time>2016-03-02T14:06:55.000Z</time>
      </trkpt>
      <trkpt lat="47.00846" lon="3.31081">
        <ele>293.87152099609</ele>
        <time>2016-03-02T14:06:58.000Z</time>
      </trkpt>
      <trkpt lat="47.00846" lon="3.31084">
        <ele>293.90716552734</ele>
        <time>2016-03-02T14:07:00.000Z</time>
      </trkpt>
      <trkpt lat="47.00848" lon="3.31088">
        <ele>293.89630126953</ele>
        <time>2016-03-02T14:07:03.000Z</time>
      </trkpt>
      <trkpt lat="47.00849" lon="3.31093">
        <ele>293.83081054688</ele>
        <time>2016-03-02T14:07:05.000Z</time>
      </trkpt>
      <trkpt lat="47.0085" lon="3.311">
        <ele>293.68939208984</ele>
        <time>2016-03-02T14:07:11.000Z</time>
      </trkpt>
      <trkpt lat="47.0085" lon="3.31101">
        <ele>293.52587890625</ele>
        <time>2016-03-02T14:07:13.000Z</time>
      </trkpt>
      <trkpt lat="47.00853" lon="3.31105">
        <ele>293.32397460938</ele>
        <time>2016-03-02T14:07:16.000Z</time>
      </trkpt>
      <trkpt lat="47.00855" lon="3.3111">
        <ele>293.11840820312</ele>
        <time>2016-03-02T14:07:19.000Z</time>
      </trkpt>
      <trkpt lat="47.00855" lon="3.31116">
        <ele>292.89794921875</ele>
        <time>2016-03-02T14:07:22.000Z</time>
      </trkpt>
      <trkpt lat="47.00855" lon="3.31119">
        <ele>292.71826171875</ele>
        <time>2016-03-02T14:07:24.000Z</time>
      </trkpt>
      <trkpt lat="47.00856" lon="3.31123">
        <ele>292.501953125</ele>
        <time>2016-03-02T14:07:27.000Z</time>
      </trkpt>
      <trkpt lat="47.00857" lon="3.31127">
        <ele>292.29370117188</ele>
        <time>2016-03-02T14:07:29.000Z</time>
      </trkpt>
      <trkpt lat="47.00857" lon="3.31136">
        <ele>292.03833007812</ele>
        <time>2016-03-02T14:07:33.000Z</time>
      </trkpt>
      <trkpt lat="47.00857" lon="3.31142">
        <ele>291.78442382812</ele>
        <time>2016-03-02T14:07:37.000Z</time>
      </trkpt>
      <trkpt lat="47.00859" lon="3.31147">
        <ele>291.51049804688</ele>
        <time>2016-03-02T14:07:40.000Z</time>
      </trkpt>
      <trkpt lat="47.0086" lon="3.31152">
        <ele>291.23364257812</ele>
        <time>2016-03-02T14:07:43.000Z</time>
      </trkpt>
      <trkpt lat="47.00861" lon="3.31156">
        <ele>290.95166015625</ele>
        <time>2016-03-02T14:07:46.000Z</time>
      </trkpt>
      <trkpt lat="47.00862" lon="3.31155">
        <ele>290.7705078125</ele>
        <time>2016-03-02T14:07:48.000Z</time>
      </trkpt>
      <trkpt lat="47.00863" lon="3.31156">
        <ele>290.64111328125</ele>
        <time>2016-03-02T14:07:55.000Z</time>
      </trkpt>
      <trkpt lat="47.00864" lon="3.31155">
        <ele>290.56201171875</ele>
        <time>2016-03-02T14:07:58.000Z</time>
      </trkpt>
      <trkpt lat="47.00866" lon="3.31156">
        <ele>290.52416992188</ele>
        <time>2016-03-02T14:08:01.000Z</time>
      </trkpt>
      <trkpt lat="47.00868" lon="3.31157">
        <ele>290.51196289062</ele>
        <time>2016-03-02T14:08:03.000Z</time>
      </trkpt>
      <trkpt lat="47.00872" lon="3.31157">
        <ele>290.49609375</ele>
        <time>2016-03-02T14:08:07.000Z</time>
      </trkpt>
      <trkpt lat="47.00875" lon="3.31158">
        <ele>290.4775390625</ele>
        <time>2016-03-02T14:08:09.000Z</time>
      </trkpt>
      <trkpt lat="47.00876" lon="3.31159">
        <ele>290.44604492188</ele>
        <time>2016-03-02T14:08:11.000Z</time>
      </trkpt>
      <trkpt lat="47.00879" lon="3.31161">
        <ele>290.40185546875</ele>
        <time>2016-03-02T14:08:14.000Z</time>
      </trkpt>
      <trkpt lat="47.00881" lon="3.31164">
        <ele>290.3359375</ele>
        <time>2016-03-02T14:08:17.000Z</time>
      </trkpt>
      <trkpt lat="47.00885" lon="3.31168">
        <ele>290.22760009766</ele>
        <time>2016-03-02T14:08:20.000Z</time>
      </trkpt>
      <trkpt lat="47.00887" lon="3.3117">
        <ele>290.11157226562</ele>
        <time>2016-03-02T14:08:23.000Z</time>
      </trkpt>
      <trkpt lat="47.00889" lon="3.31173">
        <ele>289.96640014648</ele>
        <time>2016-03-02T14:08:26.000Z</time>
      </trkpt>
      <trkpt lat="47.0089" lon="3.31176">
        <ele>289.80752563477</ele>
        <time>2016-03-02T14:08:28.000Z</time>
      </trkpt>
      <trkpt lat="47.00891" lon="3.31178">
        <ele>289.65390014648</ele>
        <time>2016-03-02T14:08:30.000Z</time>
      </trkpt>
      <trkpt lat="47.00892" lon="3.3118">
        <ele>289.52084350586</ele>
        <time>2016-03-02T14:08:32.000Z</time>
      </trkpt>
      <trkpt lat="47.00893" lon="3.31182">
        <ele>289.37857055664</ele>
        <time>2016-03-02T14:08:34.000Z</time>
      </trkpt>
      <trkpt lat="47.00895" lon="3.31186">
        <ele>289.22735595703</ele>
        <time>2016-03-02T14:08:39.000Z</time>
      </trkpt>
      <trkpt lat="47.00895" lon="3.31189">
        <ele>289.07183837891</ele>
        <time>2016-03-02T14:08:42.000Z</time>
      </trkpt>
      <trkpt lat="47.00896" lon="3.31195">
        <ele>288.87359619141</ele>
        <time>2016-03-02T14:08:49.000Z</time>
      </trkpt>
      <trkpt lat="47.00896" lon="3.31197">
        <ele>288.67645263672</ele>
        <time>2016-03-02T14:08:51.000Z</time>
      </trkpt>
      <trkpt lat="47.009" lon="3.312">
        <ele>288.47229003906</ele>
        <time>2016-03-02T14:08:54.000Z</time>
      </trkpt>
      <trkpt lat="47.00902" lon="3.312">
        <ele>288.30728149414</ele>
        <time>2016-03-02T14:08:56.000Z</time>
      </trkpt>
      <trkpt lat="47.00907" lon="3.312">
        <ele>288.17123413086</ele>
        <time>2016-03-02T14:08:58.000Z</time>
      </trkpt>
      <trkpt lat="47.00912" lon="3.31202">
        <ele>288.08447265625</ele>
        <time>2016-03-02T14:09:01.000Z</time>
      </trkpt>
      <trkpt lat="47.00914" lon="3.31203">
        <ele>287.9951171875</ele>
        <time>2016-03-02T14:09:03.000Z</time>
      </trkpt>
      <trkpt lat="47.00917" lon="3.31204">
        <ele>287.91680908203</ele>
        <time>2016-03-02T14:09:06.000Z</time>
      </trkpt>
      <trkpt lat="47.00918" lon="3.31207">
        <ele>287.80688476562</ele>
        <time>2016-03-02T14:09:10.000Z</time>
      </trkpt>
      <trkpt lat="47.00919" lon="3.31209">
        <ele>287.68841552734</ele>
        <time>2016-03-02T14:09:13.000Z</time>
      </trkpt>
      <trkpt lat="47.0092" lon="3.31209">
        <ele>287.58178710938</ele>
        <time>2016-03-02T14:09:15.000Z</time>
      </trkpt>
      <trkpt lat="47.00923" lon="3.31209">
        <ele>287.48428344727</ele>
        <time>2016-03-02T14:09:19.000Z</time>
      </trkpt>
      <trkpt lat="47.00927" lon="3.3121">
        <ele>287.38220214844</ele>
        <time>2016-03-02T14:09:22.000Z</time>
      </trkpt>
      <trkpt lat="47.0093" lon="3.31211">
        <ele>287.29315185547</ele>
        <time>2016-03-02T14:09:25.000Z</time>
      </trkpt>
      <trkpt lat="47.00932" lon="3.31212">
        <ele>287.20489501953</ele>
        <time>2016-03-02T14:09:28.000Z</time>
      </trkpt>
      <trkpt lat="47.00933" lon="3.31212">
        <ele>287.12185668945</ele>
        <time>2016-03-02T14:09:30.000Z</time>
      </trkpt>
      <trkpt lat="47.00934" lon="3.31213">
        <ele>287.03637695312</ele>
        <time>2016-03-02T14:09:35.000Z</time>
      </trkpt>
      <trkpt lat="47.00939" lon="3.31215">
        <ele>286.93197631836</ele>
        <time>2016-03-02T14:09:39.000Z</time>
      </trkpt>
      <trkpt lat="47.00942" lon="3.31217">
        <ele>286.81451416016</ele>
        <time>2016-03-02T14:09:41.000Z</time>
      </trkpt>
      <trkpt lat="47.00944" lon="3.31218">
        <ele>286.69641113281</ele>
        <time>2016-03-02T14:09:44.000Z</time>
      </trkpt>
      <trkpt lat="47.00948" lon="3.3122">
        <ele>286.53897094727</ele>
        <time>2016-03-02T14:09:50.000Z</time>
      </trkpt>
      <trkpt lat="47.00951" lon="3.31222">
        <ele>286.36288452148</ele>
        <time>2016-03-02T14:09:59.000Z</time>
      </trkpt>
      <trkpt lat="47.00955" lon="3.31225">
        <ele>286.17147827148</ele>
        <time>2016-03-02T14:10:02.000Z</time>
      </trkpt>
      <trkpt lat="47.00957" lon="3.31225">
        <ele>286.00106811523</ele>
        <time>2016-03-02T14:10:05.000Z</time>
      </trkpt>
      <trkpt lat="47.00962" lon="3.31226">
        <ele>285.82757568359</ele>
        <time>2016-03-02T14:10:08.000Z</time>
      </trkpt>
      <trkpt lat="47.00965" lon="3.31225">
        <ele>285.68988037109</ele>
        <time>2016-03-02T14:10:11.000Z</time>
      </trkpt>
      <trkpt lat="47.00969" lon="3.31226">
        <ele>285.55731201172</ele>
        <time>2016-03-02T14:10:13.000Z</time>
      </trkpt>
      <trkpt lat="47.00973" lon="3.31228">
        <ele>285.44003295898</ele>
        <time>2016-03-02T14:10:16.000Z</time>
      </trkpt>
      <trkpt lat="47.00974" lon="3.31229">
        <ele>285.32391357422</ele>
        <time>2016-03-02T14:10:18.000Z</time>
      </trkpt>
      <trkpt lat="47.00978" lon="3.3123">
        <ele>285.19805908203</ele>
        <time>2016-03-02T14:10:21.000Z</time>
      </trkpt>
      <trkpt lat="47.00982" lon="3.31233">
        <ele>285.02447509766</ele>
        <time>2016-03-02T14:10:25.000Z</time>
      </trkpt>
      <trkpt lat="47.00985" lon="3.31235">
        <ele>284.83288574219</ele>
        <time>2016-03-02T14:10:28.000Z</time>
      </trkpt>
      <trkpt lat="47.00989" lon="3.31238">
        <ele>284.63208007812</ele>
        <time>2016-03-02T14:10:31.000Z</time>
      </trkpt>
      <trkpt lat="47.00991" lon="3.3124">
        <ele>284.40972900391</ele>
        <time>2016-03-02T14:10:34.000Z</time>
      </trkpt>
      <trkpt lat="47.00994" lon="3.31241">
        <ele>284.17694091797</ele>
        <time>2016-03-02T14:10:39.000Z</time>
      </trkpt>
      <trkpt lat="47.00998" lon="3.31243">
        <ele>283.96429443359</ele>
        <time>2016-03-02T14:10:41.000Z</time>
      </trkpt>
      <trkpt lat="47.01001" lon="3.31245">
        <ele>283.73864746094</ele>
        <time>2016-03-02T14:10:44.000Z</time>
      </trkpt>
      <trkpt lat="47.01006" lon="3.31247">
        <ele>283.49407958984</ele>
        <time>2016-03-02T14:10:47.000Z</time>
      </trkpt>
      <trkpt lat="47.01008" lon="3.31247">
        <ele>283.24844360352</ele>
        <time>2016-03-02T14:10:50.000Z</time>
      </trkpt>
      <trkpt lat="47.0101" lon="3.3125">
        <ele>282.98028564453</ele>
        <time>2016-03-02T14:10:53.000Z</time>
      </trkpt>
      <trkpt lat="47.01013" lon="3.31252">
        <ele>282.68341064453</ele>
        <time>2016-03-02T14:10:56.000Z</time>
      </trkpt>
      <trkpt lat="47.01014" lon="3.31252">
        <ele>282.40835571289</ele>
        <time>2016-03-02T14:10:58.000Z</time>
      </trkpt>
      <trkpt lat="47.01022" lon="3.31256">
        <ele>282.04598999023</ele>
        <time>2016-03-02T14:11:01.000Z</time>
      </trkpt>
      <trkpt lat="47.01024" lon="3.31258">
        <ele>281.66598510742</ele>
        <time>2016-03-02T14:11:03.000Z</time>
      </trkpt>
      <trkpt lat="47.01026" lon="3.31259">
        <ele>281.29986572266</ele>
        <time>2016-03-02T14:11:05.000Z</time>
      </trkpt>
      <trkpt lat="47.01027" lon="3.3126">
        <ele>280.96545410156</ele>
        <time>2016-03-02T14:11:07.000Z</time>
      </trkpt>
      <trkpt lat="47.01028" lon="3.31262">
        <ele>280.61645507812</ele>
        <time>2016-03-02T14:11:10.000Z</time>
      </trkpt>
      <trkpt lat="47.0103" lon="3.31265">
        <ele>280.34320068359</ele>
        <time>2016-03-02T14:11:13.000Z</time>
      </trkpt>
      <trkpt lat="47.01032" lon="3.31267">
        <ele>280.06539916992</ele>
        <time>2016-03-02T14:11:16.000Z</time>
      </trkpt>
      <trkpt lat="47.01033" lon="3.31267">
        <ele>279.80615234375</ele>
        <time>2016-03-02T14:11:18.000Z</time>
      </trkpt>
      <trkpt lat="47.01035" lon="3.31268">
        <ele>279.53799438477</ele>
        <time>2016-03-02T14:11:21.000Z</time>
      </trkpt>
      <trkpt lat="47.01039" lon="3.31269">
        <ele>279.25912475586</ele>
        <time>2016-03-02T14:11:27.000Z</time>
      </trkpt>
      <trkpt lat="47.01042" lon="3.31269">
        <ele>279.0129699707</ele>
        <time>2016-03-02T14:11:29.000Z</time>
      </trkpt>
      <trkpt lat="47.01047" lon="3.31271">
        <ele>278.72598266602</ele>
        <time>2016-03-02T14:11:32.000Z</time>
      </trkpt>
      <trkpt lat="47.01049" lon="3.31273">
        <ele>278.40966796875</ele>
        <time>2016-03-02T14:11:35.000Z</time>
      </trkpt>
      <trkpt lat="47.01052" lon="3.31273">
        <ele>278.06134033203</ele>
        <time>2016-03-02T14:11:37.000Z</time>
      </trkpt>
      <trkpt lat="47.01055" lon="3.31274">
        <ele>277.73040771484</ele>
        <time>2016-03-02T14:11:39.000Z</time>
      </trkpt>
      <trkpt lat="47.01057" lon="3.31275">
        <ele>277.4013671875</ele>
        <time>2016-03-02T14:11:41.000Z</time>
      </trkpt>
      <trkpt lat="47.0106" lon="3.31277">
        <ele>277.08242797852</ele>
        <time>2016-03-02T14:11:44.000Z</time>
      </trkpt>
      <trkpt lat="47.01062" lon="3.31279">
        <ele>276.75570678711</ele>
        <time>2016-03-02T14:11:46.000Z</time>
      </trkpt>
      <trkpt lat="47.01062" lon="3.3128">
        <ele>276.47424316406</ele>
        <time>2016-03-02T14:11:48.000Z</time>
      </trkpt>
      <trkpt lat="47.01067" lon="3.31283">
        <ele>276.10015869141</ele>
        <time>2016-03-02T14:11:51.000Z</time>
      </trkpt>
      <trkpt lat="47.01069" lon="3.31286">
        <ele>275.69061279297</ele>
        <time>2016-03-02T14:11:54.000Z</time>
      </trkpt>
      <trkpt lat="47.01072" lon="3.31288">
        <ele>275.27359008789</ele>
        <time>2016-03-02T14:11:58.000Z</time>
      </trkpt>
      <trkpt lat="47.01075" lon="3.31289">
        <ele>274.84359741211</ele>
        <time>2016-03-02T14:12:01.000Z</time>
      </trkpt>
      <trkpt lat="47.01079" lon="3.31289">
        <ele>274.39428710938</ele>
        <time>2016-03-02T14:12:03.000Z</time>
      </trkpt>
      <trkpt lat="47.01082" lon="3.31291">
        <ele>273.98379516602</ele>
        <time>2016-03-02T14:12:14.000Z</time>
      </trkpt>
      <trkpt lat="47.01083" lon="3.31292">
        <ele>273.61837768555</ele>
        <time>2016-03-02T14:12:16.000Z</time>
      </trkpt>
      <trkpt lat="47.01085" lon="3.31293">
        <ele>273.3151550293</ele>
        <time>2016-03-02T14:12:25.000Z</time>
      </trkpt>
      <trkpt lat="47.01095" lon="3.31299">
        <ele>272.86337280273</ele>
        <time>2016-03-02T14:12:29.000Z</time>
      </trkpt>
      <trkpt lat="47.01103" lon="3.31304">
        <ele>272.30413818359</ele>
        <time>2016-03-02T14:12:32.000Z</time>
      </trkpt>
      <trkpt lat="47.01105" lon="3.31305">
        <ele>271.80380249023</ele>
        <time>2016-03-02T14:12:34.000Z</time>
      </trkpt>
      <trkpt lat="47.01109" lon="3.31305">
        <ele>271.31146240234</ele>
        <time>2016-03-02T14:12:38.000Z</time>
      </trkpt>
      <trkpt lat="47.01112" lon="3.31308">
        <ele>270.79437255859</ele>
        <time>2016-03-02T14:12:41.000Z</time>
      </trkpt>
      <trkpt lat="47.01113" lon="3.3131">
        <ele>270.4592590332</ele>
        <time>2016-03-02T14:12:44.000Z</time>
      </trkpt>
      <trkpt lat="47.01117" lon="3.31314">
        <ele>270.18011474609</ele>
        <time>2016-03-02T14:13:00.000Z</time>
      </trkpt>
      <trkpt lat="47.01123" lon="3.31314">
        <ele>269.89672851562</ele>
        <time>2016-03-02T14:13:17.000Z</time>
      </trkpt>
      <trkpt lat="47.01134" lon="3.31319">
        <ele>269.51593017578</ele>
        <time>2016-03-02T14:13:27.000Z</time>
      </trkpt>
      <trkpt lat="47.01147" lon="3.31323">
        <ele>269.07577514648</ele>
        <time>2016-03-02T14:13:30.000Z</time>
      </trkpt>
      <trkpt lat="47.01155" lon="3.31323">
        <ele>268.64419555664</ele>
        <time>2016-03-02T14:13:36.000Z</time>
      </trkpt>
      <trkpt lat="47.01168" lon="3.31326">
        <ele>268.21893310547</ele>
        <time>2016-03-02T14:13:39.000Z</time>
      </trkpt>
      <trkpt lat="47.01178" lon="3.3133">
        <ele>267.66055297852</ele>
        <time>2016-03-02T14:13:42.000Z</time>
      </trkpt>
      <trkpt lat="47.01183" lon="3.31332">
        <ele>267.16268920898</ele>
        <time>2016-03-02T14:13:45.000Z</time>
      </trkpt>
      <trkpt lat="47.01185" lon="3.31333">
        <ele>266.74429321289</ele>
        <time>2016-03-02T14:13:47.000Z</time>
      </trkpt>
      <trkpt lat="47.01191" lon="3.31335">
        <ele>266.27532958984</ele>
        <time>2016-03-02T14:13:50.000Z</time>
      </trkpt>
      <trkpt lat="47.01192" lon="3.31335">
        <ele>265.89019775391</ele>
        <time>2016-03-02T14:13:52.000Z</time>
      </trkpt>
      <trkpt lat="47.01197" lon="3.31335">
        <ele>265.62274169922</ele>
        <time>2016-03-02T14:13:55.000Z</time>
      </trkpt>
      <trkpt lat="47.012" lon="3.31336">
        <ele>265.37612915039</ele>
        <time>2016-03-02T14:13:57.000Z</time>
      </trkpt>
      <trkpt lat="47.01204" lon="3.31338">
        <ele>265.11505126953</ele>
        <time>2016-03-02T14:14:00.000Z</time>
      </trkpt>
      <trkpt lat="47.01206" lon="3.3134">
        <ele>264.90502929688</ele>
        <time>2016-03-02T14:14:03.000Z</time>
      </trkpt>
      <trkpt lat="47.01209" lon="3.31343">
        <ele>264.65200805664</ele>
        <time>2016-03-02T14:14:06.000Z</time>
      </trkpt>
      <trkpt lat="47.01211" lon="3.31344">
        <ele>264.42828369141</ele>
        <time>2016-03-02T14:14:08.000Z</time>
      </trkpt>
      <trkpt lat="47.01214" lon="3.31346">
        <ele>264.21380615234</ele>
        <time>2016-03-02T14:14:11.000Z</time>
      </trkpt>
      <trkpt lat="47.01216" lon="3.3135">
        <ele>264.00860595703</ele>
        <time>2016-03-02T14:14:14.000Z</time>
      </trkpt>
      <trkpt lat="47.01217" lon="3.31353">
        <ele>263.81713867188</ele>
        <time>2016-03-02T14:14:16.000Z</time>
      </trkpt>
      <trkpt lat="47.01218" lon="3.31357">
        <ele>263.64248657227</ele>
        <time>2016-03-02T14:14:18.000Z</time>
      </trkpt>
      <trkpt lat="47.0122" lon="3.3136">
        <ele>263.47027587891</ele>
        <time>2016-03-02T14:14:20.000Z</time>
      </trkpt>
      <trkpt lat="47.01221" lon="3.31363">
        <ele>263.30267333984</ele>
        <time>2016-03-02T14:14:23.000Z</time>
      </trkpt>
      <trkpt lat="47.01223" lon="3.31366">
        <ele>263.15640258789</ele>
        <time>2016-03-02T14:14:25.000Z</time>
      </trkpt>
      <trkpt lat="47.01225" lon="3.31369">
        <ele>263.0051574707</ele>
        <time>2016-03-02T14:14:28.000Z</time>
      </trkpt>
      <trkpt lat="47.01227" lon="3.31372">
        <ele>262.85247802734</ele>
        <time>2016-03-02T14:14:30.000Z</time>
      </trkpt>
      <trkpt lat="47.01229" lon="3.31374">
        <ele>262.69769287109</ele>
        <time>2016-03-02T14:14:32.000Z</time>
      </trkpt>
      <trkpt lat="47.0123" lon="3.31376">
        <ele>262.56307983398</ele>
        <time>2016-03-02T14:14:35.000Z</time>
      </trkpt>
      <trkpt lat="47.01232" lon="3.31379">
        <ele>262.42956542969</ele>
        <time>2016-03-02T14:14:37.000Z</time>
      </trkpt>
      <trkpt lat="47.01234" lon="3.31382">
        <ele>262.29809570312</ele>
        <time>2016-03-02T14:14:39.000Z</time>
      </trkpt>
      <trkpt lat="47.01236" lon="3.31386">
        <ele>262.16943359375</ele>
        <time>2016-03-02T14:14:42.000Z</time>
      </trkpt>
      <trkpt lat="47.01237" lon="3.31387">
        <ele>262.05999755859</ele>
        <time>2016-03-02T14:14:44.000Z</time>
      </trkpt>
      <trkpt lat="47.01238" lon="3.31391">
        <ele>261.94393920898</ele>
        <time>2016-03-02T14:14:48.000Z</time>
      </trkpt>
      <trkpt lat="47.01239" lon="3.31394">
        <ele>261.82965087891</ele>
        <time>2016-03-02T14:14:49.000Z</time>
      </trkpt>
      <trkpt lat="47.0124" lon="3.31399">
        <ele>261.72732543945</ele>
        <time>2016-03-02T14:14:52.000Z</time>
      </trkpt>
      <trkpt lat="47.01241" lon="3.31401">
        <ele>261.63793945312</ele>
        <time>2016-03-02T14:14:54.000Z</time>
      </trkpt>
      <trkpt lat="47.01243" lon="3.31404">
        <ele>261.54086303711</ele>
        <time>2016-03-02T14:14:57.000Z</time>
      </trkpt>
      <trkpt lat="47.01244" lon="3.31408">
        <ele>261.44924926758</ele>
        <time>2016-03-02T14:14:59.000Z</time>
      </trkpt>
      <trkpt lat="47.01245" lon="3.3141">
        <ele>261.36605834961</ele>
        <time>2016-03-02T14:15:01.000Z</time>
      </trkpt>
      <trkpt lat="47.01248" lon="3.31415">
        <ele>261.27020263672</ele>
        <time>2016-03-02T14:15:04.000Z</time>
      </trkpt>
      <trkpt lat="47.01249" lon="3.31417">
        <ele>261.18701171875</ele>
        <time>2016-03-02T14:15:06.000Z</time>
      </trkpt>
      <trkpt lat="47.0125" lon="3.3142">
        <ele>261.11117553711</ele>
        <time>2016-03-02T14:15:10.000Z</time>
      </trkpt>
      <trkpt lat="47.01253" lon="3.31424">
        <ele>261.03109741211</ele>
        <time>2016-03-02T14:15:12.000Z</time>
      </trkpt>
      <trkpt lat="47.01254" lon="3.31428">
        <ele>260.95587158203</ele>
        <time>2016-03-02T14:15:14.000Z</time>
      </trkpt>
      <trkpt lat="47.01256" lon="3.31432">
        <ele>260.89886474609</ele>
        <time>2016-03-02T14:15:16.000Z</time>
      </trkpt>
      <trkpt lat="47.01258" lon="3.31435">
        <ele>260.83551025391</ele>
        <time>2016-03-02T14:15:19.000Z</time>
      </trkpt>
      <trkpt lat="47.01258" lon="3.31437">
        <ele>260.78067016602</ele>
        <time>2016-03-02T14:15:21.000Z</time>
      </trkpt>
      <trkpt lat="47.01259" lon="3.3144">
        <ele>260.74374389648</ele>
        <time>2016-03-02T14:15:23.000Z</time>
      </trkpt>
      <trkpt lat="47.01261" lon="3.31445">
        <ele>260.71087646484</ele>
        <time>2016-03-02T14:15:26.000Z</time>
      </trkpt>
      <trkpt lat="47.01262" lon="3.31448">
        <ele>260.68276977539</ele>
        <time>2016-03-02T14:15:28.000Z</time>
      </trkpt>
      <trkpt lat="47.01263" lon="3.3145">
        <ele>260.66577148438</ele>
        <time>2016-03-02T14:15:30.000Z</time>
      </trkpt>
      <trkpt lat="47.01265" lon="3.31452">
        <ele>260.64407348633</ele>
        <time>2016-03-02T14:15:43.000Z</time>
      </trkpt>
      <trkpt lat="47.01266" lon="3.31454">
        <ele>260.61944580078</ele>
        <time>2016-03-02T14:15:45.000Z</time>
      </trkpt>
      <trkpt lat="47.01268" lon="3.31457">
        <ele>260.5966796875</ele>
        <time>2016-03-02T14:15:45.000Z</time>
      </trkpt>
      <trkpt lat="47.01269" lon="3.31458">
        <ele>260.57760620117</ele>
        <time>2016-03-02T14:15:46.000Z</time>
      </trkpt>
      <trkpt lat="47.0127" lon="3.31459">
        <ele>260.55838012695</ele>
        <time>2016-03-02T14:15:46.000Z</time>
      </trkpt>
      <trkpt lat="47.01272" lon="3.31461">
        <ele>260.5378112793</ele>
        <time>2016-03-02T14:15:47.000Z</time>
      </trkpt>
      <trkpt lat="47.01273" lon="3.31462">
        <ele>260.52188110352</ele>
        <time>2016-03-02T14:15:48.000Z</time>
      </trkpt>
      <trkpt lat="47.01273" lon="3.31462">
        <ele>260.52188110352</ele>
        <time>2016-03-02T14:16:09.000Z</time>
      </trkpt>
      <trkpt lat="47.01274" lon="3.31462">
        <ele>260.50479125977</ele>
        <time>2016-03-02T14:16:09.000Z</time>
      </trkpt>
      <trkpt lat="47.01274" lon="3.31462">
        <ele>260.50479125977</ele>
        <time>2016-03-02T14:16:29.000Z</time>
      </trkpt>
      <trkpt lat="47.01273" lon="3.31463">
        <ele>260.49896240234</ele>
        <time>2016-03-02T14:16:40.000Z</time>
      </trkpt>
      <trkpt lat="47.01271" lon="3.31464">
        <ele>260.50259399414</ele>
        <time>2016-03-02T14:16:42.000Z</time>
      </trkpt>
      <trkpt lat="47.0127" lon="3.31464">
        <ele>260.52191162109</ele>
        <time>2016-03-02T14:16:45.000Z</time>
      </trkpt>
      <trkpt lat="47.0127" lon="3.31464">
        <ele>260.52191162109</ele>
        <time>2016-03-02T14:17:05.000Z</time>
      </trkpt>
      <trkpt lat="47.01271" lon="3.31464">
        <ele>260.53744506836</ele>
        <time>2016-03-02T14:17:08.000Z</time>
      </trkpt>
      <trkpt lat="47.01271" lon="3.31464">
        <ele>260.53744506836</ele>
        <time>2016-03-02T14:17:28.000Z</time>
      </trkpt>
      <trkpt lat="47.01272" lon="3.31464">
        <ele>260.55233764648</ele>
        <time>2016-03-02T14:18:35.000Z</time>
      </trkpt>
      <trkpt lat="47.01272" lon="3.31464">
        <ele>260.55233764648</ele>
        <time>2016-03-02T14:18:55.000Z</time>
      </trkpt>
      <trkpt lat="47.01273" lon="3.31464">
        <ele>260.55487060547</ele>
        <time>2016-03-02T14:19:00.000Z</time>
      </trkpt>
      <trkpt lat="47.01274" lon="3.31466">
        <ele>260.55157470703</ele>
        <time>2016-03-02T14:19:02.000Z</time>
      </trkpt>
      <trkpt lat="47.01274" lon="3.31469">
        <ele>260.54684448242</ele>
        <time>2016-03-02T14:19:04.000Z</time>
      </trkpt>
      <trkpt lat="47.01276" lon="3.31474">
        <ele>260.55700683594</ele>
        <time>2016-03-02T14:19:07.000Z</time>
      </trkpt>
      <trkpt lat="47.01276" lon="3.31476">
        <ele>260.57476806641</ele>
        <time>2016-03-02T14:19:10.000Z</time>
      </trkpt>
      <trkpt lat="47.01277" lon="3.31479">
        <ele>260.60546875</ele>
        <time>2016-03-02T14:19:13.000Z</time>
      </trkpt>
      <trkpt lat="47.01278" lon="3.31483">
        <ele>260.64276123047</ele>
        <time>2016-03-02T14:19:16.000Z</time>
      </trkpt>
      <trkpt lat="47.0128" lon="3.31487">
        <ele>260.68472290039</ele>
        <time>2016-03-02T14:19:18.000Z</time>
      </trkpt>
      <trkpt lat="47.01282" lon="3.3149">
        <ele>260.72479248047</ele>
        <time>2016-03-02T14:19:20.000Z</time>
      </trkpt>
      <trkpt lat="47.01283" lon="3.31492">
        <ele>260.76678466797</ele>
        <time>2016-03-02T14:19:22.000Z</time>
      </trkpt>
      <trkpt lat="47.01284" lon="3.31494">
        <ele>260.80932617188</ele>
        <time>2016-03-02T14:19:24.000Z</time>
      </trkpt>
      <trkpt lat="47.01286" lon="3.31498">
        <ele>260.8583984375</ele>
        <time>2016-03-02T14:19:27.000Z</time>
      </trkpt>
      <trkpt lat="47.01287" lon="3.31503">
        <ele>260.91653442383</ele>
        <time>2016-03-02T14:19:30.000Z</time>
      </trkpt>
      <trkpt lat="47.01289" lon="3.31507">
        <ele>260.98547363281</ele>
        <time>2016-03-02T14:19:33.000Z</time>
      </trkpt>
      <trkpt lat="47.01289" lon="3.31508">
        <ele>261.05792236328</ele>
        <time>2016-03-02T14:19:43.000Z</time>
      </trkpt>
      <trkpt lat="47.01291" lon="3.31514">
        <ele>261.14739990234</ele>
        <time>2016-03-02T14:19:46.000Z</time>
      </trkpt>
      <trkpt lat="47.01292" lon="3.31517">
        <ele>261.23388671875</ele>
        <time>2016-03-02T14:19:48.000Z</time>
      </trkpt>
      <trkpt lat="47.01294" lon="3.31522">
        <ele>261.32702636719</ele>
        <time>2016-03-02T14:19:52.000Z</time>
      </trkpt>
      <trkpt lat="47.01296" lon="3.31525">
        <ele>261.41552734375</ele>
        <time>2016-03-02T14:19:54.000Z</time>
      </trkpt>
      <trkpt lat="47.01299" lon="3.31531">
        <ele>261.52197265625</ele>
        <time>2016-03-02T14:19:57.000Z</time>
      </trkpt>
      <trkpt lat="47.013" lon="3.31536">
        <ele>261.62573242188</ele>
        <time>2016-03-02T14:20:00.000Z</time>
      </trkpt>
      <trkpt lat="47.01303" lon="3.31541">
        <ele>261.7412109375</ele>
        <time>2016-03-02T14:20:03.000Z</time>
      </trkpt>
      <trkpt lat="47.01305" lon="3.31544">
        <ele>261.84619140625</ele>
        <time>2016-03-02T14:20:05.000Z</time>
      </trkpt>
      <trkpt lat="47.01308" lon="3.31548">
        <ele>261.95629882812</ele>
        <time>2016-03-02T14:20:08.000Z</time>
      </trkpt>
      <trkpt lat="47.0131" lon="3.31551">
        <ele>262.05346679688</ele>
        <time>2016-03-02T14:20:10.000Z</time>
      </trkpt>
      <trkpt lat="47.01311" lon="3.31554">
        <ele>262.13903808594</ele>
        <time>2016-03-02T14:20:12.000Z</time>
      </trkpt>
      <trkpt lat="47.01314" lon="3.31557">
        <ele>262.21728515625</ele>
        <time>2016-03-02T14:20:15.000Z</time>
      </trkpt>
      <trkpt lat="47.01317" lon="3.31561">
        <ele>262.30004882812</ele>
        <time>2016-03-02T14:20:19.000Z</time>
      </trkpt>
      <trkpt lat="47.0132" lon="3.31565">
        <ele>262.380859375</ele>
        <time>2016-03-02T14:20:21.000Z</time>
      </trkpt>
      <trkpt lat="47.01322" lon="3.3157">
        <ele>262.47192382812</ele>
        <time>2016-03-02T14:20:24.000Z</time>
      </trkpt>
      <trkpt lat="47.01323" lon="3.31573">
        <ele>262.56372070312</ele>
        <time>2016-03-02T14:20:26.000Z</time>
      </trkpt>
      <trkpt lat="47.01325" lon="3.31576">
        <ele>262.65625</ele>
        <time>2016-03-02T14:20:28.000Z</time>
      </trkpt>
      <trkpt lat="47.01326" lon="3.31577">
        <ele>262.73083496094</ele>
        <time>2016-03-02T14:20:31.000Z</time>
      </trkpt>
      <trkpt lat="47.01328" lon="3.31579">
        <ele>262.79626464844</ele>
        <time>2016-03-02T14:20:34.000Z</time>
      </trkpt>
      <trkpt lat="47.01329" lon="3.31583">
        <ele>262.85986328125</ele>
        <time>2016-03-02T14:20:37.000Z</time>
      </trkpt>
      <trkpt lat="47.01331" lon="3.31587">
        <ele>262.93743896484</ele>
        <time>2016-03-02T14:20:39.000Z</time>
      </trkpt>
      <trkpt lat="47.01334" lon="3.31591">
        <ele>263.02349853516</ele>
        <time>2016-03-02T14:20:42.000Z</time>
      </trkpt>
      <trkpt lat="47.01335" lon="3.31594">
        <ele>263.11590576172</ele>
        <time>2016-03-02T14:20:44.000Z</time>
      </trkpt>
      <trkpt lat="47.01338" lon="3.31598">
        <ele>263.20840454102</ele>
        <time>2016-03-02T14:20:47.000Z</time>
      </trkpt>
      <trkpt lat="47.01339" lon="3.316">
        <ele>263.2887878418</ele>
        <time>2016-03-02T14:20:49.000Z</time>
      </trkpt>
      <trkpt lat="47.01341" lon="3.31605">
        <ele>263.36547851562</ele>
        <time>2016-03-02T14:20:52.000Z</time>
      </trkpt>
      <trkpt lat="47.01342" lon="3.31608">
        <ele>263.42333984375</ele>
        <time>2016-03-02T14:20:54.000Z</time>
      </trkpt>
      <trkpt lat="47.01345" lon="3.31612">
        <ele>263.48046875</ele>
        <time>2016-03-02T14:20:57.000Z</time>
      </trkpt>
      <trkpt lat="47.01348" lon="3.31615">
        <ele>263.53521728516</ele>
        <time>2016-03-02T14:21:00.000Z</time>
      </trkpt>
      <trkpt lat="47.0135" lon="3.31618">
        <ele>263.58648681641</ele>
        <time>2016-03-02T14:21:02.000Z</time>
      </trkpt>
      <trkpt lat="47.01353" lon="3.31621">
        <ele>263.61981201172</ele>
        <time>2016-03-02T14:21:05.000Z</time>
      </trkpt>
      <trkpt lat="47.01355" lon="3.31624">
        <ele>263.65057373047</ele>
        <time>2016-03-02T14:21:07.000Z</time>
      </trkpt>
      <trkpt lat="47.01359" lon="3.31629">
        <ele>263.6767578125</ele>
        <time>2016-03-02T14:21:10.000Z</time>
      </trkpt>
      <trkpt lat="47.0136" lon="3.31631">
        <ele>263.70498657227</ele>
        <time>2016-03-02T14:21:12.000Z</time>
      </trkpt>
      <trkpt lat="47.01362" lon="3.31634">
        <ele>263.73480224609</ele>
        <time>2016-03-02T14:21:14.000Z</time>
      </trkpt>
      <trkpt lat="47.01364" lon="3.31638">
        <ele>263.77197265625</ele>
        <time>2016-03-02T14:21:17.000Z</time>
      </trkpt>
      <trkpt lat="47.01366" lon="3.31641">
        <ele>263.81024169922</ele>
        <time>2016-03-02T14:21:20.000Z</time>
      </trkpt>
      <trkpt lat="47.01368" lon="3.31644">
        <ele>263.84887695312</ele>
        <time>2016-03-02T14:21:22.000Z</time>
      </trkpt>
      <trkpt lat="47.01369" lon="3.31649">
        <ele>263.91021728516</ele>
        <time>2016-03-02T14:21:25.000Z</time>
      </trkpt>
      <trkpt lat="47.0137" lon="3.31652">
        <ele>263.97869873047</ele>
        <time>2016-03-02T14:21:27.000Z</time>
      </trkpt>
      <trkpt lat="47.01373" lon="3.31655">
        <ele>264.03399658203</ele>
        <time>2016-03-02T14:21:30.000Z</time>
      </trkpt>
      <trkpt lat="47.01376" lon="3.31658">
        <ele>264.09039306641</ele>
        <time>2016-03-02T14:21:32.000Z</time>
      </trkpt>
      <trkpt lat="47.01378" lon="3.31663">
        <ele>264.15557861328</ele>
        <time>2016-03-02T14:21:35.000Z</time>
      </trkpt>
      <trkpt lat="47.01381" lon="3.31665">
        <ele>264.19073486328</ele>
        <time>2016-03-02T14:21:38.000Z</time>
      </trkpt>
      <trkpt lat="47.01382" lon="3.31667">
        <ele>264.21939086914</ele>
        <time>2016-03-02T14:21:40.000Z</time>
      </trkpt>
      <trkpt lat="47.01384" lon="3.3167">
        <ele>264.26702880859</ele>
        <time>2016-03-02T14:21:43.000Z</time>
      </trkpt>
      <trkpt lat="47.01386" lon="3.31673">
        <ele>264.32580566406</ele>
        <time>2016-03-02T14:21:45.000Z</time>
      </trkpt>
      <trkpt lat="47.01389" lon="3.31677">
        <ele>264.41131591797</ele>
        <time>2016-03-02T14:21:48.000Z</time>
      </trkpt>
      <trkpt lat="47.01392" lon="3.31681">
        <ele>264.53134155273</ele>
        <time>2016-03-02T14:21:51.000Z</time>
      </trkpt>
      <trkpt lat="47.01394" lon="3.31684">
        <ele>264.66586303711</ele>
        <time>2016-03-02T14:21:54.000Z</time>
      </trkpt>
      <trkpt lat="47.01396" lon="3.31687">
        <ele>264.81353759766</ele>
        <time>2016-03-02T14:21:56.000Z</time>
      </trkpt>
      <trkpt lat="47.01399" lon="3.31692">
        <ele>264.98291015625</ele>
        <time>2016-03-02T14:21:59.000Z</time>
      </trkpt>
      <trkpt lat="47.01401" lon="3.31694">
        <ele>265.13809204102</ele>
        <time>2016-03-02T14:22:02.000Z</time>
      </trkpt>
      <trkpt lat="47.01403" lon="3.31696">
        <ele>265.27377319336</ele>
        <time>2016-03-02T14:22:05.000Z</time>
      </trkpt>
      <trkpt lat="47.01403" lon="3.31697">
        <ele>265.39111328125</ele>
        <time>2016-03-02T14:22:07.000Z</time>
      </trkpt>
      <trkpt lat="47.01405" lon="3.31697">
        <ele>265.47106933594</ele>
        <time>2016-03-02T14:22:12.000Z</time>
      </trkpt>
      <trkpt lat="47.01408" lon="3.31701">
        <ele>265.54995727539</ele>
        <time>2016-03-02T14:22:15.000Z</time>
      </trkpt>
      <trkpt lat="47.0141" lon="3.31704">
        <ele>265.63388061523</ele>
        <time>2016-03-02T14:22:17.000Z</time>
      </trkpt>
      <trkpt lat="47.01412" lon="3.31706">
        <ele>265.72442626953</ele>
        <time>2016-03-02T14:22:19.000Z</time>
      </trkpt>
      <trkpt lat="47.01414" lon="3.3171">
        <ele>265.85067749023</ele>
        <time>2016-03-02T14:22:22.000Z</time>
      </trkpt>
      <trkpt lat="47.01416" lon="3.31713">
        <ele>266.01156616211</ele>
        <time>2016-03-02T14:22:24.000Z</time>
      </trkpt>
      <trkpt lat="47.01418" lon="3.31714">
        <ele>266.14974975586</ele>
        <time>2016-03-02T14:22:26.000Z</time>
      </trkpt>
      <trkpt lat="47.01421" lon="3.31719">
        <ele>266.33038330078</ele>
        <time>2016-03-02T14:22:29.000Z</time>
      </trkpt>
      <trkpt lat="47.01422" lon="3.31721">
        <ele>266.53329467773</ele>
        <time>2016-03-02T14:22:31.000Z</time>
      </trkpt>
      <trkpt lat="47.01424" lon="3.31724">
        <ele>266.73095703125</ele>
        <time>2016-03-02T14:22:33.000Z</time>
      </trkpt>
      <trkpt lat="47.01427" lon="3.31728">
        <ele>266.95855712891</ele>
        <time>2016-03-02T14:22:36.000Z</time>
      </trkpt>
      <trkpt lat="47.01429" lon="3.31731">
        <ele>267.21185302734</ele>
        <time>2016-03-02T14:22:39.000Z</time>
      </trkpt>
      <trkpt lat="47.01432" lon="3.31735">
        <ele>267.45401000977</ele>
        <time>2016-03-02T14:22:42.000Z</time>
      </trkpt>
      <trkpt lat="47.01434" lon="3.31738">
        <ele>267.69366455078</ele>
        <time>2016-03-02T14:22:44.000Z</time>
      </trkpt>
      <trkpt lat="47.01436" lon="3.31742">
        <ele>267.94772338867</ele>
        <time>2016-03-02T14:22:46.000Z</time>
      </trkpt>
      <trkpt lat="47.01438" lon="3.31745">
        <ele>268.189453125</ele>
        <time>2016-03-02T14:22:48.000Z</time>
      </trkpt>
      <trkpt lat="47.01441" lon="3.31749">
        <ele>268.43649291992</ele>
        <time>2016-03-02T14:22:51.000Z</time>
      </trkpt>
      <trkpt lat="47.01443" lon="3.31751">
        <ele>268.64410400391</ele>
        <time>2016-03-02T14:22:54.000Z</time>
      </trkpt>
      <trkpt lat="47.01445" lon="3.31753">
        <ele>268.82302856445</ele>
        <time>2016-03-02T14:22:56.000Z</time>
      </trkpt>
      <trkpt lat="47.01447" lon="3.31758">
        <ele>268.97918701172</ele>
        <time>2016-03-02T14:22:59.000Z</time>
      </trkpt>
      <trkpt lat="47.0145" lon="3.31762">
        <ele>269.11480712891</ele>
        <time>2016-03-02T14:23:02.000Z</time>
      </trkpt>
      <trkpt lat="47.01451" lon="3.31764">
        <ele>269.21319580078</ele>
        <time>2016-03-02T14:23:04.000Z</time>
      </trkpt>
      <trkpt lat="47.01455" lon="3.31767">
        <ele>269.31225585938</ele>
        <time>2016-03-02T14:23:08.000Z</time>
      </trkpt>
      <trkpt lat="47.01457" lon="3.3177">
        <ele>269.41500854492</ele>
        <time>2016-03-02T14:23:09.000Z</time>
      </trkpt>
      <trkpt lat="47.0146" lon="3.31774">
        <ele>269.51504516602</ele>
        <time>2016-03-02T14:23:12.000Z</time>
      </trkpt>
      <trkpt lat="47.01462" lon="3.31776">
        <ele>269.60113525391</ele>
        <time>2016-03-02T14:23:14.000Z</time>
      </trkpt>
      <trkpt lat="47.01464" lon="3.31776">
        <ele>269.68414306641</ele>
        <time>2016-03-02T14:23:16.000Z</time>
      </trkpt>
      <trkpt lat="47.01466" lon="3.31777">
        <ele>269.74725341797</ele>
        <time>2016-03-02T14:23:18.000Z</time>
      </trkpt>
      <trkpt lat="47.01469" lon="3.31777">
        <ele>269.79528808594</ele>
        <time>2016-03-02T14:23:21.000Z</time>
      </trkpt>
      <trkpt lat="47.01472" lon="3.31776">
        <ele>269.81948852539</ele>
        <time>2016-03-02T14:23:23.000Z</time>
      </trkpt>
      <trkpt lat="47.01477" lon="3.31774">
        <ele>269.82290649414</ele>
        <time>2016-03-02T14:23:26.000Z</time>
      </trkpt>
      <trkpt lat="47.0148" lon="3.31773">
        <ele>269.81182861328</ele>
        <time>2016-03-02T14:23:28.000Z</time>
      </trkpt>
      <trkpt lat="47.01482" lon="3.31772">
        <ele>269.79046630859</ele>
        <time>2016-03-02T14:23:30.000Z</time>
      </trkpt>
      <trkpt lat="47.01486" lon="3.31772">
        <ele>269.76937866211</ele>
        <time>2016-03-02T14:23:33.000Z</time>
      </trkpt>
      <trkpt lat="47.01489" lon="3.31773">
        <ele>269.76007080078</ele>
        <time>2016-03-02T14:23:36.000Z</time>
      </trkpt>
      <trkpt lat="47.01491" lon="3.31775">
        <ele>269.77227783203</ele>
        <time>2016-03-02T14:23:38.000Z</time>
      </trkpt>
      <trkpt lat="47.01494" lon="3.31779">
        <ele>269.82437133789</ele>
        <time>2016-03-02T14:23:41.000Z</time>
      </trkpt>
      <trkpt lat="47.01496" lon="3.31781">
        <ele>269.89859008789</ele>
        <time>2016-03-02T14:23:43.000Z</time>
      </trkpt>
      <trkpt lat="47.01499" lon="3.31783">
        <ele>269.98818969727</ele>
        <time>2016-03-02T14:23:45.000Z</time>
      </trkpt>
      <trkpt lat="47.01503" lon="3.31785">
        <ele>270.0788269043</ele>
        <time>2016-03-02T14:23:48.000Z</time>
      </trkpt>
      <trkpt lat="47.01505" lon="3.31788">
        <ele>270.17178344727</ele>
        <time>2016-03-02T14:23:50.000Z</time>
      </trkpt>
      <trkpt lat="47.01508" lon="3.31791">
        <ele>270.25689697266</ele>
        <time>2016-03-02T14:23:53.000Z</time>
      </trkpt>
      <trkpt lat="47.0151" lon="3.31794">
        <ele>270.34320068359</ele>
        <time>2016-03-02T14:23:55.000Z</time>
      </trkpt>
      <trkpt lat="47.01513" lon="3.31797">
        <ele>270.43228149414</ele>
        <time>2016-03-02T14:23:58.000Z</time>
      </trkpt>
      <trkpt lat="47.01516" lon="3.318">
        <ele>270.52551269531</ele>
        <time>2016-03-02T14:24:01.000Z</time>
      </trkpt>
      <trkpt lat="47.01519" lon="3.31803">
        <ele>270.62945556641</ele>
        <time>2016-03-02T14:24:04.000Z</time>
      </trkpt>
      <trkpt lat="47.01522" lon="3.31807">
        <ele>270.73822021484</ele>
        <time>2016-03-02T14:24:07.000Z</time>
      </trkpt>
      <trkpt lat="47.01524" lon="3.31809">
        <ele>270.84411621094</ele>
        <time>2016-03-02T14:24:09.000Z</time>
      </trkpt>
      <trkpt lat="47.01526" lon="3.31811">
        <ele>270.94323730469</ele>
        <time>2016-03-02T14:24:11.000Z</time>
      </trkpt>
      <trkpt lat="47.0153" lon="3.31815">
        <ele>271.05102539062</ele>
        <time>2016-03-02T14:24:14.000Z</time>
      </trkpt>
      <trkpt lat="47.01534" lon="3.31818">
        <ele>271.16055297852</ele>
        <time>2016-03-02T14:24:17.000Z</time>
      </trkpt>
      <trkpt lat="47.01535" lon="3.3182">
        <ele>271.25082397461</ele>
        <time>2016-03-02T14:24:19.000Z</time>
      </trkpt>
      <trkpt lat="47.01538" lon="3.31822">
        <ele>271.34442138672</ele>
        <time>2016-03-02T14:24:21.000Z</time>
      </trkpt>
      <trkpt lat="47.01541" lon="3.31825">
        <ele>271.44921875</ele>
        <time>2016-03-02T14:24:24.000Z</time>
      </trkpt>
      <trkpt lat="47.01545" lon="3.31828">
        <ele>271.55136108398</ele>
        <time>2016-03-02T14:24:27.000Z</time>
      </trkpt>
      <trkpt lat="47.01547" lon="3.31829">
        <ele>271.63500976562</ele>
        <time>2016-03-02T14:24:29.000Z</time>
      </trkpt>
      <trkpt lat="47.0155" lon="3.31832">
        <ele>271.73229980469</ele>
        <time>2016-03-02T14:24:32.000Z</time>
      </trkpt>
      <trkpt lat="47.01551" lon="3.31834">
        <ele>271.82763671875</ele>
        <time>2016-03-02T14:24:34.000Z</time>
      </trkpt>
      <trkpt lat="47.01554" lon="3.31835">
        <ele>271.89678955078</ele>
        <time>2016-03-02T14:24:37.000Z</time>
      </trkpt>
      <trkpt lat="47.01556" lon="3.31835">
        <ele>271.94268798828</ele>
        <time>2016-03-02T14:24:39.000Z</time>
      </trkpt>
      <trkpt lat="47.01559" lon="3.31836">
        <ele>271.97955322266</ele>
        <time>2016-03-02T14:24:42.000Z</time>
      </trkpt>
      <trkpt lat="47.01563" lon="3.31839">
        <ele>271.99154663086</ele>
        <time>2016-03-02T14:24:45.000Z</time>
      </trkpt>
      <trkpt lat="47.01565" lon="3.31841">
        <ele>271.98764038086</ele>
        <time>2016-03-02T14:24:48.000Z</time>
      </trkpt>
      <trkpt lat="47.01567" lon="3.31842">
        <ele>271.98461914062</ele>
        <time>2016-03-02T14:24:50.000Z</time>
      </trkpt>
      <trkpt lat="47.01569" lon="3.31844">
        <ele>271.98184204102</ele>
        <time>2016-03-02T14:24:52.000Z</time>
      </trkpt>
      <trkpt lat="47.01573" lon="3.31848">
        <ele>271.97909545898</ele>
        <time>2016-03-02T14:24:54.000Z</time>
      </trkpt>
      <trkpt lat="47.01577" lon="3.31852">
        <ele>271.97946166992</ele>
        <time>2016-03-02T14:24:57.000Z</time>
      </trkpt>
      <trkpt lat="47.0158" lon="3.31855">
        <ele>271.98153686523</ele>
        <time>2016-03-02T14:25:01.000Z</time>
      </trkpt>
      <trkpt lat="47.01582" lon="3.31856">
        <ele>271.98483276367</ele>
        <time>2016-03-02T14:25:02.000Z</time>
      </trkpt>
      <trkpt lat="47.01586" lon="3.3186">
        <ele>271.99127197266</ele>
        <time>2016-03-02T14:25:06.000Z</time>
      </trkpt>
      <trkpt lat="47.01588" lon="3.31861">
        <ele>271.99960327148</ele>
        <time>2016-03-02T14:25:07.000Z</time>
      </trkpt>
      <trkpt lat="47.01591" lon="3.31864">
        <ele>272.00982666016</ele>
        <time>2016-03-02T14:25:10.000Z</time>
      </trkpt>
      <trkpt lat="47.01593" lon="3.31865">
        <ele>272.0205078125</ele>
        <time>2016-03-02T14:25:12.000Z</time>
      </trkpt>
      <trkpt lat="47.01595" lon="3.31869">
        <ele>272.03396606445</ele>
        <time>2016-03-02T14:25:15.000Z</time>
      </trkpt>
      <trkpt lat="47.01597" lon="3.3187">
        <ele>272.04647827148</ele>
        <time>2016-03-02T14:25:18.000Z</time>
      </trkpt>
      <trkpt lat="47.01601" lon="3.31872">
        <ele>272.06201171875</ele>
        <time>2016-03-02T14:25:21.000Z</time>
      </trkpt>
      <trkpt lat="47.01603" lon="3.31875">
        <ele>272.07843017578</ele>
        <time>2016-03-02T14:25:23.000Z</time>
      </trkpt>
      <trkpt lat="47.01606" lon="3.31878">
        <ele>272.09973144531</ele>
        <time>2016-03-02T14:25:25.000Z</time>
      </trkpt>
      <trkpt lat="47.01609" lon="3.31881">
        <ele>272.12265014648</ele>
        <time>2016-03-02T14:25:28.000Z</time>
      </trkpt>
      <trkpt lat="47.01611" lon="3.31883">
        <ele>272.14785766602</ele>
        <time>2016-03-02T14:25:30.000Z</time>
      </trkpt>
      <trkpt lat="47.01614" lon="3.31884">
        <ele>272.17318725586</ele>
        <time>2016-03-02T14:25:33.000Z</time>
      </trkpt>
      <trkpt lat="47.01616" lon="3.31885">
        <ele>272.19750976562</ele>
        <time>2016-03-02T14:25:35.000Z</time>
      </trkpt>
      <trkpt lat="47.01619" lon="3.31886">
        <ele>272.22100830078</ele>
        <time>2016-03-02T14:25:37.000Z</time>
      </trkpt>
      <trkpt lat="47.01622" lon="3.3189">
        <ele>272.24932861328</ele>
        <time>2016-03-02T14:25:40.000Z</time>
      </trkpt>
      <trkpt lat="47.01625" lon="3.31895">
        <ele>272.28286743164</ele>
        <time>2016-03-02T14:25:43.000Z</time>
      </trkpt>
      <trkpt lat="47.01627" lon="3.31899">
        <ele>272.32049560547</ele>
        <time>2016-03-02T14:25:46.000Z</time>
      </trkpt>
      <trkpt lat="47.01629" lon="3.31901">
        <ele>272.36151123047</ele>
        <time>2016-03-02T14:25:48.000Z</time>
      </trkpt>
      <trkpt lat="47.01632" lon="3.31901">
        <ele>272.40231323242</ele>
        <time>2016-03-02T14:25:51.000Z</time>
      </trkpt>
      <trkpt lat="47.01631" lon="3.31903">
        <ele>272.43548583984</ele>
        <time>2016-03-02T14:25:58.000Z</time>
      </trkpt>
      <trkpt lat="47.0163" lon="3.31904">
        <ele>272.45758056641</ele>
        <time>2016-03-02T14:26:11.000Z</time>
      </trkpt>
      <trkpt lat="47.01631" lon="3.31905">
        <ele>272.47387695312</ele>
        <time>2016-03-02T14:26:30.000Z</time>
      </trkpt>
      <trkpt lat="47.01632" lon="3.31906">
        <ele>272.48654174805</ele>
        <time>2016-03-02T14:26:38.000Z</time>
      </trkpt>
      <trkpt lat="47.01632" lon="3.31904">
        <ele>272.49197387695</ele>
        <time>2016-03-02T14:26:51.000Z</time>
      </trkpt>
      <trkpt lat="47.01633" lon="3.31905">
        <ele>272.49758911133</ele>
        <time>2016-03-02T14:27:03.000Z</time>
      </trkpt>
      <trkpt lat="47.01634" lon="3.31906">
        <ele>272.50839233398</ele>
        <time>2016-03-02T14:27:05.000Z</time>
      </trkpt>
      <trkpt lat="47.01636" lon="3.31908">
        <ele>272.5227355957</ele>
        <time>2016-03-02T14:27:08.000Z</time>
      </trkpt>
      <trkpt lat="47.01636" lon="3.3191">
        <ele>272.53704833984</ele>
        <time>2016-03-02T14:27:15.000Z</time>
      </trkpt>
      <trkpt lat="47.01638" lon="3.31912">
        <ele>272.56103515625</ele>
        <time>2016-03-02T14:27:18.000Z</time>
      </trkpt>
      <trkpt lat="47.01639" lon="3.31914">
        <ele>272.58843994141</ele>
        <time>2016-03-02T14:27:20.000Z</time>
      </trkpt>
      <trkpt lat="47.0164" lon="3.31916">
        <ele>272.61614990234</ele>
        <time>2016-03-02T14:27:23.000Z</time>
      </trkpt>
      <trkpt lat="47.01641" lon="3.31917">
        <ele>272.63751220703</ele>
        <time>2016-03-02T14:27:25.000Z</time>
      </trkpt>
      <trkpt lat="47.01642" lon="3.31919">
        <ele>272.65075683594</ele>
        <time>2016-03-02T14:27:29.000Z</time>
      </trkpt>
      <trkpt lat="47.01643" lon="3.31922">
        <ele>272.64337158203</ele>
        <time>2016-03-02T14:27:32.000Z</time>
      </trkpt>
      <trkpt lat="47.01644" lon="3.31924">
        <ele>272.62066650391</ele>
        <time>2016-03-02T14:27:34.000Z</time>
      </trkpt>
      <trkpt lat="47.01644" lon="3.31925">
        <ele>272.58587646484</ele>
        <time>2016-03-02T14:27:36.000Z</time>
      </trkpt>
      <trkpt lat="47.01645" lon="3.31927">
        <ele>272.54223632812</ele>
        <time>2016-03-02T14:27:39.000Z</time>
      </trkpt>
      <trkpt lat="47.01646" lon="3.31929">
        <ele>272.49694824219</ele>
        <time>2016-03-02T14:27:42.000Z</time>
      </trkpt>
      <trkpt lat="47.01647" lon="3.31932">
        <ele>272.45086669922</ele>
        <time>2016-03-02T14:27:45.000Z</time>
      </trkpt>
      <trkpt lat="47.01648" lon="3.31936">
        <ele>272.39703369141</ele>
        <time>2016-03-02T14:27:48.000Z</time>
      </trkpt>
      <trkpt lat="47.01649" lon="3.31938">
        <ele>272.34359741211</ele>
        <time>2016-03-02T14:27:50.000Z</time>
      </trkpt>
      <trkpt lat="47.01653" lon="3.31943">
        <ele>272.27938842773</ele>
        <time>2016-03-02T14:27:53.000Z</time>
      </trkpt>
      <trkpt lat="47.01655" lon="3.31949">
        <ele>272.20343017578</ele>
        <time>2016-03-02T14:27:56.000Z</time>
      </trkpt>
      <trkpt lat="47.01656" lon="3.31951">
        <ele>272.13333129883</ele>
        <time>2016-03-02T14:27:58.000Z</time>
      </trkpt>
      <trkpt lat="47.01658" lon="3.31953">
        <ele>272.07470703125</ele>
        <time>2016-03-02T14:28:01.000Z</time>
      </trkpt>
      <trkpt lat="47.01659" lon="3.31955">
        <ele>272.0182800293</ele>
        <time>2016-03-02T14:28:03.000Z</time>
      </trkpt>
      <trkpt lat="47.01661" lon="3.31958">
        <ele>271.9723815918</ele>
        <time>2016-03-02T14:28:06.000Z</time>
      </trkpt>
      <trkpt lat="47.01663" lon="3.31963">
        <ele>271.93106079102</ele>
        <time>2016-03-02T14:28:09.000Z</time>
      </trkpt>
      <trkpt lat="47.01665" lon="3.31966">
        <ele>271.88745117188</ele>
        <time>2016-03-02T14:28:12.000Z</time>
      </trkpt>
      <trkpt lat="47.01667" lon="3.31971">
        <ele>271.83941650391</ele>
        <time>2016-03-02T14:28:15.000Z</time>
      </trkpt>
      <trkpt lat="47.01669" lon="3.31973">
        <ele>271.79165649414</ele>
        <time>2016-03-02T14:28:17.000Z</time>
      </trkpt>
      <trkpt lat="47.0167" lon="3.31978">
        <ele>271.73587036133</ele>
        <time>2016-03-02T14:28:20.000Z</time>
      </trkpt>
      <trkpt lat="47.01672" lon="3.31984">
        <ele>271.68084716797</ele>
        <time>2016-03-02T14:28:23.000Z</time>
      </trkpt>
      <trkpt lat="47.01673" lon="3.31987">
        <ele>271.62927246094</ele>
        <time>2016-03-02T14:28:26.000Z</time>
      </trkpt>
      <trkpt lat="47.01673" lon="3.31988">
        <ele>271.58325195312</ele>
        <time>2016-03-02T14:28:28.000Z</time>
      </trkpt>
      <trkpt lat="47.01675" lon="3.31994">
        <ele>271.53173828125</ele>
        <time>2016-03-02T14:28:31.000Z</time>
      </trkpt>
      <trkpt lat="47.01677" lon="3.31997">
        <ele>271.49255371094</ele>
        <time>2016-03-02T14:28:33.000Z</time>
      </trkpt>
      <trkpt lat="47.01678" lon="3.32001">
        <ele>271.46069335938</ele>
        <time>2016-03-02T14:28:35.000Z</time>
      </trkpt>
      <trkpt lat="47.0168" lon="3.32005">
        <ele>271.43832397461</ele>
        <time>2016-03-02T14:28:38.000Z</time>
      </trkpt>
      <trkpt lat="47.01682" lon="3.32009">
        <ele>271.41744995117</ele>
        <time>2016-03-02T14:28:41.000Z</time>
      </trkpt>
      <trkpt lat="47.01684" lon="3.32013">
        <ele>271.40063476562</ele>
        <time>2016-03-02T14:28:44.000Z</time>
      </trkpt>
      <trkpt lat="47.01685" lon="3.32016">
        <ele>271.38473510742</ele>
        <time>2016-03-02T14:28:46.000Z</time>
      </trkpt>
      <trkpt lat="47.01687" lon="3.32021">
        <ele>271.36614990234</ele>
        <time>2016-03-02T14:28:49.000Z</time>
      </trkpt>
      <trkpt lat="47.01688" lon="3.32023">
        <ele>271.33847045898</ele>
        <time>2016-03-02T14:28:51.000Z</time>
      </trkpt>
      <trkpt lat="47.0169" lon="3.32028">
        <ele>271.30267333984</ele>
        <time>2016-03-02T14:28:54.000Z</time>
      </trkpt>
      <trkpt lat="47.01691" lon="3.32031">
        <ele>271.2668762207</ele>
        <time>2016-03-02T14:28:56.000Z</time>
      </trkpt>
      <trkpt lat="47.01693" lon="3.32035">
        <ele>271.22076416016</ele>
        <time>2016-03-02T14:28:59.000Z</time>
      </trkpt>
      <trkpt lat="47.01694" lon="3.32038">
        <ele>271.17227172852</ele>
        <time>2016-03-02T14:29:02.000Z</time>
      </trkpt>
      <trkpt lat="47.01695" lon="3.32043">
        <ele>271.11337280273</ele>
        <time>2016-03-02T14:29:05.000Z</time>
      </trkpt>
      <trkpt lat="47.01696" lon="3.32046">
        <ele>271.05383300781</ele>
        <time>2016-03-02T14:29:08.000Z</time>
      </trkpt>
      <trkpt lat="47.01698" lon="3.32049">
        <ele>270.99032592773</ele>
        <time>2016-03-02T14:29:10.000Z</time>
      </trkpt>
      <trkpt lat="47.01701" lon="3.32053">
        <ele>270.92724609375</ele>
        <time>2016-03-02T14:29:13.000Z</time>
      </trkpt>
      <trkpt lat="47.01702" lon="3.32056">
        <ele>270.86279296875</ele>
        <time>2016-03-02T14:29:15.000Z</time>
      </trkpt>
      <trkpt lat="47.01704" lon="3.3206">
        <ele>270.79669189453</ele>
        <time>2016-03-02T14:29:18.000Z</time>
      </trkpt>
      <trkpt lat="47.01705" lon="3.32063">
        <ele>270.73080444336</ele>
        <time>2016-03-02T14:29:20.000Z</time>
      </trkpt>
      <trkpt lat="47.01707" lon="3.32065">
        <ele>270.66156005859</ele>
        <time>2016-03-02T14:29:22.000Z</time>
      </trkpt>
      <trkpt lat="47.01707" lon="3.3207">
        <ele>270.58074951172</ele>
        <time>2016-03-02T14:29:25.000Z</time>
      </trkpt>
      <trkpt lat="47.01708" lon="3.32073">
        <ele>270.49542236328</ele>
        <time>2016-03-02T14:29:27.000Z</time>
      </trkpt>
      <trkpt lat="47.01709" lon="3.32076">
        <ele>270.4091796875</ele>
        <time>2016-03-02T14:29:29.000Z</time>
      </trkpt>
      <trkpt lat="47.01711" lon="3.32081">
        <ele>270.3076171875</ele>
        <time>2016-03-02T14:29:32.000Z</time>
      </trkpt>
      <trkpt lat="47.01712" lon="3.32083">
        <ele>270.20288085938</ele>
        <time>2016-03-02T14:29:34.000Z</time>
      </trkpt>
      <trkpt lat="47.01712" lon="3.32087">
        <ele>270.11102294922</ele>
        <time>2016-03-02T14:29:38.000Z</time>
      </trkpt>
      <trkpt lat="47.01713" lon="3.3209">
        <ele>270.02560424805</ele>
        <time>2016-03-02T14:29:40.000Z</time>
      </trkpt>
      <trkpt lat="47.01715" lon="3.32094">
        <ele>269.94735717773</ele>
        <time>2016-03-02T14:29:43.000Z</time>
      </trkpt>
      <trkpt lat="47.01718" lon="3.32097">
        <ele>269.88510131836</ele>
        <time>2016-03-02T14:29:46.000Z</time>
      </trkpt>
      <trkpt lat="47.01721" lon="3.32101">
        <ele>269.82904052734</ele>
        <time>2016-03-02T14:29:49.000Z</time>
      </trkpt>
      <trkpt lat="47.01723" lon="3.32105">
        <ele>269.77349853516</ele>
        <time>2016-03-02T14:29:52.000Z</time>
      </trkpt>
      <trkpt lat="47.01724" lon="3.32108">
        <ele>269.71908569336</ele>
        <time>2016-03-02T14:29:54.000Z</time>
      </trkpt>
      <trkpt lat="47.01725" lon="3.32109">
        <ele>269.67169189453</ele>
        <time>2016-03-02T14:29:56.000Z</time>
      </trkpt>
      <trkpt lat="47.01726" lon="3.32113">
        <ele>269.62649536133</ele>
        <time>2016-03-02T14:29:59.000Z</time>
      </trkpt>
      <trkpt lat="47.01727" lon="3.32115">
        <ele>269.58407592773</ele>
        <time>2016-03-02T14:30:01.000Z</time>
      </trkpt>
      <trkpt lat="47.01728" lon="3.3212">
        <ele>269.54168701172</ele>
        <time>2016-03-02T14:30:04.000Z</time>
      </trkpt>
      <trkpt lat="47.01729" lon="3.32123">
        <ele>269.49896240234</ele>
        <time>2016-03-02T14:30:06.000Z</time>
      </trkpt>
      <trkpt lat="47.01731" lon="3.32127">
        <ele>269.45031738281</ele>
        <time>2016-03-02T14:30:08.000Z</time>
      </trkpt>
      <trkpt lat="47.01734" lon="3.32131">
        <ele>269.40347290039</ele>
        <time>2016-03-02T14:30:11.000Z</time>
      </trkpt>
      <trkpt lat="47.01736" lon="3.32135">
        <ele>269.35952758789</ele>
        <time>2016-03-02T14:30:14.000Z</time>
      </trkpt>
      <trkpt lat="47.01738" lon="3.32137">
        <ele>269.32208251953</ele>
        <time>2016-03-02T14:30:17.000Z</time>
      </trkpt>
      <trkpt lat="47.0174" lon="3.32139">
        <ele>269.29119873047</ele>
        <time>2016-03-02T14:30:19.000Z</time>
      </trkpt>
      <trkpt lat="47.01741" lon="3.32141">
        <ele>269.26861572266</ele>
        <time>2016-03-02T14:30:21.000Z</time>
      </trkpt>
      <trkpt lat="47.01743" lon="3.32145">
        <ele>269.24642944336</ele>
        <time>2016-03-02T14:30:24.000Z</time>
      </trkpt>
      <trkpt lat="47.01746" lon="3.32149">
        <ele>269.22543334961</ele>
        <time>2016-03-02T14:30:27.000Z</time>
      </trkpt>
      <trkpt lat="47.01749" lon="3.32151">
        <ele>269.20782470703</ele>
        <time>2016-03-02T14:30:30.000Z</time>
      </trkpt>
      <trkpt lat="47.01752" lon="3.32153">
        <ele>269.19888305664</ele>
        <time>2016-03-02T14:30:33.000Z</time>
      </trkpt>
      <trkpt lat="47.01754" lon="3.32153">
        <ele>269.20208740234</ele>
        <time>2016-03-02T14:30:36.000Z</time>
      </trkpt>
      <trkpt lat="47.01755" lon="3.32153">
        <ele>269.216796875</ele>
        <time>2016-03-02T14:30:46.000Z</time>
      </trkpt>
      <trkpt lat="47.01756" lon="3.32151">
        <ele>269.24310302734</ele>
        <time>2016-03-02T14:30:48.000Z</time>
      </trkpt>
      <trkpt lat="47.01756" lon="3.32151">
        <ele>269.24310302734</ele>
        <time>2016-03-02T14:31:08.000Z</time>
      </trkpt>
      <trkpt lat="47.01753" lon="3.3215">
        <ele>269.26287841797</ele>
        <time>2016-03-02T14:31:24.000Z</time>
      </trkpt>
      <trkpt lat="47.01754" lon="3.3215">
        <ele>269.28540039062</ele>
        <time>2016-03-02T14:31:36.000Z</time>
      </trkpt>
      <trkpt lat="47.01757" lon="3.3215">
        <ele>269.30682373047</ele>
        <time>2016-03-02T14:31:48.000Z</time>
      </trkpt>
      <trkpt lat="47.01758" lon="3.32149">
        <ele>269.33148193359</ele>
        <time>2016-03-02T14:31:53.000Z</time>
      </trkpt>
      <trkpt lat="47.01759" lon="3.32149">
        <ele>269.35455322266</ele>
        <time>2016-03-02T14:31:56.000Z</time>
      </trkpt>
      <trkpt lat="47.01759" lon="3.32148">
        <ele>269.39080810547</ele>
        <time>2016-03-02T14:32:15.000Z</time>
      </trkpt>
      <trkpt lat="47.01761" lon="3.32145">
        <ele>269.43206787109</ele>
        <time>2016-03-02T14:32:17.000Z</time>
      </trkpt>
      <trkpt lat="47.01762" lon="3.32143">
        <ele>269.47540283203</ele>
        <time>2016-03-02T14:32:19.000Z</time>
      </trkpt>
      <trkpt lat="47.01766" lon="3.32141">
        <ele>269.53509521484</ele>
        <time>2016-03-02T14:32:22.000Z</time>
      </trkpt>
      <trkpt lat="47.01767" lon="3.32139">
        <ele>269.5966796875</ele>
        <time>2016-03-02T14:32:24.000Z</time>
      </trkpt>
      <trkpt lat="47.0177" lon="3.32135">
        <ele>269.67694091797</ele>
        <time>2016-03-02T14:32:27.000Z</time>
      </trkpt>
      <trkpt lat="47.01772" lon="3.32133">
        <ele>269.76043701172</ele>
        <time>2016-03-02T14:32:30.000Z</time>
      </trkpt>
      <trkpt lat="47.01775" lon="3.3213">
        <ele>269.85418701172</ele>
        <time>2016-03-02T14:32:33.000Z</time>
      </trkpt>
      <trkpt lat="47.01778" lon="3.32127">
        <ele>269.94647216797</ele>
        <time>2016-03-02T14:32:36.000Z</time>
      </trkpt>
      <trkpt lat="47.01781" lon="3.32125">
        <ele>270.04809570312</ele>
        <time>2016-03-02T14:32:38.000Z</time>
      </trkpt>
      <trkpt lat="47.01783" lon="3.32124">
        <ele>270.13458251953</ele>
        <time>2016-03-02T14:32:40.000Z</time>
      </trkpt>
      <trkpt lat="47.01785" lon="3.32122">
        <ele>270.22186279297</ele>
        <time>2016-03-02T14:32:43.000Z</time>
      </trkpt>
      <trkpt lat="47.01788" lon="3.32121">
        <ele>270.3056640625</ele>
        <time>2016-03-02T14:32:46.000Z</time>
      </trkpt>
      <trkpt lat="47.01791" lon="3.32118">
        <ele>270.38812255859</ele>
        <time>2016-03-02T14:32:49.000Z</time>
      </trkpt>
      <trkpt lat="47.01793" lon="3.32116">
        <ele>270.46868896484</ele>
        <time>2016-03-02T14:32:52.000Z</time>
      </trkpt>
      <trkpt lat="47.01796" lon="3.32113">
        <ele>270.56182861328</ele>
        <time>2016-03-02T14:32:55.000Z</time>
      </trkpt>
      <trkpt lat="47.01801" lon="3.32109">
        <ele>270.66693115234</ele>
        <time>2016-03-02T14:32:58.000Z</time>
      </trkpt>
      <trkpt lat="47.01803" lon="3.32106">
        <ele>270.77606201172</ele>
        <time>2016-03-02T14:33:01.000Z</time>
      </trkpt>
      <trkpt lat="47.01806" lon="3.32104">
        <ele>270.88256835938</ele>
        <time>2016-03-02T14:33:03.000Z</time>
      </trkpt>
      <trkpt lat="47.01809" lon="3.32102">
        <ele>270.98895263672</ele>
        <time>2016-03-02T14:33:05.000Z</time>
      </trkpt>
      <trkpt lat="47.0181" lon="3.32102">
        <ele>271.08160400391</ele>
        <time>2016-03-02T14:33:07.000Z</time>
      </trkpt>
      <trkpt lat="47.01812" lon="3.32099">
        <ele>271.16381835938</ele>
        <time>2016-03-02T14:33:10.000Z</time>
      </trkpt>
      <trkpt lat="47.01815" lon="3.32097">
        <ele>271.23956298828</ele>
        <time>2016-03-02T14:33:12.000Z</time>
      </trkpt>
      <trkpt lat="47.01817" lon="3.32095">
        <ele>271.30926513672</ele>
        <time>2016-03-02T14:33:15.000Z</time>
      </trkpt>
      <trkpt lat="47.0182" lon="3.32093">
        <ele>271.384765625</ele>
        <time>2016-03-02T14:33:18.000Z</time>
      </trkpt>
      <trkpt lat="47.01823" lon="3.3209">
        <ele>271.47305297852</ele>
        <time>2016-03-02T14:33:21.000Z</time>
      </trkpt>
      <trkpt lat="47.01824" lon="3.32089">
        <ele>271.55239868164</ele>
        <time>2016-03-02T14:33:23.000Z</time>
      </trkpt>
      <trkpt lat="47.01827" lon="3.32088">
        <ele>271.63256835938</ele>
        <time>2016-03-02T14:33:26.000Z</time>
      </trkpt>
      <trkpt lat="47.0183" lon="3.32085">
        <ele>271.7236328125</ele>
        <time>2016-03-02T14:33:29.000Z</time>
      </trkpt>
      <trkpt lat="47.01834" lon="3.32081">
        <ele>271.82934570312</ele>
        <time>2016-03-02T14:33:32.000Z</time>
      </trkpt>
      <trkpt lat="47.01836" lon="3.32078">
        <ele>271.95794677734</ele>
        <time>2016-03-02T14:33:35.000Z</time>
      </trkpt>
      <trkpt lat="47.01839" lon="3.32076">
        <ele>272.11517333984</ele>
        <time>2016-03-02T14:33:38.000Z</time>
      </trkpt>
      <trkpt lat="47.01841" lon="3.32074">
        <ele>272.28717041016</ele>
        <time>2016-03-02T14:33:41.000Z</time>
      </trkpt>
      <trkpt lat="47.01843" lon="3.32072">
        <ele>272.4680480957</ele>
        <time>2016-03-02T14:33:43.000Z</time>
      </trkpt>
      <trkpt lat="47.01845" lon="3.32069">
        <ele>272.64825439453</ele>
        <time>2016-03-02T14:33:45.000Z</time>
      </trkpt>
      <trkpt lat="47.01847" lon="3.32067">
        <ele>272.82070922852</ele>
        <time>2016-03-02T14:33:47.000Z</time>
      </trkpt>
      <trkpt lat="47.0185" lon="3.32064">
        <ele>272.998046875</ele>
        <time>2016-03-02T14:33:50.000Z</time>
      </trkpt>
      <trkpt lat="47.01853" lon="3.32061">
        <ele>273.18572998047</ele>
        <time>2016-03-02T14:33:53.000Z</time>
      </trkpt>
      <trkpt lat="47.01855" lon="3.3206">
        <ele>273.36776733398</ele>
        <time>2016-03-02T14:33:55.000Z</time>
      </trkpt>
      <trkpt lat="47.01857" lon="3.32058">
        <ele>273.53765869141</ele>
        <time>2016-03-02T14:33:57.000Z</time>
      </trkpt>
      <trkpt lat="47.01859" lon="3.32056">
        <ele>273.70513916016</ele>
        <time>2016-03-02T14:34:00.000Z</time>
      </trkpt>
      <trkpt lat="47.01861" lon="3.32055">
        <ele>273.85043334961</ele>
        <time>2016-03-02T14:34:02.000Z</time>
      </trkpt>
      <trkpt lat="47.01863" lon="3.32055">
        <ele>273.98471069336</ele>
        <time>2016-03-02T14:34:05.000Z</time>
      </trkpt>
      <trkpt lat="47.01865" lon="3.32057">
        <ele>274.10189819336</ele>
        <time>2016-03-02T14:34:08.000Z</time>
      </trkpt>
      <trkpt lat="47.01868" lon="3.3206">
        <ele>274.21362304688</ele>
        <time>2016-03-02T14:34:11.000Z</time>
      </trkpt>
      <trkpt lat="47.0187" lon="3.32063">
        <ele>274.30487060547</ele>
        <time>2016-03-02T14:34:13.000Z</time>
      </trkpt>
      <trkpt lat="47.01871" lon="3.32065">
        <ele>274.38201904297</ele>
        <time>2016-03-02T14:34:15.000Z</time>
      </trkpt>
      <trkpt lat="47.01874" lon="3.32069">
        <ele>274.45123291016</ele>
        <time>2016-03-02T14:34:18.000Z</time>
      </trkpt>
      <trkpt lat="47.01875" lon="3.32072">
        <ele>274.52282714844</ele>
        <time>2016-03-02T14:34:20.000Z</time>
      </trkpt>
      <trkpt lat="47.01877" lon="3.32073">
        <ele>274.58715820312</ele>
        <time>2016-03-02T14:34:22.000Z</time>
      </trkpt>
      <trkpt lat="47.01879" lon="3.32076">
        <ele>274.65536499023</ele>
        <time>2016-03-02T14:34:25.000Z</time>
      </trkpt>
      <trkpt lat="47.0188" lon="3.32078">
        <ele>274.73150634766</ele>
        <time>2016-03-02T14:34:27.000Z</time>
      </trkpt>
      <trkpt lat="47.01882" lon="3.32081">
        <ele>274.80310058594</ele>
        <time>2016-03-02T14:34:30.000Z</time>
      </trkpt>
      <trkpt lat="47.01884" lon="3.32083">
        <ele>274.87725830078</ele>
        <time>2016-03-02T14:34:32.000Z</time>
      </trkpt>
      <trkpt lat="47.01886" lon="3.32087">
        <ele>274.96197509766</ele>
        <time>2016-03-02T14:34:35.000Z</time>
      </trkpt>
      <trkpt lat="47.01887" lon="3.32088">
        <ele>275.03680419922</ele>
        <time>2016-03-02T14:34:37.000Z</time>
      </trkpt>
      <trkpt lat="47.0189" lon="3.32092">
        <ele>275.11627197266</ele>
        <time>2016-03-02T14:34:40.000Z</time>
      </trkpt>
      <trkpt lat="47.01892" lon="3.32095">
        <ele>275.19525146484</ele>
        <time>2016-03-02T14:34:43.000Z</time>
      </trkpt>
      <trkpt lat="47.01893" lon="3.32099">
        <ele>275.27020263672</ele>
        <time>2016-03-02T14:34:45.000Z</time>
      </trkpt>
      <trkpt lat="47.01896" lon="3.32104">
        <ele>275.34191894531</ele>
        <time>2016-03-02T14:34:49.000Z</time>
      </trkpt>
      <trkpt lat="47.01897" lon="3.32106">
        <ele>275.41094970703</ele>
        <time>2016-03-02T14:34:50.000Z</time>
      </trkpt>
      <trkpt lat="47.01898" lon="3.32109">
        <ele>275.46923828125</ele>
        <time>2016-03-02T14:34:52.000Z</time>
      </trkpt>
      <trkpt lat="47.01899" lon="3.32111">
        <ele>275.52099609375</ele>
        <time>2016-03-02T14:34:54.000Z</time>
      </trkpt>
      <trkpt lat="47.019" lon="3.32114">
        <ele>275.57330322266</ele>
        <time>2016-03-02T14:34:57.000Z</time>
      </trkpt>
      <trkpt lat="47.01902" lon="3.32118">
        <ele>275.6123046875</ele>
        <time>2016-03-02T14:35:00.000Z</time>
      </trkpt>
      <trkpt lat="47.01904" lon="3.32121">
        <ele>275.65948486328</ele>
        <time>2016-03-02T14:35:02.000Z</time>
      </trkpt>
      <trkpt lat="47.01905" lon="3.32125">
        <ele>275.71221923828</ele>
        <time>2016-03-02T14:35:05.000Z</time>
      </trkpt>
      <trkpt lat="47.01908" lon="3.32129">
        <ele>275.78009033203</ele>
        <time>2016-03-02T14:35:08.000Z</time>
      </trkpt>
      <trkpt lat="47.01911" lon="3.32132">
        <ele>275.86288452148</ele>
        <time>2016-03-02T14:35:11.000Z</time>
      </trkpt>
      <trkpt lat="47.01913" lon="3.32135">
        <ele>275.95932006836</ele>
        <time>2016-03-02T14:35:13.000Z</time>
      </trkpt>
      <trkpt lat="47.01915" lon="3.32139">
        <ele>276.05889892578</ele>
        <time>2016-03-02T14:35:16.000Z</time>
      </trkpt>
      <trkpt lat="47.01918" lon="3.32142">
        <ele>276.15692138672</ele>
        <time>2016-03-02T14:35:19.000Z</time>
      </trkpt>
      <trkpt lat="47.0192" lon="3.32145">
        <ele>276.23028564453</ele>
        <time>2016-03-02T14:35:22.000Z</time>
      </trkpt>
      <trkpt lat="47.01923" lon="3.32149">
        <ele>276.27786254883</ele>
        <time>2016-03-02T14:35:25.000Z</time>
      </trkpt>
      <trkpt lat="47.01925" lon="3.32152">
        <ele>276.31021118164</ele>
        <time>2016-03-02T14:35:27.000Z</time>
      </trkpt>
      <trkpt lat="47.01926" lon="3.32154">
        <ele>276.32696533203</ele>
        <time>2016-03-02T14:35:29.000Z</time>
      </trkpt>
      <trkpt lat="47.01929" lon="3.32159">
        <ele>276.33746337891</ele>
        <time>2016-03-02T14:35:32.000Z</time>
      </trkpt>
      <trkpt lat="47.01931" lon="3.32162">
        <ele>276.35165405273</ele>
        <time>2016-03-02T14:35:35.000Z</time>
      </trkpt>
      <trkpt lat="47.01934" lon="3.32166">
        <ele>276.36874389648</ele>
        <time>2016-03-02T14:35:38.000Z</time>
      </trkpt>
      <trkpt lat="47.01935" lon="3.32168">
        <ele>276.38818359375</ele>
        <time>2016-03-02T14:35:40.000Z</time>
      </trkpt>
      <trkpt lat="47.01936" lon="3.3217">
        <ele>276.41577148438</ele>
        <time>2016-03-02T14:35:42.000Z</time>
      </trkpt>
      <trkpt lat="47.01938" lon="3.32173">
        <ele>276.44476318359</ele>
        <time>2016-03-02T14:35:45.000Z</time>
      </trkpt>
      <trkpt lat="47.01941" lon="3.32176">
        <ele>276.48300170898</ele>
        <time>2016-03-02T14:35:48.000Z</time>
      </trkpt>
      <trkpt lat="47.01944" lon="3.3218">
        <ele>276.533203125</ele>
        <time>2016-03-02T14:35:51.000Z</time>
      </trkpt>
      <trkpt lat="47.01945" lon="3.32182">
        <ele>276.583984375</ele>
        <time>2016-03-02T14:35:53.000Z</time>
      </trkpt>
      <trkpt lat="47.01947" lon="3.32185">
        <ele>276.634765625</ele>
        <time>2016-03-02T14:35:55.000Z</time>
      </trkpt>
      <trkpt lat="47.0195" lon="3.3219">
        <ele>276.69140625</ele>
        <time>2016-03-02T14:35:58.000Z</time>
      </trkpt>
      <trkpt lat="47.01952" lon="3.32192">
        <ele>276.7421875</ele>
        <time>2016-03-02T14:36:01.000Z</time>
      </trkpt>
      <trkpt lat="47.01953" lon="3.32194">
        <ele>276.783203125</ele>
        <time>2016-03-02T14:36:03.000Z</time>
      </trkpt>
      <trkpt lat="47.01955" lon="3.32197">
        <ele>276.83203125</ele>
        <time>2016-03-02T14:36:06.000Z</time>
      </trkpt>
      <trkpt lat="47.01958" lon="3.322">
        <ele>276.884765625</ele>
        <time>2016-03-02T14:36:09.000Z</time>
      </trkpt>
      <trkpt lat="47.0196" lon="3.32202">
        <ele>276.93359375</ele>
        <time>2016-03-02T14:36:12.000Z</time>
      </trkpt>
      <trkpt lat="47.01961" lon="3.32204">
        <ele>276.978515625</ele>
        <time>2016-03-02T14:36:14.000Z</time>
      </trkpt>
      <trkpt lat="47.01963" lon="3.32207">
        <ele>277.02734375</ele>
        <time>2016-03-02T14:36:17.000Z</time>
      </trkpt>
      <trkpt lat="47.01965" lon="3.3221">
        <ele>277.072265625</ele>
        <time>2016-03-02T14:36:20.000Z</time>
      </trkpt>
      <trkpt lat="47.01967" lon="3.32213">
        <ele>277.115234375</ele>
        <time>2016-03-02T14:36:23.000Z</time>
      </trkpt>
      <trkpt lat="47.01968" lon="3.32215">
        <ele>277.15625</ele>
        <time>2016-03-02T14:36:26.000Z</time>
      </trkpt>
      <trkpt lat="47.0197" lon="3.32218">
        <ele>277.19921875</ele>
        <time>2016-03-02T14:36:29.000Z</time>
      </trkpt>
      <trkpt lat="47.01972" lon="3.32223">
        <ele>277.2421875</ele>
        <time>2016-03-02T14:36:32.000Z</time>
      </trkpt>
      <trkpt lat="47.01973" lon="3.32228">
        <ele>277.283203125</ele>
        <time>2016-03-02T14:36:35.000Z</time>
      </trkpt>
      <trkpt lat="47.01974" lon="3.3223">
        <ele>277.318359375</ele>
        <time>2016-03-02T14:36:37.000Z</time>
      </trkpt>
      <trkpt lat="47.01976" lon="3.32232">
        <ele>277.3515625</ele>
        <time>2016-03-02T14:36:39.000Z</time>
      </trkpt>
      <trkpt lat="47.01977" lon="3.32232">
        <ele>277.384765625</ele>
        <time>2016-03-02T14:36:41.000Z</time>
      </trkpt>
      <trkpt lat="47.0198" lon="3.32233">
        <ele>277.42578125</ele>
        <time>2016-03-02T14:36:44.000Z</time>
      </trkpt>
      <trkpt lat="47.01982" lon="3.32235">
        <ele>277.466796875</ele>
        <time>2016-03-02T14:36:46.000Z</time>
      </trkpt>
      <trkpt lat="47.01985" lon="3.32238">
        <ele>277.51953125</ele>
        <time>2016-03-02T14:36:49.000Z</time>
      </trkpt>
      <trkpt lat="47.01989" lon="3.32242">
        <ele>277.583984375</ele>
        <time>2016-03-02T14:36:52.000Z</time>
      </trkpt>
      <trkpt lat="47.01992" lon="3.32243">
        <ele>277.658203125</ele>
        <time>2016-03-02T14:36:55.000Z</time>
      </trkpt>
      <trkpt lat="47.01994" lon="3.32244">
        <ele>277.724609375</ele>
        <time>2016-03-02T14:36:58.000Z</time>
      </trkpt>
      <trkpt lat="47.01997" lon="3.32246">
        <ele>277.794921875</ele>
        <time>2016-03-02T14:37:01.000Z</time>
      </trkpt>
      <trkpt lat="47.01998" lon="3.32247">
        <ele>277.857421875</ele>
        <time>2016-03-02T14:37:03.000Z</time>
      </trkpt>
      <trkpt lat="47.02" lon="3.32249">
        <ele>277.91131591797</ele>
        <time>2016-03-02T14:37:06.000Z</time>
      </trkpt>
      <trkpt lat="47.02002" lon="3.3225">
        <ele>277.95367431641</ele>
        <time>2016-03-02T14:37:08.000Z</time>
      </trkpt>
      <trkpt lat="47.02004" lon="3.32252">
        <ele>277.98565673828</ele>
        <time>2016-03-02T14:37:11.000Z</time>
      </trkpt>
      <trkpt lat="47.02006" lon="3.32254">
        <ele>278.00457763672</ele>
        <time>2016-03-02T14:37:13.000Z</time>
      </trkpt>
      <trkpt lat="47.02009" lon="3.32257">
        <ele>278.01480102539</ele>
        <time>2016-03-02T14:37:16.000Z</time>
      </trkpt>
      <trkpt lat="47.02011" lon="3.32259">
        <ele>278.01440429688</ele>
        <time>2016-03-02T14:37:19.000Z</time>
      </trkpt>
      <trkpt lat="47.02013" lon="3.32261">
        <ele>278.01016235352</ele>
        <time>2016-03-02T14:37:21.000Z</time>
      </trkpt>
      <trkpt lat="47.02015" lon="3.32262">
        <ele>278.00595092773</ele>
        <time>2016-03-02T14:37:23.000Z</time>
      </trkpt>
      <trkpt lat="47.02017" lon="3.32264">
        <ele>278.00286865234</ele>
        <time>2016-03-02T14:37:27.000Z</time>
      </trkpt>
      <trkpt lat="47.0202" lon="3.32267">
        <ele>278.00006103516</ele>
        <time>2016-03-02T14:37:29.000Z</time>
      </trkpt>
      <trkpt lat="47.02023" lon="3.32268">
        <ele>277.99996948242</ele>
        <time>2016-03-02T14:37:31.000Z</time>
      </trkpt>
      <trkpt lat="47.02025" lon="3.32269">
        <ele>278.00177001953</ele>
        <time>2016-03-02T14:37:33.000Z</time>
      </trkpt>
      <trkpt lat="47.02028" lon="3.3227">
        <ele>278.00500488281</ele>
        <time>2016-03-02T14:37:36.000Z</time>
      </trkpt>
      <trkpt lat="47.02029" lon="3.32271">
        <ele>278.00909423828</ele>
        <time>2016-03-02T14:37:38.000Z</time>
      </trkpt>
      <trkpt lat="47.02032" lon="3.32272">
        <ele>278.01364135742</ele>
        <time>2016-03-02T14:37:40.000Z</time>
      </trkpt>
      <trkpt lat="47.02034" lon="3.32273">
        <ele>278.01895141602</ele>
        <time>2016-03-02T14:37:43.000Z</time>
      </trkpt>
      <trkpt lat="47.02037" lon="3.32274">
        <ele>278.02239990234</ele>
        <time>2016-03-02T14:37:46.000Z</time>
      </trkpt>
      <trkpt lat="47.0204" lon="3.32275">
        <ele>278.0263671875</ele>
        <time>2016-03-02T14:37:49.000Z</time>
      </trkpt>
      <trkpt lat="47.02042" lon="3.32275">
        <ele>278.03204345703</ele>
        <time>2016-03-02T14:37:52.000Z</time>
      </trkpt>
      <trkpt lat="47.02046" lon="3.32276">
        <ele>278.03994750977</ele>
        <time>2016-03-02T14:37:55.000Z</time>
      </trkpt>
      <trkpt lat="47.02048" lon="3.32277">
        <ele>278.04672241211</ele>
        <time>2016-03-02T14:37:58.000Z</time>
      </trkpt>
      <trkpt lat="47.02051" lon="3.32278">
        <ele>278.05313110352</ele>
        <time>2016-03-02T14:38:00.000Z</time>
      </trkpt>
      <trkpt lat="47.02055" lon="3.3228">
        <ele>278.05743408203</ele>
        <time>2016-03-02T14:38:03.000Z</time>
      </trkpt>
      <trkpt lat="47.02058" lon="3.32281">
        <ele>278.06112670898</ele>
        <time>2016-03-02T14:38:05.000Z</time>
      </trkpt>
      <trkpt lat="47.02061" lon="3.32281">
        <ele>278.06442260742</ele>
        <time>2016-03-02T14:38:08.000Z</time>
      </trkpt>
      <trkpt lat="47.02063" lon="3.32282">
        <ele>278.06689453125</ele>
        <time>2016-03-02T14:38:10.000Z</time>
      </trkpt>
      <trkpt lat="47.02066" lon="3.32283">
        <ele>278.07110595703</ele>
        <time>2016-03-02T14:38:13.000Z</time>
      </trkpt>
      <trkpt lat="47.02068" lon="3.32283">
        <ele>278.07818603516</ele>
        <time>2016-03-02T14:38:16.000Z</time>
      </trkpt>
      <trkpt lat="47.02071" lon="3.32284">
        <ele>278.08435058594</ele>
        <time>2016-03-02T14:38:19.000Z</time>
      </trkpt>
      <trkpt lat="47.02076" lon="3.32285">
        <ele>278.09112548828</ele>
        <time>2016-03-02T14:38:22.000Z</time>
      </trkpt>
      <trkpt lat="47.02079" lon="3.32285">
        <ele>278.10186767578</ele>
        <time>2016-03-02T14:38:24.000Z</time>
      </trkpt>
      <trkpt lat="47.02084" lon="3.32287">
        <ele>278.10607910156</ele>
        <time>2016-03-02T14:38:27.000Z</time>
      </trkpt>
      <trkpt lat="47.02088" lon="3.32289">
        <ele>278.09841918945</ele>
        <time>2016-03-02T14:38:30.000Z</time>
      </trkpt>
      <trkpt lat="47.02092" lon="3.32292">
        <ele>278.07766723633</ele>
        <time>2016-03-02T14:38:34.000Z</time>
      </trkpt>
      <trkpt lat="47.02098" lon="3.32293">
        <ele>278.04891967773</ele>
        <time>2016-03-02T14:38:36.000Z</time>
      </trkpt>
      <trkpt lat="47.021" lon="3.32294">
        <ele>278.01354980469</ele>
        <time>2016-03-02T14:38:38.000Z</time>
      </trkpt>
      <trkpt lat="47.02103" lon="3.32295">
        <ele>277.978515625</ele>
        <time>2016-03-02T14:38:40.000Z</time>
      </trkpt>
      <trkpt lat="47.02107" lon="3.32296">
        <ele>277.94567871094</ele>
        <time>2016-03-02T14:38:43.000Z</time>
      </trkpt>
      <trkpt lat="47.02109" lon="3.32298">
        <ele>277.91723632812</ele>
        <time>2016-03-02T14:38:45.000Z</time>
      </trkpt>
      <trkpt lat="47.02111" lon="3.32298">
        <ele>277.89184570312</ele>
        <time>2016-03-02T14:38:47.000Z</time>
      </trkpt>
      <trkpt lat="47.02113" lon="3.32299">
        <ele>277.86791992188</ele>
        <time>2016-03-02T14:38:49.000Z</time>
      </trkpt>
      <trkpt lat="47.02116" lon="3.32299">
        <ele>277.84484863281</ele>
        <time>2016-03-02T14:38:52.000Z</time>
      </trkpt>
      <trkpt lat="47.02117" lon="3.32299">
        <ele>277.82922363281</ele>
        <time>2016-03-02T14:38:54.000Z</time>
      </trkpt>
      <trkpt lat="47.0212" lon="3.32301">
        <ele>277.81616210938</ele>
        <time>2016-03-02T14:38:57.000Z</time>
      </trkpt>
      <trkpt lat="47.02124" lon="3.32302">
        <ele>277.80114746094</ele>
        <time>2016-03-02T14:39:01.000Z</time>
      </trkpt>
      <trkpt lat="47.02127" lon="3.32301">
        <ele>277.78918457031</ele>
        <time>2016-03-02T14:39:03.000Z</time>
      </trkpt>
      <trkpt lat="47.02129" lon="3.323">
        <ele>277.78698730469</ele>
        <time>2016-03-02T14:39:06.000Z</time>
      </trkpt>
      <trkpt lat="47.02131" lon="3.32301">
        <ele>277.78076171875</ele>
        <time>2016-03-02T14:39:09.000Z</time>
      </trkpt>
      <trkpt lat="47.02132" lon="3.32301">
        <ele>277.77795410156</ele>
        <time>2016-03-02T14:39:11.000Z</time>
      </trkpt>
      <trkpt lat="47.02135" lon="3.32302">
        <ele>277.77612304688</ele>
        <time>2016-03-02T14:39:14.000Z</time>
      </trkpt>
      <trkpt lat="47.02137" lon="3.32304">
        <ele>277.76440429688</ele>
        <time>2016-03-02T14:39:17.000Z</time>
      </trkpt>
      <trkpt lat="47.0214" lon="3.32305">
        <ele>277.74047851562</ele>
        <time>2016-03-02T14:39:20.000Z</time>
      </trkpt>
      <trkpt lat="47.02142" lon="3.32307">
        <ele>277.71252441406</ele>
        <time>2016-03-02T14:39:23.000Z</time>
      </trkpt>
      <trkpt lat="47.02144" lon="3.32307">
        <ele>277.68359375</ele>
        <time>2016-03-02T14:39:26.000Z</time>
      </trkpt>
      <trkpt lat="47.02146" lon="3.32308">
        <ele>277.65563964844</ele>
        <time>2016-03-02T14:39:29.000Z</time>
      </trkpt>
      <trkpt lat="47.02147" lon="3.32308">
        <ele>277.63305664062</ele>
        <time>2016-03-02T14:39:31.000Z</time>
      </trkpt>
      <trkpt lat="47.02149" lon="3.32309">
        <ele>277.61547851562</ele>
        <time>2016-03-02T14:39:33.000Z</time>
      </trkpt>
      <trkpt lat="47.02152" lon="3.32309">
        <ele>277.6015625</ele>
        <time>2016-03-02T14:39:36.000Z</time>
      </trkpt>
      <trkpt lat="47.02155" lon="3.3231">
        <ele>277.58752441406</ele>
        <time>2016-03-02T14:39:38.000Z</time>
      </trkpt>
      <trkpt lat="47.02157" lon="3.3231">
        <ele>277.57629394531</ele>
        <time>2016-03-02T14:39:41.000Z</time>
      </trkpt>
      <trkpt lat="47.02159" lon="3.3231">
        <ele>277.56665039062</ele>
        <time>2016-03-02T14:39:44.000Z</time>
      </trkpt>
      <trkpt lat="47.02162" lon="3.32311">
        <ele>277.55480957031</ele>
        <time>2016-03-02T14:39:47.000Z</time>
      </trkpt>
      <trkpt lat="47.02165" lon="3.32312">
        <ele>277.54309082031</ele>
        <time>2016-03-02T14:39:50.000Z</time>
      </trkpt>
      <trkpt lat="47.02168" lon="3.32312">
        <ele>277.53363037109</ele>
        <time>2016-03-02T14:39:53.000Z</time>
      </trkpt>
      <trkpt lat="47.02173" lon="3.32314">
        <ele>277.52349853516</ele>
        <time>2016-03-02T14:39:56.000Z</time>
      </trkpt>
      <trkpt lat="47.02174" lon="3.32314">
        <ele>277.51556396484</ele>
        <time>2016-03-02T14:39:58.000Z</time>
      </trkpt>
      <trkpt lat="47.02177" lon="3.32315">
        <ele>277.51330566406</ele>
        <time>2016-03-02T14:40:00.000Z</time>
      </trkpt>
      <trkpt lat="47.0218" lon="3.32315">
        <ele>277.5202331543</ele>
        <time>2016-03-02T14:40:03.000Z</time>
      </trkpt>
      <trkpt lat="47.02181" lon="3.32316">
        <ele>277.52886962891</ele>
        <time>2016-03-02T14:40:06.000Z</time>
      </trkpt>
      <trkpt lat="47.02183" lon="3.32317">
        <ele>277.53765869141</ele>
        <time>2016-03-02T14:40:08.000Z</time>
      </trkpt>
      <trkpt lat="47.02185" lon="3.32318">
        <ele>277.54815673828</ele>
        <time>2016-03-02T14:40:10.000Z</time>
      </trkpt>
      <trkpt lat="47.02187" lon="3.3232">
        <ele>277.55850219727</ele>
        <time>2016-03-02T14:40:13.000Z</time>
      </trkpt>
      <trkpt lat="47.02188" lon="3.3232">
        <ele>277.56692504883</ele>
        <time>2016-03-02T14:40:17.000Z</time>
      </trkpt>
      <trkpt lat="47.0219" lon="3.3232">
        <ele>277.57943725586</ele>
        <time>2016-03-02T14:40:20.000Z</time>
      </trkpt>
      <trkpt lat="47.02193" lon="3.3232">
        <ele>277.5993347168</ele>
        <time>2016-03-02T14:40:22.000Z</time>
      </trkpt>
      <trkpt lat="47.02197" lon="3.32321">
        <ele>277.62731933594</ele>
        <time>2016-03-02T14:40:25.000Z</time>
      </trkpt>
      <trkpt lat="47.02199" lon="3.32322">
        <ele>277.65789794922</ele>
        <time>2016-03-02T14:40:28.000Z</time>
      </trkpt>
      <trkpt lat="47.022" lon="3.32323">
        <ele>277.69125366211</ele>
        <time>2016-03-02T14:40:30.000Z</time>
      </trkpt>
      <trkpt lat="47.02204" lon="3.32325">
        <ele>277.73364257812</ele>
        <time>2016-03-02T14:40:33.000Z</time>
      </trkpt>
      <trkpt lat="47.02213" lon="3.32331">
        <ele>277.81805419922</ele>
        <time>2016-03-02T14:40:36.000Z</time>
      </trkpt>
      <trkpt lat="47.02217" lon="3.32333">
        <ele>277.9157409668</ele>
        <time>2016-03-02T14:40:38.000Z</time>
      </trkpt>
      <trkpt lat="47.02222" lon="3.32335">
        <ele>278.01617431641</ele>
        <time>2016-03-02T14:40:41.000Z</time>
      </trkpt>
      <trkpt lat="47.02225" lon="3.32337">
        <ele>278.11370849609</ele>
        <time>2016-03-02T14:40:44.000Z</time>
      </trkpt>
      <trkpt lat="47.02228" lon="3.32338">
        <ele>278.19219970703</ele>
        <time>2016-03-02T14:40:47.000Z</time>
      </trkpt>
      <trkpt lat="47.0223" lon="3.32342">
        <ele>278.20565795898</ele>
        <time>2016-03-02T14:40:50.000Z</time>
      </trkpt>
      <trkpt lat="47.02234" lon="3.32344">
        <ele>278.1865234375</ele>
        <time>2016-03-02T14:40:53.000Z</time>
      </trkpt>
      <trkpt lat="47.02236" lon="3.32346">
        <ele>278.15380859375</ele>
        <time>2016-03-02T14:40:55.000Z</time>
      </trkpt>
      <trkpt lat="47.02239" lon="3.32348">
        <ele>278.11499023438</ele>
        <time>2016-03-02T14:40:57.000Z</time>
      </trkpt>
      <trkpt lat="47.02242" lon="3.32349">
        <ele>278.07592773438</ele>
        <time>2016-03-02T14:41:01.000Z</time>
      </trkpt>
      <trkpt lat="47.02243" lon="3.32351">
        <ele>278.041015625</ele>
        <time>2016-03-02T14:41:02.000Z</time>
      </trkpt>
      <trkpt lat="47.02246" lon="3.32354">
        <ele>278.00146484375</ele>
        <time>2016-03-02T14:41:05.000Z</time>
      </trkpt>
      <trkpt lat="47.02247" lon="3.32355">
        <ele>277.962890625</ele>
        <time>2016-03-02T14:41:07.000Z</time>
      </trkpt>
      <trkpt lat="47.0225" lon="3.32357">
        <ele>277.92175292969</ele>
        <time>2016-03-02T14:41:10.000Z</time>
      </trkpt>
      <trkpt lat="47.02252" lon="3.3236">
        <ele>277.85992431641</ele>
        <time>2016-03-02T14:41:13.000Z</time>
      </trkpt>
      <trkpt lat="47.02251" lon="3.32363">
        <ele>277.78863525391</ele>
        <time>2016-03-02T14:41:15.000Z</time>
      </trkpt>
      <trkpt lat="47.02254" lon="3.32366">
        <ele>277.70483398438</ele>
        <time>2016-03-02T14:41:18.000Z</time>
      </trkpt>
      <trkpt lat="47.02255" lon="3.32367">
        <ele>277.61877441406</ele>
        <time>2016-03-02T14:41:23.000Z</time>
      </trkpt>
      <trkpt lat="47.02255" lon="3.32369">
        <ele>277.51928710938</ele>
        <time>2016-03-02T14:41:33.000Z</time>
      </trkpt>
      <trkpt lat="47.02256" lon="3.32371">
        <ele>277.43026733398</ele>
        <time>2016-03-02T14:41:36.000Z</time>
      </trkpt>
      <trkpt lat="47.02256" lon="3.32373">
        <ele>277.34887695312</ele>
        <time>2016-03-02T14:41:38.000Z</time>
      </trkpt>
      <trkpt lat="47.02258" lon="3.32375">
        <ele>277.2805480957</ele>
        <time>2016-03-02T14:41:40.000Z</time>
      </trkpt>
      <trkpt lat="47.02259" lon="3.32376">
        <ele>277.2177734375</ele>
        <time>2016-03-02T14:41:47.000Z</time>
      </trkpt>
      <trkpt lat="47.02259" lon="3.32377">
        <ele>277.17010498047</ele>
        <time>2016-03-02T14:41:51.000Z</time>
      </trkpt>
      <trkpt lat="47.02261" lon="3.32378">
        <ele>277.13467407227</ele>
        <time>2016-03-02T14:41:54.000Z</time>
      </trkpt>
      <trkpt lat="47.02264" lon="3.3238">
        <ele>277.10775756836</ele>
        <time>2016-03-02T14:41:56.000Z</time>
      </trkpt>
      <trkpt lat="47.02266" lon="3.32382">
        <ele>277.08999633789</ele>
        <time>2016-03-02T14:41:58.000Z</time>
      </trkpt>
      <trkpt lat="47.02268" lon="3.32385">
        <ele>277.05621337891</ele>
        <time>2016-03-02T14:42:01.000Z</time>
      </trkpt>
      <trkpt lat="47.02271" lon="3.32387">
        <ele>277.02749633789</ele>
        <time>2016-03-02T14:42:04.000Z</time>
      </trkpt>
      <trkpt lat="47.02272" lon="3.32389">
        <ele>276.99743652344</ele>
        <time>2016-03-02T14:42:06.000Z</time>
      </trkpt>
      <trkpt lat="47.02272" lon="3.32391">
        <ele>276.96392822266</ele>
        <time>2016-03-02T14:42:08.000Z</time>
      </trkpt>
      <trkpt lat="47.02274" lon="3.32393">
        <ele>276.92834472656</ele>
        <time>2016-03-02T14:42:11.000Z</time>
      </trkpt>
      <trkpt lat="47.02276" lon="3.32395">
        <ele>276.91146850586</ele>
        <time>2016-03-02T14:42:14.000Z</time>
      </trkpt>
      <trkpt lat="47.02278" lon="3.32396">
        <ele>276.90014648438</ele>
        <time>2016-03-02T14:42:16.000Z</time>
      </trkpt>
      <trkpt lat="47.02279" lon="3.32398">
        <ele>276.89324951172</ele>
        <time>2016-03-02T14:42:19.000Z</time>
      </trkpt>
      <trkpt lat="47.02282" lon="3.32401">
        <ele>276.89877319336</ele>
        <time>2016-03-02T14:42:21.000Z</time>
      </trkpt>
      <trkpt lat="47.02285" lon="3.32404">
        <ele>276.91854858398</ele>
        <time>2016-03-02T14:42:24.000Z</time>
      </trkpt>
      <trkpt lat="47.02288" lon="3.32407">
        <ele>276.94793701172</ele>
        <time>2016-03-02T14:42:27.000Z</time>
      </trkpt>
      <trkpt lat="47.0229" lon="3.32409">
        <ele>276.98141479492</ele>
        <time>2016-03-02T14:42:29.000Z</time>
      </trkpt>
      <trkpt lat="47.02291" lon="3.32411">
        <ele>277.01940917969</ele>
        <time>2016-03-02T14:42:31.000Z</time>
      </trkpt>
      <trkpt lat="47.02295" lon="3.32416">
        <ele>277.06362915039</ele>
        <time>2016-03-02T14:42:34.000Z</time>
      </trkpt>
      <trkpt lat="47.02297" lon="3.3242">
        <ele>277.08074951172</ele>
        <time>2016-03-02T14:42:37.000Z</time>
      </trkpt>
      <trkpt lat="47.02298" lon="3.32422">
        <ele>277.08096313477</ele>
        <time>2016-03-02T14:42:40.000Z</time>
      </trkpt>
      <trkpt lat="47.02301" lon="3.32426">
        <ele>277.05493164062</ele>
        <time>2016-03-02T14:42:42.000Z</time>
      </trkpt>
      <trkpt lat="47.02304" lon="3.32429">
        <ele>277.01739501953</ele>
        <time>2016-03-02T14:42:45.000Z</time>
      </trkpt>
      <trkpt lat="47.02307" lon="3.32434">
        <ele>276.94561767578</ele>
        <time>2016-03-02T14:42:48.000Z</time>
      </trkpt>
      <trkpt lat="47.02309" lon="3.32436">
        <ele>276.87957763672</ele>
        <time>2016-03-02T14:42:50.000Z</time>
      </trkpt>
      <trkpt lat="47.02311" lon="3.32439">
        <ele>276.80987548828</ele>
        <time>2016-03-02T14:42:52.000Z</time>
      </trkpt>
      <trkpt lat="47.02315" lon="3.32443">
        <ele>276.74468994141</ele>
        <time>2016-03-02T14:42:55.000Z</time>
      </trkpt>
      <trkpt lat="47.02317" lon="3.32445">
        <ele>276.67810058594</ele>
        <time>2016-03-02T14:42:58.000Z</time>
      </trkpt>
      <trkpt lat="47.02321" lon="3.32449">
        <ele>276.62438964844</ele>
        <time>2016-03-02T14:43:01.000Z</time>
      </trkpt>
      <trkpt lat="47.02323" lon="3.32451">
        <ele>276.57525634766</ele>
        <time>2016-03-02T14:43:04.000Z</time>
      </trkpt>
      <trkpt lat="47.02325" lon="3.32454">
        <ele>276.52276611328</ele>
        <time>2016-03-02T14:43:07.000Z</time>
      </trkpt>
      <trkpt lat="47.02327" lon="3.32456">
        <ele>276.47491455078</ele>
        <time>2016-03-02T14:43:09.000Z</time>
      </trkpt>
      <trkpt lat="47.0233" lon="3.32458">
        <ele>276.43530273438</ele>
        <time>2016-03-02T14:43:12.000Z</time>
      </trkpt>
      <trkpt lat="47.02335" lon="3.32463">
        <ele>276.39495849609</ele>
        <time>2016-03-02T14:43:15.000Z</time>
      </trkpt>
      <trkpt lat="47.02338" lon="3.32466">
        <ele>276.36187744141</ele>
        <time>2016-03-02T14:43:18.000Z</time>
      </trkpt>
      <trkpt lat="47.0234" lon="3.32468">
        <ele>276.33807373047</ele>
        <time>2016-03-02T14:43:21.000Z</time>
      </trkpt>
      <trkpt lat="47.02341" lon="3.3247">
        <ele>276.30844116211</ele>
        <time>2016-03-02T14:43:23.000Z</time>
      </trkpt>
      <trkpt lat="47.02343" lon="3.32473">
        <ele>276.27203369141</ele>
        <time>2016-03-02T14:43:25.000Z</time>
      </trkpt>
      <trkpt lat="47.02346" lon="3.32476">
        <ele>276.25369262695</ele>
        <time>2016-03-02T14:43:28.000Z</time>
      </trkpt>
      <trkpt lat="47.02349" lon="3.32479">
        <ele>276.23504638672</ele>
        <time>2016-03-02T14:43:31.000Z</time>
      </trkpt>
      <trkpt lat="47.02351" lon="3.32481">
        <ele>276.23052978516</ele>
        <time>2016-03-02T14:43:34.000Z</time>
      </trkpt>
      <trkpt lat="47.02352" lon="3.32483">
        <ele>276.23327636719</ele>
        <time>2016-03-02T14:43:36.000Z</time>
      </trkpt>
      <trkpt lat="47.02354" lon="3.32485">
        <ele>276.23370361328</ele>
        <time>2016-03-02T14:43:38.000Z</time>
      </trkpt>
      <trkpt lat="47.02354" lon="3.32487">
        <ele>276.21371459961</ele>
        <time>2016-03-02T14:43:41.000Z</time>
      </trkpt>
      <trkpt lat="47.02354" lon="3.32488">
        <ele>276.17944335938</ele>
        <time>2016-03-02T14:43:56.000Z</time>
      </trkpt>
      <trkpt lat="47.02355" lon="3.3249">
        <ele>276.13128662109</ele>
        <time>2016-03-02T14:43:59.000Z</time>
      </trkpt>
      <trkpt lat="47.02356" lon="3.32493">
        <ele>276.08282470703</ele>
        <time>2016-03-02T14:44:02.000Z</time>
      </trkpt>
      <trkpt lat="47.02359" lon="3.32498">
        <ele>276.03851318359</ele>
        <time>2016-03-02T14:44:05.000Z</time>
      </trkpt>
      <trkpt lat="47.02361" lon="3.325">
        <ele>276.01278686523</ele>
        <time>2016-03-02T14:44:07.000Z</time>
      </trkpt>
      <trkpt lat="47.02362" lon="3.32501">
        <ele>276.01470947266</ele>
        <time>2016-03-02T14:44:09.000Z</time>
      </trkpt>
      <trkpt lat="47.02366" lon="3.32505">
        <ele>276.04132080078</ele>
        <time>2016-03-02T14:44:12.000Z</time>
      </trkpt>
      <trkpt lat="47.02368" lon="3.32507">
        <ele>276.0910949707</ele>
        <time>2016-03-02T14:44:15.000Z</time>
      </trkpt>
      <trkpt lat="47.0237" lon="3.32509">
        <ele>276.16253662109</ele>
        <time>2016-03-02T14:44:17.000Z</time>
      </trkpt>
      <trkpt lat="47.02372" lon="3.32511">
        <ele>276.24542236328</ele>
        <time>2016-03-02T14:44:19.000Z</time>
      </trkpt>
      <trkpt lat="47.02374" lon="3.32514">
        <ele>276.31884765625</ele>
        <time>2016-03-02T14:44:22.000Z</time>
      </trkpt>
      <trkpt lat="47.02375" lon="3.32516">
        <ele>276.38128662109</ele>
        <time>2016-03-02T14:44:25.000Z</time>
      </trkpt>
      <trkpt lat="47.02377" lon="3.32519">
        <ele>276.42504882812</ele>
        <time>2016-03-02T14:44:27.000Z</time>
      </trkpt>
      <trkpt lat="47.02378" lon="3.32522">
        <ele>276.44793701172</ele>
        <time>2016-03-02T14:44:30.000Z</time>
      </trkpt>
      <trkpt lat="47.0238" lon="3.32524">
        <ele>276.46020507812</ele>
        <time>2016-03-02T14:44:32.000Z</time>
      </trkpt>
      <trkpt lat="47.02382" lon="3.32528">
        <ele>276.4697265625</ele>
        <time>2016-03-02T14:44:35.000Z</time>
      </trkpt>
      <trkpt lat="47.02382" lon="3.3253">
        <ele>276.45983886719</ele>
        <time>2016-03-02T14:44:37.000Z</time>
      </trkpt>
      <trkpt lat="47.02381" lon="3.32531">
        <ele>276.42178344727</ele>
        <time>2016-03-02T14:44:49.000Z</time>
      </trkpt>
      <trkpt lat="47.02381" lon="3.32534">
        <ele>276.37268066406</ele>
        <time>2016-03-02T14:44:52.000Z</time>
      </trkpt>
      <trkpt lat="47.02383" lon="3.32538">
        <ele>276.31997680664</ele>
        <time>2016-03-02T14:44:55.000Z</time>
      </trkpt>
      <trkpt lat="47.02385" lon="3.32538">
        <ele>276.29046630859</ele>
        <time>2016-03-02T14:44:58.000Z</time>
      </trkpt>
      <trkpt lat="47.02388" lon="3.32538">
        <ele>276.3203125</ele>
        <time>2016-03-02T14:45:01.000Z</time>
      </trkpt>
      <trkpt lat="47.0239" lon="3.32538">
        <ele>276.40509033203</ele>
        <time>2016-03-02T14:45:03.000Z</time>
      </trkpt>
      <trkpt lat="47.02391" lon="3.32537">
        <ele>276.52740478516</ele>
        <time>2016-03-02T14:45:06.000Z</time>
      </trkpt>
      <trkpt lat="47.02393" lon="3.32539">
        <ele>276.66033935547</ele>
        <time>2016-03-02T14:45:09.000Z</time>
      </trkpt>
      <trkpt lat="47.02397" lon="3.32544">
        <ele>276.79034423828</ele>
        <time>2016-03-02T14:45:12.000Z</time>
      </trkpt>
      <trkpt lat="47.02399" lon="3.32548">
        <ele>276.87969970703</ele>
        <time>2016-03-02T14:45:15.000Z</time>
      </trkpt>
      <trkpt lat="47.02401" lon="3.32549">
        <ele>276.96630859375</ele>
        <time>2016-03-02T14:45:17.000Z</time>
      </trkpt>
      <trkpt lat="47.02403" lon="3.32551">
        <ele>277.03717041016</ele>
        <time>2016-03-02T14:45:19.000Z</time>
      </trkpt>
      <trkpt lat="47.02405" lon="3.32552">
        <ele>277.11645507812</ele>
        <time>2016-03-02T14:45:21.000Z</time>
      </trkpt>
      <trkpt lat="47.02407" lon="3.32554">
        <ele>277.19134521484</ele>
        <time>2016-03-02T14:45:23.000Z</time>
      </trkpt>
      <trkpt lat="47.02409" lon="3.32556">
        <ele>277.26330566406</ele>
        <time>2016-03-02T14:45:26.000Z</time>
      </trkpt>
      <trkpt lat="47.02411" lon="3.3256">
        <ele>277.32794189453</ele>
        <time>2016-03-02T14:45:29.000Z</time>
      </trkpt>
      <trkpt lat="47.02414" lon="3.32562">
        <ele>277.40557861328</ele>
        <time>2016-03-02T14:45:32.000Z</time>
      </trkpt>
      <trkpt lat="47.02415" lon="3.32564">
        <ele>277.47369384766</ele>
        <time>2016-03-02T14:45:34.000Z</time>
      </trkpt>
      <trkpt lat="47.02418" lon="3.32566">
        <ele>277.54473876953</ele>
        <time>2016-03-02T14:45:36.000Z</time>
      </trkpt>
      <trkpt lat="47.02421" lon="3.32568">
        <ele>277.62371826172</ele>
        <time>2016-03-02T14:45:39.000Z</time>
      </trkpt>
      <trkpt lat="47.02423" lon="3.32569">
        <ele>277.70428466797</ele>
        <time>2016-03-02T14:45:42.000Z</time>
      </trkpt>
      <trkpt lat="47.02425" lon="3.32569">
        <ele>277.78451538086</ele>
        <time>2016-03-02T14:45:44.000Z</time>
      </trkpt>
      <trkpt lat="47.02428" lon="3.32571">
        <ele>277.87774658203</ele>
        <time>2016-03-02T14:45:47.000Z</time>
      </trkpt>
      <trkpt lat="47.02431" lon="3.32572">
        <ele>277.97457885742</ele>
        <time>2016-03-02T14:45:49.000Z</time>
      </trkpt>
      <trkpt lat="47.02432" lon="3.32575">
        <ele>278.05770874023</ele>
        <time>2016-03-02T14:45:53.000Z</time>
      </trkpt>
      <trkpt lat="47.02435" lon="3.3258">
        <ele>278.11935424805</ele>
        <time>2016-03-02T14:45:55.000Z</time>
      </trkpt>
      <trkpt lat="47.02436" lon="3.32581">
        <ele>278.17266845703</ele>
        <time>2016-03-02T14:45:57.000Z</time>
      </trkpt>
      <trkpt lat="47.02438" lon="3.32584">
        <ele>278.20184326172</ele>
        <time>2016-03-02T14:46:00.000Z</time>
      </trkpt>
      <trkpt lat="47.0244" lon="3.3259">
        <ele>278.19549560547</ele>
        <time>2016-03-02T14:46:04.000Z</time>
      </trkpt>
      <trkpt lat="47.02442" lon="3.32593">
        <ele>278.18353271484</ele>
        <time>2016-03-02T14:46:06.000Z</time>
      </trkpt>
      <trkpt lat="47.02443" lon="3.32595">
        <ele>278.16851806641</ele>
        <time>2016-03-02T14:46:08.000Z</time>
      </trkpt>
      <trkpt lat="47.02443" lon="3.32597">
        <ele>278.13613891602</ele>
        <time>2016-03-02T14:46:10.000Z</time>
      </trkpt>
      <trkpt lat="47.02445" lon="3.326">
        <ele>278.09674072266</ele>
        <time>2016-03-02T14:46:13.000Z</time>
      </trkpt>
      <trkpt lat="47.02447" lon="3.32603">
        <ele>278.06744384766</ele>
        <time>2016-03-02T14:46:16.000Z</time>
      </trkpt>
      <trkpt lat="47.02447" lon="3.32605">
        <ele>278.03253173828</ele>
        <time>2016-03-02T14:46:18.000Z</time>
      </trkpt>
      <trkpt lat="47.02448" lon="3.32606">
        <ele>277.99859619141</ele>
        <time>2016-03-02T14:46:20.000Z</time>
      </trkpt>
      <trkpt lat="47.02451" lon="3.32608">
        <ele>277.98849487305</ele>
        <time>2016-03-02T14:46:23.000Z</time>
      </trkpt>
      <trkpt lat="47.02453" lon="3.3261">
        <ele>277.99789428711</ele>
        <time>2016-03-02T14:46:26.000Z</time>
      </trkpt>
      <trkpt lat="47.02456" lon="3.32612">
        <ele>278.03335571289</ele>
        <time>2016-03-02T14:46:28.000Z</time>
      </trkpt>
      <trkpt lat="47.0246" lon="3.32615">
        <ele>278.09088134766</ele>
        <time>2016-03-02T14:46:30.000Z</time>
      </trkpt>
      <trkpt lat="47.02462" lon="3.32618">
        <ele>278.15875244141</ele>
        <time>2016-03-02T14:46:33.000Z</time>
      </trkpt>
      <trkpt lat="47.02464" lon="3.32622">
        <ele>278.18936157227</ele>
        <time>2016-03-02T14:46:36.000Z</time>
      </trkpt>
      <trkpt lat="47.02466" lon="3.32625">
        <ele>278.20288085938</ele>
        <time>2016-03-02T14:46:38.000Z</time>
      </trkpt>
      <trkpt lat="47.02468" lon="3.3263">
        <ele>278.18600463867</ele>
        <time>2016-03-02T14:46:41.000Z</time>
      </trkpt>
      <trkpt lat="47.02471" lon="3.32632">
        <ele>278.15594482422</ele>
        <time>2016-03-02T14:46:44.000Z</time>
      </trkpt>
      <trkpt lat="47.02473" lon="3.32635">
        <ele>278.12045288086</ele>
        <time>2016-03-02T14:46:46.000Z</time>
      </trkpt>
      <trkpt lat="47.02474" lon="3.32637">
        <ele>278.10531616211</ele>
        <time>2016-03-02T14:46:48.000Z</time>
      </trkpt>
      <trkpt lat="47.02477" lon="3.3264">
        <ele>278.08654785156</ele>
        <time>2016-03-02T14:46:51.000Z</time>
      </trkpt>
      <trkpt lat="47.02478" lon="3.32644">
        <ele>278.06579589844</ele>
        <time>2016-03-02T14:46:54.000Z</time>
      </trkpt>
      <trkpt lat="47.0248" lon="3.32646">
        <ele>278.04418945312</ele>
        <time>2016-03-02T14:46:57.000Z</time>
      </trkpt>
      <trkpt lat="47.02483" lon="3.3265">
        <ele>278.01837158203</ele>
        <time>2016-03-02T14:47:01.000Z</time>
      </trkpt>
      <trkpt lat="47.02486" lon="3.32652">
        <ele>278.00775146484</ele>
        <time>2016-03-02T14:47:03.000Z</time>
      </trkpt>
      <trkpt lat="47.02488" lon="3.32654">
        <ele>278.00546264648</ele>
        <time>2016-03-02T14:47:06.000Z</time>
      </trkpt>
      <trkpt lat="47.0249" lon="3.32655">
        <ele>278.01806640625</ele>
        <time>2016-03-02T14:47:08.000Z</time>
      </trkpt>
      <trkpt lat="47.02492" lon="3.32657">
        <ele>278.03677368164</ele>
        <time>2016-03-02T14:47:10.000Z</time>
      </trkpt>
      <trkpt lat="47.02494" lon="3.3266">
        <ele>278.05187988281</ele>
        <time>2016-03-02T14:47:13.000Z</time>
      </trkpt>
      <trkpt lat="47.02496" lon="3.32663">
        <ele>278.04742431641</ele>
        <time>2016-03-02T14:47:16.000Z</time>
      </trkpt>
      <trkpt lat="47.02499" lon="3.32666">
        <ele>278.03839111328</ele>
        <time>2016-03-02T14:47:19.000Z</time>
      </trkpt>
      <trkpt lat="47.02502" lon="3.3267">
        <ele>278.02117919922</ele>
        <time>2016-03-02T14:47:22.000Z</time>
      </trkpt>
      <trkpt lat="47.02504" lon="3.32672">
        <ele>278.00143432617</ele>
        <time>2016-03-02T14:47:24.000Z</time>
      </trkpt>
      <trkpt lat="47.02505" lon="3.32676">
        <ele>277.98126220703</ele>
        <time>2016-03-02T14:47:27.000Z</time>
      </trkpt>
      <trkpt lat="47.02507" lon="3.32678">
        <ele>277.95233154297</ele>
        <time>2016-03-02T14:47:29.000Z</time>
      </trkpt>
      <trkpt lat="47.02508" lon="3.32681">
        <ele>277.91738891602</ele>
        <time>2016-03-02T14:47:31.000Z</time>
      </trkpt>
      <trkpt lat="47.02508" lon="3.32685">
        <ele>277.85748291016</ele>
        <time>2016-03-02T14:47:34.000Z</time>
      </trkpt>
      <trkpt lat="47.02507" lon="3.32686">
        <ele>277.77722167969</ele>
        <time>2016-03-02T14:47:38.000Z</time>
      </trkpt>
      <trkpt lat="47.02506" lon="3.32688">
        <ele>277.69024658203</ele>
        <time>2016-03-02T14:47:41.000Z</time>
      </trkpt>
      <trkpt lat="47.02505" lon="3.32689">
        <ele>277.59524536133</ele>
        <time>2016-03-02T14:47:45.000Z</time>
      </trkpt>
      <trkpt lat="47.02504" lon="3.3269">
        <ele>277.49697875977</ele>
        <time>2016-03-02T14:47:48.000Z</time>
      </trkpt>
      <trkpt lat="47.02504" lon="3.3269">
        <ele>277.49697875977</ele>
        <time>2016-03-02T14:48:08.000Z</time>
      </trkpt>
      <trkpt lat="47.02503" lon="3.32691">
        <ele>277.40908813477</ele>
        <time>2016-03-02T14:48:10.000Z</time>
      </trkpt>
      <trkpt lat="47.02502" lon="3.32693">
        <ele>277.32623291016</ele>
        <time>2016-03-02T14:48:15.000Z</time>
      </trkpt>
      <trkpt lat="47.02501" lon="3.32694">
        <ele>277.24237060547</ele>
        <time>2016-03-02T14:48:17.000Z</time>
      </trkpt>
      <trkpt lat="47.025" lon="3.32695">
        <ele>277.15893554688</ele>
        <time>2016-03-02T14:48:20.000Z</time>
      </trkpt>
      <trkpt lat="47.02499" lon="3.32696">
        <ele>277.07891845703</ele>
        <time>2016-03-02T14:48:22.000Z</time>
      </trkpt>
      <trkpt lat="47.02499" lon="3.32697">
        <ele>277.00314331055</ele>
        <time>2016-03-02T14:48:25.000Z</time>
      </trkpt>
      <trkpt lat="47.02497" lon="3.32698">
        <ele>276.921875</ele>
        <time>2016-03-02T14:48:28.000Z</time>
      </trkpt>
      <trkpt lat="47.02496" lon="3.327">
        <ele>276.84048461914</ele>
        <time>2016-03-02T14:48:32.000Z</time>
      </trkpt>
      <trkpt lat="47.02494" lon="3.32701">
        <ele>276.75677490234</ele>
        <time>2016-03-02T14:48:34.000Z</time>
      </trkpt>
      <trkpt lat="47.02492" lon="3.32703">
        <ele>276.65985107422</ele>
        <time>2016-03-02T14:48:36.000Z</time>
      </trkpt>
      <trkpt lat="47.0249" lon="3.32706">
        <ele>276.54583740234</ele>
        <time>2016-03-02T14:48:38.000Z</time>
      </trkpt>
      <trkpt lat="47.02488" lon="3.32709">
        <ele>276.41122436523</ele>
        <time>2016-03-02T14:48:41.000Z</time>
      </trkpt>
      <trkpt lat="47.02482" lon="3.32712">
        <ele>276.2434387207</ele>
        <time>2016-03-02T14:48:44.000Z</time>
      </trkpt>
      <trkpt lat="47.02478" lon="3.32716">
        <ele>276.06286621094</ele>
        <time>2016-03-02T14:48:48.000Z</time>
      </trkpt>
      <trkpt lat="47.02477" lon="3.32717">
        <ele>275.88842773438</ele>
        <time>2016-03-02T14:48:49.000Z</time>
      </trkpt>
      <trkpt lat="47.02475" lon="3.32718">
        <ele>275.73089599609</ele>
        <time>2016-03-02T14:48:51.000Z</time>
      </trkpt>
      <trkpt lat="47.02474" lon="3.32719">
        <ele>275.60845947266</ele>
        <time>2016-03-02T14:48:54.000Z</time>
      </trkpt>
      <trkpt lat="47.02473" lon="3.32719">
        <ele>275.52542114258</ele>
        <time>2016-03-02T14:48:56.000Z</time>
      </trkpt>
      <trkpt lat="47.02472" lon="3.32721">
        <ele>275.46417236328</ele>
        <time>2016-03-02T14:48:58.000Z</time>
      </trkpt>
      <trkpt lat="47.02468" lon="3.32725">
        <ele>275.38589477539</ele>
        <time>2016-03-02T14:49:01.000Z</time>
      </trkpt>
      <trkpt lat="47.02466" lon="3.32727">
        <ele>275.30386352539</ele>
        <time>2016-03-02T14:49:04.000Z</time>
      </trkpt>
      <trkpt lat="47.02464" lon="3.3273">
        <ele>275.20040893555</ele>
        <time>2016-03-02T14:49:07.000Z</time>
      </trkpt>
      <trkpt lat="47.02461" lon="3.32735">
        <ele>275.08282470703</ele>
        <time>2016-03-02T14:49:10.000Z</time>
      </trkpt>
      <trkpt lat="47.0246" lon="3.32737">
        <ele>274.96441650391</ele>
        <time>2016-03-02T14:49:12.000Z</time>
      </trkpt>
      <trkpt lat="47.02458" lon="3.3274">
        <ele>274.8635559082</ele>
        <time>2016-03-02T14:49:15.000Z</time>
      </trkpt>
      <trkpt lat="47.02455" lon="3.32744">
        <ele>274.75744628906</ele>
        <time>2016-03-02T14:49:18.000Z</time>
      </trkpt>
      <trkpt lat="47.02452" lon="3.32747">
        <ele>274.65850830078</ele>
        <time>2016-03-02T14:49:22.000Z</time>
      </trkpt>
      <trkpt lat="47.02448" lon="3.3275">
        <ele>274.56747436523</ele>
        <time>2016-03-02T14:49:24.000Z</time>
      </trkpt>
      <trkpt lat="47.02445" lon="3.32756">
        <ele>274.46820068359</ele>
        <time>2016-03-02T14:49:27.000Z</time>
      </trkpt>
      <trkpt lat="47.02442" lon="3.32762">
        <ele>274.37274169922</ele>
        <time>2016-03-02T14:49:30.000Z</time>
      </trkpt>
      <trkpt lat="47.02439" lon="3.32766">
        <ele>274.29745483398</ele>
        <time>2016-03-02T14:49:32.000Z</time>
      </trkpt>
      <trkpt lat="47.02436" lon="3.32773">
        <ele>274.24563598633</ele>
        <time>2016-03-02T14:49:35.000Z</time>
      </trkpt>
      <trkpt lat="47.02433" lon="3.32777">
        <ele>274.22570800781</ele>
        <time>2016-03-02T14:49:38.000Z</time>
      </trkpt>
      <trkpt lat="47.02431" lon="3.3278">
        <ele>274.23699951172</ele>
        <time>2016-03-02T14:49:40.000Z</time>
      </trkpt>
      <trkpt lat="47.0243" lon="3.32783">
        <ele>274.27142333984</ele>
        <time>2016-03-02T14:49:42.000Z</time>
      </trkpt>
      <trkpt lat="47.02428" lon="3.32786">
        <ele>274.33197021484</ele>
        <time>2016-03-02T14:49:45.000Z</time>
      </trkpt>
      <trkpt lat="47.02426" lon="3.3279">
        <ele>274.40841674805</ele>
        <time>2016-03-02T14:49:49.000Z</time>
      </trkpt>
      <trkpt lat="47.02425" lon="3.32793">
        <ele>274.48959350586</ele>
        <time>2016-03-02T14:49:51.000Z</time>
      </trkpt>
      <trkpt lat="47.02422" lon="3.32796">
        <ele>274.59426879883</ele>
        <time>2016-03-02T14:49:53.000Z</time>
      </trkpt>
      <trkpt lat="47.0242" lon="3.32799">
        <ele>274.72036743164</ele>
        <time>2016-03-02T14:49:55.000Z</time>
      </trkpt>
      <trkpt lat="47.02418" lon="3.32803">
        <ele>274.85882568359</ele>
        <time>2016-03-02T14:49:58.000Z</time>
      </trkpt>
      <trkpt lat="47.02416" lon="3.32807">
        <ele>275.00595092773</ele>
        <time>2016-03-02T14:50:01.000Z</time>
      </trkpt>
      <trkpt lat="47.02413" lon="3.32812">
        <ele>275.12203979492</ele>
        <time>2016-03-02T14:50:04.000Z</time>
      </trkpt>
      <trkpt lat="47.02411" lon="3.32815">
        <ele>275.19805908203</ele>
        <time>2016-03-02T14:50:07.000Z</time>
      </trkpt>
      <trkpt lat="47.02409" lon="3.32818">
        <ele>275.23007202148</ele>
        <time>2016-03-02T14:50:09.000Z</time>
      </trkpt>
      <trkpt lat="47.02405" lon="3.32823">
        <ele>275.20251464844</ele>
        <time>2016-03-02T14:50:12.000Z</time>
      </trkpt>
      <trkpt lat="47.02402" lon="3.32826">
        <ele>275.13122558594</ele>
        <time>2016-03-02T14:50:15.000Z</time>
      </trkpt>
      <trkpt lat="47.024" lon="3.3283">
        <ele>275.06567382812</ele>
        <time>2016-03-02T14:50:18.000Z</time>
      </trkpt>
      <trkpt lat="47.02399" lon="3.32833">
        <ele>275.00524902344</ele>
        <time>2016-03-02T14:50:20.000Z</time>
      </trkpt>
      <trkpt lat="47.02397" lon="3.32837">
        <ele>274.91738891602</ele>
        <time>2016-03-02T14:50:23.000Z</time>
      </trkpt>
      <trkpt lat="47.02396" lon="3.32839">
        <ele>274.82562255859</ele>
        <time>2016-03-02T14:50:25.000Z</time>
      </trkpt>
      <trkpt lat="47.02395" lon="3.3284">
        <ele>274.73309326172</ele>
        <time>2016-03-02T14:50:27.000Z</time>
      </trkpt>
      <trkpt lat="47.02395" lon="3.3284">
        <ele>274.73309326172</ele>
        <time>2016-03-02T14:50:47.000Z</time>
      </trkpt>
      <trkpt lat="47.02394" lon="3.3284">
        <ele>274.6321105957</ele>
        <time>2016-03-02T14:51:01.000Z</time>
      </trkpt>
      <trkpt lat="47.02391" lon="3.32842">
        <ele>274.48895263672</ele>
        <time>2016-03-02T14:51:04.000Z</time>
      </trkpt>
      <trkpt lat="47.02389" lon="3.32845">
        <ele>274.36093139648</ele>
        <time>2016-03-02T14:51:06.000Z</time>
      </trkpt>
      <trkpt lat="47.02387" lon="3.32849">
        <ele>274.21893310547</ele>
        <time>2016-03-02T14:51:09.000Z</time>
      </trkpt>
      <trkpt lat="47.02383" lon="3.32856">
        <ele>274.03482055664</ele>
        <time>2016-03-02T14:51:12.000Z</time>
      </trkpt>
      <trkpt lat="47.02382" lon="3.3286">
        <ele>273.83676147461</ele>
        <time>2016-03-02T14:51:15.000Z</time>
      </trkpt>
      <trkpt lat="47.0238" lon="3.32864">
        <ele>273.65460205078</ele>
        <time>2016-03-02T14:51:18.000Z</time>
      </trkpt>
      <trkpt lat="47.02377" lon="3.3287">
        <ele>273.45953369141</ele>
        <time>2016-03-02T14:51:21.000Z</time>
      </trkpt>
      <trkpt lat="47.02374" lon="3.32873">
        <ele>273.28536987305</ele>
        <time>2016-03-02T14:51:23.000Z</time>
      </trkpt>
      <trkpt lat="47.02372" lon="3.32876">
        <ele>273.15203857422</ele>
        <time>2016-03-02T14:51:26.000Z</time>
      </trkpt>
      <trkpt lat="47.0237" lon="3.32878">
        <ele>273.03402709961</ele>
        <time>2016-03-02T14:51:28.000Z</time>
      </trkpt>
      <trkpt lat="47.02369" lon="3.3288">
        <ele>272.93768310547</ele>
        <time>2016-03-02T14:51:30.000Z</time>
      </trkpt>
      <trkpt lat="47.02367" lon="3.32884">
        <ele>272.86791992188</ele>
        <time>2016-03-02T14:51:33.000Z</time>
      </trkpt>
      <trkpt lat="47.02365" lon="3.32888">
        <ele>272.81039428711</ele>
        <time>2016-03-02T14:51:36.000Z</time>
      </trkpt>
      <trkpt lat="47.02362" lon="3.32892">
        <ele>272.76284790039</ele>
        <time>2016-03-02T14:51:39.000Z</time>
      </trkpt>
      <trkpt lat="47.02361" lon="3.32896">
        <ele>272.72534179688</ele>
        <time>2016-03-02T14:51:42.000Z</time>
      </trkpt>
      <trkpt lat="47.02359" lon="3.32899">
        <ele>272.69467163086</ele>
        <time>2016-03-02T14:51:44.000Z</time>
      </trkpt>
      <trkpt lat="47.02357" lon="3.32901">
        <ele>272.67584228516</ele>
        <time>2016-03-02T14:51:46.000Z</time>
      </trkpt>
      <trkpt lat="47.02356" lon="3.32906">
        <ele>272.66885375977</ele>
        <time>2016-03-02T14:51:49.000Z</time>
      </trkpt>
      <trkpt lat="47.02354" lon="3.32909">
        <ele>272.67404174805</ele>
        <time>2016-03-02T14:51:52.000Z</time>
      </trkpt>
      <trkpt lat="47.02352" lon="3.32912">
        <ele>272.68927001953</ele>
        <time>2016-03-02T14:51:55.000Z</time>
      </trkpt>
      <trkpt lat="47.02351" lon="3.32915">
        <ele>272.71310424805</ele>
        <time>2016-03-02T14:51:57.000Z</time>
      </trkpt>
      <trkpt lat="47.02348" lon="3.32919">
        <ele>272.7380065918</ele>
        <time>2016-03-02T14:52:00.000Z</time>
      </trkpt>
      <trkpt lat="47.02346" lon="3.32923">
        <ele>272.748046875</ele>
        <time>2016-03-02T14:52:03.000Z</time>
      </trkpt>
      <trkpt lat="47.02344" lon="3.32926">
        <ele>272.75076293945</ele>
        <time>2016-03-02T14:52:06.000Z</time>
      </trkpt>
      <trkpt lat="47.02341" lon="3.32929">
        <ele>272.74426269531</ele>
        <time>2016-03-02T14:52:09.000Z</time>
      </trkpt>
      <trkpt lat="47.0234" lon="3.32934">
        <ele>272.72015380859</ele>
        <time>2016-03-02T14:52:12.000Z</time>
      </trkpt>
      <trkpt lat="47.02338" lon="3.32938">
        <ele>272.68960571289</ele>
        <time>2016-03-02T14:52:15.000Z</time>
      </trkpt>
      <trkpt lat="47.02337" lon="3.32941">
        <ele>272.66775512695</ele>
        <time>2016-03-02T14:52:17.000Z</time>
      </trkpt>
      <trkpt lat="47.02335" lon="3.32946">
        <ele>272.64492797852</ele>
        <time>2016-03-02T14:52:20.000Z</time>
      </trkpt>
      <trkpt lat="47.02333" lon="3.3295">
        <ele>272.62142944336</ele>
        <time>2016-03-02T14:52:23.000Z</time>
      </trkpt>
      <trkpt lat="47.02332" lon="3.32954">
        <ele>272.58422851562</ele>
        <time>2016-03-02T14:52:26.000Z</time>
      </trkpt>
      <trkpt lat="47.02331" lon="3.32957">
        <ele>272.53317260742</ele>
        <time>2016-03-02T14:52:28.000Z</time>
      </trkpt>
      <trkpt lat="47.02329" lon="3.3296">
        <ele>272.45928955078</ele>
        <time>2016-03-02T14:52:30.000Z</time>
      </trkpt>
      <trkpt lat="47.02328" lon="3.32963">
        <ele>272.37387084961</ele>
        <time>2016-03-02T14:52:32.000Z</time>
      </trkpt>
      <trkpt lat="47.02327" lon="3.32967">
        <ele>272.26892089844</ele>
        <time>2016-03-02T14:52:35.000Z</time>
      </trkpt>
      <trkpt lat="47.02327" lon="3.3297">
        <ele>272.17617797852</ele>
        <time>2016-03-02T14:52:37.000Z</time>
      </trkpt>
      <trkpt lat="47.02326" lon="3.32975">
        <ele>272.08285522461</ele>
        <time>2016-03-02T14:52:40.000Z</time>
      </trkpt>
      <trkpt lat="47.02325" lon="3.3298">
        <ele>271.99578857422</ele>
        <time>2016-03-02T14:52:43.000Z</time>
      </trkpt>
      <trkpt lat="47.02324" lon="3.32984">
        <ele>271.90628051758</ele>
        <time>2016-03-02T14:52:46.000Z</time>
      </trkpt>
      <trkpt lat="47.02323" lon="3.32989">
        <ele>271.81649780273</ele>
        <time>2016-03-02T14:52:49.000Z</time>
      </trkpt>
      <trkpt lat="47.02322" lon="3.32993">
        <ele>271.72686767578</ele>
        <time>2016-03-02T14:52:51.000Z</time>
      </trkpt>
      <trkpt lat="47.02322" lon="3.32996">
        <ele>271.64242553711</ele>
        <time>2016-03-02T14:52:53.000Z</time>
      </trkpt>
      <trkpt lat="47.02319" lon="3.32999">
        <ele>271.54718017578</ele>
        <time>2016-03-02T14:52:56.000Z</time>
      </trkpt>
      <trkpt lat="47.02318" lon="3.33">
        <ele>271.45132446289</ele>
        <time>2016-03-02T14:52:58.000Z</time>
      </trkpt>
      <trkpt lat="47.02317" lon="3.33001">
        <ele>271.36712646484</ele>
        <time>2016-03-02T14:53:01.000Z</time>
      </trkpt>
      <trkpt lat="47.02316" lon="3.33002">
        <ele>271.27886962891</ele>
        <time>2016-03-02T14:53:03.000Z</time>
      </trkpt>
      <trkpt lat="47.02315" lon="3.33003">
        <ele>271.18661499023</ele>
        <time>2016-03-02T14:53:06.000Z</time>
      </trkpt>
      <trkpt lat="47.02314" lon="3.33005">
        <ele>271.1015625</ele>
        <time>2016-03-02T14:53:09.000Z</time>
      </trkpt>
      <trkpt lat="47.02313" lon="3.33006">
        <ele>271.01947021484</ele>
        <time>2016-03-02T14:53:12.000Z</time>
      </trkpt>
      <trkpt lat="47.02311" lon="3.33009">
        <ele>270.90664672852</ele>
        <time>2016-03-02T14:53:14.000Z</time>
      </trkpt>
      <trkpt lat="47.02308" lon="3.33014">
        <ele>270.76058959961</ele>
        <time>2016-03-02T14:53:17.000Z</time>
      </trkpt>
      <trkpt lat="47.02306" lon="3.33019">
        <ele>270.59042358398</ele>
        <time>2016-03-02T14:53:20.000Z</time>
      </trkpt>
      <trkpt lat="47.02306" lon="3.33021">
        <ele>270.43032836914</ele>
        <time>2016-03-02T14:53:23.000Z</time>
      </trkpt>
      <trkpt lat="47.02305" lon="3.33023">
        <ele>270.26150512695</ele>
        <time>2016-03-02T14:53:24.000Z</time>
      </trkpt>
      <trkpt lat="47.02303" lon="3.33027">
        <ele>270.09240722656</ele>
        <time>2016-03-02T14:53:27.000Z</time>
      </trkpt>
      <trkpt lat="47.02301" lon="3.33032">
        <ele>269.93280029297</ele>
        <time>2016-03-02T14:53:30.000Z</time>
      </trkpt>
      <trkpt lat="47.02299" lon="3.33035">
        <ele>269.78872680664</ele>
        <time>2016-03-02T14:53:32.000Z</time>
      </trkpt>
      <trkpt lat="47.02299" lon="3.33037">
        <ele>269.63864135742</ele>
        <time>2016-03-02T14:53:34.000Z</time>
      </trkpt>
      <trkpt lat="47.02299" lon="3.33041">
        <ele>269.49063110352</ele>
        <time>2016-03-02T14:53:37.000Z</time>
      </trkpt>
      <trkpt lat="47.02299" lon="3.33046">
        <ele>269.36077880859</ele>
        <time>2016-03-02T14:53:40.000Z</time>
      </trkpt>
      <trkpt lat="47.02299" lon="3.33048">
        <ele>269.26031494141</ele>
        <time>2016-03-02T14:53:42.000Z</time>
      </trkpt>
      <trkpt lat="47.023" lon="3.3305">
        <ele>269.18572998047</ele>
        <time>2016-03-02T14:53:53.000Z</time>
      </trkpt>
      <trkpt lat="47.023" lon="3.33051">
        <ele>269.12438964844</ele>
        <time>2016-03-02T14:53:55.000Z</time>
      </trkpt>
      <trkpt lat="47.02301" lon="3.33054">
        <ele>269.06997680664</ele>
        <time>2016-03-02T14:53:58.000Z</time>
      </trkpt>
      <trkpt lat="47.02301" lon="3.33059">
        <ele>269.02239990234</ele>
        <time>2016-03-02T14:54:02.000Z</time>
      </trkpt>
      <trkpt lat="47.02303" lon="3.33063">
        <ele>268.96966552734</ele>
        <time>2016-03-02T14:54:04.000Z</time>
      </trkpt>
      <trkpt lat="47.02304" lon="3.33069">
        <ele>268.89227294922</ele>
        <time>2016-03-02T14:54:08.000Z</time>
      </trkpt>
      <trkpt lat="47.02305" lon="3.33073">
        <ele>268.80038452148</ele>
        <time>2016-03-02T14:54:10.000Z</time>
      </trkpt>
      <trkpt lat="47.02305" lon="3.33076">
        <ele>268.70532226562</ele>
        <time>2016-03-02T14:54:14.000Z</time>
      </trkpt>
      <trkpt lat="47.02305" lon="3.3308">
        <ele>268.60675048828</ele>
        <time>2016-03-02T14:54:15.000Z</time>
      </trkpt>
      <trkpt lat="47.02305" lon="3.33086">
        <ele>268.50219726562</ele>
        <time>2016-03-02T14:54:18.000Z</time>
      </trkpt>
      <trkpt lat="47.02305" lon="3.33091">
        <ele>268.4211730957</ele>
        <time>2016-03-02T14:54:21.000Z</time>
      </trkpt>
      <trkpt lat="47.02306" lon="3.33096">
        <ele>268.36120605469</ele>
        <time>2016-03-02T14:54:24.000Z</time>
      </trkpt>
      <trkpt lat="47.02307" lon="3.33101">
        <ele>268.31631469727</ele>
        <time>2016-03-02T14:54:27.000Z</time>
      </trkpt>
      <trkpt lat="47.02307" lon="3.33105">
        <ele>268.29034423828</ele>
        <time>2016-03-02T14:54:30.000Z</time>
      </trkpt>
      <trkpt lat="47.02308" lon="3.3311">
        <ele>268.28344726562</ele>
        <time>2016-03-02T14:54:31.000Z</time>
      </trkpt>
      <trkpt lat="47.02308" lon="3.33114">
        <ele>268.27529907227</ele>
        <time>2016-03-02T14:54:34.000Z</time>
      </trkpt>
      <trkpt lat="47.02309" lon="3.33119">
        <ele>268.26287841797</ele>
        <time>2016-03-02T14:54:36.000Z</time>
      </trkpt>
      <trkpt lat="47.02309" lon="3.33122">
        <ele>268.24990844727</ele>
        <time>2016-03-02T14:54:38.000Z</time>
      </trkpt>
      <trkpt lat="47.02309" lon="3.33127">
        <ele>268.23553466797</ele>
        <time>2016-03-02T14:54:41.000Z</time>
      </trkpt>
      <trkpt lat="47.0231" lon="3.3313">
        <ele>268.22036743164</ele>
        <time>2016-03-02T14:54:43.000Z</time>
      </trkpt>
      <trkpt lat="47.02311" lon="3.33134">
        <ele>268.20587158203</ele>
        <time>2016-03-02T14:54:46.000Z</time>
      </trkpt>
      <trkpt lat="47.02311" lon="3.33137">
        <ele>268.19146728516</ele>
        <time>2016-03-02T14:54:48.000Z</time>
      </trkpt>
      <trkpt lat="47.02312" lon="3.33144">
        <ele>268.17391967773</ele>
        <time>2016-03-02T14:54:51.000Z</time>
      </trkpt>
      <trkpt lat="47.02312" lon="3.3315">
        <ele>268.15292358398</ele>
        <time>2016-03-02T14:54:54.000Z</time>
      </trkpt>
      <trkpt lat="47.02313" lon="3.33154">
        <ele>268.13003540039</ele>
        <time>2016-03-02T14:54:56.000Z</time>
      </trkpt>
      <trkpt lat="47.02314" lon="3.33158">
        <ele>268.10549926758</ele>
        <time>2016-03-02T14:54:58.000Z</time>
      </trkpt>
      <trkpt lat="47.02314" lon="3.33164">
        <ele>268.07626342773</ele>
        <time>2016-03-02T14:55:01.000Z</time>
      </trkpt>
      <trkpt lat="47.02314" lon="3.33166">
        <ele>268.05102539062</ele>
        <time>2016-03-02T14:55:03.000Z</time>
      </trkpt>
      <trkpt lat="47.02315" lon="3.3317">
        <ele>268.02227783203</ele>
        <time>2016-03-02T14:55:05.000Z</time>
      </trkpt>
      <trkpt lat="47.02315" lon="3.33176">
        <ele>267.97909545898</ele>
        <time>2016-03-02T14:55:09.000Z</time>
      </trkpt>
      <trkpt lat="47.02315" lon="3.33182">
        <ele>267.9228515625</ele>
        <time>2016-03-02T14:55:11.000Z</time>
      </trkpt>
      <trkpt lat="47.02315" lon="3.33186">
        <ele>267.86206054688</ele>
        <time>2016-03-02T14:55:14.000Z</time>
      </trkpt>
      <trkpt lat="47.02315" lon="3.3319">
        <ele>267.79278564453</ele>
        <time>2016-03-02T14:55:16.000Z</time>
      </trkpt>
      <trkpt lat="47.02316" lon="3.33195">
        <ele>267.72085571289</ele>
        <time>2016-03-02T14:55:18.000Z</time>
      </trkpt>
      <trkpt lat="47.02317" lon="3.332">
        <ele>267.65368652344</ele>
        <time>2016-03-02T14:55:21.000Z</time>
      </trkpt>
      <trkpt lat="47.02317" lon="3.33204">
        <ele>267.59097290039</ele>
        <time>2016-03-02T14:55:24.000Z</time>
      </trkpt>
      <trkpt lat="47.02317" lon="3.33207">
        <ele>267.53402709961</ele>
        <time>2016-03-02T14:55:26.000Z</time>
      </trkpt>
      <trkpt lat="47.02318" lon="3.33212">
        <ele>267.47235107422</ele>
        <time>2016-03-02T14:55:29.000Z</time>
      </trkpt>
      <trkpt lat="47.02319" lon="3.33217">
        <ele>267.41143798828</ele>
        <time>2016-03-02T14:55:32.000Z</time>
      </trkpt>
      <trkpt lat="47.0232" lon="3.33219">
        <ele>267.35913085938</ele>
        <time>2016-03-02T14:55:34.000Z</time>
      </trkpt>
      <trkpt lat="47.0232" lon="3.33224">
        <ele>267.3076171875</ele>
        <time>2016-03-02T14:55:37.000Z</time>
      </trkpt>
      <trkpt lat="47.02321" lon="3.33229">
        <ele>267.24975585938</ele>
        <time>2016-03-02T14:55:40.000Z</time>
      </trkpt>
      <trkpt lat="47.02322" lon="3.33233">
        <ele>267.19882202148</ele>
        <time>2016-03-02T14:55:42.000Z</time>
      </trkpt>
      <trkpt lat="47.02322" lon="3.33238">
        <ele>267.14883422852</ele>
        <time>2016-03-02T14:55:44.000Z</time>
      </trkpt>
      <trkpt lat="47.02323" lon="3.33242">
        <ele>267.09228515625</ele>
        <time>2016-03-02T14:55:47.000Z</time>
      </trkpt>
      <trkpt lat="47.02324" lon="3.33244">
        <ele>267.04266357422</ele>
        <time>2016-03-02T14:55:49.000Z</time>
      </trkpt>
      <trkpt lat="47.02324" lon="3.33247">
        <ele>267</ele>
        <time>2016-03-02T14:55:51.000Z</time>
      </trkpt>
      <trkpt lat="47.02324" lon="3.33251">
        <ele>266.95223999023</ele>
        <time>2016-03-02T14:55:54.000Z</time>
      </trkpt>
      <trkpt lat="47.02325" lon="3.33257">
        <ele>266.89260864258</ele>
        <time>2016-03-02T14:55:57.000Z</time>
      </trkpt>
      <trkpt lat="47.02325" lon="3.3326">
        <ele>266.82916259766</ele>
        <time>2016-03-02T14:55:59.000Z</time>
      </trkpt>
      <trkpt lat="47.02325" lon="3.33264">
        <ele>266.75241088867</ele>
        <time>2016-03-02T14:56:02.000Z</time>
      </trkpt>
      <trkpt lat="47.02326" lon="3.33268">
        <ele>266.66040039062</ele>
        <time>2016-03-02T14:56:05.000Z</time>
      </trkpt>
      <trkpt lat="47.02326" lon="3.33273">
        <ele>266.56176757812</ele>
        <time>2016-03-02T14:56:08.000Z</time>
      </trkpt>
      <trkpt lat="47.02327" lon="3.33277">
        <ele>266.46667480469</ele>
        <time>2016-03-02T14:56:10.000Z</time>
      </trkpt>
      <trkpt lat="47.02327" lon="3.33279">
        <ele>266.37719726562</ele>
        <time>2016-03-02T14:56:12.000Z</time>
      </trkpt>
      <trkpt lat="47.02327" lon="3.33284">
        <ele>266.28149414062</ele>
        <time>2016-03-02T14:56:15.000Z</time>
      </trkpt>
      <trkpt lat="47.02327" lon="3.33287">
        <ele>266.19372558594</ele>
        <time>2016-03-02T14:56:17.000Z</time>
      </trkpt>
      <trkpt lat="47.02328" lon="3.33291">
        <ele>266.11206054688</ele>
        <time>2016-03-02T14:56:20.000Z</time>
      </trkpt>
      <trkpt lat="47.02328" lon="3.33294">
        <ele>266.03576660156</ele>
        <time>2016-03-02T14:56:22.000Z</time>
      </trkpt>
      <trkpt lat="47.02328" lon="3.33299">
        <ele>265.9453125</ele>
        <time>2016-03-02T14:56:25.000Z</time>
      </trkpt>
      <trkpt lat="47.02329" lon="3.33303">
        <ele>265.86096191406</ele>
        <time>2016-03-02T14:56:28.000Z</time>
      </trkpt>
      <trkpt lat="47.02329" lon="3.33308">
        <ele>265.76647949219</ele>
        <time>2016-03-02T14:56:31.000Z</time>
      </trkpt>
      <trkpt lat="47.0233" lon="3.33314">
        <ele>265.65893554688</ele>
        <time>2016-03-02T14:56:34.000Z</time>
      </trkpt>
      <trkpt lat="47.0233" lon="3.33318">
        <ele>265.54956054688</ele>
        <time>2016-03-02T14:56:36.000Z</time>
      </trkpt>
      <trkpt lat="47.02331" lon="3.3332">
        <ele>265.45251464844</ele>
        <time>2016-03-02T14:56:39.000Z</time>
      </trkpt>
      <trkpt lat="47.02331" lon="3.33326">
        <ele>265.35009765625</ele>
        <time>2016-03-02T14:56:42.000Z</time>
      </trkpt>
      <trkpt lat="47.02332" lon="3.33331">
        <ele>265.24548339844</ele>
        <time>2016-03-02T14:56:45.000Z</time>
      </trkpt>
      <trkpt lat="47.02333" lon="3.33337">
        <ele>265.14520263672</ele>
        <time>2016-03-02T14:56:48.000Z</time>
      </trkpt>
      <trkpt lat="47.02333" lon="3.33339">
        <ele>265.05169677734</ele>
        <time>2016-03-02T14:56:50.000Z</time>
      </trkpt>
      <trkpt lat="47.02333" lon="3.33342">
        <ele>264.95516967773</ele>
        <time>2016-03-02T14:56:52.000Z</time>
      </trkpt>
      <trkpt lat="47.02334" lon="3.33348">
        <ele>264.84951782227</ele>
        <time>2016-03-02T14:56:56.000Z</time>
      </trkpt>
      <trkpt lat="47.02335" lon="3.33353">
        <ele>264.74322509766</ele>
        <time>2016-03-02T14:56:58.000Z</time>
      </trkpt>
      <trkpt lat="47.02336" lon="3.33357">
        <ele>264.63934326172</ele>
        <time>2016-03-02T14:57:00.000Z</time>
      </trkpt>
      <trkpt lat="47.02336" lon="3.3336">
        <ele>264.53088378906</ele>
        <time>2016-03-02T14:57:02.000Z</time>
      </trkpt>
      <trkpt lat="47.02337" lon="3.33364">
        <ele>264.41333007812</ele>
        <time>2016-03-02T14:57:05.000Z</time>
      </trkpt>
      <trkpt lat="47.02338" lon="3.33368">
        <ele>264.30712890625</ele>
        <time>2016-03-02T14:57:07.000Z</time>
      </trkpt>
      <trkpt lat="47.02339" lon="3.33372">
        <ele>264.20983886719</ele>
        <time>2016-03-02T14:57:09.000Z</time>
      </trkpt>
      <trkpt lat="47.02339" lon="3.33375">
        <ele>264.11450195312</ele>
        <time>2016-03-02T14:57:12.000Z</time>
      </trkpt>
      <trkpt lat="47.0234" lon="3.33381">
        <ele>264.0048828125</ele>
        <time>2016-03-02T14:57:15.000Z</time>
      </trkpt>
      <trkpt lat="47.02341" lon="3.33385">
        <ele>263.8984375</ele>
        <time>2016-03-02T14:57:17.000Z</time>
      </trkpt>
      <trkpt lat="47.02341" lon="3.33389">
        <ele>263.79321289062</ele>
        <time>2016-03-02T14:57:19.000Z</time>
      </trkpt>
      <trkpt lat="47.02342" lon="3.33393">
        <ele>263.68322753906</ele>
        <time>2016-03-02T14:57:22.000Z</time>
      </trkpt>
      <trkpt lat="47.02343" lon="3.33397">
        <ele>263.56945800781</ele>
        <time>2016-03-02T14:57:25.000Z</time>
      </trkpt>
      <trkpt lat="47.02344" lon="3.33402">
        <ele>263.45983886719</ele>
        <time>2016-03-02T14:57:28.000Z</time>
      </trkpt>
      <trkpt lat="47.02345" lon="3.33405">
        <ele>263.3525390625</ele>
        <time>2016-03-02T14:57:30.000Z</time>
      </trkpt>
      <trkpt lat="47.02346" lon="3.33408">
        <ele>263.24853515625</ele>
        <time>2016-03-02T14:57:32.000Z</time>
      </trkpt>
      <trkpt lat="47.02348" lon="3.33412">
        <ele>263.14404296875</ele>
        <time>2016-03-02T14:57:35.000Z</time>
      </trkpt>
      <trkpt lat="47.02349" lon="3.33416">
        <ele>263.03991699219</ele>
        <time>2016-03-02T14:57:37.000Z</time>
      </trkpt>
      <trkpt lat="47.02351" lon="3.3342">
        <ele>262.92767333984</ele>
        <time>2016-03-02T14:57:39.000Z</time>
      </trkpt>
      <trkpt lat="47.02352" lon="3.33423">
        <ele>262.80728149414</ele>
        <time>2016-03-02T14:57:42.000Z</time>
      </trkpt>
      <trkpt lat="47.02353" lon="3.33427">
        <ele>262.67538452148</ele>
        <time>2016-03-02T14:57:46.000Z</time>
      </trkpt>
      <trkpt lat="47.02354" lon="3.33431">
        <ele>262.53842163086</ele>
        <time>2016-03-02T14:57:48.000Z</time>
      </trkpt>
      <trkpt lat="47.02355" lon="3.33435">
        <ele>262.38916015625</ele>
        <time>2016-03-02T14:57:51.000Z</time>
      </trkpt>
      <trkpt lat="47.02355" lon="3.33438">
        <ele>262.25012207031</ele>
        <time>2016-03-02T14:57:53.000Z</time>
      </trkpt>
      <trkpt lat="47.02356" lon="3.33442">
        <ele>262.10424804688</ele>
        <time>2016-03-02T14:57:57.000Z</time>
      </trkpt>
      <trkpt lat="47.02357" lon="3.33446">
        <ele>261.95715332031</ele>
        <time>2016-03-02T14:57:59.000Z</time>
      </trkpt>
      <trkpt lat="47.02357" lon="3.3345">
        <ele>261.81085205078</ele>
        <time>2016-03-02T14:58:03.000Z</time>
      </trkpt>
      <trkpt lat="47.02358" lon="3.33453">
        <ele>261.67001342773</ele>
        <time>2016-03-02T14:58:05.000Z</time>
      </trkpt>
      <trkpt lat="47.0236" lon="3.33457">
        <ele>261.51922607422</ele>
        <time>2016-03-02T14:58:08.000Z</time>
      </trkpt>
      <trkpt lat="47.02361" lon="3.33461">
        <ele>261.36987304688</ele>
        <time>2016-03-02T14:58:11.000Z</time>
      </trkpt>
      <trkpt lat="47.02362" lon="3.33464">
        <ele>261.22955322266</ele>
        <time>2016-03-02T14:58:13.000Z</time>
      </trkpt>
      <trkpt lat="47.02363" lon="3.33468">
        <ele>261.08660888672</ele>
        <time>2016-03-02T14:58:16.000Z</time>
      </trkpt>
      <trkpt lat="47.02364" lon="3.33472">
        <ele>260.93536376953</ele>
        <time>2016-03-02T14:58:19.000Z</time>
      </trkpt>
      <trkpt lat="47.02366" lon="3.33476">
        <ele>260.78283691406</ele>
        <time>2016-03-02T14:58:22.000Z</time>
      </trkpt>
      <trkpt lat="47.02368" lon="3.33482">
        <ele>260.61889648438</ele>
        <time>2016-03-02T14:58:25.000Z</time>
      </trkpt>
      <trkpt lat="47.0237" lon="3.33487">
        <ele>260.43392944336</ele>
        <time>2016-03-02T14:58:28.000Z</time>
      </trkpt>
      <trkpt lat="47.02371" lon="3.3349">
        <ele>260.25524902344</ele>
        <time>2016-03-02T14:58:30.000Z</time>
      </trkpt>
      <trkpt lat="47.02373" lon="3.33495">
        <ele>260.07461547852</ele>
        <time>2016-03-02T14:58:33.000Z</time>
      </trkpt>
      <trkpt lat="47.02374" lon="3.33498">
        <ele>259.90191650391</ele>
        <time>2016-03-02T14:58:36.000Z</time>
      </trkpt>
      <trkpt lat="47.02375" lon="3.335">
        <ele>259.751953125</ele>
        <time>2016-03-02T14:58:39.000Z</time>
      </trkpt>
      <trkpt lat="47.02376" lon="3.33501">
        <ele>259.63714599609</ele>
        <time>2016-03-02T14:58:41.000Z</time>
      </trkpt>
      <trkpt lat="47.02377" lon="3.33504">
        <ele>259.53540039062</ele>
        <time>2016-03-02T14:58:43.000Z</time>
      </trkpt>
      <trkpt lat="47.02378" lon="3.33506">
        <ele>259.46298217773</ele>
        <time>2016-03-02T14:58:46.000Z</time>
      </trkpt>
      <trkpt lat="47.0238" lon="3.3351">
        <ele>259.39572143555</ele>
        <time>2016-03-02T14:58:49.000Z</time>
      </trkpt>
      <trkpt lat="47.02381" lon="3.33512">
        <ele>259.33758544922</ele>
        <time>2016-03-02T14:58:51.000Z</time>
      </trkpt>
      <trkpt lat="47.02383" lon="3.33515">
        <ele>259.26959228516</ele>
        <time>2016-03-02T14:58:53.000Z</time>
      </trkpt>
      <trkpt lat="47.02383" lon="3.33518">
        <ele>259.19769287109</ele>
        <time>2016-03-02T14:58:56.000Z</time>
      </trkpt>
      <trkpt lat="47.02385" lon="3.33522">
        <ele>259.11727905273</ele>
        <time>2016-03-02T14:58:59.000Z</time>
      </trkpt>
      <trkpt lat="47.02386" lon="3.33525">
        <ele>259.04025268555</ele>
        <time>2016-03-02T14:59:01.000Z</time>
      </trkpt>
      <trkpt lat="47.02388" lon="3.3353">
        <ele>258.95248413086</ele>
        <time>2016-03-02T14:59:04.000Z</time>
      </trkpt>
      <trkpt lat="47.02388" lon="3.33532">
        <ele>258.86956787109</ele>
        <time>2016-03-02T14:59:06.000Z</time>
      </trkpt>
      <trkpt lat="47.0239" lon="3.33534">
        <ele>258.78887939453</ele>
        <time>2016-03-02T14:59:08.000Z</time>
      </trkpt>
      <trkpt lat="47.02392" lon="3.33539">
        <ele>258.69818115234</ele>
        <time>2016-03-02T14:59:11.000Z</time>
      </trkpt>
      <trkpt lat="47.02393" lon="3.33542">
        <ele>258.6061706543</ele>
        <time>2016-03-02T14:59:13.000Z</time>
      </trkpt>
      <trkpt lat="47.02394" lon="3.33544">
        <ele>258.5234375</ele>
        <time>2016-03-02T14:59:15.000Z</time>
      </trkpt>
      <trkpt lat="47.02396" lon="3.33549">
        <ele>258.42315673828</ele>
        <time>2016-03-02T14:59:18.000Z</time>
      </trkpt>
      <trkpt lat="47.02398" lon="3.33553">
        <ele>258.31466674805</ele>
        <time>2016-03-02T14:59:20.000Z</time>
      </trkpt>
      <trkpt lat="47.02401" lon="3.33557">
        <ele>258.20611572266</ele>
        <time>2016-03-02T14:59:23.000Z</time>
      </trkpt>
      <trkpt lat="47.02402" lon="3.3356">
        <ele>258.09490966797</ele>
        <time>2016-03-02T14:59:26.000Z</time>
      </trkpt>
      <trkpt lat="47.02404" lon="3.33564">
        <ele>257.97103881836</ele>
        <time>2016-03-02T14:59:28.000Z</time>
      </trkpt>
      <trkpt lat="47.02406" lon="3.33566">
        <ele>257.85922241211</ele>
        <time>2016-03-02T14:59:30.000Z</time>
      </trkpt>
      <trkpt lat="47.02407" lon="3.33572">
        <ele>257.73413085938</ele>
        <time>2016-03-02T14:59:33.000Z</time>
      </trkpt>
      <trkpt lat="47.02409" lon="3.33576">
        <ele>257.61138916016</ele>
        <time>2016-03-02T14:59:36.000Z</time>
      </trkpt>
      <trkpt lat="47.02411" lon="3.3358">
        <ele>257.48184204102</ele>
        <time>2016-03-02T14:59:39.000Z</time>
      </trkpt>
      <trkpt lat="47.02412" lon="3.33581">
        <ele>257.36474609375</ele>
        <time>2016-03-02T14:59:41.000Z</time>
      </trkpt>
      <trkpt lat="47.02414" lon="3.33584">
        <ele>257.24203491211</ele>
        <time>2016-03-02T14:59:43.000Z</time>
      </trkpt>
      <trkpt lat="47.02418" lon="3.33589">
        <ele>257.10174560547</ele>
        <time>2016-03-02T14:59:46.000Z</time>
      </trkpt>
      <trkpt lat="47.02419" lon="3.33592">
        <ele>256.96054077148</ele>
        <time>2016-03-02T14:59:49.000Z</time>
      </trkpt>
      <trkpt lat="47.02421" lon="3.33597">
        <ele>256.81219482422</ele>
        <time>2016-03-02T14:59:52.000Z</time>
      </trkpt>
      <trkpt lat="47.02423" lon="3.33601">
        <ele>256.64053344727</ele>
        <time>2016-03-02T14:59:55.000Z</time>
      </trkpt>
      <trkpt lat="47.02424" lon="3.33605">
        <ele>256.46173095703</ele>
        <time>2016-03-02T14:59:58.000Z</time>
      </trkpt>
      <trkpt lat="47.02426" lon="3.33608">
        <ele>256.3076171875</ele>
        <time>2016-03-02T15:00:00.000Z</time>
      </trkpt>
      <trkpt lat="47.02427" lon="3.33611">
        <ele>256.15399169922</ele>
        <time>2016-03-02T15:00:02.000Z</time>
      </trkpt>
      <trkpt lat="47.02429" lon="3.33616">
        <ele>255.99398803711</ele>
        <time>2016-03-02T15:00:05.000Z</time>
      </trkpt>
      <trkpt lat="47.0243" lon="3.33619">
        <ele>255.84907531738</ele>
        <time>2016-03-02T15:00:07.000Z</time>
      </trkpt>
      <trkpt lat="47.02431" lon="3.33625">
        <ele>255.68656921387</ele>
        <time>2016-03-02T15:00:10.000Z</time>
      </trkpt>
      <trkpt lat="47.02431" lon="3.3363">
        <ele>255.51493835449</ele>
        <time>2016-03-02T15:00:13.000Z</time>
      </trkpt>
      <trkpt lat="47.02431" lon="3.33635">
        <ele>255.33329772949</ele>
        <time>2016-03-02T15:00:16.000Z</time>
      </trkpt>
      <trkpt lat="47.02432" lon="3.33637">
        <ele>255.17280578613</ele>
        <time>2016-03-02T15:00:18.000Z</time>
      </trkpt>
      <trkpt lat="47.02432" lon="3.33641">
        <ele>255.00891113281</ele>
        <time>2016-03-02T15:00:20.000Z</time>
      </trkpt>
      <trkpt lat="47.02432" lon="3.33645">
        <ele>254.86022949219</ele>
        <time>2016-03-02T15:00:23.000Z</time>
      </trkpt>
      <trkpt lat="47.02432" lon="3.3365">
        <ele>254.71655273438</ele>
        <time>2016-03-02T15:00:25.000Z</time>
      </trkpt>
      <trkpt lat="47.02432" lon="3.33653">
        <ele>254.58386230469</ele>
        <time>2016-03-02T15:00:27.000Z</time>
      </trkpt>
      <trkpt lat="47.02433" lon="3.33657">
        <ele>254.44023132324</ele>
        <time>2016-03-02T15:00:30.000Z</time>
      </trkpt>
      <trkpt lat="47.02433" lon="3.33661">
        <ele>254.29512023926</ele>
        <time>2016-03-02T15:00:33.000Z</time>
      </trkpt>
      <trkpt lat="47.02434" lon="3.33666">
        <ele>254.13960266113</ele>
        <time>2016-03-02T15:00:36.000Z</time>
      </trkpt>
      <trkpt lat="47.02434" lon="3.3367">
        <ele>253.97769165039</ele>
        <time>2016-03-02T15:00:38.000Z</time>
      </trkpt>
      <trkpt lat="47.02434" lon="3.33677">
        <ele>253.77816772461</ele>
        <time>2016-03-02T15:00:41.000Z</time>
      </trkpt>
      <trkpt lat="47.02434" lon="3.33681">
        <ele>253.56826782227</ele>
        <time>2016-03-02T15:00:44.000Z</time>
      </trkpt>
      <trkpt lat="47.02434" lon="3.33687">
        <ele>253.33227539062</ele>
        <time>2016-03-02T15:00:47.000Z</time>
      </trkpt>
      <trkpt lat="47.02435" lon="3.3369">
        <ele>253.10522460938</ele>
        <time>2016-03-02T15:00:50.000Z</time>
      </trkpt>
      <trkpt lat="47.02435" lon="3.33696">
        <ele>252.853515625</ele>
        <time>2016-03-02T15:00:53.000Z</time>
      </trkpt>
      <trkpt lat="47.02435" lon="3.33699">
        <ele>252.63989257812</ele>
        <time>2016-03-02T15:00:55.000Z</time>
      </trkpt>
      <trkpt lat="47.02436" lon="3.33704">
        <ele>252.4189453125</ele>
        <time>2016-03-02T15:00:58.000Z</time>
      </trkpt>
      <trkpt lat="47.02436" lon="3.33707">
        <ele>252.220703125</ele>
        <time>2016-03-02T15:01:00.000Z</time>
      </trkpt>
      <trkpt lat="47.02436" lon="3.33712">
        <ele>252.00463867188</ele>
        <time>2016-03-02T15:01:03.000Z</time>
      </trkpt>
      <trkpt lat="47.02437" lon="3.33717">
        <ele>251.80346679688</ele>
        <time>2016-03-02T15:01:06.000Z</time>
      </trkpt>
      <trkpt lat="47.02437" lon="3.3372">
        <ele>251.59106445312</ele>
        <time>2016-03-02T15:01:08.000Z</time>
      </trkpt>
      <trkpt lat="47.02438" lon="3.33723">
        <ele>251.40161132812</ele>
        <time>2016-03-02T15:01:10.000Z</time>
      </trkpt>
      <trkpt lat="47.02438" lon="3.33729">
        <ele>251.1806640625</ele>
        <time>2016-03-02T15:01:13.000Z</time>
      </trkpt>
      <trkpt lat="47.02438" lon="3.33733">
        <ele>250.96997070312</ele>
        <time>2016-03-02T15:01:16.000Z</time>
      </trkpt>
      <trkpt lat="47.02438" lon="3.33737">
        <ele>250.77124023438</ele>
        <time>2016-03-02T15:01:18.000Z</time>
      </trkpt>
      <trkpt lat="47.02438" lon="3.3374">
        <ele>250.58251953125</ele>
        <time>2016-03-02T15:01:20.000Z</time>
      </trkpt>
      <trkpt lat="47.02438" lon="3.33743">
        <ele>250.38842773438</ele>
        <time>2016-03-02T15:01:22.000Z</time>
      </trkpt>
      <trkpt lat="47.02438" lon="3.33746">
        <ele>250.22436523438</ele>
        <time>2016-03-02T15:01:24.000Z</time>
      </trkpt>
      <trkpt lat="47.02438" lon="3.33752">
        <ele>250.05502319336</ele>
        <time>2016-03-02T15:01:27.000Z</time>
      </trkpt>
      <trkpt lat="47.02438" lon="3.33757">
        <ele>249.88581848145</ele>
        <time>2016-03-02T15:01:30.000Z</time>
      </trkpt>
      <trkpt lat="47.02439" lon="3.3376">
        <ele>249.72160339355</ele>
        <time>2016-03-02T15:01:32.000Z</time>
      </trkpt>
      <trkpt lat="47.02439" lon="3.33763">
        <ele>249.56567382812</ele>
        <time>2016-03-02T15:01:34.000Z</time>
      </trkpt>
      <trkpt lat="47.02438" lon="3.33769">
        <ele>249.4079284668</ele>
        <time>2016-03-02T15:01:37.000Z</time>
      </trkpt>
      <trkpt lat="47.02438" lon="3.33772">
        <ele>249.27587890625</ele>
        <time>2016-03-02T15:01:40.000Z</time>
      </trkpt>
      <trkpt lat="47.02438" lon="3.33776">
        <ele>249.15103149414</ele>
        <time>2016-03-02T15:01:43.000Z</time>
      </trkpt>
      <trkpt lat="47.02438" lon="3.3378">
        <ele>249.02182006836</ele>
        <time>2016-03-02T15:01:45.000Z</time>
      </trkpt>
      <trkpt lat="47.02439" lon="3.33784">
        <ele>248.88784790039</ele>
        <time>2016-03-02T15:01:47.000Z</time>
      </trkpt>
      <trkpt lat="47.0244" lon="3.3379">
        <ele>248.74238586426</ele>
        <time>2016-03-02T15:01:50.000Z</time>
      </trkpt>
      <trkpt lat="47.0244" lon="3.33796">
        <ele>248.58236694336</ele>
        <time>2016-03-02T15:01:54.000Z</time>
      </trkpt>
      <trkpt lat="47.02441" lon="3.33799">
        <ele>248.42964172363</ele>
        <time>2016-03-02T15:01:55.000Z</time>
      </trkpt>
      <trkpt lat="47.02441" lon="3.33802">
        <ele>248.28012084961</ele>
        <time>2016-03-02T15:01:57.000Z</time>
      </trkpt>
      <trkpt lat="47.02441" lon="3.33807">
        <ele>248.12438964844</ele>
        <time>2016-03-02T15:02:00.000Z</time>
      </trkpt>
      <trkpt lat="47.02441" lon="3.33812">
        <ele>247.98156738281</ele>
        <time>2016-03-02T15:02:03.000Z</time>
      </trkpt>
      <trkpt lat="47.02442" lon="3.33818">
        <ele>247.83503723145</ele>
        <time>2016-03-02T15:02:06.000Z</time>
      </trkpt>
      <trkpt lat="47.02442" lon="3.33821">
        <ele>247.68673706055</ele>
        <time>2016-03-02T15:02:08.000Z</time>
      </trkpt>
      <trkpt lat="47.02442" lon="3.33825">
        <ele>247.53884887695</ele>
        <time>2016-03-02T15:02:11.000Z</time>
      </trkpt>
      <trkpt lat="47.02443" lon="3.33829">
        <ele>247.3974609375</ele>
        <time>2016-03-02T15:02:14.000Z</time>
      </trkpt>
      <trkpt lat="47.02444" lon="3.33835">
        <ele>247.25668334961</ele>
        <time>2016-03-02T15:02:17.000Z</time>
      </trkpt>
      <trkpt lat="47.02444" lon="3.33838">
        <ele>247.14736938477</ele>
        <time>2016-03-02T15:02:20.000Z</time>
      </trkpt>
      <trkpt lat="47.02444" lon="3.33843">
        <ele>247.0472869873</ele>
        <time>2016-03-02T15:02:23.000Z</time>
      </trkpt>
      <trkpt lat="47.02445" lon="3.33848">
        <ele>246.95674133301</ele>
        <time>2016-03-02T15:02:26.000Z</time>
      </trkpt>
      <trkpt lat="47.02446" lon="3.33853">
        <ele>246.88252258301</ele>
        <time>2016-03-02T15:02:28.000Z</time>
      </trkpt>
      <trkpt lat="47.02446" lon="3.33858">
        <ele>246.8293762207</ele>
        <time>2016-03-02T15:02:31.000Z</time>
      </trkpt>
      <trkpt lat="47.02446" lon="3.33861">
        <ele>246.77563476562</ele>
        <time>2016-03-02T15:02:34.000Z</time>
      </trkpt>
      <trkpt lat="47.02446" lon="3.33866">
        <ele>246.72421264648</ele>
        <time>2016-03-02T15:02:37.000Z</time>
      </trkpt>
      <trkpt lat="47.02447" lon="3.33869">
        <ele>246.68046569824</ele>
        <time>2016-03-02T15:02:40.000Z</time>
      </trkpt>
      <trkpt lat="47.02447" lon="3.33875">
        <ele>246.63652038574</ele>
        <time>2016-03-02T15:02:43.000Z</time>
      </trkpt>
      <trkpt lat="47.02448" lon="3.33878">
        <ele>246.59628295898</ele>
        <time>2016-03-02T15:02:46.000Z</time>
      </trkpt>
      <trkpt lat="47.02448" lon="3.33883">
        <ele>246.55766296387</ele>
        <time>2016-03-02T15:02:48.000Z</time>
      </trkpt>
      <trkpt lat="47.0245" lon="3.33885">
        <ele>246.53280639648</ele>
        <time>2016-03-02T15:02:52.000Z</time>
      </trkpt>
      <trkpt lat="47.02451" lon="3.33887">
        <ele>246.51293945312</ele>
        <time>2016-03-02T15:02:54.000Z</time>
      </trkpt>
      <trkpt lat="47.02452" lon="3.33888">
        <ele>246.50512695312</ele>
        <time>2016-03-02T15:03:11.000Z</time>
      </trkpt>
      <trkpt lat="47.02452" lon="3.33888">
        <ele>246.50512695312</ele>
        <time>2016-03-02T15:03:31.000Z</time>
      </trkpt>
      <trkpt lat="47.02452" lon="3.3389">
        <ele>246.50009155273</ele>
        <time>2016-03-02T15:03:36.000Z</time>
      </trkpt>
      <trkpt lat="47.02452" lon="3.33892">
        <ele>246.50190734863</ele>
        <time>2016-03-02T15:03:37.000Z</time>
      </trkpt>
      <trkpt lat="47.02453" lon="3.33895">
        <ele>246.49877929688</ele>
        <time>2016-03-02T15:03:39.000Z</time>
      </trkpt>
      <trkpt lat="47.02454" lon="3.33899">
        <ele>246.49206542969</ele>
        <time>2016-03-02T15:03:42.000Z</time>
      </trkpt>
      <trkpt lat="47.02454" lon="3.33901">
        <ele>246.48503112793</ele>
        <time>2016-03-02T15:03:44.000Z</time>
      </trkpt>
      <trkpt lat="47.02456" lon="3.33905">
        <ele>246.48344421387</ele>
        <time>2016-03-02T15:03:47.000Z</time>
      </trkpt>
      <trkpt lat="47.02456" lon="3.33907">
        <ele>246.48428344727</ele>
        <time>2016-03-02T15:03:49.000Z</time>
      </trkpt>
      <trkpt lat="47.02457" lon="3.33909">
        <ele>246.48579406738</ele>
        <time>2016-03-02T15:03:52.000Z</time>
      </trkpt>
      <trkpt lat="47.02459" lon="3.33913">
        <ele>246.49755859375</ele>
        <time>2016-03-02T15:03:54.000Z</time>
      </trkpt>
      <trkpt lat="47.0246" lon="3.33916">
        <ele>246.51594543457</ele>
        <time>2016-03-02T15:03:57.000Z</time>
      </trkpt>
      <trkpt lat="47.02461" lon="3.3392">
        <ele>246.54512023926</ele>
        <time>2016-03-02T15:03:59.000Z</time>
      </trkpt>
      <trkpt lat="47.02462" lon="3.33924">
        <ele>246.58670043945</ele>
        <time>2016-03-02T15:04:02.000Z</time>
      </trkpt>
      <trkpt lat="47.02463" lon="3.33927">
        <ele>246.63691711426</ele>
        <time>2016-03-02T15:04:04.000Z</time>
      </trkpt>
      <trkpt lat="47.02464" lon="3.33932">
        <ele>246.69856262207</ele>
        <time>2016-03-02T15:04:08.000Z</time>
      </trkpt>
      <trkpt lat="47.02465" lon="3.33936">
        <ele>246.76770019531</ele>
        <time>2016-03-02T15:04:10.000Z</time>
      </trkpt>
      <trkpt lat="47.02466" lon="3.33939">
        <ele>246.83654785156</ele>
        <time>2016-03-02T15:04:12.000Z</time>
      </trkpt>
      <trkpt lat="47.02467" lon="3.33942">
        <ele>246.90303039551</ele>
        <time>2016-03-02T15:04:14.000Z</time>
      </trkpt>
      <trkpt lat="47.02468" lon="3.33946">
        <ele>246.98574829102</ele>
        <time>2016-03-02T15:04:17.000Z</time>
      </trkpt>
      <trkpt lat="47.02468" lon="3.33949">
        <ele>247.05923461914</ele>
        <time>2016-03-02T15:04:19.000Z</time>
      </trkpt>
      <trkpt lat="47.02469" lon="3.33951">
        <ele>247.12582397461</ele>
        <time>2016-03-02T15:04:21.000Z</time>
      </trkpt>
      <trkpt lat="47.02471" lon="3.33954">
        <ele>247.20556640625</ele>
        <time>2016-03-02T15:04:24.000Z</time>
      </trkpt>
      <trkpt lat="47.02472" lon="3.33958">
        <ele>247.29751586914</ele>
        <time>2016-03-02T15:04:26.000Z</time>
      </trkpt>
      <trkpt lat="47.02473" lon="3.33961">
        <ele>247.38143920898</ele>
        <time>2016-03-02T15:04:29.000Z</time>
      </trkpt>
      <trkpt lat="47.02475" lon="3.33966">
        <ele>247.48725891113</ele>
        <time>2016-03-02T15:04:31.000Z</time>
      </trkpt>
      <trkpt lat="47.02475" lon="3.33969">
        <ele>247.59846496582</ele>
        <time>2016-03-02T15:04:34.000Z</time>
      </trkpt>
      <trkpt lat="47.02476" lon="3.33972">
        <ele>247.69673156738</ele>
        <time>2016-03-02T15:04:36.000Z</time>
      </trkpt>
      <trkpt lat="47.02477" lon="3.33974">
        <ele>247.78617858887</ele>
        <time>2016-03-02T15:04:38.000Z</time>
      </trkpt>
      <trkpt lat="47.02478" lon="3.33979">
        <ele>247.8920135498</ele>
        <time>2016-03-02T15:04:41.000Z</time>
      </trkpt>
      <trkpt lat="47.02479" lon="3.33982">
        <ele>247.98745727539</ele>
        <time>2016-03-02T15:04:43.000Z</time>
      </trkpt>
      <trkpt lat="47.0248" lon="3.33985">
        <ele>248.08972167969</ele>
        <time>2016-03-02T15:04:46.000Z</time>
      </trkpt>
      <trkpt lat="47.0248" lon="3.33989">
        <ele>248.19570922852</ele>
        <time>2016-03-02T15:04:48.000Z</time>
      </trkpt>
      <trkpt lat="47.02481" lon="3.33994">
        <ele>248.31689453125</ele>
        <time>2016-03-02T15:04:51.000Z</time>
      </trkpt>
      <trkpt lat="47.02483" lon="3.33999">
        <ele>248.43843078613</ele>
        <time>2016-03-02T15:04:54.000Z</time>
      </trkpt>
      <trkpt lat="47.02483" lon="3.34002">
        <ele>248.56758117676</ele>
        <time>2016-03-02T15:04:57.000Z</time>
      </trkpt>
      <trkpt lat="47.02484" lon="3.34006">
        <ele>248.70429992676</ele>
        <time>2016-03-02T15:04:58.000Z</time>
      </trkpt>
      <trkpt lat="47.02485" lon="3.3401">
        <ele>248.86347961426</ele>
        <time>2016-03-02T15:05:02.000Z</time>
      </trkpt>
      <trkpt lat="47.02486" lon="3.34016">
        <ele>249.02290344238</ele>
        <time>2016-03-02T15:05:04.000Z</time>
      </trkpt>
      <trkpt lat="47.02486" lon="3.34018">
        <ele>249.16711425781</ele>
        <time>2016-03-02T15:05:06.000Z</time>
      </trkpt>
      <trkpt lat="47.02486" lon="3.34021">
        <ele>249.3037109375</ele>
        <time>2016-03-02T15:05:08.000Z</time>
      </trkpt>
      <trkpt lat="47.02487" lon="3.34024">
        <ele>249.43322753906</ele>
        <time>2016-03-02T15:05:10.000Z</time>
      </trkpt>
      <trkpt lat="47.02488" lon="3.34028">
        <ele>249.55224609375</ele>
        <time>2016-03-02T15:05:12.000Z</time>
      </trkpt>
      <trkpt lat="47.02489" lon="3.34032">
        <ele>249.67944335938</ele>
        <time>2016-03-02T15:05:15.000Z</time>
      </trkpt>
      <trkpt lat="47.0249" lon="3.34037">
        <ele>249.8212890625</ele>
        <time>2016-03-02T15:05:18.000Z</time>
      </trkpt>
      <trkpt lat="47.02491" lon="3.34041">
        <ele>249.98120117188</ele>
        <time>2016-03-02T15:05:21.000Z</time>
      </trkpt>
      <trkpt lat="47.02492" lon="3.34043">
        <ele>250.14282226562</ele>
        <time>2016-03-02T15:05:23.000Z</time>
      </trkpt>
      <trkpt lat="47.02493" lon="3.34046">
        <ele>250.30224609375</ele>
        <time>2016-03-02T15:05:26.000Z</time>
      </trkpt>
      <trkpt lat="47.02494" lon="3.34052">
        <ele>250.46130371094</ele>
        <time>2016-03-02T15:05:28.000Z</time>
      </trkpt>
      <trkpt lat="47.02495" lon="3.34057">
        <ele>250.63452148438</ele>
        <time>2016-03-02T15:05:31.000Z</time>
      </trkpt>
      <trkpt lat="47.02496" lon="3.3406">
        <ele>250.80322265625</ele>
        <time>2016-03-02T15:05:33.000Z</time>
      </trkpt>
      <trkpt lat="47.02498" lon="3.34064">
        <ele>250.99035644531</ele>
        <time>2016-03-02T15:05:35.000Z</time>
      </trkpt>
      <trkpt lat="47.02499" lon="3.34068">
        <ele>251.18798828125</ele>
        <time>2016-03-02T15:05:38.000Z</time>
      </trkpt>
      <trkpt lat="47.02501" lon="3.34071">
        <ele>251.37699890137</ele>
        <time>2016-03-02T15:05:41.000Z</time>
      </trkpt>
      <trkpt lat="47.02502" lon="3.34075">
        <ele>251.54824829102</ele>
        <time>2016-03-02T15:05:43.000Z</time>
      </trkpt>
      <trkpt lat="47.02503" lon="3.34077">
        <ele>251.71073913574</ele>
        <time>2016-03-02T15:05:45.000Z</time>
      </trkpt>
      <trkpt lat="47.02504" lon="3.34081">
        <ele>251.86433410645</ele>
        <time>2016-03-02T15:05:48.000Z</time>
      </trkpt>
      <trkpt lat="47.02505" lon="3.34083">
        <ele>252.00479125977</ele>
        <time>2016-03-02T15:05:50.000Z</time>
      </trkpt>
      <trkpt lat="47.02507" lon="3.34087">
        <ele>252.12348937988</ele>
        <time>2016-03-02T15:05:53.000Z</time>
      </trkpt>
      <trkpt lat="47.02508" lon="3.3409">
        <ele>252.22647094727</ele>
        <time>2016-03-02T15:05:55.000Z</time>
      </trkpt>
      <trkpt lat="47.0251" lon="3.34095">
        <ele>252.33154296875</ele>
        <time>2016-03-02T15:05:58.000Z</time>
      </trkpt>
      <trkpt lat="47.02512" lon="3.34098">
        <ele>252.41889953613</ele>
        <time>2016-03-02T15:06:01.000Z</time>
      </trkpt>
      <trkpt lat="47.02513" lon="3.34102">
        <ele>252.50312805176</ele>
        <time>2016-03-02T15:06:04.000Z</time>
      </trkpt>
      <trkpt lat="47.02515" lon="3.34107">
        <ele>252.59945678711</ele>
        <time>2016-03-02T15:06:07.000Z</time>
      </trkpt>
      <trkpt lat="47.02516" lon="3.3411">
        <ele>252.70332336426</ele>
        <time>2016-03-02T15:06:09.000Z</time>
      </trkpt>
      <trkpt lat="47.02518" lon="3.34113">
        <ele>252.80207824707</ele>
        <time>2016-03-02T15:06:12.000Z</time>
      </trkpt>
      <trkpt lat="47.0252" lon="3.34118">
        <ele>252.90954589844</ele>
        <time>2016-03-02T15:06:16.000Z</time>
      </trkpt>
      <trkpt lat="47.02521" lon="3.34122">
        <ele>253.01557922363</ele>
        <time>2016-03-02T15:06:18.000Z</time>
      </trkpt>
      <trkpt lat="47.02523" lon="3.34126">
        <ele>253.13467407227</ele>
        <time>2016-03-02T15:06:22.000Z</time>
      </trkpt>
      <trkpt lat="47.02525" lon="3.34129">
        <ele>253.25698852539</ele>
        <time>2016-03-02T15:06:23.000Z</time>
      </trkpt>
      <trkpt lat="47.02526" lon="3.34132">
        <ele>253.38159179688</ele>
        <time>2016-03-02T15:06:25.000Z</time>
      </trkpt>
      <trkpt lat="47.02528" lon="3.34136">
        <ele>253.51449584961</ele>
        <time>2016-03-02T15:06:28.000Z</time>
      </trkpt>
      <trkpt lat="47.0253" lon="3.34139">
        <ele>253.64907836914</ele>
        <time>2016-03-02T15:06:30.000Z</time>
      </trkpt>
      <trkpt lat="47.02531" lon="3.34141">
        <ele>253.77519226074</ele>
        <time>2016-03-02T15:06:32.000Z</time>
      </trkpt>
      <trkpt lat="47.02533" lon="3.34146">
        <ele>253.91235351562</ele>
        <time>2016-03-02T15:06:35.000Z</time>
      </trkpt>
      <trkpt lat="47.02535" lon="3.3415">
        <ele>254.06034851074</ele>
        <time>2016-03-02T15:06:38.000Z</time>
      </trkpt>
      <trkpt lat="47.02537" lon="3.34153">
        <ele>254.19882202148</ele>
        <time>2016-03-02T15:06:40.000Z</time>
      </trkpt>
      <trkpt lat="47.02539" lon="3.34155">
        <ele>254.35018920898</ele>
        <time>2016-03-02T15:06:42.000Z</time>
      </trkpt>
      <trkpt lat="47.02541" lon="3.3416">
        <ele>254.52751159668</ele>
        <time>2016-03-02T15:06:45.000Z</time>
      </trkpt>
      <trkpt lat="47.02543" lon="3.34165">
        <ele>254.70307922363</ele>
        <time>2016-03-02T15:06:48.000Z</time>
      </trkpt>
      <trkpt lat="47.02544" lon="3.34167">
        <ele>254.8603515625</ele>
        <time>2016-03-02T15:06:50.000Z</time>
      </trkpt>
      <trkpt lat="47.02545" lon="3.3417">
        <ele>255.01655578613</ele>
        <time>2016-03-02T15:06:52.000Z</time>
      </trkpt>
      <trkpt lat="47.02548" lon="3.34176">
        <ele>255.18608093262</ele>
        <time>2016-03-02T15:06:56.000Z</time>
      </trkpt>
      <trkpt lat="47.0255" lon="3.3418">
        <ele>255.33723449707</ele>
        <time>2016-03-02T15:06:58.000Z</time>
      </trkpt>
      <trkpt lat="47.02551" lon="3.34183">
        <ele>255.47421264648</ele>
        <time>2016-03-02T15:07:00.000Z</time>
      </trkpt>
      <trkpt lat="47.02553" lon="3.34185">
        <ele>255.62516784668</ele>
        <time>2016-03-02T15:07:02.000Z</time>
      </trkpt>
      <trkpt lat="47.02555" lon="3.34189">
        <ele>255.7746887207</ele>
        <time>2016-03-02T15:07:05.000Z</time>
      </trkpt>
      <trkpt lat="47.02557" lon="3.34194">
        <ele>255.92080688477</ele>
        <time>2016-03-02T15:07:08.000Z</time>
      </trkpt>
      <trkpt lat="47.02559" lon="3.34198">
        <ele>256.06365966797</ele>
        <time>2016-03-02T15:07:10.000Z</time>
      </trkpt>
      <trkpt lat="47.02561" lon="3.34201">
        <ele>256.21185302734</ele>
        <time>2016-03-02T15:07:13.000Z</time>
      </trkpt>
      <trkpt lat="47.02563" lon="3.34207">
        <ele>256.36535644531</ele>
        <time>2016-03-02T15:07:16.000Z</time>
      </trkpt>
      <trkpt lat="47.02565" lon="3.34211">
        <ele>256.51724243164</ele>
        <time>2016-03-02T15:07:19.000Z</time>
      </trkpt>
      <trkpt lat="47.02566" lon="3.34214">
        <ele>256.64868164062</ele>
        <time>2016-03-02T15:07:21.000Z</time>
      </trkpt>
      <trkpt lat="47.02568" lon="3.34219">
        <ele>256.77868652344</ele>
        <time>2016-03-02T15:07:25.000Z</time>
      </trkpt>
      <trkpt lat="47.0257" lon="3.34223">
        <ele>256.91204833984</ele>
        <time>2016-03-02T15:07:27.000Z</time>
      </trkpt>
      <trkpt lat="47.02571" lon="3.34226">
        <ele>257.02581787109</ele>
        <time>2016-03-02T15:07:29.000Z</time>
      </trkpt>
      <trkpt lat="47.02574" lon="3.3423">
        <ele>257.15390014648</ele>
        <time>2016-03-02T15:07:32.000Z</time>
      </trkpt>
      <trkpt lat="47.02576" lon="3.34235">
        <ele>257.28070068359</ele>
        <time>2016-03-02T15:07:36.000Z</time>
      </trkpt>
      <trkpt lat="47.02578" lon="3.34239">
        <ele>257.40463256836</ele>
        <time>2016-03-02T15:07:38.000Z</time>
      </trkpt>
      <trkpt lat="47.02579" lon="3.34244">
        <ele>257.5166015625</ele>
        <time>2016-03-02T15:07:43.000Z</time>
      </trkpt>
      <trkpt lat="47.02581" lon="3.34246">
        <ele>257.63198852539</ele>
        <time>2016-03-02T15:07:44.000Z</time>
      </trkpt>
      <trkpt lat="47.02582" lon="3.34249">
        <ele>257.73004150391</ele>
        <time>2016-03-02T15:07:54.000Z</time>
      </trkpt>
      <trkpt lat="47.02584" lon="3.34251">
        <ele>257.81323242188</ele>
        <time>2016-03-02T15:07:54.000Z</time>
      </trkpt>
      <trkpt lat="47.02585" lon="3.34254">
        <ele>257.84951782227</ele>
        <time>2016-03-02T15:07:58.000Z</time>
      </trkpt>
      <trkpt lat="47.02586" lon="3.34258">
        <ele>257.83413696289</ele>
        <time>2016-03-02T15:07:58.000Z</time>
      </trkpt>
      <trkpt lat="47.02587" lon="3.3426">
        <ele>257.78137207031</ele>
        <time>2016-03-02T15:07:59.000Z</time>
      </trkpt>
      <trkpt lat="47.02588" lon="3.34264">
        <ele>257.68572998047</ele>
        <time>2016-03-02T15:07:59.000Z</time>
      </trkpt>
      <trkpt lat="47.02588" lon="3.34266">
        <ele>257.57330322266</ele>
        <time>2016-03-02T15:08:00.000Z</time>
      </trkpt>
      <trkpt lat="47.02589" lon="3.34268">
        <ele>257.45541381836</ele>
        <time>2016-03-02T15:08:03.000Z</time>
      </trkpt>
      <trkpt lat="47.02591" lon="3.34272">
        <ele>257.34066772461</ele>
        <time>2016-03-02T15:08:08.000Z</time>
      </trkpt>
      <trkpt lat="47.02594" lon="3.34275">
        <ele>257.20223999023</ele>
        <time>2016-03-02T15:08:09.000Z</time>
      </trkpt>
      <trkpt lat="47.02596" lon="3.34277">
        <ele>257.05560302734</ele>
        <time>2016-03-02T15:08:11.000Z</time>
      </trkpt>
      <trkpt lat="47.02598" lon="3.34278">
        <ele>256.89465332031</ele>
        <time>2016-03-02T15:08:14.000Z</time>
      </trkpt>
      <trkpt lat="47.02599" lon="3.34281">
        <ele>256.73114013672</ele>
        <time>2016-03-02T15:08:17.000Z</time>
      </trkpt>
      <trkpt lat="47.02599" lon="3.34285">
        <ele>256.58447265625</ele>
        <time>2016-03-02T15:08:20.000Z</time>
      </trkpt>
      <trkpt lat="47.02599" lon="3.34291">
        <ele>256.45156860352</ele>
        <time>2016-03-02T15:08:24.000Z</time>
      </trkpt>
      <trkpt lat="47.02599" lon="3.34294">
        <ele>256.33245849609</ele>
        <time>2016-03-02T15:08:26.000Z</time>
      </trkpt>
      <trkpt lat="47.02599" lon="3.34295">
        <ele>256.22991943359</ele>
        <time>2016-03-02T15:08:28.000Z</time>
      </trkpt>
      <trkpt lat="47.02599" lon="3.343">
        <ele>256.13250732422</ele>
        <time>2016-03-02T15:08:31.000Z</time>
      </trkpt>
      <trkpt lat="47.02599" lon="3.34305">
        <ele>256.02947998047</ele>
        <time>2016-03-02T15:08:34.000Z</time>
      </trkpt>
      <trkpt lat="47.02599" lon="3.3431">
        <ele>255.92678833008</ele>
        <time>2016-03-02T15:08:37.000Z</time>
      </trkpt>
      <trkpt lat="47.02599" lon="3.34314">
        <ele>255.81977844238</ele>
        <time>2016-03-02T15:08:39.000Z</time>
      </trkpt>
      <trkpt lat="47.02599" lon="3.34318">
        <ele>255.69506835938</ele>
        <time>2016-03-02T15:08:41.000Z</time>
      </trkpt>
      <trkpt lat="47.02599" lon="3.34322">
        <ele>255.57608032227</ele>
        <time>2016-03-02T15:08:43.000Z</time>
      </trkpt>
      <trkpt lat="47.02599" lon="3.34326">
        <ele>255.46249389648</ele>
        <time>2016-03-02T15:08:46.000Z</time>
      </trkpt>
      <trkpt lat="47.02599" lon="3.3433">
        <ele>255.35513305664</ele>
        <time>2016-03-02T15:08:48.000Z</time>
      </trkpt>
      <trkpt lat="47.02599" lon="3.34332">
        <ele>255.25630187988</ele>
        <time>2016-03-02T15:08:50.000Z</time>
      </trkpt>
      <trkpt lat="47.02599" lon="3.34336">
        <ele>255.16323852539</ele>
        <time>2016-03-02T15:08:53.000Z</time>
      </trkpt>
      <trkpt lat="47.026" lon="3.34341">
        <ele>255.05615234375</ele>
        <time>2016-03-02T15:08:57.000Z</time>
      </trkpt>
      <trkpt lat="47.026" lon="3.34344">
        <ele>254.95584106445</ele>
        <time>2016-03-02T15:08:58.000Z</time>
      </trkpt>
      <trkpt lat="47.02599" lon="3.3435">
        <ele>254.85729980469</ele>
        <time>2016-03-02T15:09:01.000Z</time>
      </trkpt>
      <trkpt lat="47.026" lon="3.34354">
        <ele>254.748046875</ele>
        <time>2016-03-02T15:09:03.000Z</time>
      </trkpt>
      <trkpt lat="47.026" lon="3.34359">
        <ele>254.63513183594</ele>
        <time>2016-03-02T15:09:06.000Z</time>
      </trkpt>
      <trkpt lat="47.026" lon="3.34362">
        <ele>254.52966308594</ele>
        <time>2016-03-02T15:09:08.000Z</time>
      </trkpt>
      <trkpt lat="47.02601" lon="3.34367">
        <ele>254.4052734375</ele>
        <time>2016-03-02T15:09:11.000Z</time>
      </trkpt>
      <trkpt lat="47.02602" lon="3.3437">
        <ele>254.27355957031</ele>
        <time>2016-03-02T15:09:14.000Z</time>
      </trkpt>
      <trkpt lat="47.02602" lon="3.34375">
        <ele>254.14184570312</ele>
        <time>2016-03-02T15:09:17.000Z</time>
      </trkpt>
      <trkpt lat="47.02602" lon="3.3438">
        <ele>254.00439453125</ele>
        <time>2016-03-02T15:09:20.000Z</time>
      </trkpt>
      <trkpt lat="47.02602" lon="3.34384">
        <ele>253.8798828125</ele>
        <time>2016-03-02T15:09:22.000Z</time>
      </trkpt>
      <trkpt lat="47.02601" lon="3.34387">
        <ele>253.77807617188</ele>
        <time>2016-03-02T15:09:25.000Z</time>
      </trkpt>
      <trkpt lat="47.026" lon="3.34391">
        <ele>253.697265625</ele>
        <time>2016-03-02T15:09:27.000Z</time>
      </trkpt>
      <trkpt lat="47.02599" lon="3.34393">
        <ele>253.64538574219</ele>
        <time>2016-03-02T15:09:29.000Z</time>
      </trkpt>
      <trkpt lat="47.02598" lon="3.34395">
        <ele>253.6279296875</ele>
        <time>2016-03-02T15:09:31.000Z</time>
      </trkpt>
      <trkpt lat="47.02596" lon="3.34396">
        <ele>253.63696289062</ele>
        <time>2016-03-02T15:09:34.000Z</time>
      </trkpt>
      <trkpt lat="47.02593" lon="3.34397">
        <ele>253.68859863281</ele>
        <time>2016-03-02T15:09:37.000Z</time>
      </trkpt>
      <trkpt lat="47.02591" lon="3.34397">
        <ele>253.76623535156</ele>
        <time>2016-03-02T15:09:39.000Z</time>
      </trkpt>
      <trkpt lat="47.02589" lon="3.34398">
        <ele>253.86791992188</ele>
        <time>2016-03-02T15:09:42.000Z</time>
      </trkpt>
      <trkpt lat="47.02585" lon="3.344">
        <ele>254.00256347656</ele>
        <time>2016-03-02T15:09:44.000Z</time>
      </trkpt>
      <trkpt lat="47.02583" lon="3.34401">
        <ele>254.1402130127</ele>
        <time>2016-03-02T15:09:47.000Z</time>
      </trkpt>
      <trkpt lat="47.02579" lon="3.34402">
        <ele>254.25454711914</ele>
        <time>2016-03-02T15:09:49.000Z</time>
      </trkpt>
      <trkpt lat="47.02577" lon="3.34403">
        <ele>254.35800170898</ele>
        <time>2016-03-02T15:09:52.000Z</time>
      </trkpt>
      <trkpt lat="47.02572" lon="3.34404">
        <ele>254.46279907227</ele>
        <time>2016-03-02T15:09:54.000Z</time>
      </trkpt>
      <trkpt lat="47.0257" lon="3.34404">
        <ele>254.53984069824</ele>
        <time>2016-03-02T15:09:59.000Z</time>
      </trkpt>
      <trkpt lat="47.02568" lon="3.34405">
        <ele>254.61560058594</ele>
        <time>2016-03-02T15:10:01.000Z</time>
      </trkpt>
      <trkpt lat="47.02566" lon="3.34405">
        <ele>254.68669128418</ele>
        <time>2016-03-02T15:10:01.000Z</time>
      </trkpt>
      <trkpt lat="47.02563" lon="3.34405">
        <ele>254.76802062988</ele>
        <time>2016-03-02T15:10:04.000Z</time>
      </trkpt>
      <trkpt lat="47.0256" lon="3.34405">
        <ele>254.84309387207</ele>
        <time>2016-03-02T15:10:08.000Z</time>
      </trkpt>
      <trkpt lat="47.02559" lon="3.34405">
        <ele>254.91386413574</ele>
        <time>2016-03-02T15:10:09.000Z</time>
      </trkpt>
      <trkpt lat="47.02557" lon="3.34406">
        <ele>254.97583007812</ele>
        <time>2016-03-02T15:10:11.000Z</time>
      </trkpt>
      <trkpt lat="47.02554" lon="3.34407">
        <ele>255.0433807373</ele>
        <time>2016-03-02T15:10:14.000Z</time>
      </trkpt>
      <trkpt lat="47.02551" lon="3.34408">
        <ele>255.11335754395</ele>
        <time>2016-03-02T15:10:17.000Z</time>
      </trkpt>
      <trkpt lat="47.02548" lon="3.34409">
        <ele>255.17855834961</ele>
        <time>2016-03-02T15:10:20.000Z</time>
      </trkpt>
      <trkpt lat="47.02546" lon="3.34409">
        <ele>255.2504119873</ele>
        <time>2016-03-02T15:10:21.000Z</time>
      </trkpt>
      <trkpt lat="47.02543" lon="3.34411">
        <ele>255.33413696289</ele>
        <time>2016-03-02T15:10:25.000Z</time>
      </trkpt>
      <trkpt lat="47.0254" lon="3.34411">
        <ele>255.42126464844</ele>
        <time>2016-03-02T15:10:27.000Z</time>
      </trkpt>
      <trkpt lat="47.02538" lon="3.34412">
        <ele>255.50224304199</ele>
        <time>2016-03-02T15:10:29.000Z</time>
      </trkpt>
      <trkpt lat="47.02534" lon="3.34412">
        <ele>255.58793640137</ele>
        <time>2016-03-02T15:10:31.000Z</time>
      </trkpt>
      <trkpt lat="47.02531" lon="3.34412">
        <ele>255.68566894531</ele>
        <time>2016-03-02T15:10:34.000Z</time>
      </trkpt>
      <trkpt lat="47.02528" lon="3.34413">
        <ele>255.78056335449</ele>
        <time>2016-03-02T15:10:37.000Z</time>
      </trkpt>
      <trkpt lat="47.02527" lon="3.34413">
        <ele>255.86856079102</ele>
        <time>2016-03-02T15:10:39.000Z</time>
      </trkpt>
      <trkpt lat="47.02526" lon="3.34413">
        <ele>255.94584655762</ele>
        <time>2016-03-02T15:10:42.000Z</time>
      </trkpt>
      <trkpt lat="47.02522" lon="3.34416">
        <ele>256.03045654297</ele>
        <time>2016-03-02T15:10:44.000Z</time>
      </trkpt>
      <trkpt lat="47.0252" lon="3.34417">
        <ele>256.10345458984</ele>
        <time>2016-03-02T15:10:47.000Z</time>
      </trkpt>
      <trkpt lat="47.02518" lon="3.34418">
        <ele>256.16400146484</ele>
        <time>2016-03-02T15:10:49.000Z</time>
      </trkpt>
      <trkpt lat="47.02515" lon="3.34419">
        <ele>256.22802734375</ele>
        <time>2016-03-02T15:10:51.000Z</time>
      </trkpt>
      <trkpt lat="47.02512" lon="3.3442">
        <ele>256.29656982422</ele>
        <time>2016-03-02T15:10:54.000Z</time>
      </trkpt>
      <trkpt lat="47.02509" lon="3.34421">
        <ele>256.35104370117</ele>
        <time>2016-03-02T15:10:58.000Z</time>
      </trkpt>
      <trkpt lat="47.02506" lon="3.34421">
        <ele>256.41159057617</ele>
        <time>2016-03-02T15:11:00.000Z</time>
      </trkpt>
      <trkpt lat="47.02502" lon="3.34423">
        <ele>256.48226928711</ele>
        <time>2016-03-02T15:11:04.000Z</time>
      </trkpt>
      <trkpt lat="47.02499" lon="3.34424">
        <ele>256.53308105469</ele>
        <time>2016-03-02T15:11:05.000Z</time>
      </trkpt>
      <trkpt lat="47.02497" lon="3.34424">
        <ele>256.55108642578</ele>
        <time>2016-03-02T15:11:07.000Z</time>
      </trkpt>
      <trkpt lat="47.02496" lon="3.34426">
        <ele>256.5205078125</ele>
        <time>2016-03-02T15:11:10.000Z</time>
      </trkpt>
      <trkpt lat="47.02493" lon="3.34428">
        <ele>256.42803955078</ele>
        <time>2016-03-02T15:11:11.000Z</time>
      </trkpt>
      <trkpt lat="47.0249" lon="3.3443">
        <ele>256.26522827148</ele>
        <time>2016-03-02T15:11:15.000Z</time>
      </trkpt>
      <trkpt lat="47.02487" lon="3.34433">
        <ele>256.05932617188</ele>
        <time>2016-03-02T15:11:17.000Z</time>
      </trkpt>
      <trkpt lat="47.02485" lon="3.34435">
        <ele>255.83984375</ele>
        <time>2016-03-02T15:11:20.000Z</time>
      </trkpt>
      <trkpt lat="47.02483" lon="3.34437">
        <ele>255.61392211914</ele>
        <time>2016-03-02T15:11:21.000Z</time>
      </trkpt>
      <trkpt lat="47.0248" lon="3.34439">
        <ele>255.39364624023</ele>
        <time>2016-03-02T15:11:24.000Z</time>
      </trkpt>
      <trkpt lat="47.02477" lon="3.34441">
        <ele>255.18147277832</ele>
        <time>2016-03-02T15:11:27.000Z</time>
      </trkpt>
      <trkpt lat="47.02475" lon="3.34443">
        <ele>254.98747253418</ele>
        <time>2016-03-02T15:11:31.000Z</time>
      </trkpt>
      <trkpt lat="47.02474" lon="3.34444">
        <ele>254.81546020508</ele>
        <time>2016-03-02T15:11:32.000Z</time>
      </trkpt>
      <trkpt lat="47.02472" lon="3.34446">
        <ele>254.65783691406</ele>
        <time>2016-03-02T15:11:34.000Z</time>
      </trkpt>
      <trkpt lat="47.0247" lon="3.34447">
        <ele>254.51191711426</ele>
        <time>2016-03-02T15:11:37.000Z</time>
      </trkpt>
      <trkpt lat="47.02468" lon="3.34448">
        <ele>254.39602661133</ele>
        <time>2016-03-02T15:11:38.000Z</time>
      </trkpt>
      <trkpt lat="47.02465" lon="3.34451">
        <ele>254.26123046875</ele>
        <time>2016-03-02T15:11:42.000Z</time>
      </trkpt>
      <trkpt lat="47.02464" lon="3.34453">
        <ele>254.11685180664</ele>
        <time>2016-03-02T15:11:43.000Z</time>
      </trkpt>
      <trkpt lat="47.0246" lon="3.34456">
        <ele>253.96545410156</ele>
        <time>2016-03-02T15:11:46.000Z</time>
      </trkpt>
      <trkpt lat="47.02459" lon="3.34458">
        <ele>253.81481933594</ele>
        <time>2016-03-02T15:11:48.000Z</time>
      </trkpt>
      <trkpt lat="47.02457" lon="3.3446">
        <ele>253.66288757324</ele>
        <time>2016-03-02T15:11:50.000Z</time>
      </trkpt>
      <trkpt lat="47.02455" lon="3.34461">
        <ele>253.5373840332</ele>
        <time>2016-03-02T15:11:52.000Z</time>
      </trkpt>
      <trkpt lat="47.02452" lon="3.34463">
        <ele>253.41128540039</ele>
        <time>2016-03-02T15:11:55.000Z</time>
      </trkpt>
      <trkpt lat="47.02449" lon="3.34466">
        <ele>253.29086303711</ele>
        <time>2016-03-02T15:11:58.000Z</time>
      </trkpt>
      <trkpt lat="47.02446" lon="3.34468">
        <ele>253.16934204102</ele>
        <time>2016-03-02T15:12:00.000Z</time>
      </trkpt>
      <trkpt lat="47.02444" lon="3.34469">
        <ele>253.05288696289</ele>
        <time>2016-03-02T15:12:02.000Z</time>
      </trkpt>
      <trkpt lat="47.02441" lon="3.34472">
        <ele>252.92744445801</ele>
        <time>2016-03-02T15:12:05.000Z</time>
      </trkpt>
      <trkpt lat="47.02437" lon="3.34473">
        <ele>252.80187988281</ele>
        <time>2016-03-02T15:12:08.000Z</time>
      </trkpt>
      <trkpt lat="47.02433" lon="3.34476">
        <ele>252.68086242676</ele>
        <time>2016-03-02T15:12:11.000Z</time>
      </trkpt>
      <trkpt lat="47.0243" lon="3.34477">
        <ele>252.56921386719</ele>
        <time>2016-03-02T15:12:15.000Z</time>
      </trkpt>
      <trkpt lat="47.02428" lon="3.34477">
        <ele>252.46113586426</ele>
        <time>2016-03-02T15:12:17.000Z</time>
      </trkpt>
      <trkpt lat="47.02425" lon="3.34477">
        <ele>252.36596679688</ele>
        <time>2016-03-02T15:12:20.000Z</time>
      </trkpt>
      <trkpt lat="47.02422" lon="3.34477">
        <ele>252.28312683105</ele>
        <time>2016-03-02T15:12:22.000Z</time>
      </trkpt>
      <trkpt lat="47.02418" lon="3.34478">
        <ele>252.20280456543</ele>
        <time>2016-03-02T15:12:26.000Z</time>
      </trkpt>
      <trkpt lat="47.02414" lon="3.34479">
        <ele>252.08390808105</ele>
        <time>2016-03-02T15:12:28.000Z</time>
      </trkpt>
      <trkpt lat="47.02412" lon="3.34479">
        <ele>251.94148254395</ele>
        <time>2016-03-02T15:12:30.000Z</time>
      </trkpt>
      <trkpt lat="47.02409" lon="3.34479">
        <ele>251.76298522949</ele>
        <time>2016-03-02T15:12:33.000Z</time>
      </trkpt>
      <trkpt lat="47.02406" lon="3.34478">
        <ele>251.54895019531</ele>
        <time>2016-03-02T15:12:35.000Z</time>
      </trkpt>
      <trkpt lat="47.02402" lon="3.34477">
        <ele>251.2890625</ele>
        <time>2016-03-02T15:12:38.000Z</time>
      </trkpt>
      <trkpt lat="47.02399" lon="3.34476">
        <ele>251.04296875</ele>
        <time>2016-03-02T15:12:41.000Z</time>
      </trkpt>
      <trkpt lat="47.02397" lon="3.34476">
        <ele>250.7900390625</ele>
        <time>2016-03-02T15:12:43.000Z</time>
      </trkpt>
      <trkpt lat="47.02395" lon="3.34476">
        <ele>250.5712890625</ele>
        <time>2016-03-02T15:12:45.000Z</time>
      </trkpt>
      <trkpt lat="47.02391" lon="3.34475">
        <ele>250.33203125</ele>
        <time>2016-03-02T15:12:48.000Z</time>
      </trkpt>
      <trkpt lat="47.0239" lon="3.34475">
        <ele>250.1337890625</ele>
        <time>2016-03-02T15:12:50.000Z</time>
      </trkpt>
      <trkpt lat="47.02388" lon="3.34474">
        <ele>249.9560546875</ele>
        <time>2016-03-02T15:12:52.000Z</time>
      </trkpt>
      <trkpt lat="47.02385" lon="3.34473">
        <ele>249.7578125</ele>
        <time>2016-03-02T15:12:55.000Z</time>
      </trkpt>
      <trkpt lat="47.02384" lon="3.34473">
        <ele>249.5595703125</ele>
        <time>2016-03-02T15:12:58.000Z</time>
      </trkpt>
      <trkpt lat="47.0238" lon="3.34471">
        <ele>249.375</ele>
        <time>2016-03-02T15:13:00.000Z</time>
      </trkpt>
      <trkpt lat="47.02377" lon="3.34469">
        <ele>249.1630859375</ele>
        <time>2016-03-02T15:13:03.000Z</time>
      </trkpt>
      <trkpt lat="47.02374" lon="3.34468">
        <ele>248.923828125</ele>
        <time>2016-03-02T15:13:06.000Z</time>
      </trkpt>
      <trkpt lat="47.02372" lon="3.34467">
        <ele>248.705078125</ele>
        <time>2016-03-02T15:13:08.000Z</time>
      </trkpt>
      <trkpt lat="47.0237" lon="3.34466">
        <ele>248.4794921875</ele>
        <time>2016-03-02T15:13:11.000Z</time>
      </trkpt>
      <trkpt lat="47.02366" lon="3.34464">
        <ele>248.240234375</ele>
        <time>2016-03-02T15:13:13.000Z</time>
      </trkpt>
      <trkpt lat="47.02362" lon="3.34462">
        <ele>247.9873046875</ele>
        <time>2016-03-02T15:13:16.000Z</time>
      </trkpt>
      <trkpt lat="47.02358" lon="3.34459">
        <ele>247.720703125</ele>
        <time>2016-03-02T15:13:19.000Z</time>
      </trkpt>
      <trkpt lat="47.02355" lon="3.34456">
        <ele>247.43359375</ele>
        <time>2016-03-02T15:13:22.000Z</time>
      </trkpt>
      <trkpt lat="47.02352" lon="3.34454">
        <ele>247.1259765625</ele>
        <time>2016-03-02T15:13:25.000Z</time>
      </trkpt>
      <trkpt lat="47.02349" lon="3.34453">
        <ele>246.83203125</ele>
        <time>2016-03-02T15:13:28.000Z</time>
      </trkpt>
      <trkpt lat="47.02345" lon="3.3445">
        <ele>246.5517578125</ele>
        <time>2016-03-02T15:13:31.000Z</time>
      </trkpt>
      <trkpt lat="47.02343" lon="3.34447">
        <ele>246.298828125</ele>
        <time>2016-03-02T15:13:33.000Z</time>
      </trkpt>
      <trkpt lat="47.02341" lon="3.34446">
        <ele>246.06640625</ele>
        <time>2016-03-02T15:13:35.000Z</time>
      </trkpt>
      <trkpt lat="47.02338" lon="3.34444">
        <ele>245.833984375</ele>
        <time>2016-03-02T15:13:39.000Z</time>
      </trkpt>
      <trkpt lat="47.02335" lon="3.34443">
        <ele>245.6015625</ele>
        <time>2016-03-02T15:13:41.000Z</time>
      </trkpt>
      <trkpt lat="47.02332" lon="3.3444">
        <ele>245.3759765625</ele>
        <time>2016-03-02T15:13:45.000Z</time>
      </trkpt>
      <trkpt lat="47.02329" lon="3.34439">
        <ele>245.13671875</ele>
        <time>2016-03-02T15:13:46.000Z</time>
      </trkpt>
      <trkpt lat="47.02327" lon="3.34437">
        <ele>244.904296875</ele>
        <time>2016-03-02T15:13:50.000Z</time>
      </trkpt>
      <trkpt lat="47.02324" lon="3.34434">
        <ele>244.6650390625</ele>
        <time>2016-03-02T15:13:52.000Z</time>
      </trkpt>
      <trkpt lat="47.02322" lon="3.34433">
        <ele>244.4599609375</ele>
        <time>2016-03-02T15:13:54.000Z</time>
      </trkpt>
      <trkpt lat="47.0232" lon="3.34431">
        <ele>244.26171875</ele>
        <time>2016-03-02T15:13:56.000Z</time>
      </trkpt>
      <trkpt lat="47.02317" lon="3.34428">
        <ele>244.0498046875</ele>
        <time>2016-03-02T15:13:59.000Z</time>
      </trkpt>
      <trkpt lat="47.02314" lon="3.34426">
        <ele>243.8310546875</ele>
        <time>2016-03-02T15:14:02.000Z</time>
      </trkpt>
      <trkpt lat="47.02311" lon="3.34424">
        <ele>243.60546875</ele>
        <time>2016-03-02T15:14:05.000Z</time>
      </trkpt>
      <trkpt lat="47.02308" lon="3.34422">
        <ele>243.359375</ele>
        <time>2016-03-02T15:14:08.000Z</time>
      </trkpt>
      <trkpt lat="47.02306" lon="3.34421">
        <ele>243.11328125</ele>
        <time>2016-03-02T15:14:09.000Z</time>
      </trkpt>
      <trkpt lat="47.02304" lon="3.34419">
        <ele>242.9013671875</ele>
        <time>2016-03-02T15:14:11.000Z</time>
      </trkpt>
      <trkpt lat="47.02302" lon="3.34417">
        <ele>242.69633483887</ele>
        <time>2016-03-02T15:14:13.000Z</time>
      </trkpt>
      <trkpt lat="47.02298" lon="3.34414">
        <ele>242.49307250977</ele>
        <time>2016-03-02T15:14:16.000Z</time>
      </trkpt>
      <trkpt lat="47.02294" lon="3.34411">
        <ele>242.2661895752</ele>
        <time>2016-03-02T15:14:19.000Z</time>
      </trkpt>
      <trkpt lat="47.02291" lon="3.34409">
        <ele>242.03002929688</ele>
        <time>2016-03-02T15:14:23.000Z</time>
      </trkpt>
      <trkpt lat="47.02288" lon="3.34407">
        <ele>241.77156066895</ele>
        <time>2016-03-02T15:14:24.000Z</time>
      </trkpt>
      <trkpt lat="47.02285" lon="3.34405">
        <ele>241.51217651367</ele>
        <time>2016-03-02T15:14:26.000Z</time>
      </trkpt>
      <trkpt lat="47.02283" lon="3.34404">
        <ele>241.27651977539</ele>
        <time>2016-03-02T15:14:29.000Z</time>
      </trkpt>
      <trkpt lat="47.02281" lon="3.34403">
        <ele>241.08203125</ele>
        <time>2016-03-02T15:14:30.000Z</time>
      </trkpt>
      <trkpt lat="47.02278" lon="3.34399">
        <ele>240.90127563477</ele>
        <time>2016-03-02T15:14:34.000Z</time>
      </trkpt>
      <trkpt lat="47.02276" lon="3.34396">
        <ele>240.74169921875</ele>
        <time>2016-03-02T15:14:36.000Z</time>
      </trkpt>
      <trkpt lat="47.02274" lon="3.34391">
        <ele>240.59909057617</ele>
        <time>2016-03-02T15:14:40.000Z</time>
      </trkpt>
      <trkpt lat="47.02272" lon="3.34388">
        <ele>240.47187805176</ele>
        <time>2016-03-02T15:14:41.000Z</time>
      </trkpt>
      <trkpt lat="47.0227" lon="3.34386">
        <ele>240.35180664062</ele>
        <time>2016-03-02T15:14:43.000Z</time>
      </trkpt>
      <trkpt lat="47.02269" lon="3.34382">
        <ele>240.25888061523</ele>
        <time>2016-03-02T15:14:46.000Z</time>
      </trkpt>
      <trkpt lat="47.02268" lon="3.3438">
        <ele>240.19409179688</ele>
        <time>2016-03-02T15:14:48.000Z</time>
      </trkpt>
      <trkpt lat="47.02267" lon="3.34378">
        <ele>240.14379882812</ele>
        <time>2016-03-02T15:14:51.000Z</time>
      </trkpt>
      <trkpt lat="47.02266" lon="3.34375">
        <ele>240.10717773438</ele>
        <time>2016-03-02T15:14:52.000Z</time>
      </trkpt>
      <trkpt lat="47.02264" lon="3.34371">
        <ele>240.06747436523</ele>
        <time>2016-03-02T15:14:55.000Z</time>
      </trkpt>
      <trkpt lat="47.02262" lon="3.3437">
        <ele>240.02328491211</ele>
        <time>2016-03-02T15:14:57.000Z</time>
      </trkpt>
      <trkpt lat="47.0226" lon="3.34367">
        <ele>239.96919250488</ele>
        <time>2016-03-02T15:15:00.000Z</time>
      </trkpt>
      <trkpt lat="47.02257" lon="3.34364">
        <ele>239.88862609863</ele>
        <time>2016-03-02T15:15:03.000Z</time>
      </trkpt>
      <trkpt lat="47.02254" lon="3.34362">
        <ele>239.78959655762</ele>
        <time>2016-03-02T15:15:06.000Z</time>
      </trkpt>
      <trkpt lat="47.02252" lon="3.3436">
        <ele>239.68911743164</ele>
        <time>2016-03-02T15:15:09.000Z</time>
      </trkpt>
      <trkpt lat="47.02249" lon="3.34359">
        <ele>239.59074401855</ele>
        <time>2016-03-02T15:15:10.000Z</time>
      </trkpt>
      <trkpt lat="47.02247" lon="3.34358">
        <ele>239.51187133789</ele>
        <time>2016-03-02T15:15:12.000Z</time>
      </trkpt>
      <trkpt lat="47.02245" lon="3.34358">
        <ele>239.47036743164</ele>
        <time>2016-03-02T15:15:14.000Z</time>
      </trkpt>
      <trkpt lat="47.02242" lon="3.34357">
        <ele>239.46797180176</ele>
        <time>2016-03-02T15:15:17.000Z</time>
      </trkpt>
      <trkpt lat="47.02239" lon="3.34356">
        <ele>239.50407409668</ele>
        <time>2016-03-02T15:15:20.000Z</time>
      </trkpt>
      <trkpt lat="47.02238" lon="3.34356">
        <ele>239.5598449707</ele>
        <time>2016-03-02T15:15:22.000Z</time>
      </trkpt>
      <trkpt lat="47.02235" lon="3.34356">
        <ele>239.61457824707</ele>
        <time>2016-03-02T15:15:25.000Z</time>
      </trkpt>
      <trkpt lat="47.02234" lon="3.34355">
        <ele>239.6722869873</ele>
        <time>2016-03-02T15:15:27.000Z</time>
      </trkpt>
      <trkpt lat="47.02231" lon="3.34354">
        <ele>239.73153686523</ele>
        <time>2016-03-02T15:15:31.000Z</time>
      </trkpt>
      <trkpt lat="47.02229" lon="3.34353">
        <ele>239.7836151123</ele>
        <time>2016-03-02T15:15:32.000Z</time>
      </trkpt>
      <trkpt lat="47.02227" lon="3.34353">
        <ele>239.84184265137</ele>
        <time>2016-03-02T15:15:34.000Z</time>
      </trkpt>
      <trkpt lat="47.02223" lon="3.34352">
        <ele>239.90991210938</ele>
        <time>2016-03-02T15:15:37.000Z</time>
      </trkpt>
      <trkpt lat="47.02219" lon="3.34349">
        <ele>240.00039672852</ele>
        <time>2016-03-02T15:15:40.000Z</time>
      </trkpt>
      <trkpt lat="47.02216" lon="3.34347">
        <ele>240.10029602051</ele>
        <time>2016-03-02T15:15:43.000Z</time>
      </trkpt>
      <trkpt lat="47.02213" lon="3.34345">
        <ele>240.22036743164</ele>
        <time>2016-03-02T15:15:46.000Z</time>
      </trkpt>
      <trkpt lat="47.02211" lon="3.34344">
        <ele>240.34286499023</ele>
        <time>2016-03-02T15:15:49.000Z</time>
      </trkpt>
      <trkpt lat="47.02208" lon="3.34342">
        <ele>240.47262573242</ele>
        <time>2016-03-02T15:15:50.000Z</time>
      </trkpt>
      <trkpt lat="47.02205" lon="3.3434">
        <ele>240.59309387207</ele>
        <time>2016-03-02T15:15:52.000Z</time>
      </trkpt>
      <trkpt lat="47.02203" lon="3.34338">
        <ele>240.71748352051</ele>
        <time>2016-03-02T15:15:54.000Z</time>
      </trkpt>
      <trkpt lat="47.022" lon="3.34335">
        <ele>240.845703125</ele>
        <time>2016-03-02T15:15:57.000Z</time>
      </trkpt>
      <trkpt lat="47.02197" lon="3.34332">
        <ele>240.99678039551</ele>
        <time>2016-03-02T15:16:00.000Z</time>
      </trkpt>
      <trkpt lat="47.02194" lon="3.34328">
        <ele>241.16011047363</ele>
        <time>2016-03-02T15:16:03.000Z</time>
      </trkpt>
      <trkpt lat="47.0219" lon="3.34325">
        <ele>241.34622192383</ele>
        <time>2016-03-02T15:16:06.000Z</time>
      </trkpt>
      <trkpt lat="47.02187" lon="3.34322">
        <ele>241.53730773926</ele>
        <time>2016-03-02T15:16:08.000Z</time>
      </trkpt>
      <trkpt lat="47.02185" lon="3.34319">
        <ele>241.71870422363</ele>
        <time>2016-03-02T15:16:11.000Z</time>
      </trkpt>
      <trkpt lat="47.02183" lon="3.34317">
        <ele>241.89184570312</ele>
        <time>2016-03-02T15:16:13.000Z</time>
      </trkpt>
      <trkpt lat="47.0218" lon="3.34313">
        <ele>242.06840515137</ele>
        <time>2016-03-02T15:16:16.000Z</time>
      </trkpt>
      <trkpt lat="47.02177" lon="3.34311">
        <ele>242.22798156738</ele>
        <time>2016-03-02T15:16:18.000Z</time>
      </trkpt>
      <trkpt lat="47.02174" lon="3.34308">
        <ele>242.38945007324</ele>
        <time>2016-03-02T15:16:22.000Z</time>
      </trkpt>
      <trkpt lat="47.02171" lon="3.34305">
        <ele>242.56636047363</ele>
        <time>2016-03-02T15:16:24.000Z</time>
      </trkpt>
      <trkpt lat="47.02169" lon="3.34301">
        <ele>242.74296569824</ele>
        <time>2016-03-02T15:16:27.000Z</time>
      </trkpt>
      <trkpt lat="47.02166" lon="3.34299">
        <ele>242.90405273438</ele>
        <time>2016-03-02T15:16:30.000Z</time>
      </trkpt>
      <trkpt lat="47.02163" lon="3.34297">
        <ele>243.04147338867</ele>
        <time>2016-03-02T15:16:32.000Z</time>
      </trkpt>
      <trkpt lat="47.0216" lon="3.34293">
        <ele>243.15278625488</ele>
        <time>2016-03-02T15:16:35.000Z</time>
      </trkpt>
      <trkpt lat="47.02158" lon="3.34291">
        <ele>243.23095703125</ele>
        <time>2016-03-02T15:16:38.000Z</time>
      </trkpt>
      <trkpt lat="47.02156" lon="3.34289">
        <ele>243.28193664551</ele>
        <time>2016-03-02T15:16:39.000Z</time>
      </trkpt>
      <trkpt lat="47.02153" lon="3.34287">
        <ele>243.31066894531</ele>
        <time>2016-03-02T15:16:41.000Z</time>
      </trkpt>
      <trkpt lat="47.0215" lon="3.34284">
        <ele>243.33378601074</ele>
        <time>2016-03-02T15:16:44.000Z</time>
      </trkpt>
      <trkpt lat="47.02145" lon="3.34283">
        <ele>243.33679199219</ele>
        <time>2016-03-02T15:16:47.000Z</time>
      </trkpt>
      <trkpt lat="47.02141" lon="3.3428">
        <ele>243.33134460449</ele>
        <time>2016-03-02T15:16:50.000Z</time>
      </trkpt>
      <trkpt lat="47.02138" lon="3.34278">
        <ele>243.32832336426</ele>
        <time>2016-03-02T15:16:53.000Z</time>
      </trkpt>
      <trkpt lat="47.02135" lon="3.34275">
        <ele>243.32543945312</ele>
        <time>2016-03-02T15:16:56.000Z</time>
      </trkpt>
      <trkpt lat="47.02132" lon="3.34272">
        <ele>243.33222961426</ele>
        <time>2016-03-02T15:16:58.000Z</time>
      </trkpt>
      <trkpt lat="47.02129" lon="3.3427">
        <ele>243.35063171387</ele>
        <time>2016-03-02T15:17:01.000Z</time>
      </trkpt>
      <trkpt lat="47.02126" lon="3.34267">
        <ele>243.37536621094</ele>
        <time>2016-03-02T15:17:04.000Z</time>
      </trkpt>
      <trkpt lat="47.02123" lon="3.34266">
        <ele>243.38822937012</ele>
        <time>2016-03-02T15:17:06.000Z</time>
      </trkpt>
      <trkpt lat="47.02121" lon="3.34264">
        <ele>243.39839172363</ele>
        <time>2016-03-02T15:17:08.000Z</time>
      </trkpt>
      <trkpt lat="47.02117" lon="3.34263">
        <ele>243.38916015625</ele>
        <time>2016-03-02T15:17:12.000Z</time>
      </trkpt>
      <trkpt lat="47.02113" lon="3.34261">
        <ele>243.36894226074</ele>
        <time>2016-03-02T15:17:14.000Z</time>
      </trkpt>
      <trkpt lat="47.0211" lon="3.34259">
        <ele>243.34355163574</ele>
        <time>2016-03-02T15:17:17.000Z</time>
      </trkpt>
      <trkpt lat="47.02108" lon="3.34258">
        <ele>243.32153320312</ele>
        <time>2016-03-02T15:17:18.000Z</time>
      </trkpt>
      <trkpt lat="47.02104" lon="3.34256">
        <ele>243.29846191406</ele>
        <time>2016-03-02T15:17:22.000Z</time>
      </trkpt>
      <trkpt lat="47.021" lon="3.34253">
        <ele>243.28442382812</ele>
        <time>2016-03-02T15:17:24.000Z</time>
      </trkpt>
      <trkpt lat="47.02097" lon="3.34252">
        <ele>243.27348327637</ele>
        <time>2016-03-02T15:17:26.000Z</time>
      </trkpt>
      <trkpt lat="47.02094" lon="3.34251">
        <ele>243.25947570801</ele>
        <time>2016-03-02T15:17:28.000Z</time>
      </trkpt>
      <trkpt lat="47.0209" lon="3.34248">
        <ele>243.23486328125</ele>
        <time>2016-03-02T15:17:31.000Z</time>
      </trkpt>
      <trkpt lat="47.02087" lon="3.34246">
        <ele>243.19914245605</ele>
        <time>2016-03-02T15:17:34.000Z</time>
      </trkpt>
      <trkpt lat="47.02084" lon="3.34244">
        <ele>243.1481628418</ele>
        <time>2016-03-02T15:17:36.000Z</time>
      </trkpt>
      <trkpt lat="47.02081" lon="3.34241">
        <ele>243.09634399414</ele>
        <time>2016-03-02T15:17:38.000Z</time>
      </trkpt>
      <trkpt lat="47.02078" lon="3.34238">
        <ele>243.04272460938</ele>
        <time>2016-03-02T15:17:41.000Z</time>
      </trkpt>
      <trkpt lat="47.02075" lon="3.34237">
        <ele>242.99703979492</ele>
        <time>2016-03-02T15:17:45.000Z</time>
      </trkpt>
      <trkpt lat="47.02073" lon="3.34236">
        <ele>242.9596862793</ele>
        <time>2016-03-02T15:17:46.000Z</time>
      </trkpt>
      <trkpt lat="47.02068" lon="3.34233">
        <ele>242.9340057373</ele>
        <time>2016-03-02T15:17:49.000Z</time>
      </trkpt>
      <trkpt lat="47.02065" lon="3.3423">
        <ele>242.91496276855</ele>
        <time>2016-03-02T15:17:52.000Z</time>
      </trkpt>
      <trkpt lat="47.0206" lon="3.34226">
        <ele>242.89985656738</ele>
        <time>2016-03-02T15:17:55.000Z</time>
      </trkpt>
      <trkpt lat="47.02057" lon="3.34223">
        <ele>242.89157104492</ele>
        <time>2016-03-02T15:17:58.000Z</time>
      </trkpt>
      <trkpt lat="47.02055" lon="3.3422">
        <ele>242.88940429688</ele>
        <time>2016-03-02T15:18:02.000Z</time>
      </trkpt>
      <trkpt lat="47.02052" lon="3.34218">
        <ele>242.8938293457</ele>
        <time>2016-03-02T15:18:04.000Z</time>
      </trkpt>
      <trkpt lat="47.02049" lon="3.34215">
        <ele>242.90385437012</ele>
        <time>2016-03-02T15:18:08.000Z</time>
      </trkpt>
      <trkpt lat="47.02046" lon="3.34211">
        <ele>242.92179870605</ele>
        <time>2016-03-02T15:18:10.000Z</time>
      </trkpt>
      <trkpt lat="47.02044" lon="3.34209">
        <ele>242.94253540039</ele>
        <time>2016-03-02T15:18:12.000Z</time>
      </trkpt>
      <trkpt lat="47.02041" lon="3.34207">
        <ele>242.96496582031</ele>
        <time>2016-03-02T15:18:15.000Z</time>
      </trkpt>
      <trkpt lat="47.02039" lon="3.34204">
        <ele>242.99296569824</ele>
        <time>2016-03-02T15:18:18.000Z</time>
      </trkpt>
      <trkpt lat="47.02035" lon="3.34201">
        <ele>243.02722167969</ele>
        <time>2016-03-02T15:18:21.000Z</time>
      </trkpt>
      <trkpt lat="47.02032" lon="3.34199">
        <ele>243.0620880127</ele>
        <time>2016-03-02T15:18:23.000Z</time>
      </trkpt>
      <trkpt lat="47.0203" lon="3.34196">
        <ele>243.10050964355</ele>
        <time>2016-03-02T15:18:25.000Z</time>
      </trkpt>
      <trkpt lat="47.02028" lon="3.34194">
        <ele>243.14253234863</ele>
        <time>2016-03-02T15:18:27.000Z</time>
      </trkpt>
      <trkpt lat="47.02024" lon="3.34191">
        <ele>243.19137573242</ele>
        <time>2016-03-02T15:18:31.000Z</time>
      </trkpt>
      <trkpt lat="47.02022" lon="3.34189">
        <ele>243.23893737793</ele>
        <time>2016-03-02T15:18:32.000Z</time>
      </trkpt>
      <trkpt lat="47.02019" lon="3.34186">
        <ele>243.29374694824</ele>
        <time>2016-03-02T15:18:35.000Z</time>
      </trkpt>
      <trkpt lat="47.02015" lon="3.34183">
        <ele>243.35820007324</ele>
        <time>2016-03-02T15:18:38.000Z</time>
      </trkpt>
      <trkpt lat="47.02011" lon="3.3418">
        <ele>243.42988586426</ele>
        <time>2016-03-02T15:18:41.000Z</time>
      </trkpt>
      <trkpt lat="47.02008" lon="3.34178">
        <ele>243.50141906738</ele>
        <time>2016-03-02T15:18:44.000Z</time>
      </trkpt>
      <trkpt lat="47.02005" lon="3.34177">
        <ele>243.57568359375</ele>
        <time>2016-03-02T15:18:46.000Z</time>
      </trkpt>
      <trkpt lat="47.02002" lon="3.34174">
        <ele>243.65510559082</ele>
        <time>2016-03-02T15:18:49.000Z</time>
      </trkpt>
      <trkpt lat="47.01998" lon="3.3417">
        <ele>243.74995422363</ele>
        <time>2016-03-02T15:18:52.000Z</time>
      </trkpt>
      <trkpt lat="47.01995" lon="3.34168">
        <ele>243.8659362793</ele>
        <time>2016-03-02T15:18:55.000Z</time>
      </trkpt>
      <trkpt lat="47.01992" lon="3.34167">
        <ele>243.98690795898</ele>
        <time>2016-03-02T15:18:57.000Z</time>
      </trkpt>
      <trkpt lat="47.0199" lon="3.34165">
        <ele>244.12031555176</ele>
        <time>2016-03-02T15:18:59.000Z</time>
      </trkpt>
      <trkpt lat="47.01987" lon="3.34162">
        <ele>244.27754211426</ele>
        <time>2016-03-02T15:19:02.000Z</time>
      </trkpt>
      <trkpt lat="47.01984" lon="3.3416">
        <ele>244.42739868164</ele>
        <time>2016-03-02T15:19:04.000Z</time>
      </trkpt>
      <trkpt lat="47.01981" lon="3.34157">
        <ele>244.58122253418</ele>
        <time>2016-03-02T15:19:07.000Z</time>
      </trkpt>
      <trkpt lat="47.01978" lon="3.34153">
        <ele>244.75439453125</ele>
        <time>2016-03-02T15:19:10.000Z</time>
      </trkpt>
      <trkpt lat="47.01975" lon="3.34151">
        <ele>244.9345703125</ele>
        <time>2016-03-02T15:19:13.000Z</time>
      </trkpt>
      <trkpt lat="47.01971" lon="3.34148">
        <ele>245.10754394531</ele>
        <time>2016-03-02T15:19:16.000Z</time>
      </trkpt>
      <trkpt lat="47.01968" lon="3.34147">
        <ele>245.28759765625</ele>
        <time>2016-03-02T15:19:19.000Z</time>
      </trkpt>
      <trkpt lat="47.01964" lon="3.34145">
        <ele>245.46691894531</ele>
        <time>2016-03-02T15:19:22.000Z</time>
      </trkpt>
      <trkpt lat="47.0196" lon="3.34143">
        <ele>245.64196777344</ele>
        <time>2016-03-02T15:19:26.000Z</time>
      </trkpt>
      <trkpt lat="47.01957" lon="3.34139">
        <ele>245.82470703125</ele>
        <time>2016-03-02T15:19:28.000Z</time>
      </trkpt>
      <trkpt lat="47.01954" lon="3.34137">
        <ele>246.00634765625</ele>
        <time>2016-03-02T15:19:30.000Z</time>
      </trkpt>
      <trkpt lat="47.0195" lon="3.34134">
        <ele>246.19396972656</ele>
        <time>2016-03-02T15:19:33.000Z</time>
      </trkpt>
      <trkpt lat="47.01946" lon="3.34131">
        <ele>246.38671875</ele>
        <time>2016-03-02T15:19:36.000Z</time>
      </trkpt>
      <trkpt lat="47.01942" lon="3.34128">
        <ele>246.58703613281</ele>
        <time>2016-03-02T15:19:39.000Z</time>
      </trkpt>
      <trkpt lat="47.01939" lon="3.34126">
        <ele>246.78540039062</ele>
        <time>2016-03-02T15:19:43.000Z</time>
      </trkpt>
      <trkpt lat="47.01936" lon="3.34124">
        <ele>246.97802734375</ele>
        <time>2016-03-02T15:19:44.000Z</time>
      </trkpt>
      <trkpt lat="47.01933" lon="3.34122">
        <ele>247.16027832031</ele>
        <time>2016-03-02T15:19:46.000Z</time>
      </trkpt>
      <trkpt lat="47.0193" lon="3.34119">
        <ele>247.32995605469</ele>
        <time>2016-03-02T15:19:49.000Z</time>
      </trkpt>
      <trkpt lat="47.01926" lon="3.34117">
        <ele>247.50354003906</ele>
        <time>2016-03-02T15:19:52.000Z</time>
      </trkpt>
      <trkpt lat="47.01923" lon="3.34114">
        <ele>247.67163085938</ele>
        <time>2016-03-02T15:19:55.000Z</time>
      </trkpt>
      <trkpt lat="47.0192" lon="3.34111">
        <ele>247.84851074219</ele>
        <time>2016-03-02T15:19:58.000Z</time>
      </trkpt>
      <trkpt lat="47.01918" lon="3.34109">
        <ele>248.02111816406</ele>
        <time>2016-03-02T15:20:01.000Z</time>
      </trkpt>
      <trkpt lat="47.01914" lon="3.34106">
        <ele>248.20024108887</ele>
        <time>2016-03-02T15:20:03.000Z</time>
      </trkpt>
      <trkpt lat="47.01912" lon="3.34102">
        <ele>248.361328125</ele>
        <time>2016-03-02T15:20:06.000Z</time>
      </trkpt>
      <trkpt lat="47.01908" lon="3.34099">
        <ele>248.5266418457</ele>
        <time>2016-03-02T15:20:09.000Z</time>
      </trkpt>
      <trkpt lat="47.01905" lon="3.34097">
        <ele>248.68049621582</ele>
        <time>2016-03-02T15:20:12.000Z</time>
      </trkpt>
      <trkpt lat="47.01903" lon="3.34096">
        <ele>248.82308959961</ele>
        <time>2016-03-02T15:20:21.000Z</time>
      </trkpt>
      <trkpt lat="47.01902" lon="3.34094">
        <ele>248.93911743164</ele>
        <time>2016-03-02T15:20:23.000Z</time>
      </trkpt>
      <trkpt lat="47.01899" lon="3.34091">
        <ele>249.05505371094</ele>
        <time>2016-03-02T15:20:26.000Z</time>
      </trkpt>
      <trkpt lat="47.01897" lon="3.34089">
        <ele>249.1506652832</ele>
        <time>2016-03-02T15:20:29.000Z</time>
      </trkpt>
      <trkpt lat="47.01895" lon="3.34087">
        <ele>249.23886108398</ele>
        <time>2016-03-02T15:20:30.000Z</time>
      </trkpt>
      <trkpt lat="47.01892" lon="3.34085">
        <ele>249.33700561523</ele>
        <time>2016-03-02T15:20:32.000Z</time>
      </trkpt>
      <trkpt lat="47.01889" lon="3.34082">
        <ele>249.45243835449</ele>
        <time>2016-03-02T15:20:35.000Z</time>
      </trkpt>
      <trkpt lat="47.01888" lon="3.3408">
        <ele>249.56051635742</ele>
        <time>2016-03-02T15:20:37.000Z</time>
      </trkpt>
      <trkpt lat="47.01885" lon="3.34077">
        <ele>249.68704223633</ele>
        <time>2016-03-02T15:20:41.000Z</time>
      </trkpt>
      <trkpt lat="47.01882" lon="3.34073">
        <ele>249.82919311523</ele>
        <time>2016-03-02T15:20:43.000Z</time>
      </trkpt>
      <trkpt lat="47.01879" lon="3.3407">
        <ele>249.98205566406</ele>
        <time>2016-03-02T15:20:46.000Z</time>
      </trkpt>
      <trkpt lat="47.01877" lon="3.34069">
        <ele>250.12223815918</ele>
        <time>2016-03-02T15:20:48.000Z</time>
      </trkpt>
      <trkpt lat="47.01875" lon="3.34067">
        <ele>250.26235961914</ele>
        <time>2016-03-02T15:20:50.000Z</time>
      </trkpt>
      <trkpt lat="47.01871" lon="3.34063">
        <ele>250.40393066406</ele>
        <time>2016-03-02T15:20:53.000Z</time>
      </trkpt>
      <trkpt lat="47.01871" lon="3.34061">
        <ele>250.52505493164</ele>
        <time>2016-03-02T15:20:55.000Z</time>
      </trkpt>
      <trkpt lat="47.0187" lon="3.3406">
        <ele>250.62397766113</ele>
        <time>2016-03-02T15:20:57.000Z</time>
      </trkpt>
      <trkpt lat="47.01869" lon="3.34059">
        <ele>250.71630859375</ele>
        <time>2016-03-02T15:21:00.000Z</time>
      </trkpt>
      <trkpt lat="47.01869" lon="3.34059">
        <ele>250.71630859375</ele>
        <time>2016-03-02T15:21:20.000Z</time>
      </trkpt>
      <trkpt lat="47.01868" lon="3.34058">
        <ele>250.79475402832</ele>
        <time>2016-03-02T15:21:40.000Z</time>
      </trkpt>
      <trkpt lat="47.01868" lon="3.34058">
        <ele>250.79475402832</ele>
        <time>2016-03-02T15:22:00.000Z</time>
      </trkpt>
      <trkpt lat="47.01867" lon="3.34059">
        <ele>250.83972167969</ele>
        <time>2016-03-02T15:22:25.000Z</time>
      </trkpt>
      <trkpt lat="47.01867" lon="3.34057">
        <ele>250.8802947998</ele>
        <time>2016-03-02T15:22:27.000Z</time>
      </trkpt>
      <trkpt lat="47.01866" lon="3.34056">
        <ele>250.92170715332</ele>
        <time>2016-03-02T15:22:30.000Z</time>
      </trkpt>
      <trkpt lat="47.01866" lon="3.34053">
        <ele>250.97091674805</ele>
        <time>2016-03-02T15:22:32.000Z</time>
      </trkpt>
      <trkpt lat="47.01863" lon="3.34047">
        <ele>251.0524597168</ele>
        <time>2016-03-02T15:22:35.000Z</time>
      </trkpt>
      <trkpt lat="47.01861" lon="3.34044">
        <ele>251.15664672852</ele>
        <time>2016-03-02T15:22:38.000Z</time>
      </trkpt>
      <trkpt lat="47.01859" lon="3.34042">
        <ele>251.27474975586</ele>
        <time>2016-03-02T15:22:41.000Z</time>
      </trkpt>
      <trkpt lat="47.01856" lon="3.34039">
        <ele>251.40548706055</ele>
        <time>2016-03-02T15:22:44.000Z</time>
      </trkpt>
      <trkpt lat="47.01855" lon="3.34036">
        <ele>251.53706359863</ele>
        <time>2016-03-02T15:22:46.000Z</time>
      </trkpt>
      <trkpt lat="47.01854" lon="3.34034">
        <ele>251.64663696289</ele>
        <time>2016-03-02T15:22:48.000Z</time>
      </trkpt>
      <trkpt lat="47.01852" lon="3.34031">
        <ele>251.75198364258</ele>
        <time>2016-03-02T15:22:50.000Z</time>
      </trkpt>
      <trkpt lat="47.0185" lon="3.34029">
        <ele>251.84834289551</ele>
        <time>2016-03-02T15:22:52.000Z</time>
      </trkpt>
      <trkpt lat="47.01849" lon="3.34027">
        <ele>251.9348449707</ele>
        <time>2016-03-02T15:22:55.000Z</time>
      </trkpt>
      <trkpt lat="47.01846" lon="3.34024">
        <ele>252.02934265137</ele>
        <time>2016-03-02T15:22:58.000Z</time>
      </trkpt>
      <trkpt lat="47.01844" lon="3.34021">
        <ele>252.12609863281</ele>
        <time>2016-03-02T15:23:01.000Z</time>
      </trkpt>
      <trkpt lat="47.01842" lon="3.34018">
        <ele>252.22616577148</ele>
        <time>2016-03-02T15:23:04.000Z</time>
      </trkpt>
      <trkpt lat="47.0184" lon="3.34016">
        <ele>252.32734680176</ele>
        <time>2016-03-02T15:23:06.000Z</time>
      </trkpt>
      <trkpt lat="47.01838" lon="3.34013">
        <ele>252.43049621582</ele>
        <time>2016-03-02T15:23:08.000Z</time>
      </trkpt>
      <trkpt lat="47.01837" lon="3.3401">
        <ele>252.52612304688</ele>
        <time>2016-03-02T15:23:11.000Z</time>
      </trkpt>
      <trkpt lat="47.01835" lon="3.34008">
        <ele>252.61825561523</ele>
        <time>2016-03-02T15:23:12.000Z</time>
      </trkpt>
      <trkpt lat="47.01832" lon="3.34004">
        <ele>252.70751953125</ele>
        <time>2016-03-02T15:23:15.000Z</time>
      </trkpt>
      <trkpt lat="47.0183" lon="3.34001">
        <ele>252.79797363281</ele>
        <time>2016-03-02T15:23:18.000Z</time>
      </trkpt>
      <trkpt lat="47.01828" lon="3.33998">
        <ele>252.88020324707</ele>
        <time>2016-03-02T15:23:22.000Z</time>
      </trkpt>
      <trkpt lat="47.01826" lon="3.33995">
        <ele>252.94892883301</ele>
        <time>2016-03-02T15:23:24.000Z</time>
      </trkpt>
      <trkpt lat="47.01825" lon="3.33993">
        <ele>253.00582885742</ele>
        <time>2016-03-02T15:23:26.000Z</time>
      </trkpt>
      <trkpt lat="47.01822" lon="3.33989">
        <ele>253.04997253418</ele>
        <time>2016-03-02T15:23:29.000Z</time>
      </trkpt>
      <trkpt lat="47.0182" lon="3.33986">
        <ele>253.0827331543</ele>
        <time>2016-03-02T15:23:33.000Z</time>
      </trkpt>
      <trkpt lat="47.01818" lon="3.33982">
        <ele>253.11360168457</ele>
        <time>2016-03-02T15:23:35.000Z</time>
      </trkpt>
      <trkpt lat="47.01814" lon="3.33977">
        <ele>253.1452331543</ele>
        <time>2016-03-02T15:23:38.000Z</time>
      </trkpt>
      <trkpt lat="47.01812" lon="3.33974">
        <ele>253.17691040039</ele>
        <time>2016-03-02T15:23:41.000Z</time>
      </trkpt>
      <trkpt lat="47.0181" lon="3.33971">
        <ele>253.20376586914</ele>
        <time>2016-03-02T15:23:44.000Z</time>
      </trkpt>
      <trkpt lat="47.01808" lon="3.33968">
        <ele>253.22871398926</ele>
        <time>2016-03-02T15:23:46.000Z</time>
      </trkpt>
      <trkpt lat="47.01805" lon="3.33964">
        <ele>253.25</ele>
        <time>2016-03-02T15:23:50.000Z</time>
      </trkpt>
      <trkpt lat="47.01803" lon="3.3396">
        <ele>253.2682800293</ele>
        <time>2016-03-02T15:23:52.000Z</time>
      </trkpt>
      <trkpt lat="47.018" lon="3.33957">
        <ele>253.28388977051</ele>
        <time>2016-03-02T15:23:55.000Z</time>
      </trkpt>
      <trkpt lat="47.01797" lon="3.33953">
        <ele>253.29862976074</ele>
        <time>2016-03-02T15:23:58.000Z</time>
      </trkpt>
      <trkpt lat="47.01796" lon="3.33951">
        <ele>253.3090057373</ele>
        <time>2016-03-02T15:24:00.000Z</time>
      </trkpt>
      <trkpt lat="47.01793" lon="3.33948">
        <ele>253.31513977051</ele>
        <time>2016-03-02T15:24:03.000Z</time>
      </trkpt>
      <trkpt lat="47.01789" lon="3.33945">
        <ele>253.31665039062</ele>
        <time>2016-03-02T15:24:06.000Z</time>
      </trkpt>
      <trkpt lat="47.01787" lon="3.33943">
        <ele>253.31526184082</ele>
        <time>2016-03-02T15:24:09.000Z</time>
      </trkpt>
      <trkpt lat="47.01783" lon="3.33938">
        <ele>253.30953979492</ele>
        <time>2016-03-02T15:24:12.000Z</time>
      </trkpt>
      <trkpt lat="47.01781" lon="3.33936">
        <ele>253.30290222168</ele>
        <time>2016-03-02T15:24:14.000Z</time>
      </trkpt>
      <trkpt lat="47.0178" lon="3.33935">
        <ele>253.2956237793</ele>
        <time>2016-03-02T15:24:16.000Z</time>
      </trkpt>
      <trkpt lat="47.01776" lon="3.3393">
        <ele>253.28579711914</ele>
        <time>2016-03-02T15:24:19.000Z</time>
      </trkpt>
      <trkpt lat="47.01773" lon="3.33927">
        <ele>253.27401733398</ele>
        <time>2016-03-02T15:24:22.000Z</time>
      </trkpt>
      <trkpt lat="47.01772" lon="3.33925">
        <ele>253.26252746582</ele>
        <time>2016-03-02T15:24:24.000Z</time>
      </trkpt>
      <trkpt lat="47.0177" lon="3.33922">
        <ele>253.2487487793</ele>
        <time>2016-03-02T15:24:26.000Z</time>
      </trkpt>
      <trkpt lat="47.01767" lon="3.33919">
        <ele>253.23275756836</ele>
        <time>2016-03-02T15:24:29.000Z</time>
      </trkpt>
      <trkpt lat="47.01765" lon="3.33915">
        <ele>253.22012329102</ele>
        <time>2016-03-02T15:24:32.000Z</time>
      </trkpt>
      <trkpt lat="47.01762" lon="3.3391">
        <ele>253.21664428711</ele>
        <time>2016-03-02T15:24:35.000Z</time>
      </trkpt>
      <trkpt lat="47.01761" lon="3.33908">
        <ele>253.21640014648</ele>
        <time>2016-03-02T15:24:37.000Z</time>
      </trkpt>
      <trkpt lat="47.01759" lon="3.33906">
        <ele>253.21870422363</ele>
        <time>2016-03-02T15:24:39.000Z</time>
      </trkpt>
      <trkpt lat="47.01755" lon="3.33902">
        <ele>253.22514343262</ele>
        <time>2016-03-02T15:24:42.000Z</time>
      </trkpt>
      <trkpt lat="47.01753" lon="3.33899">
        <ele>253.23400878906</ele>
        <time>2016-03-02T15:24:46.000Z</time>
      </trkpt>
      <trkpt lat="47.01751" lon="3.33895">
        <ele>253.24223327637</ele>
        <time>2016-03-02T15:24:48.000Z</time>
      </trkpt>
      <trkpt lat="47.01749" lon="3.33893">
        <ele>253.24723815918</ele>
        <time>2016-03-02T15:24:51.000Z</time>
      </trkpt>
      <trkpt lat="47.01746" lon="3.33889">
        <ele>253.25248718262</ele>
        <time>2016-03-02T15:24:53.000Z</time>
      </trkpt>
      <trkpt lat="47.01744" lon="3.33885">
        <ele>253.25581359863</ele>
        <time>2016-03-02T15:24:56.000Z</time>
      </trkpt>
      <trkpt lat="47.01742" lon="3.33882">
        <ele>253.25686645508</ele>
        <time>2016-03-02T15:24:59.000Z</time>
      </trkpt>
      <trkpt lat="47.01741" lon="3.33881">
        <ele>253.25119018555</ele>
        <time>2016-03-02T15:25:02.000Z</time>
      </trkpt>
      <trkpt lat="47.0174" lon="3.33879">
        <ele>253.24487304688</ele>
        <time>2016-03-02T15:25:03.000Z</time>
      </trkpt>
      <trkpt lat="47.01738" lon="3.33876">
        <ele>253.23315429688</ele>
        <time>2016-03-02T15:25:07.000Z</time>
      </trkpt>
      <trkpt lat="47.01736" lon="3.33875">
        <ele>253.21952819824</ele>
        <time>2016-03-02T15:25:09.000Z</time>
      </trkpt>
      <trkpt lat="47.01734" lon="3.33871">
        <ele>253.19738769531</ele>
        <time>2016-03-02T15:25:13.000Z</time>
      </trkpt>
      <trkpt lat="47.01731" lon="3.33868">
        <ele>253.16543579102</ele>
        <time>2016-03-02T15:25:15.000Z</time>
      </trkpt>
      <trkpt lat="47.01728" lon="3.33864">
        <ele>253.12704467773</ele>
        <time>2016-03-02T15:25:19.000Z</time>
      </trkpt>
      <trkpt lat="47.01727" lon="3.33862">
        <ele>253.087890625</ele>
        <time>2016-03-02T15:25:20.000Z</time>
      </trkpt>
      <trkpt lat="47.01724" lon="3.33859">
        <ele>253.04379272461</ele>
        <time>2016-03-02T15:25:22.000Z</time>
      </trkpt>
      <trkpt lat="47.01722" lon="3.33857">
        <ele>252.998046875</ele>
        <time>2016-03-02T15:25:25.000Z</time>
      </trkpt>
      <trkpt lat="47.01721" lon="3.33856">
        <ele>252.95523071289</ele>
        <time>2016-03-02T15:25:26.000Z</time>
      </trkpt>
      <trkpt lat="47.01718" lon="3.33853">
        <ele>252.90612792969</ele>
        <time>2016-03-02T15:25:30.000Z</time>
      </trkpt>
      <trkpt lat="47.01715" lon="3.33849">
        <ele>252.84782409668</ele>
        <time>2016-03-02T15:25:32.000Z</time>
      </trkpt>
      <trkpt lat="47.01712" lon="3.33846">
        <ele>252.78109741211</ele>
        <time>2016-03-02T15:25:35.000Z</time>
      </trkpt>
      <trkpt lat="47.01711" lon="3.33843">
        <ele>252.71975708008</ele>
        <time>2016-03-02T15:25:37.000Z</time>
      </trkpt>
      <trkpt lat="47.0171" lon="3.33841">
        <ele>252.65908813477</ele>
        <time>2016-03-02T15:25:40.000Z</time>
      </trkpt>
      <trkpt lat="47.01708" lon="3.33839">
        <ele>252.59687805176</ele>
        <time>2016-03-02T15:25:42.000Z</time>
      </trkpt>
      <trkpt lat="47.01706" lon="3.33835">
        <ele>252.53596496582</ele>
        <time>2016-03-02T15:25:46.000Z</time>
      </trkpt>
      <trkpt lat="47.01703" lon="3.33832">
        <ele>252.46401977539</ele>
        <time>2016-03-02T15:25:47.000Z</time>
      </trkpt>
      <trkpt lat="47.01701" lon="3.33828">
        <ele>252.34286499023</ele>
        <time>2016-03-02T15:25:50.000Z</time>
      </trkpt>
      <trkpt lat="47.01699" lon="3.33824">
        <ele>252.17961120605</ele>
        <time>2016-03-02T15:25:53.000Z</time>
      </trkpt>
      <trkpt lat="47.01696" lon="3.33821">
        <ele>251.9779510498</ele>
        <time>2016-03-02T15:25:57.000Z</time>
      </trkpt>
      <trkpt lat="47.01695" lon="3.33819">
        <ele>251.76504516602</ele>
        <time>2016-03-02T15:25:58.000Z</time>
      </trkpt>
      <trkpt lat="47.01691" lon="3.33816">
        <ele>251.51599121094</ele>
        <time>2016-03-02T15:26:01.000Z</time>
      </trkpt>
      <trkpt lat="47.0169" lon="3.33814">
        <ele>251.28483581543</ele>
        <time>2016-03-02T15:26:03.000Z</time>
      </trkpt>
      <trkpt lat="47.01688" lon="3.33813">
        <ele>251.07650756836</ele>
        <time>2016-03-02T15:26:05.000Z</time>
      </trkpt>
      <trkpt lat="47.01686" lon="3.33811">
        <ele>250.89218139648</ele>
        <time>2016-03-02T15:26:07.000Z</time>
      </trkpt>
      <trkpt lat="47.01684" lon="3.3381">
        <ele>250.70059204102</ele>
        <time>2016-03-02T15:26:09.000Z</time>
      </trkpt>
      <trkpt lat="47.01683" lon="3.33808">
        <ele>250.54350280762</ele>
        <time>2016-03-02T15:26:12.000Z</time>
      </trkpt>
      <trkpt lat="47.01682" lon="3.33807">
        <ele>250.40542602539</ele>
        <time>2016-03-02T15:26:26.000Z</time>
      </trkpt>
      <trkpt lat="47.01681" lon="3.33805">
        <ele>250.26406860352</ele>
        <time>2016-03-02T15:26:28.000Z</time>
      </trkpt>
      <trkpt lat="47.01678" lon="3.338">
        <ele>250.06074523926</ele>
        <time>2016-03-02T15:26:30.000Z</time>
      </trkpt>
      <trkpt lat="47.01675" lon="3.33797">
        <ele>249.82817077637</ele>
        <time>2016-03-02T15:26:33.000Z</time>
      </trkpt>
      <trkpt lat="47.01673" lon="3.33795">
        <ele>249.59049987793</ele>
        <time>2016-03-02T15:26:35.000Z</time>
      </trkpt>
      <trkpt lat="47.0167" lon="3.33792">
        <ele>249.3046875</ele>
        <time>2016-03-02T15:26:38.000Z</time>
      </trkpt>
      <trkpt lat="47.01668" lon="3.33791">
        <ele>249.01460266113</ele>
        <time>2016-03-02T15:26:40.000Z</time>
      </trkpt>
      <trkpt lat="47.01665" lon="3.33789">
        <ele>248.75561523438</ele>
        <time>2016-03-02T15:26:43.000Z</time>
      </trkpt>
      <trkpt lat="47.01664" lon="3.33787">
        <ele>248.51596069336</ele>
        <time>2016-03-02T15:26:45.000Z</time>
      </trkpt>
      <trkpt lat="47.01661" lon="3.33783">
        <ele>248.22915649414</ele>
        <time>2016-03-02T15:26:49.000Z</time>
      </trkpt>
      <trkpt lat="47.01657" lon="3.3378">
        <ele>247.92678833008</ele>
        <time>2016-03-02T15:26:51.000Z</time>
      </trkpt>
      <trkpt lat="47.01655" lon="3.33778">
        <ele>247.6136932373</ele>
        <time>2016-03-02T15:26:55.000Z</time>
      </trkpt>
      <trkpt lat="47.01654" lon="3.33776">
        <ele>247.33432006836</ele>
        <time>2016-03-02T15:26:56.000Z</time>
      </trkpt>
      <trkpt lat="47.01653" lon="3.33775">
        <ele>247.06973266602</ele>
        <time>2016-03-02T15:26:58.000Z</time>
      </trkpt>
      <trkpt lat="47.01652" lon="3.33773">
        <ele>246.85067749023</ele>
        <time>2016-03-02T15:27:01.000Z</time>
      </trkpt>
      <trkpt lat="47.0165" lon="3.33773">
        <ele>246.69177246094</ele>
        <time>2016-03-02T15:27:04.000Z</time>
      </trkpt>
      <trkpt lat="47.01649" lon="3.33774">
        <ele>246.5732421875</ele>
        <time>2016-03-02T15:27:07.000Z</time>
      </trkpt>
      <trkpt lat="47.01648" lon="3.33775">
        <ele>246.47888183594</ele>
        <time>2016-03-02T15:27:09.000Z</time>
      </trkpt>
      <trkpt lat="47.01648" lon="3.33775">
        <ele>246.47888183594</ele>
        <time>2016-03-02T15:27:29.000Z</time>
      </trkpt>
      <trkpt lat="47.01647" lon="3.33773">
        <ele>246.38806152344</ele>
        <time>2016-03-02T15:27:59.000Z</time>
      </trkpt>
      <trkpt lat="47.01646" lon="3.33766">
        <ele>246.25573730469</ele>
        <time>2016-03-02T15:28:02.000Z</time>
      </trkpt>
      <trkpt lat="47.01645" lon="3.33762">
        <ele>246.08744812012</ele>
        <time>2016-03-02T15:28:05.000Z</time>
      </trkpt>
      <trkpt lat="47.01641" lon="3.33758">
        <ele>245.83850097656</ele>
        <time>2016-03-02T15:28:08.000Z</time>
      </trkpt>
      <trkpt lat="47.0164" lon="3.33756">
        <ele>245.56159973145</ele>
        <time>2016-03-02T15:28:10.000Z</time>
      </trkpt>
      <trkpt lat="47.01638" lon="3.33755">
        <ele>245.2844543457</ele>
        <time>2016-03-02T15:28:13.000Z</time>
      </trkpt>
      <trkpt lat="47.01634" lon="3.3375">
        <ele>245.00012207031</ele>
        <time>2016-03-02T15:28:15.000Z</time>
      </trkpt>
      <trkpt lat="47.01632" lon="3.33747">
        <ele>244.74887084961</ele>
        <time>2016-03-02T15:28:18.000Z</time>
      </trkpt>
      <trkpt lat="47.0163" lon="3.33743">
        <ele>244.54495239258</ele>
        <time>2016-03-02T15:28:19.000Z</time>
      </trkpt>
      <trkpt lat="47.01628" lon="3.3374">
        <ele>244.34719848633</ele>
        <time>2016-03-02T15:28:22.000Z</time>
      </trkpt>
      <trkpt lat="47.01626" lon="3.33737">
        <ele>244.15180969238</ele>
        <time>2016-03-02T15:28:25.000Z</time>
      </trkpt>
      <trkpt lat="47.01622" lon="3.33732">
        <ele>243.99880981445</ele>
        <time>2016-03-02T15:28:29.000Z</time>
      </trkpt>
      <trkpt lat="47.01621" lon="3.3373">
        <ele>243.84994506836</ele>
        <time>2016-03-02T15:28:30.000Z</time>
      </trkpt>
      <trkpt lat="47.01619" lon="3.33725">
        <ele>243.71313476562</ele>
        <time>2016-03-02T15:28:34.000Z</time>
      </trkpt>
      <trkpt lat="47.01616" lon="3.33721">
        <ele>243.56796264648</ele>
        <time>2016-03-02T15:28:36.000Z</time>
      </trkpt>
      <trkpt lat="47.01614" lon="3.33719">
        <ele>243.42825317383</ele>
        <time>2016-03-02T15:28:38.000Z</time>
      </trkpt>
      <trkpt lat="47.01611" lon="3.33715">
        <ele>243.30020141602</ele>
        <time>2016-03-02T15:28:41.000Z</time>
      </trkpt>
      <trkpt lat="47.01608" lon="3.3371">
        <ele>243.16645812988</ele>
        <time>2016-03-02T15:28:45.000Z</time>
      </trkpt>
      <trkpt lat="47.01607" lon="3.33708">
        <ele>243.04638671875</ele>
        <time>2016-03-02T15:28:46.000Z</time>
      </trkpt>
      <trkpt lat="47.01604" lon="3.33703">
        <ele>242.93716430664</ele>
        <time>2016-03-02T15:28:49.000Z</time>
      </trkpt>
      <trkpt lat="47.01602" lon="3.337">
        <ele>242.82527160645</ele>
        <time>2016-03-02T15:28:52.000Z</time>
      </trkpt>
      <trkpt lat="47.01599" lon="3.33696">
        <ele>242.72152709961</ele>
        <time>2016-03-02T15:28:55.000Z</time>
      </trkpt>
      <trkpt lat="47.01598" lon="3.33693">
        <ele>242.63296508789</ele>
        <time>2016-03-02T15:28:57.000Z</time>
      </trkpt>
      <trkpt lat="47.01596" lon="3.3369">
        <ele>242.54170227051</ele>
        <time>2016-03-02T15:28:59.000Z</time>
      </trkpt>
      <trkpt lat="47.01594" lon="3.33687">
        <ele>242.4593963623</ele>
        <time>2016-03-02T15:29:02.000Z</time>
      </trkpt>
      <trkpt lat="47.01591" lon="3.33683">
        <ele>242.37576293945</ele>
        <time>2016-03-02T15:29:04.000Z</time>
      </trkpt>
      <trkpt lat="47.01589" lon="3.3368">
        <ele>242.30700683594</ele>
        <time>2016-03-02T15:29:08.000Z</time>
      </trkpt>
      <trkpt lat="47.01587" lon="3.33676">
        <ele>242.23159790039</ele>
        <time>2016-03-02T15:29:10.000Z</time>
      </trkpt>
      <trkpt lat="47.01584" lon="3.33673">
        <ele>242.15841674805</ele>
        <time>2016-03-02T15:29:12.000Z</time>
      </trkpt>
      <trkpt lat="47.01581" lon="3.33668">
        <ele>242.10050964355</ele>
        <time>2016-03-02T15:29:15.000Z</time>
      </trkpt>
      <trkpt lat="47.01579" lon="3.33665">
        <ele>242.07421875</ele>
        <time>2016-03-02T15:29:19.000Z</time>
      </trkpt>
      <trkpt lat="47.01576" lon="3.33663">
        <ele>242.06600952148</ele>
        <time>2016-03-02T15:29:20.000Z</time>
      </trkpt>
      <trkpt lat="47.01573" lon="3.33659">
        <ele>242.09262084961</ele>
        <time>2016-03-02T15:29:24.000Z</time>
      </trkpt>
      <trkpt lat="47.01569" lon="3.33655">
        <ele>242.15124511719</ele>
        <time>2016-03-02T15:29:26.000Z</time>
      </trkpt>
      <trkpt lat="47.01566" lon="3.33651">
        <ele>242.22529602051</ele>
        <time>2016-03-02T15:29:30.000Z</time>
      </trkpt>
      <trkpt lat="47.01564" lon="3.33646">
        <ele>242.30517578125</ele>
        <time>2016-03-02T15:29:32.000Z</time>
      </trkpt>
      <trkpt lat="47.01563" lon="3.33643">
        <ele>242.38586425781</ele>
        <time>2016-03-02T15:29:35.000Z</time>
      </trkpt>
      <trkpt lat="47.01563" lon="3.33639">
        <ele>242.45983886719</ele>
        <time>2016-03-02T15:29:36.000Z</time>
      </trkpt>
      <trkpt lat="47.01561" lon="3.33632">
        <ele>242.53625488281</ele>
        <time>2016-03-02T15:29:39.000Z</time>
      </trkpt>
      <trkpt lat="47.01559" lon="3.33627">
        <ele>242.60981750488</ele>
        <time>2016-03-02T15:29:41.000Z</time>
      </trkpt>
      <trkpt lat="47.01558" lon="3.33624">
        <ele>242.67704772949</ele>
        <time>2016-03-02T15:29:43.000Z</time>
      </trkpt>
      <trkpt lat="47.01556" lon="3.3362">
        <ele>242.74890136719</ele>
        <time>2016-03-02T15:29:47.000Z</time>
      </trkpt>
      <trkpt lat="47.01555" lon="3.33616">
        <ele>242.82141113281</ele>
        <time>2016-03-02T15:29:49.000Z</time>
      </trkpt>
      <trkpt lat="47.01553" lon="3.33611">
        <ele>242.888671875</ele>
        <time>2016-03-02T15:29:52.000Z</time>
      </trkpt>
      <trkpt lat="47.01552" lon="3.33607">
        <ele>242.95600891113</ele>
        <time>2016-03-02T15:29:54.000Z</time>
      </trkpt>
      <trkpt lat="47.01551" lon="3.33602">
        <ele>243.02729797363</ele>
        <time>2016-03-02T15:29:58.000Z</time>
      </trkpt>
      <trkpt lat="47.01551" lon="3.33598">
        <ele>243.09159851074</ele>
        <time>2016-03-02T15:29:59.000Z</time>
      </trkpt>
      <trkpt lat="47.01551" lon="3.33595">
        <ele>243.15209960938</ele>
        <time>2016-03-02T15:30:01.000Z</time>
      </trkpt>
      <trkpt lat="47.01551" lon="3.3359">
        <ele>243.20634460449</ele>
        <time>2016-03-02T15:30:03.000Z</time>
      </trkpt>
      <trkpt lat="47.0155" lon="3.33584">
        <ele>243.26330566406</ele>
        <time>2016-03-02T15:30:06.000Z</time>
      </trkpt>
      <trkpt lat="47.0155" lon="3.33581">
        <ele>243.32661437988</ele>
        <time>2016-03-02T15:30:09.000Z</time>
      </trkpt>
      <trkpt lat="47.01548" lon="3.33578">
        <ele>243.40536499023</ele>
        <time>2016-03-02T15:30:11.000Z</time>
      </trkpt>
      <trkpt lat="47.01547" lon="3.33574">
        <ele>243.50009155273</ele>
        <time>2016-03-02T15:30:14.000Z</time>
      </trkpt>
      <trkpt lat="47.01546" lon="3.33571">
        <ele>243.60542297363</ele>
        <time>2016-03-02T15:30:15.000Z</time>
      </trkpt>
      <trkpt lat="47.01545" lon="3.33566">
        <ele>243.72598266602</ele>
        <time>2016-03-02T15:30:19.000Z</time>
      </trkpt>
      <trkpt lat="47.01545" lon="3.3356">
        <ele>243.86296081543</ele>
        <time>2016-03-02T15:30:21.000Z</time>
      </trkpt>
      <trkpt lat="47.01545" lon="3.33556">
        <ele>244.00061035156</ele>
        <time>2016-03-02T15:30:23.000Z</time>
      </trkpt>
      <trkpt lat="47.01546" lon="3.33549">
        <ele>244.1520690918</ele>
        <time>2016-03-02T15:30:26.000Z</time>
      </trkpt>
      <trkpt lat="47.01548" lon="3.33546">
        <ele>244.30073547363</ele>
        <time>2016-03-02T15:30:28.000Z</time>
      </trkpt>
      <trkpt lat="47.0155" lon="3.33542">
        <ele>244.44404602051</ele>
        <time>2016-03-02T15:30:31.000Z</time>
      </trkpt>
      <trkpt lat="47.01551" lon="3.33539">
        <ele>244.56742858887</ele>
        <time>2016-03-02T15:30:33.000Z</time>
      </trkpt>
      <trkpt lat="47.01555" lon="3.33535">
        <ele>244.68681335449</ele>
        <time>2016-03-02T15:30:36.000Z</time>
      </trkpt>
      <trkpt lat="47.01558" lon="3.3353">
        <ele>244.79472351074</ele>
        <time>2016-03-02T15:30:39.000Z</time>
      </trkpt>
      <trkpt lat="47.0156" lon="3.33527">
        <ele>244.90657043457</ele>
        <time>2016-03-02T15:30:42.000Z</time>
      </trkpt>
      <trkpt lat="47.01562" lon="3.33522">
        <ele>245.02067565918</ele>
        <time>2016-03-02T15:30:44.000Z</time>
      </trkpt>
      <trkpt lat="47.01563" lon="3.33518">
        <ele>245.14518737793</ele>
        <time>2016-03-02T15:30:46.000Z</time>
      </trkpt>
      <trkpt lat="47.01565" lon="3.33514">
        <ele>245.27474975586</ele>
        <time>2016-03-02T15:30:49.000Z</time>
      </trkpt>
      <trkpt lat="47.01565" lon="3.33509">
        <ele>245.40957641602</ele>
        <time>2016-03-02T15:30:52.000Z</time>
      </trkpt>
      <trkpt lat="47.01565" lon="3.33505">
        <ele>245.54843139648</ele>
        <time>2016-03-02T15:30:54.000Z</time>
      </trkpt>
      <trkpt lat="47.01565" lon="3.33499">
        <ele>245.69926452637</ele>
        <time>2016-03-02T15:30:57.000Z</time>
      </trkpt>
      <trkpt lat="47.01564" lon="3.33494">
        <ele>245.85025024414</ele>
        <time>2016-03-02T15:31:00.000Z</time>
      </trkpt>
      <trkpt lat="47.01563" lon="3.33491">
        <ele>245.99263000488</ele>
        <time>2016-03-02T15:31:02.000Z</time>
      </trkpt>
      <trkpt lat="47.01562" lon="3.33488">
        <ele>246.11669921875</ele>
        <time>2016-03-02T15:31:05.000Z</time>
      </trkpt>
      <trkpt lat="47.01561" lon="3.33484">
        <ele>246.23422241211</ele>
        <time>2016-03-02T15:31:06.000Z</time>
      </trkpt>
      <trkpt lat="47.01559" lon="3.33478">
        <ele>246.33993530273</ele>
        <time>2016-03-02T15:31:09.000Z</time>
      </trkpt>
      <trkpt lat="47.01557" lon="3.33474">
        <ele>246.43600463867</ele>
        <time>2016-03-02T15:31:12.000Z</time>
      </trkpt>
      <trkpt lat="47.01557" lon="3.3347">
        <ele>246.5339050293</ele>
        <time>2016-03-02T15:31:16.000Z</time>
      </trkpt>
      <trkpt lat="47.01555" lon="3.33466">
        <ele>246.62919616699</ele>
        <time>2016-03-02T15:31:18.000Z</time>
      </trkpt>
      <trkpt lat="47.01554" lon="3.33462">
        <ele>246.72148132324</ele>
        <time>2016-03-02T15:31:22.000Z</time>
      </trkpt>
      <trkpt lat="47.01553" lon="3.33459">
        <ele>246.79931640625</ele>
        <time>2016-03-02T15:31:23.000Z</time>
      </trkpt>
      <trkpt lat="47.01551" lon="3.33454">
        <ele>246.87702941895</ele>
        <time>2016-03-02T15:31:27.000Z</time>
      </trkpt>
      <trkpt lat="47.01551" lon="3.33448">
        <ele>246.96127319336</ele>
        <time>2016-03-02T15:31:29.000Z</time>
      </trkpt>
      <trkpt lat="47.01552" lon="3.33445">
        <ele>247.04943847656</ele>
        <time>2016-03-02T15:31:31.000Z</time>
      </trkpt>
      <trkpt lat="47.01552" lon="3.33441">
        <ele>247.1432800293</ele>
        <time>2016-03-02T15:31:34.000Z</time>
      </trkpt>
      <trkpt lat="47.01552" lon="3.33439">
        <ele>247.22912597656</ele>
        <time>2016-03-02T15:31:36.000Z</time>
      </trkpt>
      <trkpt lat="47.0155" lon="3.33436">
        <ele>247.30180358887</ele>
        <time>2016-03-02T15:31:39.000Z</time>
      </trkpt>
      <trkpt lat="47.0155" lon="3.33433">
        <ele>247.35739135742</ele>
        <time>2016-03-02T15:31:41.000Z</time>
      </trkpt>
      <trkpt lat="47.01549" lon="3.33431">
        <ele>247.40315246582</ele>
        <time>2016-03-02T15:31:44.000Z</time>
      </trkpt>
      <trkpt lat="47.01549" lon="3.3343">
        <ele>247.42915344238</ele>
        <time>2016-03-02T15:31:46.000Z</time>
      </trkpt>
      <trkpt lat="47.0155" lon="3.33429">
        <ele>247.46211242676</ele>
        <time>2016-03-02T15:32:01.000Z</time>
      </trkpt>
      <trkpt lat="47.01552" lon="3.33426">
        <ele>247.51347351074</ele>
        <time>2016-03-02T15:32:04.000Z</time>
      </trkpt>
      <trkpt lat="47.01553" lon="3.33425">
        <ele>247.57295227051</ele>
        <time>2016-03-02T15:32:06.000Z</time>
      </trkpt>
      <trkpt lat="47.01555" lon="3.33423">
        <ele>247.64875793457</ele>
        <time>2016-03-02T15:32:08.000Z</time>
      </trkpt>
      <trkpt lat="47.01557" lon="3.33418">
        <ele>247.75570678711</ele>
        <time>2016-03-02T15:32:11.000Z</time>
      </trkpt>
      <trkpt lat="47.01557" lon="3.33415">
        <ele>247.85897827148</ele>
        <time>2016-03-02T15:32:13.000Z</time>
      </trkpt>
      <trkpt lat="47.01558" lon="3.33412">
        <ele>247.9560546875</ele>
        <time>2016-03-02T15:32:17.000Z</time>
      </trkpt>
      <trkpt lat="47.01559" lon="3.33412">
        <ele>248.04423522949</ele>
        <time>2016-03-02T15:32:24.000Z</time>
      </trkpt>
      <trkpt lat="47.01559" lon="3.33412">
        <ele>248.04423522949</ele>
        <time>2016-03-02T15:32:44.000Z</time>
      </trkpt>
      <trkpt lat="47.01559" lon="3.33409">
        <ele>248.11178588867</ele>
        <time>2016-03-02T15:33:03.000Z</time>
      </trkpt>
      <trkpt lat="47.01559" lon="3.33409">
        <ele>248.11178588867</ele>
        <time>2016-03-02T15:33:23.000Z</time>
      </trkpt>
      <trkpt lat="47.0156" lon="3.33409">
        <ele>248.15556335449</ele>
        <time>2016-03-02T15:33:24.000Z</time>
      </trkpt>
      <trkpt lat="47.01561" lon="3.33412">
        <ele>248.19332885742</ele>
        <time>2016-03-02T15:33:27.000Z</time>
      </trkpt>
      <trkpt lat="47.01563" lon="3.33415">
        <ele>248.21875</ele>
        <time>2016-03-02T15:33:31.000Z</time>
      </trkpt>
      <trkpt lat="47.01563" lon="3.33415">
        <ele>248.21875</ele>
        <time>2016-03-02T15:33:51.000Z</time>
      </trkpt>
      <trkpt lat="47.01562" lon="3.33415">
        <ele>248.23120117188</ele>
        <time>2016-03-02T15:33:57.000Z</time>
      </trkpt>
      <trkpt lat="47.01561" lon="3.33413">
        <ele>248.23954772949</ele>
        <time>2016-03-02T15:34:00.000Z</time>
      </trkpt>
      <trkpt lat="47.0156" lon="3.33412">
        <ele>248.23522949219</ele>
        <time>2016-03-02T15:34:02.000Z</time>
      </trkpt>
      <trkpt lat="47.01561" lon="3.33409">
        <ele>248.23526000977</ele>
        <time>2016-03-02T15:34:06.000Z</time>
      </trkpt>
      <trkpt lat="47.01561" lon="3.33409">
        <ele>248.23526000977</ele>
        <time>2016-03-02T15:34:26.000Z</time>
      </trkpt>
      <trkpt lat="47.01561" lon="3.33412">
        <ele>248.23226928711</ele>
        <time>2016-03-02T15:34:50.000Z</time>
      </trkpt>
      <trkpt lat="47.01561" lon="3.33412">
        <ele>248.23226928711</ele>
        <time>2016-03-02T15:35:10.000Z</time>
      </trkpt>
    </trkseg>
  </trk>
</gpx>